<
# Wetter Temperatur Luftdruck Luftfeuchtigkeit Sichtweite Windgeschwindigkeit Windrichtung Zeit
1 Clouds 19 1019 77 10000 3.6 30 19:56 17.10.2019
2 Clouds 19 1019 77 10000 3.6 30 19:38 17.10.2019
3 Clouds 19 1019 77 10000 4.6 40 19:19 17.10.2019
4 Clouds 19 1019 77 10000 6.2 20 18:43 17.10.2019
5 Clouds 19 1019 77 10000 5.7 10 18:21 17.10.2019
6 Clouds 20 1018 77 10000 4.6 30 17:58 17.10.2019
7 Clouds 20 1018 77 10000 4.6 30 17:40 17.10.2019
8 Clouds 20 1018 73 10000 3.6 30 17:22 17.10.2019
9 Clouds 20 1018 73 10000 5.1 10 16:55 17.10.2019
10 Clouds 20 1018 73 10000 5.1 10 16:36 17.10.2019
11 Clouds 21 1018 73 10000 5.7 20 16:18 17.10.2019
12 -273 0 0 0 0 0 15:41 17.10.2019
13 Clouds 21 1018 68 10000 4.6 20 15:21 17.10.2019
14 Clouds 21 1018 68 10000 4.6 20 14:59 17.10.2019
15 Clouds 21 1018 68 10000 4.6 20 14:59 17.10.2019
16 Clouds 21 1018 64 10000 3.6 20 14:41 17.10.2019
17 Clouds 21 1018 68 10000 4.1 20 14:23 17.10.2019
18 Clouds 21 1018 68 10000 3.1 40 13:42 17.10.2019
19 Clouds 21 1018 68 10000 4.1 210 13:21 17.10.2019
20 Clouds 21 1018 68 10000 4.1 210 12:59 17.10.2019
21 Clouds 21 1018 68 10000 2.6 200 12:40 17.10.2019
22 Clouds 21 1019 64 10000 2.1 0 12:20 17.10.2019
23 Clouds 21 1019 64 10000 1.5 90 11:57 17.10.2019
24 Clouds 21 1019 64 10000 1.5 90 11:39 17.10.2019
25 Clouds 20 1019 68 10000 2.1 100 11:18 17.10.2019
26 Clouds 20 1019 72 10000 3.1 110 10:42 17.10.2019
27 Clouds 20 1019 72 10000 3.1 110 10:21 17.10.2019
28 Clouds 20 1019 72 10000 3.1 110 10:21 17.10.2019
29 Clouds 20 1019 68 10000 2.6 80 09:59 17.10.2019
30 Clouds 20 1019 68 10000 2.6 80 09:41 17.10.2019
31 Clouds 20 1019 68 10000 2.6 80 09:41 17.10.2019
32 Clouds 19 1019 72 10000 2.6 70 09:21 17.10.2019
33 Clouds 19 1019 72 10000 2.6 70 08:58 17.10.2019
34 Clouds 19 1019 72 10000 2.6 70 08:39 17.10.2019
35 Clouds 19 1018 77 10000 2.6 70 08:19 17.10.2019
36 Clouds 19 1018 77 10000 2.1 80 07:50 17.10.2019
37 Clouds 19 1018 77 10000 1.5 70 07:21 17.10.2019
38 Clouds 19 1018 77 10000 1.5 70 07:21 17.10.2019
39 Clouds 19 1018 77 10000 1.5 30 06:59 17.10.2019
40 Clouds 19 1018 77 10000 1.5 30 06:39 17.10.2019
41 Clouds 19 1018 77 10000 2.1 20 06:20 17.10.2019
42 Clouds 19 1018 77 10000 1.5 30 05:46 17.10.2019
43 Clouds 19 1018 77 10000 2.1 10 05:28 17.10.2019
44 Clouds 19 1018 77 10000 1 40 04:50 17.10.2019
45 Clouds 19 1017 77 10000 2.1 20 03:52 17.10.2019
46 Clouds 19 1017 77 10000 3.1 20 02:35 17.10.2019
47 Clouds 19 1017 77 10000 3.1 20 00:54 17.10.2019
48 Clouds 19 1017 77 10000 3.1 20 00:36 17.10.2019
49 Clouds 19 1017 77 10000 3.6 20 00:18 17.10.2019
50 Clouds 19 1017 77 10000 3.1 20 23:42 16.10.2019
51 Clouds 19 1017 77 10000 2.6 30 23:20 16.10.2019
52 Clouds 19 1018 77 10000 3.1 30 22:55 16.10.2019
53 Clouds 19 1018 77 10000 3.1 30 22:36 16.10.2019
54 Clouds 19 1018 77 10000 2.6 30 22:18 16.10.2019
55 Clouds 19 1018 77 10000 3.1 40 21:55 16.10.2019
56 Clouds 19 1018 72 10000 3.1 30 21:37 16.10.2019
57 Clouds 19 1018 72 10000 3.1 30 21:18 16.10.2019
58 Clouds 19 1017 77 10000 4.1 20 20:56 16.10.2019
59 Clouds 19 1017 77 10000 4.1 20 20:38 16.10.2019
60 Clouds 19 1017 77 10000 4.1 30 20:20 16.10.2019
61 Clouds 19 1017 77 10000 4.1 30 19:42 16.10.2019
62 Clouds 19 1017 77 10000 4.1 30 19:21 16.10.2019
63 Clouds 19 1017 77 10000 4.1 30 19:21 16.10.2019
64 Clouds 19 1017 77 10000 3.6 30 18:58 16.10.2019
65 Clouds 19 1017 77 10000 3.6 30 18:39 16.10.2019
66 Clouds 19 1017 72 10000 5.1 30 18:19 16.10.2019
67 Clouds 19 1017 72 10000 5.1 30 18:19 16.10.2019
68 Clouds 19 1017 68 10000 4.6 20 17:56 16.10.2019
69 Clouds 19 1017 68 10000 4.6 20 17:37 16.10.2019
70 Clouds 19 1017 68 10000 4.6 20 17:19 16.10.2019
71 Clouds 20 1017 64 10000 5.1 20 16:57 16.10.2019
72 Clouds 20 1017 64 10000 5.1 20 16:38 16.10.2019
73 Clouds 20 1017 68 10000 3.1 30 16:20 16.10.2019
74 Clouds 20 1017 73 10000 2.6 250 15:42 16.10.2019
75 Clouds 20 1017 73 10000 2.6 250 15:41 16.10.2019
76 Clouds 20 1017 73 10000 2.6 250 15:41 16.10.2019
77 Clouds 20 1017 68 10000 2.1 190 15:20 16.10.2019
78 Clouds 20 1017 68 10000 2.1 190 14:59 16.10.2019
79 Clouds 20 1017 68 10000 2.1 190 14:41 16.10.2019
80 Clouds 21 1017 68 10000 1.5 0 14:23 16.10.2019
81 Clouds 21 1017 68 10000 1.5 0 13:59 16.10.2019
82 -273 0 0 0 0 0 13:41 16.10.2019
83 Clouds 21 1017 68 10000 2.6 120 13:22 16.10.2019
84 Clouds 21 1018 68 10000 2.1 70 12:44 16.10.2019
85 Clouds 21 1018 68 10000 2.6 60 12:20 16.10.2019
86 Clouds 20 1018 77 10000 2.1 100 11:58 16.10.2019
87 Clouds 20 1018 77 10000 2.1 100 11:40 16.10.2019
88 Clouds 20 1018 77 10000 2.6 120 11:18 16.10.2019
89 Clouds 20 1018 77 10000 2.1 110 10:37 16.10.2019
90 Clouds 20 1018 72 10000 3.1 50 10:19 16.10.2019
91 Clouds 19 1018 72 10000 4.1 60 09:41 16.10.2019
92 Clouds 19 1018 72 10000 4.1 50 09:22 16.10.2019
93 Clouds 19 1018 72 10000 4.1 50 08:58 16.10.2019
94 Clouds 19 1018 77 7000 3.6 60 08:40 16.10.2019
95 Clouds 19 1018 77 10000 3.6 70 08:21 16.10.2019
96 Clouds 19 1018 77 6000 3.1 80 07:43 16.10.2019
97 Clouds 19 1017 77 6000 3.6 40 07:24 16.10.2019
98 Clouds 19 1018 77 7000 3.1 60 06:56 16.10.2019
99 Clouds 19 1018 77 7000 3.1 60 06:56 16.10.2019
100 Clouds 19 1018 77 7000 3.1 60 06:35 16.10.2019
101 Clouds 19 1018 77 6000 3.1 50 05:23 16.10.2019
102 Mist 18 1018 82 4000 4.1 70 02:57 16.10.2019
103 Mist 18 1018 82 4000 3.6 40 01:39 16.10.2019
104 Mist 18 1018 82 4000 3.6 40 01:18 16.10.2019
105 Mist 18 1018 82 4000 4.1 30 00:45 16.10.2019
106 Clouds 18 1018 82 10000 3.6 40 00:25 16.10.2019
107 Clear 18 1018 82 10000 3.6 20 23:39 15.10.2019
108 Clear 18 1018 82 10000 3.6 30 23:21 15.10.2019
109 Clear 18 1018 82 10000 3.6 30 23:21 15.10.2019
110 Clear 18 1018 82 10000 3.6 30 22:55 15.10.2019
111 Clear 18 1018 82 10000 3.6 30 22:37 15.10.2019
112 Clear 18 1018 82 10000 3.6 30 22:19 15.10.2019
113 Clear 18 1018 82 10000 4.6 30 21:55 15.10.2019
114 Clear 18 1018 82 10000 4.6 30 21:55 15.10.2019
115 Clear 18 1018 82 10000 4.6 30 21:37 15.10.2019
116 Clear 18 1018 82 10000 4.1 30 21:19 15.10.2019
117 Clear 18 1018 82 10000 4.6 30 20:57 15.10.2019
118 Clear 18 1018 82 10000 4.6 30 20:38 15.10.2019
119 Clear 18 1018 77 10000 4.6 30 20:19 15.10.2019
120 Clear 19 1018 77 10000 4.6 30 19:56 15.10.2019
121 Clear 19 1018 77 10000 4.6 30 19:56 15.10.2019
122 Clear 19 1018 77 10000 4.6 30 19:37 15.10.2019
123 Clear 19 1018 77 10000 4.6 30 19:19 15.10.2019
124 Clear 19 1018 77 10000 5.7 30 18:44 15.10.2019
125 Clouds 19 1018 77 10000 5.1 30 18:26 15.10.2019
126 Clouds 19 1017 72 10000 5.7 20 17:58 15.10.2019
127 Clouds 19 1017 72 10000 5.7 20 17:38 15.10.2019
128 Clear 20 1017 68 10000 4.6 30 17:19 15.10.2019
129 Clear 20 1017 64 10000 5.1 20 16:46 15.10.2019
130 Clear 20 1017 64 10000 2.1 0 16:23 15.10.2019
131 Clear 20 1017 64 10000 2.1 0 15:59 15.10.2019
132 Clear 20 1018 73 10000 2.1 210 15:41 15.10.2019
133 Clear 20 1018 73 10000 2.1 210 15:41 15.10.2019
134 Clear 21 1018 73 10000 1.5 0 15:20 15.10.2019
135 Clear 21 1018 73 10000 2.6 170 14:57 15.10.2019
136 Clear 21 1018 73 10000 2.6 170 14:38 15.10.2019
137 Clear 21 1019 73 10000 2.1 160 14:19 15.10.2019
138 Clear 20 1019 72 10000 3.1 150 13:44 15.10.2019
139 Clear 20 1019 77 10000 3.6 150 13:21 15.10.2019
140 Clear 20 1019 77 10000 3.1 130 12:59 15.10.2019
141 Clear 20 1019 77 10000 3.1 130 12:39 15.10.2019
142 Clear 20 1020 77 10000 2.6 110 12:21 15.10.2019
143 Clouds 20 1020 77 10000 3.6 120 11:55 15.10.2019
144 Clouds 20 1020 77 10000 3.6 120 11:37 15.10.2019
145 Clouds 20 1020 77 10000 3.1 110 11:18 15.10.2019
146 Clouds 19 1020 77 8000 2.6 120 10:42 15.10.2019
147 Clouds 18 1020 77 8000 2.6 110 10:19 15.10.2019
148 Clouds 18 1020 77 8000 2.6 70 09:57 15.10.2019
149 Clouds 18 1020 77 8000 2.6 70 09:37 15.10.2019
150 Mist 18 1020 82 8000 2.6 60 09:19 15.10.2019
151 Mist 18 1020 82 6000 3.1 80 08:42 15.10.2019
152 Mist 18 1020 82 6000 3.1 80 08:22 15.10.2019
153 Mist 17 1020 82 4000 2.6 70 07:56 15.10.2019
154 -273 0 0 0 0 0 07:56 15.10.2019
155 Mist 17 1020 82 4000 2.6 70 07:56 15.10.2019
156 Mist 17 1020 82 4000 2.6 70 07:38 15.10.2019
157 Mist 17 1020 82 4000 2.1 70 07:19 15.10.2019
158 Mist 17 1020 93 4000 0.5 0 06:44 15.10.2019
159 Mist 17 1020 87 4000 1 340 06:24 15.10.2019
160 Mist 16 1020 93 4000 1 350 05:41 15.10.2019
161 Mist 16 1020 93 4000 2.1 350 05:22 15.10.2019
162 Mist 17 1020 93 4000 2.6 350 04:23 15.10.2019
163 Mist 16 1020 100 10000 2.1 350 03:37 15.10.2019
164 Mist 16 1020 93 4000 1.5 20 02:23 15.10.2019
165 Mist 16 1020 93 4000 2.1 360 01:47 15.10.2019
166 Clear 17 1020 87 10000 2.1 10 01:19 15.10.2019
167 Clear 16 1020 93 10000 2.1 360 00:48 15.10.2019
168 Clear 17 1020 82 10000 2.1 20 00:21 15.10.2019
169 Clear 17 1020 82 10000 2.6 20 23:43 14.10.2019
170 Clear 17 1020 82 10000 3.6 20 23:20 14.10.2019
171 Clear 17 1021 82 10000 3.6 20 22:55 14.10.2019
172 Clear 18 1021 82 10000 3.1 20 22:37 14.10.2019
173 Clear 17 1021 82 10000 3.1 20 22:18 14.10.2019
174 Clear 18 1021 77 10000 3.1 30 21:41 14.10.2019
175 Clear 18 1021 77 10000 4.6 30 21:22 14.10.2019
176 Clear 18 1021 77 10000 4.6 30 20:59 14.10.2019
177 Clear 18 1021 77 10000 5.1 20 20:40 14.10.2019
178 Clear 18 1021 77 10000 5.1 30 20:21 14.10.2019
179 Clear 19 1021 77 10000 5.1 20 19:59 14.10.2019
180 Clouds 19 1021 77 10000 5.1 20 19:40 14.10.2019
181 Clouds 19 1021 77 10000 5.7 20 19:22 14.10.2019
182 Clear 19 1021 77 10000 6.2 20 18:58 14.10.2019
183 Clear 19 1020 72 10000 6.7 10 18:38 14.10.2019
184 Clear 19 1020 72 10000 6.7 10 18:19 14.10.2019
185 Clear 20 1020 72 10000 5.7 20 17:44 14.10.2019
186 Clear 20 1020 68 10000 5.1 30 17:26 14.10.2019
187 Clear 21 1020 64 10000 6.2 20 16:59 14.10.2019
188 -273 0 0 0 0 0 16:40 14.10.2019
189 Clear 21 1020 64 10000 5.1 10 16:20 14.10.2019
190 Clear 21 1020 64 10000 5.1 10 16:20 14.10.2019
191 Clear 22 1020 60 10000 5.1 20 15:42 14.10.2019
192 Clear 22 1020 56 10000 5.1 20 15:22 14.10.2019
193 Clear 23 1021 57 10000 4.6 10 14:56 14.10.2019
194 Clear 23 1021 57 10000 4.6 10 14:56 14.10.2019
195 Clear 23 1021 57 10000 4.6 10 14:38 14.10.2019
196 Clear 23 1021 53 10000 3.6 30 14:18 14.10.2019
197 Clear 23 1021 57 10000 3.6 360 13:42 14.10.2019
198 Clear 23 1021 57 10000 3.1 360 13:21 14.10.2019
199 Clear 22 1022 64 10000 2.1 220 12:54 14.10.2019
200 Clear 22 1022 64 10000 2.1 220 12:36 14.10.2019
201 Clear 22 1022 64 10000 2.6 130 12:18 14.10.2019
202 Clear 21 1022 68 10000 3.1 130 11:44 14.10.2019
203 Clear 21 1023 73 10000 2.6 100 11:24 14.10.2019
204 Clear 21 1023 64 10000 2.1 0 10:55 14.10.2019
205 Clear 20 1023 68 10000 3.1 50 10:37 14.10.2019
206 Clear 20 1023 68 10000 3.1 50 10:18 14.10.2019
207 Clear 19 1023 72 10000 3.6 60 09:41 14.10.2019
208 Clear 19 1023 72 10000 3.6 60 09:41 14.10.2019
209 Clear 19 1023 72 10000 4.1 50 09:20 14.10.2019
210 Clear 18 1023 77 10000 3.6 50 08:49 14.10.2019
211 Fog 18 1023 77 10000 3.1 40 08:23 14.10.2019
212 Fog 17 1023 82 10000 2.1 50 07:47 14.10.2019
213 Fog 17 1022 88 10000 2.1 20 07:25 14.10.2019
214 Fog 16 1022 88 10000 2.1 30 06:57 14.10.2019
215 Mist 16 1022 88 10000 2.6 50 06:28 14.10.2019
216 Mist 16 1022 88 10000 2.1 30 05:56 14.10.2019
217 Mist 16 1022 88 10000 2.6 30 05:25 14.10.2019
218 Fog 16 1022 88 10000 3.1 30 03:50 14.10.2019
219 Fog 16 1022 88 10000 3.6 20 03:23 14.10.2019
220 Mist 17 1022 88 10000 3.6 20 02:31 14.10.2019
221 Clear 17 1022 93 10000 3.1 10 01:21 14.10.2019
222 Clear 18 1022 88 10000 4.1 20 00:42 14.10.2019
223 Clear 17 1022 88 10000 3.6 10 00:18 14.10.2019
224 Clear 18 1023 82 10000 3.1 20 23:40 13.10.2019
225 Clear 18 1023 82 10000 3.1 20 23:19 13.10.2019
226 Clear 18 1023 82 10000 3.1 20 23:19 13.10.2019
227 Clear 18 1023 82 10000 3.6 40 22:57 13.10.2019
228 Clear 18 1023 82 10000 3.6 40 22:57 13.10.2019
229 Clear 18 1023 82 10000 3.6 40 22:39 13.10.2019
230 Clear 17 1023 82 10000 4.1 30 22:20 13.10.2019
231 Clear 17 1023 82 10000 3.6 40 21:57 13.10.2019
232 Clear 18 1023 82 10000 3.6 40 21:36 13.10.2019
233 Clear 18 1023 77 10000 5.1 30 21:18 13.10.2019
234 Clear 18 1023 77 10000 5.1 30 20:56 13.10.2019
235 Clear 18 1023 77 10000 5.1 30 20:37 13.10.2019
236 Clear 18 1023 77 10000 5.1 30 20:37 13.10.2019
237 Clear 18 1023 77 10000 5.1 30 20:37 13.10.2019
238 Clear 18 1023 77 10000 5.1 30 20:18 13.10.2019
239 Clear 18 1023 77 10000 5.1 40 19:55 13.10.2019
240 Clear 18 1023 77 10000 5.1 40 19:36 13.10.2019
241 Clear 18 1023 77 10000 5.1 40 19:36 13.10.2019
242 Clear 19 1023 77 10000 5.7 30 19:18 13.10.2019
243 Clear 19 1022 72 10000 6.2 30 18:41 13.10.2019
244 Clear 19 1022 72 10000 6.2 30 18:21 13.10.2019
245 Clear 19 1022 72 10000 5.7 30 17:59 13.10.2019
246 -273 0 0 0 0 0 17:41 13.10.2019
247 Clear 20 1022 72 10000 5.7 30 17:41 13.10.2019
248 Clear 20 1022 68 10000 6.2 20 17:23 13.10.2019
249 Clear 21 1022 64 10000 7.7 20 16:44 13.10.2019
250 Clear 21 1022 60 10000 7.2 10 16:20 13.10.2019
251 Clear 22 1022 56 10000 6.2 20 15:58 13.10.2019
252 Clear 22 1022 56 10000 6.2 20 15:39 13.10.2019
253 Clear 22 1022 56 10000 6.2 20 15:39 13.10.2019
254 Clear 22 1022 56 10000 6.2 30 15:20 13.10.2019
255 Clear 22 1022 53 10000 6.2 20 14:58 13.10.2019
256 Clear 22 1022 53 10000 6.2 20 14:39 13.10.2019
257 Clear 23 1022 53 10000 5.1 20 14:21 13.10.2019
258 Clear 23 1023 53 10000 5.7 10 13:56 13.10.2019
259 Clear 23 1023 47 10000 4.6 30 13:37 13.10.2019
260 Clear 23 1023 47 10000 4.6 30 13:18 13.10.2019
261 Clear 22 1023 50 10000 4.6 50 12:55 13.10.2019
262 Clear 22 1023 50 10000 4.6 50 12:37 13.10.2019
263 Clear 22 1023 47 10000 4.1 60 12:18 13.10.2019
264 Clear 22 1023 49 10000 4.1 50 11:55 13.10.2019
265 Clear 22 1023 49 10000 4.1 50 11:37 13.10.2019
266 Clear 21 1024 53 10000 4.1 20 11:18 13.10.2019
267 Clear 20 1024 60 10000 5.1 10 10:41 13.10.2019
268 Clear 20 1024 64 10000 4.1 50 10:22 13.10.2019
269 Clear 19 1024 68 10000 4.6 60 09:41 13.10.2019
270 Clear 19 1024 72 10000 4.1 60 09:21 13.10.2019
271 Clear 18 1024 77 10000 3.6 40 08:58 13.10.2019
272 Clear 18 1024 77 10000 3.6 40 08:38 13.10.2019
273 Clear 18 1024 82 10000 2.1 30 08:19 13.10.2019
274 Mist 16 1024 82 10000 2.1 10 07:46 13.10.2019
275 Fog 16 1023 87 10000 2.6 20 06:59 13.10.2019
276 Fog 16 1023 87 10000 2.6 20 06:41 13.10.2019
277 Clear 16 1023 82 10000 3.1 20 05:39 13.10.2019
278 Clear 16 1023 82 10000 3.1 20 04:46 13.10.2019
279 Clear 16 1024 82 10000 3.1 20 03:40 13.10.2019
280 Clear 17 1024 77 10000 4.1 40 02:39 13.10.2019
281 Clear 16 1024 82 10000 3.6 30 01:53 13.10.2019
282 Clear 16 1024 82 10000 3.6 20 01:26 13.10.2019
283 Clear 16 1024 82 10000 3.6 20 01:26 13.10.2019
284 Clear 17 1024 82 10000 3.1 10 00:46 13.10.2019
285 Clear 17 1024 82 10000 3.1 10 00:21 13.10.2019
286 Clear 17 1024 82 10000 3.1 10 23:55 12.10.2019
287 Clear 17 1024 82 10000 3.1 10 23:36 12.10.2019
288 Clear 17 1025 82 10000 2.6 20 23:18 12.10.2019
289 Clear 17 1025 72 10000 2.6 30 22:56 12.10.2019
290 Clear 17 1025 72 10000 2.6 30 22:37 12.10.2019
291 Clear 17 1025 72 10000 3.1 40 22:19 12.10.2019
292 Clear 17 1025 72 10000 3.6 50 21:42 12.10.2019
293 Clear 17 1025 72 10000 4.1 50 21:24 12.10.2019
294 Clear 18 1025 72 10000 4.6 50 20:58 12.10.2019
295 Clear 18 1025 72 10000 4.6 50 20:58 12.10.2019
296 Clear 18 1025 72 10000 4.6 50 20:39 12.10.2019
297 Clear 18 1025 68 10000 4.6 50 20:21 12.10.2019
298 Clear 18 1025 68 10000 5.1 50 19:37 12.10.2019
299 Clear 18 1025 68 10000 6.2 50 19:19 12.10.2019
300 Clear 18 1025 68 10000 6.2 50 18:56 12.10.2019
301 Clear 19 1025 68 10000 6.2 50 18:36 12.10.2019
302 Clear 19 1024 68 10000 6.7 40 18:18 12.10.2019
303 Clear 19 1024 64 10000 7.2 50 17:42 12.10.2019
304 Clear 20 1024 64 10000 6.7 20 17:19 12.10.2019
305 Clear 20 1024 64 10000 7.2 20 16:41 12.10.2019
306 Clear 20 1024 64 10000 7.2 20 16:41 12.10.2019
307 Clear 20 1024 60 10000 6.7 30 16:22 12.10.2019
308 Clear 21 1024 56 10000 7.2 30 15:59 12.10.2019
309 Clear 21 1024 56 10000 7.2 30 15:40 12.10.2019
310 Clear 21 1024 56 10000 7.2 30 15:21 12.10.2019
311 Clear 22 1025 49 10000 5.7 40 14:41 12.10.2019
312 Clear 22 1024 49 10000 5.1 40 14:22 12.10.2019
313 Clear 22 1024 49 10000 5.1 40 14:21 12.10.2019
314 Clear 22 1025 49 10000 5.1 30 13:53 12.10.2019
315 Clear 22 1025 49 10000 5.1 30 13:33 12.10.2019
316 Clear 22 1025 46 10000 4.6 50 12:59 12.10.2019
317 Clear 22 1025 46 10000 4.6 50 12:59 12.10.2019
318 Clear 22 1025 46 10000 4.6 50 12:38 12.10.2019
319 Clear 22 1025 46 10000 5.1 10 12:20 12.10.2019
320 Clear 21 1026 49 10000 4.6 60 11:58 12.10.2019
321 Clear 21 1026 49 10000 4.6 60 11:38 12.10.2019
322 Clear 21 1026 49 10000 4.6 60 11:38 12.10.2019
323 Clear 21 1026 53 10000 5.1 70 11:18 12.10.2019
324 Clouds 21 1026 52 10000 5.1 60 10:41 12.10.2019
325 Clouds 21 1026 60 10000 6.2 60 10:23 12.10.2019
326 Clear 20 1026 68 10000 5.7 60 09:57 12.10.2019
327 Clear 20 1026 68 10000 5.7 60 09:57 12.10.2019
328 Clear 20 1026 68 10000 5.7 60 09:38 12.10.2019
329 Clouds 20 1026 68 10000 5.1 60 09:19 12.10.2019
330 Clear 19 1026 68 10000 6.2 60 08:44 12.10.2019
331 Clear 18 1026 68 10000 4.1 50 08:25 12.10.2019
332 Clear 18 1026 72 10000 3.1 60 07:57 12.10.2019
333 Clear 18 1026 77 10000 3.6 50 07:31 12.10.2019
334 Clear 17 1025 77 10000 3.1 40 06:28 12.10.2019
335 Clear 17 1025 82 10000 3.6 40 05:43 12.10.2019
336 Clear 17 1025 82 10000 4.1 30 04:34 12.10.2019
337 Clear 17 1025 82 10000 4.6 40 03:53 12.10.2019
338 Clear 18 1025 82 10000 4.6 50 02:45 12.10.2019
339 Clear 18 1025 82 10000 4.6 40 01:32 12.10.2019
340 Clear 18 1025 82 10000 3.6 40 00:55 12.10.2019
341 Clear 18 1025 82 10000 3.6 40 00:37 12.10.2019
342 Clear 18 1025 77 10000 4.1 30 23:55 11.10.2019
343 Clear 18 1025 77 10000 4.1 30 23:36 11.10.2019
344 Clear 18 1025 77 10000 4.1 30 23:18 11.10.2019
345 Clear 18 1025 77 10000 4.1 40 22:37 11.10.2019
346 Clouds 18 1025 77 10000 4.6 30 22:19 11.10.2019
347 Clouds 18 1025 77 10000 4.6 40 21:42 11.10.2019
348 Clouds 18 1025 77 10000 5.1 30 21:21 11.10.2019
349 Clouds 18 1025 77 10000 5.1 30 21:21 11.10.2019
350 Clouds 18 1025 77 10000 5.7 30 20:57 11.10.2019
351 Clouds 18 1025 77 10000 5.7 30 20:38 11.10.2019
352 Clouds 18 1025 77 10000 5.7 30 20:38 11.10.2019
353 Clouds 19 1025 77 10000 4.6 30 20:19 11.10.2019
354 Clouds 19 1024 77 10000 4.1 30 19:55 11.10.2019
355 Clouds 19 1024 77 10000 4.1 30 19:36 11.10.2019
356 Clouds 19 1024 77 10000 5.1 30 19:18 11.10.2019
357 Clouds 19 1024 77 10000 5.1 30 19:18 11.10.2019
358 Clouds 19 1024 77 10000 5.1 30 19:18 11.10.2019
359 Clouds 19 1024 77 10000 5.1 30 19:18 11.10.2019
360 Clouds 19 1024 77 10000 5.1 30 19:18 11.10.2019
361 Clouds 19 1024 77 10000 4.6 20 18:54 11.10.2019
362 Clouds 19 1024 77 10000 4.6 20 18:36 11.10.2019
363 Clouds 19 1024 72 10000 6.2 30 18:18 11.10.2019
364 Clouds 20 1023 72 10000 5.7 20 17:55 11.10.2019
365 Clouds 20 1023 72 10000 5.7 20 17:36 11.10.2019
366 Clouds 20 1023 72 10000 6.2 20 17:18 11.10.2019
367 Clouds 20 1023 64 10000 6.7 20 16:40 11.10.2019
368 Clouds 20 1023 68 10000 6.2 30 16:19 11.10.2019
369 Clouds 20 1023 64 10000 7.7 20 15:58 11.10.2019
370 Clouds 21 1023 64 10000 7.7 20 15:38 11.10.2019
371 Clouds 21 1023 64 10000 8.2 20 15:18 11.10.2019
372 Clouds 21 1023 60 10000 7.2 10 14:44 11.10.2019
373 Clouds 22 1023 60 10000 6.2 20 14:25 11.10.2019
374 Clouds 21 1023 60 10000 6.2 20 13:47 11.10.2019
375 Clouds 21 1022 64 10000 6.2 30 13:27 11.10.2019
376 Clouds 21 1022 64 10000 6.2 30 12:59 11.10.2019
377 Clouds 21 1022 64 10000 6.2 30 12:41 11.10.2019
378 Clouds 21 1022 64 10000 8.2 20 12:22 11.10.2019
379 Clouds 21 1022 60 10000 7.2 20 11:59 11.10.2019
380 Clouds 21 1022 60 10000 7.2 20 11:39 11.10.2019
381 Clouds 21 1022 64 10000 6.2 20 11:21 11.10.2019
382 Rain 20 1022 73 10000 6.2 360 10:56 11.10.2019
383 Rain 20 1022 73 10000 5.1 360 10:38 11.10.2019
384 Rain 20 1022 73 10000 5.1 360 10:19 11.10.2019
385 Rain 20 1022 88 10000 4.1 340 09:54 11.10.2019
386 Rain 20 1022 88 10000 4.1 340 09:54 11.10.2019
387 Rain 20 1022 88 10000 4.1 340 09:36 11.10.2019
388 Clouds 19 1021 82 10000 2.1 320 09:18 11.10.2019
389 Clouds 19 1021 82 10000 1 0 08:39 11.10.2019
390 Clouds 19 1021 82 10000 3.1 330 08:21 11.10.2019
391 Clouds 18 1020 93 10000 1.5 300 07:58 11.10.2019
392 Clouds 18 1020 93 10000 1 0 07:40 11.10.2019
393 Clouds 18 1020 93 10000 1 0 07:20 11.10.2019
394 Clouds 18 1019 93 10000 1 0 06:43 11.10.2019
395 Clouds 18 1019 93 10000 2.1 250 06:21 11.10.2019
396 Clear 18 1018 93 10000 2.1 220 05:32 11.10.2019
397 Clear 18 1018 93 10000 1.5 240 04:59 11.10.2019
398 Clear 17 1018 93 10000 0.5 230 03:46 11.10.2019
399 Clear 17 1018 88 10000 1 190 01:58 11.10.2019
400 Clear 17 1018 93 10000 1 0 00:42 11.10.2019
401 Clear 17 1018 88 10000 0.5 0 00:23 11.10.2019
402 Clear 17 1018 93 10000 1 0 23:42 10.10.2019
403 Clear 17 1018 93 10000 1 170 23:20 10.10.2019
404 Clear 18 1018 88 10000 1 0 22:57 10.10.2019
405 Clear 18 1018 88 10000 1 0 22:37 10.10.2019
406 Clear 18 1018 82 10000 1.5 150 22:19 10.10.2019
407 Clear 17 1018 88 10000 1.5 120 21:54 10.10.2019
408 Clear 17 1018 88 10000 1.5 120 21:36 10.10.2019
409 Clear 18 1018 88 10000 1.5 100 21:18 10.10.2019
410 Clear 18 1018 88 10000 1 0 20:41 10.10.2019
411 Clear 18 1018 88 10000 1.5 180 20:21 10.10.2019
412 Clear 18 1018 88 10000 1 0 19:58 10.10.2019
413 Clear 19 1018 88 10000 1 0 19:39 10.10.2019
414 Clear 19 1018 77 10000 2.6 230 19:19 10.10.2019
415 Clear 19 1018 72 10000 3.1 220 18:54 10.10.2019
416 Clear 19 1018 72 10000 3.1 220 18:36 10.10.2019
417 Clouds 20 1018 68 10000 2.1 220 18:36 10.10.2019
418 Clouds 20 1018 68 10000 2.1 220 18:18 10.10.2019
419 Clouds 21 1018 64 10000 2.6 220 17:41 10.10.2019
420 Clouds 21 1018 60 10000 3.6 250 17:20 10.10.2019
421 Clouds 21 1018 64 10000 4.1 250 16:58 10.10.2019
422 Clouds 22 1018 64 10000 4.1 250 16:40 10.10.2019
423 Clouds 22 1018 64 10000 4.1 240 16:21 10.10.2019
424 Clouds 22 1018 64 10000 5.1 250 15:43 10.10.2019
425 Clouds 22 1018 64 10000 5.1 250 15:43 10.10.2019
426 Clear 22 1018 60 10000 5.1 240 15:24 10.10.2019
427 Clear 22 1018 64 10000 5.1 220 14:59 10.10.2019
428 Clear 22 1018 64 10000 5.1 220 14:37 10.10.2019
429 Clear 22 1019 60 10000 4.1 230 14:19 10.10.2019
430 Clouds 22 1019 68 10000 5.1 230 13:59 10.10.2019
431 Clouds 22 1019 68 10000 5.1 230 13:39 10.10.2019
432 Clouds 22 1019 68 10000 4.6 230 13:18 10.10.2019
433 Clouds 22 1019 68 10000 4.6 230 13:18 10.10.2019
434 Clouds 22 1019 68 10000 5.1 230 12:54 10.10.2019
435 Clouds 21 1019 68 10000 5.1 230 12:36 10.10.2019
436 Clouds 21 1020 73 10000 6.2 240 12:18 10.10.2019
437 Clouds 21 1020 68 10000 5.7 240 11:42 10.10.2019
438 Clouds 21 1020 73 10000 6.2 230 11:42 10.10.2019
439 Clouds 21 1020 73 10000 6.2 230 11:20 10.10.2019
440 Clouds 21 1020 73 10000 6.2 230 11:20 10.10.2019
441 Clouds 20 1020 73 10000 6.2 230 10:58 10.10.2019
442 Clear 20 1020 72 10000 5.1 220 10:40 10.10.2019
443 Clear 20 1020 72 10000 5.1 220 10:21 10.10.2019
444 Clear 20 1020 77 10000 5.1 230 09:41 10.10.2019
445 Clear 19 1020 77 10000 5.1 230 09:41 10.10.2019
446 Clear 19 1019 77 10000 5.1 230 09:23 10.10.2019
447 Clear 18 1019 72 10000 4.1 230 08:59 10.10.2019
448 Clear 18 1019 72 10000 4.1 230 08:41 10.10.2019
449 Clear 17 1019 82 10000 2.6 270 08:21 10.10.2019
450 Clear 16 1019 82 8000 3.6 240 07:57 10.10.2019
451 Clear 16 1019 82 8000 3.6 240 07:36 10.10.2019
452 Clouds 15 1018 82 8000 4.1 230 07:18 10.10.2019
453 Clouds 15 1018 93 8000 2.1 240 06:39 10.10.2019
454 Clear 15 1018 93 10000 1.5 260 05:56 10.10.2019
455 Clear 14 1019 93 10000 2.1 240 05:21 10.10.2019
456 Clear 14 1019 93 10000 1 0 04:36 10.10.2019
457 Clear 14 1019 93 10000 0.5 330 02:46 10.10.2019
458 Clear 14 1019 93 10000 1 20 01:38 10.10.2019
459 Clear 14 1020 87 10000 1 0 01:19 10.10.2019
460 Clear 14 1020 87 10000 1 10 00:39 10.10.2019
461 Clear 14 1020 87 10000 1.5 350 23:55 09.10.2019
462 Clear 15 1020 87 10000 1.5 350 23:36 09.10.2019
463 Clear 15 1020 87 10000 1.5 10 23:18 09.10.2019
464 Clear 15 1020 87 10000 1.5 10 23:18 09.10.2019
465 Clear 15 1020 87 10000 2.6 350 22:41 09.10.2019
466 Clear 16 1021 82 10000 1.5 20 22:22 09.10.2019
467 Clear 16 1021 77 10000 1 40 21:58 09.10.2019
468 Clear 16 1021 77 10000 1 40 21:39 09.10.2019
469 Clear 16 1021 77 10000 1 40 21:39 09.10.2019
470 Clear 16 1021 72 10000 2.1 60 21:19 09.10.2019
471 Clear 17 1021 72 10000 2.1 50 20:55 09.10.2019
472 Clear 17 1021 72 10000 2.1 50 20:37 09.10.2019
473 Clear 17 1021 68 10000 2.1 60 20:18 09.10.2019
474 Clear 17 1021 68 10000 2.1 60 20:18 09.10.2019
475 Clear 17 1021 68 10000 2.1 80 19:44 09.10.2019
476 Clear 17 1021 72 10000 1 0 19:23 09.10.2019
477 Clear 18 1021 72 10000 1.5 230 18:55 09.10.2019
478 Clear 18 1021 72 10000 1.5 230 18:37 09.10.2019
479 Clear 18 1021 72 10000 1.5 230 18:18 09.10.2019
480 Clear 19 1021 68 10000 2.1 240 17:40 09.10.2019
481 Clear 20 1021 68 10000 2.1 210 17:22 09.10.2019
482 Clouds 20 1020 68 10000 2.1 200 16:58 09.10.2019
483 Clouds 20 1020 68 10000 2.1 200 16:40 09.10.2019
484 Clouds 20 1021 56 10000 2.1 200 16:21 09.10.2019
485 Clouds 21 1021 56 10000 2.1 230 15:57 09.10.2019
486 Clouds 21 1021 56 10000 2.1 230 15:38 09.10.2019
487 Clouds 21 1021 56 10000 2.6 160 15:19 09.10.2019
488 Clouds 21 1022 60 10000 3.1 150 14:55 09.10.2019
489 Clouds 21 1022 60 10000 3.1 150 14:37 09.10.2019
490 Clouds 20 1022 60 10000 3.1 150 14:18 09.10.2019
491 Clouds 20 1022 60 10000 3.6 150 13:39 09.10.2019
492 Clouds 20 1022 64 10000 3.6 150 13:20 09.10.2019
493 Clouds 20 1023 60 10000 3.1 130 12:57 09.10.2019
494 Clouds 20 1023 60 10000 3.1 130 12:37 09.10.2019
495 Clear 20 1023 64 10000 3.1 110 12:19 09.10.2019
496 Clear 19 1024 68 10000 3.6 110 11:40 09.10.2019
497 Clear 19 1024 68 10000 3.6 110 11:21 09.10.2019
498 Clear 19 1024 68 10000 4.1 110 10:59 09.10.2019
499 Clear 19 1024 68 10000 4.1 110 10:40 09.10.2019
500 Clear 18 1024 72 10000 3.6 110 10:19 09.10.2019
501 Clear 18 1025 72 10000 4.6 100 09:56 09.10.2019
502 Clear 17 1025 72 10000 4.6 80 09:38 09.10.2019
503 Clear 17 1025 72 10000 4.6 80 09:38 09.10.2019
504 Clear 17 1025 72 10000 4.6 80 09:18 09.10.2019
505 Clear 16 1024 72 10000 4.6 80 08:39 09.10.2019
506 Clear 15 1024 77 10000 3.1 60 08:20 09.10.2019
507 Clear 15 1024 77 10000 3.1 60 08:20 09.10.2019
508 Mist 15 1024 77 10000 3.1 60 07:47 09.10.2019
509 Mist 15 1024 77 10000 3.1 60 07:47 09.10.2019
510 Mist 14 1024 82 10000 4.1 40 07:25 09.10.2019
511 Mist 14 1024 82 10000 4.1 40 07:25 09.10.2019
512 Clear 14 1024 82 10000 4.1 50 06:58 09.10.2019
513 Clear 14 1024 82 10000 4.1 50 06:40 09.10.2019
514 Clear 13 1024 82 10000 2.6 40 05:53 09.10.2019
515 Clear 14 1024 77 10000 3.6 50 05:18 09.10.2019
516 Clear 13 1024 87 10000 3.1 30 03:48 09.10.2019
517 Clear 14 1024 82 10000 3.1 60 02:34 09.10.2019
518 Clear 15 1024 82 10000 3.6 60 01:39 09.10.2019
519 Clear 15 1024 82 10000 3.6 60 01:39 09.10.2019
520 Clear 15 1025 82 10000 3.1 50 01:18 09.10.2019
521 Clouds 15 1025 82 10000 3.6 60 00:42 09.10.2019
522 Clear 15 1025 82 10000 4.1 60 00:23 09.10.2019
523 Clouds 15 1024 77 10000 4.1 80 23:58 08.10.2019
524 Clouds 15 1024 77 10000 4.1 80 23:38 08.10.2019
525 Clouds 15 1025 77 10000 4.1 50 23:18 08.10.2019
526 Clouds 15 1025 77 10000 4.1 50 23:18 08.10.2019
527 Clouds 15 1025 77 10000 3.6 60 22:55 08.10.2019
528 Clouds 15 1025 77 10000 3.6 60 22:36 08.10.2019
529 Clouds 15 1024 77 10000 4.6 70 22:18 08.10.2019
530 Clouds 15 1024 82 10000 5.1 70 21:55 08.10.2019
531 Clouds 15 1024 82 10000 5.1 70 21:36 08.10.2019
532 Clouds 15 1024 77 10000 5.7 60 21:18 08.10.2019
533 Drizzle 15 1024 82 10000 6.2 60 20:54 08.10.2019
534 Drizzle 15 1024 82 10000 6.2 60 20:36 08.10.2019
535 Clouds 15 1024 82 10000 5.7 60 20:18 08.10.2019
536 Clouds 15 1023 82 10000 6.2 60 19:41 08.10.2019
537 Drizzle 15 1023 82 10000 6.2 60 19:23 08.10.2019
538 Drizzle 15 1023 82 10000 5.1 60 18:57 08.10.2019
539 Drizzle 15 1023 82 10000 5.1 60 18:39 08.10.2019
540 Rain 15 1023 82 10000 5.7 60 18:19 08.10.2019
541 Rain 15 1022 87 10000 5.7 50 17:56 08.10.2019
542 Rain 15 1022 87 10000 5.7 50 17:56 08.10.2019
543 Rain 15 1022 87 10000 5.7 50 17:38 08.10.2019
544 Rain 15 1022 87 10000 6.7 40 17:18 08.10.2019
545 Clouds 15 1022 87 10000 5.7 40 16:41 08.10.2019
546 Clouds 15 1021 87 10000 5.7 40 16:22 08.10.2019
547 Rain 16 1021 87 8000 5.7 40 15:57 08.10.2019
548 Rain 16 1021 87 8000 5.7 40 15:38 08.10.2019
549 Rain 16 1021 93 7000 6.7 50 15:19 08.10.2019
550 Rain 15 1020 93 7000 6.7 40 14:42 08.10.2019
551 Rain 15 1020 93 7000 6.7 40 14:42 08.10.2019
552 Rain 15 1021 93 6000 9.8 40 14:21 08.10.2019
553 Rain 16 1020 93 1600 9.8 40 13:59 08.10.2019
554 Rain 16 1020 87 10000 6.2 360 13:39 08.10.2019
555 Rain 16 1019 82 10000 6.2 20 13:21 08.10.2019
556 Rain 16 1019 82 10000 5.7 20 12:59 08.10.2019
557 Rain 16 1019 82 10000 5.7 20 12:39 08.10.2019
558 Rain 16 1018 82 10000 7.7 20 12:19 08.10.2019
559 Rain 16 1018 87 8000 7.2 30 11:55 08.10.2019
560 Rain 16 1018 87 8000 7.2 30 11:37 08.10.2019
561 Rain 15 1018 87 8000 7.7 20 11:19 08.10.2019
562 Rain 15 1018 87 8000 8.2 20 10:40 08.10.2019
563 Rain 15 1017 87 8000 9.3 10 10:21 08.10.2019
564 Rain 15 1017 87 8000 9.8 10 09:58 08.10.2019
565 Rain 15 1017 87 8000 9.8 10 09:39 08.10.2019
566 Rain 15 1016 87 7000 9.3 10 09:20 08.10.2019
567 Rain 15 1016 93 7000 8.7 20 08:43 08.10.2019
568 Rain 15 1016 93 8000 6.2 30 08:25 08.10.2019
569 Rain 16 1016 87 6000 5.1 40 07:46 08.10.2019
570 Rain 16 1015 87 6000 7.2 50 07:23 08.10.2019
571 Rain 16 1015 87 8000 6.7 30 06:56 08.10.2019
572 Rain 16 1015 87 6000 5.7 40 06:34 08.10.2019
573 Rain 16 1015 87 7000 6.2 40 05:57 08.10.2019
574 Rain 16 1015 87 7000 6.2 40 05:57 08.10.2019
575 Rain 16 1015 87 7000 6.2 40 05:36 08.10.2019
576 Rain 17 1015 82 10000 5.1 60 04:36 08.10.2019
577 Rain 17 1014 72 10000 5.7 50 03:29 08.10.2019
578 Rain 17 1014 77 10000 5.7 50 02:39 08.10.2019
579 Rain 17 1015 77 10000 4.6 60 01:49 08.10.2019
580 Clouds 17 1015 77 10000 4.6 60 01:31 08.10.2019
581 Clouds 17 1015 77 10000 4.6 60 01:31 08.10.2019
582 Clouds 17 1014 77 10000 6.2 60 00:51 08.10.2019
583 Clouds 17 1014 77 10000 6.7 70 00:22 08.10.2019
584 Rain 17 1015 68 10000 6.2 70 23:42 07.10.2019
585 Rain 17 1015 72 10000 5.1 50 23:21 07.10.2019
586 Rain 17 1015 72 10000 5.1 50 23:21 07.10.2019
587 Rain 17 1014 72 10000 5.7 40 22:58 07.10.2019
588 Rain 17 1014 72 10000 5.7 40 22:40 07.10.2019
589 Rain 18 1014 72 10000 5.7 40 22:21 07.10.2019
590 Rain 18 1015 72 10000 5.7 30 21:58 07.10.2019
591 Rain 18 1015 72 10000 5.7 30 21:39 07.10.2019
592 Rain 18 1015 72 10000 6.2 40 21:20 07.10.2019
593 Rain 18 1015 72 10000 6.2 40 21:20 07.10.2019
594 Clouds 18 1014 72 10000 7.2 20 20:58 07.10.2019
595 Clouds 18 1014 72 10000 7.2 20 20:39 07.10.2019
596 Clouds 18 1014 72 10000 5.7 30 20:20 07.10.2019
597 Clear 18 1014 68 10000 5.7 30 19:58 07.10.2019
598 Clear 18 1014 68 10000 5.7 30 19:40 07.10.2019
599 Clouds 18 1013 68 10000 6.7 40 19:19 07.10.2019
600 Clouds 18 1013 68 10000 6.2 40 18:58 07.10.2019
601 Clouds 18 1013 68 10000 6.2 40 18:38 07.10.2019
602 Clouds 18 1013 68 10000 5.7 40 18:18 07.10.2019
603 Clouds 18 1013 68 10000 8.2 20 17:43 07.10.2019
604 Clouds 18 1013 68 10000 7.7 30 17:22 07.10.2019
605 Clouds 19 1013 63 10000 8.2 20 16:58 07.10.2019
606 Clouds 19 1013 63 10000 8.2 20 16:39 07.10.2019
607 Clouds 19 1013 63 10000 8.2 20 16:39 07.10.2019
608 Clouds 19 1012 63 10000 8.2 10 16:20 07.10.2019
609 Clouds 19 1012 60 10000 7.2 30 15:45 07.10.2019
610 Clouds 19 1012 60 10000 7.2 20 15:26 07.10.2019
611 Clouds 19 1012 60 10000 7.7 10 14:55 07.10.2019
612 Clouds 19 1012 60 10000 7.7 10 14:37 07.10.2019
613 Clouds 19 1012 49 10000 6.2 40 14:19 07.10.2019
614 Clouds 19 1012 52 10000 4.6 30 13:41 07.10.2019
615 Clouds 19 1012 56 10000 5.1 20 13:20 07.10.2019
616 Clouds 19 1012 56 10000 5.7 20 12:55 07.10.2019
617 Clouds 19 1012 56 10000 5.7 20 12:37 07.10.2019
618 Clouds 19 1013 52 10000 3.6 50 12:19 07.10.2019
619 Clouds 19 1013 49 10000 4.6 70 11:57 07.10.2019
620 Clouds 19 1013 52 10000 4.6 40 11:37 07.10.2019
621 Clouds 18 1013 52 10000 4.6 40 11:18 07.10.2019
622 Clouds 18 1013 59 10000 4.6 60 10:41 07.10.2019
623 Clouds 18 1013 59 10000 4.6 60 10:41 07.10.2019
624 Clouds 18 1013 59 10000 4.6 70 10:20 07.10.2019
625 Clouds 18 1013 63 10000 4.6 60 09:42 07.10.2019
626 Clouds 17 1013 63 10000 3.1 70 09:24 07.10.2019
627 Clouds 17 1013 63 10000 4.1 50 08:57 07.10.2019
628 Clouds 17 1013 63 10000 4.1 50 08:57 07.10.2019
629 Clouds 16 1013 63 10000 4.1 50 08:39 07.10.2019
630 Clouds 16 1013 67 10000 2.6 60 08:19 07.10.2019
631 Clouds 16 1013 63 10000 1.5 10 07:41 07.10.2019
632 Clouds 15 1013 76 10000 2.6 360 07:23 07.10.2019
633 Clear 14 1013 76 10000 3.6 360 06:54 07.10.2019
634 Clear 14 1013 76 10000 3.6 360 06:34 07.10.2019
635 Clear 14 1013 82 10000 3.1 350 05:49 07.10.2019
636 Clear 14 1013 82 10000 2.1 20 05:23 07.10.2019
637 Clear 14 1013 82 10000 2.1 10 04:42 07.10.2019
638 Clear 14 1013 82 10000 2.1 10 03:45 07.10.2019
639 Clear 14 1013 76 10000 2.6 10 03:23 07.10.2019
640 Clear 14 1013 76 10000 2.1 10 02:23 07.10.2019
641 Clear 13 1013 71 10000 2.1 10 01:52 07.10.2019
642 Clear 14 1013 67 10000 2.1 30 01:22 07.10.2019
643 Clear 14 1013 63 10000 2.1 50 00:41 07.10.2019
644 Clear 14 1013 63 10000 1.5 70 00:22 07.10.2019
645 Clear 15 1013 59 10000 1.5 50 23:54 06.10.2019
646 Clear 15 1013 59 10000 1.5 50 23:36 06.10.2019
647 Clear 15 1013 59 10000 2.1 40 23:18 06.10.2019
648 Clear 15 1013 59 10000 2.1 50 22:41 06.10.2019
649 Clear 15 1013 55 10000 3.1 30 22:22 06.10.2019
650 Clear 15 1013 59 10000 2.6 60 21:58 06.10.2019
651 Clear 15 1013 59 10000 2.6 60 21:38 06.10.2019
652 Clear 16 1013 59 10000 2.6 60 21:19 06.10.2019
653 Clear 16 1013 59 10000 2.1 60 20:58 06.10.2019
654 Clear 16 1013 59 10000 2.1 60 20:40 06.10.2019
655 Clear 16 1013 55 10000 2.1 40 20:21 06.10.2019
656 Clear 16 1013 67 10000 3.1 350 19:58 06.10.2019
657 Clear 16 1013 67 10000 3.1 350 19:38 06.10.2019
658 Clear 16 1013 59 10000 0.5 0 19:20 06.10.2019
659 Clear 16 1013 59 10000 0.5 0 19:20 06.10.2019
660 Clear 16 1013 59 10000 1 270 18:57 06.10.2019
661 Clear 17 1013 59 10000 1 270 18:39 06.10.2019
662 Clouds 17 1013 59 10000 2.1 230 18:20 06.10.2019
663 Clouds 17 1013 55 10000 2.6 240 17:59 06.10.2019
664 Clouds 18 1013 55 10000 2.6 240 17:39 06.10.2019
665 Clouds 18 1013 55 10000 3.6 230 17:19 06.10.2019
666 Clouds 19 1012 52 10000 3.6 220 16:43 06.10.2019
667 Clouds 19 1012 52 10000 4.1 220 16:24 06.10.2019
668 Clouds 19 1012 52 10000 4.1 220 16:24 06.10.2019
669 Clouds 19 1012 52 10000 4.1 220 15:59 06.10.2019
670 Clouds 19 1012 55 10000 4.1 250 15:41 06.10.2019
671 Clouds 19 1012 55 10000 5.1 230 15:19 06.10.2019
672 Clouds 19 1012 55 10000 4.1 220 14:43 06.10.2019
673 Clouds 18 1012 63 10000 4.6 230 14:24 06.10.2019
674 Clouds 19 1012 55 10000 5.1 220 13:58 06.10.2019
675 Clouds 19 1012 55 10000 5.1 220 13:39 06.10.2019
676 Clouds 19 1012 59 10000 4.6 230 13:21 06.10.2019
677 Clouds 18 1012 68 10000 4.6 220 12:57 06.10.2019
678 Clouds 18 1012 68 10000 4.6 220 12:39 06.10.2019
679 Clouds 18 1012 63 10000 5.1 240 12:20 06.10.2019
680 Clouds 18 1012 63 10000 5.1 240 12:20 06.10.2019
681 Clouds 18 1012 55 10000 1 30 11:57 06.10.2019
682 Clouds 18 1012 55 10000 1 30 11:38 06.10.2019
683 Clouds 17 1012 63 10000 1 0 11:20 06.10.2019
684 Clouds 17 1012 59 10000 1.5 0 10:44 06.10.2019
685 Clouds 17 1012 59 10000 1.5 0 10:44 06.10.2019
686 Clouds 16 1012 67 10000 2.6 0 10:25 06.10.2019
687 Clouds 16 1012 72 10000 1 0 09:58 06.10.2019
688 Clouds 16 1012 72 10000 1 0 09:39 06.10.2019
689 Clouds 15 1011 77 10000 0.5 0 09:18 06.10.2019
690 Rain 15 1011 82 10000 1 0 08:43 06.10.2019
691 Rain 15 1011 82 10000 2.6 360 08:20 06.10.2019
692 Rain 15 1010 87 10000 5.1 350 07:44 06.10.2019
693 Rain 15 1009 87 10000 5.1 360 07:19 06.10.2019
694 Rain 14 1009 93 8000 6.7 360 06:20 06.10.2019
695 Rain 14 1009 93 8000 6.7 350 05:34 06.10.2019
696 Rain 16 1009 72 10000 5.1 360 03:42 06.10.2019
697 Clouds 16 1009 77 10000 4.1 20 02:42 06.10.2019
698 Clouds 16 1009 77 10000 4.1 40 02:21 06.10.2019
699 Clouds 17 1009 77 10000 2.1 50 01:44 06.10.2019
700 Clouds 17 1009 72 10000 3.1 50 01:26 06.10.2019
701 Clouds 17 1010 72 10000 3.1 20 00:46 06.10.2019
702 Clouds 17 1010 72 10000 3.1 20 00:25 06.10.2019
703 Clouds 17 1010 72 10000 2.6 20 23:44 05.10.2019
704 Clouds 17 1010 72 10000 3.1 20 23:22 05.10.2019
705 Clouds 17 1011 72 10000 3.6 10 22:58 05.10.2019
706 Clouds 17 1011 72 10000 3.6 10 22:40 05.10.2019
707 Clouds 17 1011 72 10000 4.1 360 22:20 05.10.2019
708 Clouds 17 1011 72 10000 4.1 360 22:20 05.10.2019
709 Clouds 17 1010 72 10000 5.1 10 21:56 05.10.2019
710 Clouds 17 1010 72 10000 5.1 10 21:37 05.10.2019
711 Clouds 17 1010 72 10000 3.1 20 21:18 05.10.2019
712 Clouds 17 1011 72 10000 4.1 20 20:55 05.10.2019
713 Clouds 17 1011 72 10000 4.1 20 20:36 05.10.2019
714 Clouds 17 1011 72 10000 4.6 10 20:18 05.10.2019
715 Clouds 17 1010 77 10000 4.1 20 19:37 05.10.2019
716 Clouds 17 1010 77 10000 4.1 20 19:19 05.10.2019
717 Clouds 17 1010 82 10000 5.1 360 18:55 05.10.2019
718 Clouds 17 1010 82 10000 4.6 350 18:37 05.10.2019
719 Clouds 17 1010 82 10000 4.6 350 18:37 05.10.2019
720 Clouds 17 1010 82 10000 4.6 350 18:19 05.10.2019
721 Clouds 17 1010 77 10000 3.6 360 17:43 05.10.2019
722 Clouds 17 1010 77 10000 5.1 350 17:23 05.10.2019
723 Clouds 17 1009 77 10000 5.1 360 16:57 05.10.2019
724 Clouds 17 1009 77 10000 5.1 360 16:39 05.10.2019
725 Clouds 17 1009 77 10000 5.1 360 16:20 05.10.2019
726 Clouds 17 1009 77 10000 5.1 360 16:20 05.10.2019
727 Clouds 17 1009 82 10000 6.2 350 15:56 05.10.2019
728 Clouds 17 1009 82 10000 6.2 350 15:38 05.10.2019
729 Clouds 17 1009 77 10000 5.1 360 15:19 05.10.2019
730 Rain 17 1010 87 10000 5.1 350 14:43 05.10.2019
731 Clouds 17 1010 82 10000 4.6 340 14:24 05.10.2019
732 Clouds 17 1009 82 10000 5.7 330 13:58 05.10.2019
733 Rain 17 1009 82 10000 5.7 330 13:39 05.10.2019
734 Rain 17 1009 82 10000 6.2 350 13:18 05.10.2019
735 Rain 17 1009 82 10000 5.1 350 12:42 05.10.2019
736 Rain 17 1009 82 10000 6.7 340 12:19 05.10.2019
737 Rain 17 1009 82 10000 7.7 350 11:43 05.10.2019
738 Rain 17 1010 93 4000 6.7 340 11:20 05.10.2019
739 Rain 17 1009 82 10000 6.2 360 10:57 05.10.2019
740 Rain 17 1009 82 10000 6.2 360 10:57 05.10.2019
741 Rain 18 1009 82 10000 6.2 360 10:39 05.10.2019
742 Rain 18 1008 88 10000 6.7 350 10:20 05.10.2019
743 Rain 18 1008 82 10000 7.7 340 09:45 05.10.2019
744 Rain 19 1008 88 10000 7.7 340 09:23 05.10.2019
745 Rain 19 1008 88 7000 6.7 320 08:56 05.10.2019
746 Rain 19 1008 88 7000 6.7 320 08:38 05.10.2019
747 Rain 19 1007 88 6000 6.7 260 08:18 05.10.2019
748 Rain 19 1006 83 10000 6.2 220 07:46 05.10.2019
749 Rain 19 1006 83 10000 6.2 220 07:28 05.10.2019
750 Clouds 19 1006 82 10000 4.6 230 06:56 05.10.2019
751 Clouds 18 1006 88 10000 3.6 240 06:22 05.10.2019
752 Rain 18 1006 88 10000 3.6 240 05:39 05.10.2019
753 Rain 18 1006 82 10000 3.1 180 03:32 05.10.2019
754 Thunderstorm 18 1008 88 10000 2.1 310 02:38 05.10.2019
755 Thunderstorm 20 1005 73 10000 3.1 350 01:27 05.10.2019
756 Clouds 21 1005 64 10000 3.6 50 00:49 05.10.2019
757 Clouds 21 1005 64 10000 3.6 50 00:49 05.10.2019
758 Clouds 20 1006 68 10000 4.1 90 00:28 05.10.2019
759 Clouds 20 1006 68 10000 4.6 90 23:58 04.10.2019
760 Clouds 20 1006 68 10000 4.6 90 23:40 04.10.2019
761 Thunderstorm 21 1007 68 10000 5.1 90 23:21 04.10.2019
762 Thunderstorm 20 1007 73 10000 6.2 100 22:56 04.10.2019
763 Thunderstorm 20 1007 73 10000 6.2 100 22:37 04.10.2019
764 Thunderstorm 20 1007 73 10000 6.2 100 22:37 04.10.2019
765 Rain 20 1008 82 10000 4.6 160 22:19 04.10.2019
766 Rain 21 1008 68 10000 7.2 100 21:40 04.10.2019
767 Rain 21 1008 73 10000 6.2 90 21:22 04.10.2019
768 Rain 21 1008 73 10000 6.2 90 21:22 04.10.2019
769 Rain 21 1008 77 6000 5.1 130 20:59 04.10.2019
770 Rain 21 1008 77 6000 5.1 130 20:59 04.10.2019
771 Rain 22 1009 56 10000 3.6 90 20:40 04.10.2019
772 Rain 21 1009 56 10000 3.6 20 20:22 04.10.2019
773 Thunderstorm 21 1009 56 10000 6.7 340 19:56 04.10.2019
774 Clouds 22 1009 56 10000 6.7 340 19:37 04.10.2019
775 Clouds 22 1010 60 10000 9.8 320 19:19 04.10.2019
776 Clouds 23 1011 64 10000 7.2 320 18:54 04.10.2019
777 Clouds 23 1010 56 10000 12.3 310 18:36 04.10.2019
778 Clouds 24 1008 44 10000 7.2 310 18:18 04.10.2019
779 Clouds 24 1007 39 10000 1.5 260 17:39 04.10.2019
780 Clouds 25 1008 69 10000 8.7 330 17:21 04.10.2019
781 Clouds 26 1008 42 10000 3.1 260 16:57 04.10.2019
782 Clouds 27 1008 42 10000 3.1 260 16:39 04.10.2019
783 Clouds 27 1008 42 10000 3.1 260 16:39 04.10.2019
784 Clouds 28 1008 32 10000 2.1 130 16:18 04.10.2019
785 Clouds 28 1007 30 10000 2.6 80 15:56 04.10.2019
786 Clouds 28 1007 30 10000 2.6 80 15:37 04.10.2019
787 Clouds 28 1007 32 10000 2.1 80 15:19 04.10.2019
788 Clouds 28 1007 32 10000 2.1 80 15:19 04.10.2019
789 Clouds 29 1008 37 10000 2.1 200 14:55 04.10.2019
790 Clouds 29 1008 37 10000 2.1 200 14:36 04.10.2019
791 Clouds 29 1009 35 10000 1.5 0 14:18 04.10.2019
792 Clouds 29 1009 35 10000 2.6 110 13:43 04.10.2019
793 Clear 29 1009 39 10000 3.1 120 13:20 04.10.2019
794 Clear 28 1010 42 10000 3.6 150 12:46 04.10.2019
795 Clear 28 1010 42 10000 3.6 150 12:46 04.10.2019
796 Clear 28 1010 47 10000 3.6 140 12:28 04.10.2019
797 Clear 27 1010 47 10000 3.1 170 11:59 04.10.2019
798 Clear 27 1010 47 10000 3.1 170 11:40 04.10.2019
799 Clear 27 1010 47 10000 3.1 170 11:40 04.10.2019
800 Clear 27 1010 47 10000 3.1 170 11:40 04.10.2019
801 Clear 27 1011 50 10000 4.1 210 11:20 04.10.2019
802 Clear 26 1011 54 10000 3.6 170 10:40 04.10.2019
803 Clear 26 1011 54 10000 2.6 200 10:21 04.10.2019
804 Clear 25 1011 53 10000 3.1 210 09:47 04.10.2019
805 Clear 24 1012 57 10000 2.1 220 09:28 04.10.2019
806 Clear 23 1011 64 10000 3.6 220 08:56 04.10.2019
807 Clear 24 1011 64 10000 3.6 220 08:38 04.10.2019
808 Clear 23 1011 64 10000 4.6 240 08:19 04.10.2019
809 Clear 22 1011 69 10000 5.1 250 07:44 04.10.2019
810 Clear 21 1011 64 10000 6.7 220 07:22 04.10.2019
811 Clear 22 1011 64 10000 6.7 220 06:44 04.10.2019
812 Clear 22 1011 64 10000 6.7 220 06:44 04.10.2019
813 Clear 22 1010 73 10000 5.1 200 06:25 04.10.2019
814 Clear 22 1010 73 10000 5.1 200 06:25 04.10.2019
815 Clear 21 1011 78 10000 5.1 200 05:42 04.10.2019
816 Clear 21 1011 78 10000 4.6 210 05:18 04.10.2019
817 Clear 21 1010 83 10000 5.1 210 03:48 04.10.2019
818 Clear 21 1010 78 10000 4.1 230 02:53 04.10.2019
819 Clear 21 1010 78 10000 4.1 230 02:53 04.10.2019
820 Clear 23 1010 78 10000 4.1 210 01:55 04.10.2019
821 Clear 23 1010 73 10000 5.1 220 01:30 04.10.2019
822 Clear 22 1010 73 10000 4.6 220 00:58 04.10.2019
823 Clear 21 1010 73 10000 5.7 220 23:58 03.10.2019
824 Clear 22 1010 73 10000 5.7 220 23:37 03.10.2019
825 Clear 22 1010 69 10000 4.6 220 23:18 03.10.2019
826 Clear 22 1010 69 10000 4.6 220 23:18 03.10.2019
827 Clear 22 1010 69 10000 4.6 220 23:18 03.10.2019
828 Clear 22 1010 69 10000 4.6 220 23:18 03.10.2019
829 Clear 22 1010 69 10000 4.1 220 22:56 03.10.2019
830 Clear 22 1010 69 10000 4.1 220 22:37 03.10.2019
831 Clear 22 1010 78 10000 0.5 0 22:19 03.10.2019
832 Clear 22 1009 73 10000 1.5 140 21:55 03.10.2019
833 Clear 22 1009 73 10000 1.5 140 21:36 03.10.2019
834 Clear 22 1009 73 10000 2.1 180 21:18 03.10.2019
835 Clear 22 1009 68 10000 1.5 170 20:55 03.10.2019
836 Clear 22 1009 68 10000 1.5 170 20:37 03.10.2019
837 Clear 23 1009 69 10000 1.5 220 20:19 03.10.2019
838 Clear 24 1009 57 10000 1.5 200 19:41 03.10.2019
839 Clear 24 1009 60 10000 2.6 140 19:22 03.10.2019
840 Clear 24 1009 57 10000 2.6 140 18:58 03.10.2019
841 Clear 25 1009 57 10000 2.6 140 18:39 03.10.2019
842 Clear 25 1009 69 10000 2.6 160 18:19 03.10.2019
843 Clear 27 1009 53 10000 3.1 180 17:56 03.10.2019
844 Clear 27 1009 53 10000 3.1 180 17:37 03.10.2019
845 Clear 28 1008 39 10000 2.1 240 17:19 03.10.2019
846 Clear 29 1009 37 10000 1.5 200 16:41 03.10.2019
847 Clear 29 1009 37 10000 1.5 190 16:23 03.10.2019
848 Clear 29 1009 39 10000 1.5 150 15:55 03.10.2019
849 Clear 29 1009 39 10000 1.5 150 15:55 03.10.2019
850 Clear 28 1009 39 10000 1.5 150 15:37 03.10.2019
851 Clear 29 1009 42 10000 2.6 180 15:19 03.10.2019
852 Clear 29 1009 45 10000 2.1 230 14:45 03.10.2019
853 Clear 28 1010 47 10000 2.6 230 14:26 03.10.2019
854 Clear 28 1010 50 10000 3.1 230 13:57 03.10.2019
855 Clear 28 1010 50 10000 3.1 230 13:39 03.10.2019
856 Clear 28 1010 50 10000 3.6 230 13:19 03.10.2019
857 Clear 27 1010 50 10000 4.1 210 12:55 03.10.2019
858 Clear 27 1010 50 10000 4.1 210 12:55 03.10.2019
859 Clear 27 1010 50 10000 4.1 210 12:55 03.10.2019
860 Clear 27 1010 50 10000 4.1 210 12:36 03.10.2019
861 Clear 27 1010 54 10000 4.6 200 12:18 03.10.2019
862 Clear 27 1010 57 10000 4.1 190 11:40 03.10.2019
863 Clear 26 1010 61 10000 4.6 200 11:22 03.10.2019
864 Clear 26 1011 61 10000 5.1 190 10:58 03.10.2019
865 Clear 26 1011 61 10000 5.1 190 10:39 03.10.2019
866 Clear 25 1011 61 10000 4.1 210 10:18 03.10.2019
867 Clear 25 1011 64 10000 4.1 190 09:57 03.10.2019
868 Clear 24 1011 64 10000 4.1 190 09:38 03.10.2019
869 Clear 23 1011 64 10000 4.1 200 09:19 03.10.2019
870 Clear 22 1010 69 10000 3.6 190 08:43 03.10.2019
871 Mist 22 1010 83 10000 3.1 180 08:25 03.10.2019
872 Mist 20 1009 88 6000 2.6 160 07:56 03.10.2019
873 Mist 20 1009 88 6000 2.6 160 07:37 03.10.2019
874 Fog 19 1009 94 1600 1.5 130 07:37 03.10.2019
875 Fog 19 1009 94 1600 1.5 130 07:19 03.10.2019
876 Fog 19 1009 100 1600 1 0 06:35 03.10.2019
877 Mist 19 1009 88 4000 1.5 260 05:55 03.10.2019
878 Mist 19 1009 88 4000 1.5 260 05:37 03.10.2019
879 Mist 19 1009 94 3000 1.5 240 04:50 03.10.2019
880 Mist 19 1009 88 3000 1.55 196.302 04:25 03.10.2019
881 Mist 19 1009 93 10000 0.5 0 03:20 03.10.2019
882 Mist 19 1009 93 10000 1 0 02:33 03.10.2019
883 Clear 19 1009 88 10000 1.02 243.838 01:50 03.10.2019
884 Clear 19 1010 88 10000 1.14 252.968 01:31 03.10.2019
885 Clear 19 1010 93 10000 2.1 340 00:45 03.10.2019
886 Clear 19 1010 93 10000 2.1 340 23:58 02.10.2019
887 Clear 19 1010 93 10000 2.1 340 23:38 02.10.2019
888 Clear 20 1010 93 10000 2.6 330 23:19 02.10.2019
889 Clear 20 1010 88 10000 2.6 350 22:43 02.10.2019
890 Clear 20 1010 88 10000 2.1 340 22:21 02.10.2019
891 Clear 21 1010 88 10000 2.6 350 21:56 02.10.2019
892 Clear 20 1010 88 10000 2.6 350 21:38 02.10.2019
893 Clear 21 1010 83 10000 2.6 360 21:19 02.10.2019
894 Clear 21 1010 83 10000 2.6 360 21:19 02.10.2019
895 Clear 21 1010 78 10000 2.6 30 20:55 02.10.2019
896 Clear 21 1010 78 10000 2.6 30 20:37 02.10.2019
897 Clear 21 1010 78 10000 4.1 20 20:19 02.10.2019
898 Clear 22 1009 78 10000 4.6 20 19:45 02.10.2019
899 Clear 21 1009 78 10000 4.6 20 19:45 02.10.2019
900 Clear 21 1009 78 10000 4.6 20 19:45 02.10.2019
901 Clear 22 1009 73 10000 5.1 20 19:23 02.10.2019
902 Clear 22 1009 73 10000 5.1 20 18:59 02.10.2019
903 Clear 22 1009 73 10000 5.1 20 18:40 02.10.2019
904 Clear 23 1009 64 10000 4.1 40 18:21 02.10.2019
905 Clear 23 1009 61 10000 4.1 40 17:58 02.10.2019
906 Clear 24 1009 61 10000 4.1 40 17:39 02.10.2019
907 Clear 24 1009 61 10000 4.1 40 17:39 02.10.2019
908 Clear 24 1009 57 10000 4.6 20 17:20 02.10.2019
909 Clouds 25 1010 78 10000 6.7 60 16:57 02.10.2019
910 Clear 26 1009 51 10000 3.6 30 16:37 02.10.2019
911 Clear 25 1009 61 10000 2.1 210 16:19 02.10.2019
912 Clear 25 1009 61 10000 2.1 210 15:55 02.10.2019
913 Clear 25 1009 65 10000 3.1 230 15:37 02.10.2019
914 Clear 25 1009 65 10000 3.1 230 15:18 02.10.2019
915 Clear 26 1009 61 10000 2.6 180 14:43 02.10.2019
916 Clear 26 1009 61 10000 2.6 180 14:23 02.10.2019
917 Clear 26 1010 54 10000 2.1 130 13:56 02.10.2019
918 Clear 26 1010 51 10000 3.1 30 13:37 02.10.2019
919 Clear 26 1010 51 10000 3.1 30 13:19 02.10.2019
920 Clear 26 1010 51 10000 3.1 30 13:19 02.10.2019
921 Clear 26 1010 47 10000 4.1 70 12:40 02.10.2019
922 Clear 26 1010 47 10000 4.1 70 12:22 02.10.2019
923 Clear 25 1011 51 10000 4.1 60 11:55 02.10.2019
924 Clear 24 1011 54 10000 4.6 50 11:36 02.10.2019
925 Clear 24 1011 54 10000 4.6 50 11:18 02.10.2019
926 Clear 24 1011 54 10000 4.6 50 11:18 02.10.2019
927 Clear 24 1011 57 10000 4.1 60 10:38 02.10.2019
928 Clear 24 1011 57 10000 4.1 60 10:18 02.10.2019
929 Clear 22 1011 69 10000 5.1 50 09:40 02.10.2019
930 Clear 22 1011 69 10000 5.1 50 09:20 02.10.2019
931 Clear 21 1012 73 10000 5.1 40 08:55 02.10.2019
932 Clear 22 1011 78 10000 4.1 40 08:36 02.10.2019
933 Clear 21 1011 78 10000 4.1 40 08:18 02.10.2019
934 Clear 20 1011 88 10000 4.1 30 07:39 02.10.2019
935 Clear 20 1011 88 10000 4.1 30 07:21 02.10.2019
936 Clear 19 1011 88 8000 3.6 40 06:48 02.10.2019
937 Clear 19 1011 82 7000 3.6 20 05:56 02.10.2019
938 Clear 20 1012 82 8000 3.6 20 05:25 02.10.2019
939 Clear 20 1012 77 10000 3.6 20 04:56 02.10.2019
940 Clear 20 1012 82 10000 3.6 20 03:53 02.10.2019
941 Clear 19 1012 88 10000 4.6 20 02:47 02.10.2019
942 Clear 20 1013 82 10000 3.6 40 02:24 02.10.2019
943 Clear 20 1013 77 10000 3.6 30 01:46 02.10.2019
944 Clear 20 1013 83 10000 3.6 30 00:51 02.10.2019
945 Clear 20 1013 83 10000 3.6 30 00:27 02.10.2019
946 Clear 21 1013 83 10000 3.6 40 23:45 01.10.2019
947 Clear 21 1013 83 10000 3.6 40 23:26 01.10.2019
948 Clear 21 1014 78 10000 3.6 50 22:59 01.10.2019
949 Clear 21 1014 78 10000 3.1 60 22:40 01.10.2019
950 Clear 21 1014 78 10000 3.1 60 22:20 01.10.2019
951 Clear 21 1014 73 10000 3.6 50 21:58 01.10.2019
952 Clear 21 1013 73 10000 3.6 50 21:39 01.10.2019
953 Clear 21 1013 73 10000 3.6 50 21:21 01.10.2019
954 Clear 21 1013 69 10000 5.1 40 20:57 01.10.2019
955 Clear 22 1013 69 10000 4.6 40 20:38 01.10.2019
956 Clear 22 1013 69 10000 4.6 40 20:19 01.10.2019
957 Clear 22 1013 69 10000 4.1 40 19:56 01.10.2019
958 Clear 22 1013 69 10000 4.6 30 19:38 01.10.2019
959 Clear 22 1013 69 10000 4.6 30 19:18 01.10.2019
960 Clear 23 1013 53 10000 5.7 50 18:40 01.10.2019
961 Clear 23 1013 53 10000 5.7 50 18:22 01.10.2019
962 Clear 24 1013 53 10000 5.7 20 17:58 01.10.2019
963 Clear 25 1013 50 10000 6.2 20 17:40 01.10.2019
964 Clear 25 1013 44 10000 5.1 20 17:19 01.10.2019
965 Clear 25 1013 44 10000 5.1 20 16:57 01.10.2019
966 Clear 25 1013 47 10000 5.1 20 16:39 01.10.2019
967 Clear 25 1013 47 10000 5.1 20 16:21 01.10.2019
968 Clear 26 1013 42 10000 5.1 30 15:46 01.10.2019
969 Clear 26 1013 39 10000 5.7 20 15:23 01.10.2019
970 Clear 27 1013 51 10000 2.6 210 14:42 01.10.2019
971 Clear 27 1013 51 10000 2.6 210 14:21 01.10.2019
972 Clear 26 1014 61 10000 2.6 200 13:59 01.10.2019
973 Clear 26 1014 61 10000 2.6 190 13:40 01.10.2019
974 Clear 26 1014 61 10000 2.6 190 13:21 01.10.2019
975 Clear 26 1014 61 10000 3.1 200 12:58 01.10.2019
976 Clear 26 1014 57 10000 3.6 210 12:39 01.10.2019
977 Clear 26 1014 57 10000 3.6 210 12:19 01.10.2019
978 Clear 25 1014 64 10000 4.1 220 11:58 01.10.2019
979 Clear 25 1014 64 10000 4.1 240 11:38 01.10.2019
980 Clear 25 1014 64 10000 4.1 240 11:18 01.10.2019
981 Clear 25 1014 60 10000 3.6 240 10:49 01.10.2019
982 Clear 25 1014 64 10000 2.6 220 10:29 01.10.2019
983 Clear 24 1014 64 10000 2.1 220 09:49 01.10.2019
984 Clear 23 1013 64 10000 2.1 220 09:31 01.10.2019
985 Clear 23 1013 69 10000 1.5 130 08:57 01.10.2019
986 Clear 22 1013 78 10000 2.6 150 08:39 01.10.2019
987 Clear 22 1013 78 10000 2.6 150 08:21 01.10.2019
988 Clear 19 1012 93 10000 1 190 07:43 01.10.2019
989 Clear 19 1012 93 10000 1 190 07:24 01.10.2019
990 Clear 18 1013 88 10000 1.5 360 06:47 01.10.2019
991 Clear 19 1013 88 10000 1.5 360 06:19 01.10.2019
992 Clear 18 1012 93 8000 2.6 350 05:46 01.10.2019
993 Clear 18 1012 93 8000 2.1 350 05:18 01.10.2019
994 Clear 18 1012 93 10000 0.5 0 04:29 01.10.2019
995 Clear 18 1011 93 10000 1.41 229.416 02:28 01.10.2019
996 Clear 18 1011 88 10000 1.41 229.416 01:58 01.10.2019
997 Clear 19 1011 88 10000 1 40 00:53 01.10.2019
998 Clear 20 1011 88 10000 1 0 00:27 01.10.2019
999 Clear 20 1011 88 10000 1.5 250 23:56 30.09.2019
1000 Clear 20 1011 88 10000 1 0 23:38 30.09.2019
1001 Clear 20 1011 88 10000 1 0 23:19 30.09.2019
1002 Clear 21 1011 83 8000 2.1 110 22:43 30.09.2019
1003 Clear 21 1011 83 8000 2.1 110 22:24 30.09.2019
1004 Clear 21 1011 77 8000 1.5 100 21:57 30.09.2019
1005 Clear 21 1011 77 8000 1.5 90 21:38 30.09.2019
1006 Clear 22 1011 77 8000 1.5 90 21:19 30.09.2019
1007 Clear 21 1011 77 8000 1.5 90 21:19 30.09.2019
1008 Clear 21 1011 83 8000 1 100 20:56 30.09.2019
1009 Clear 22 1011 88 8000 3.1 100 20:38 30.09.2019
1010 Clear 22 1011 88 8000 3.1 100 20:20 30.09.2019
1011 Clear 22 1010 64 10000 2.1 110 19:56 30.09.2019
1012 Clear 22 1010 64 10000 2.1 110 19:56 30.09.2019
1013 Clear 21 1010 56 10000 1 0 19:38 30.09.2019
1014 Clear 21 1010 56 10000 1 0 19:19 30.09.2019
1015 Clear 21 1010 60 10000 1.37 97.592 18:56 30.09.2019
1016 Clear 21 1010 60 10000 1.37 97.592 18:56 30.09.2019
1017 Clear 22 1010 60 10000 1 240 18:37 30.09.2019
1018 Clear 22 1010 60 10000 1 240 18:37 30.09.2019
1019 Clear 22 1010 60 10000 1 240 18:19 30.09.2019
1020 Clear 24 1010 53 10000 3.1 240 17:41 30.09.2019
1021 Clear 24 1010 53 10000 3.1 240 17:22 30.09.2019
1022 Clear 24 1010 53 10000 3.1 240 16:56 30.09.2019
1023 Clear 24 1011 53 10000 4.1 240 16:38 30.09.2019
1024 Clear 24 1011 53 10000 4.1 240 16:19 30.09.2019
1025 Clear 25 1011 60 10000 3.1 240 15:57 30.09.2019
1026 Clear 25 1011 60 10000 3.1 240 15:57 30.09.2019
1027 Clear 26 1011 64 10000 3.6 240 15:37 30.09.2019
1028 Clear 26 1011 64 10000 3.6 240 15:19 30.09.2019
1029 Clear 26 1012 60 10000 4.1 230 14:57 30.09.2019
1030 Clear 25 1012 57 10000 4.1 240 14:37 30.09.2019
1031 Clear 25 1012 69 10000 4.6 250 14:18 30.09.2019
1032 Clear 25 1012 69 10000 4.6 250 13:56 30.09.2019
1033 Clear 25 1012 64 10000 4.6 240 13:37 30.09.2019
1034 Clear 25 1012 64 10000 4.6 240 13:19 30.09.2019
1035 Clear 25 1013 69 10000 3.6 200 12:41 30.09.2019
1036 Clear 25 1013 69 10000 3.6 200 12:21 30.09.2019
1037 -273 0 0 0 0 0 11:56 30.09.2019
1038 Clear 24 1013 69 10000 3.1 180 11:37 30.09.2019
1039 Clear 24 1013 69 10000 3.1 180 11:18 30.09.2019
1040 Clear 23 1014 64 10000 3.6 140 10:40 30.09.2019
1041 Clear 23 1014 64 10000 3.6 140 10:19 30.09.2019
1042 Clear 22 1014 64 10000 2.6 150 09:58 30.09.2019
1043 Clear 22 1014 73 10000 2.6 150 09:39 30.09.2019
1044 Clear 21 1014 73 10000 2.6 150 09:20 30.09.2019
1045 Clear 21 1014 73 10000 2.1 0 08:47 30.09.2019
1046 Clear 21 1014 68 10000 1.5 140 08:28 30.09.2019
1047 Clear 18 1014 72 10000 0.5 0 07:46 30.09.2019
1048 Clear 17 1013 77 10000 1.5 340 07:28 30.09.2019
1049 Clear 16 1013 77 10000 2.1 350 06:56 30.09.2019
1050 Clear 16 1014 82 10000 2.1 340 06:34 30.09.2019
1051 Clear 16 1014 82 10000 2.1 340 06:34 30.09.2019
1052 Clear 16 1013 82 10000 2.1 350 05:48 30.09.2019
1053 Clear 16 1014 77 10000 2.6 350 04:40 30.09.2019
1054 Clear 17 1014 72 10000 2.1 320 02:48 30.09.2019
1055 Clear 17 1015 68 10000 1.5 360 01:38 30.09.2019
1056 Clear 17 1015 72 10000 2.6 60 00:43 30.09.2019
1057 Clear 19 1015 56 1000 2.1 50 00:22 30.09.2019
1058 Clear 18 1015 68 10000 1.5 20 23:55 29.09.2019
1059 Clear 18 1015 68 10000 1 0 23:36 29.09.2019
1060 Clear 18 1015 68 10000 1 0 23:18 29.09.2019
1061 Clear 19 1015 63 10000 2.1 350 22:42 29.09.2019
1062 Clear 19 1015 63 10000 2.6 350 22:23 29.09.2019
1063 Clear 20 1015 59 10000 2.6 350 21:58 29.09.2019
1064 Clear 20 1015 55 10000 2.1 350 21:38 29.09.2019
1065 Clear 20 1015 55 10000 2.1 350 21:19 29.09.2019
1066 Clear 21 1015 56 10000 1.5 360 20:45 29.09.2019
1067 Clear 21 1015 56 10000 1.5 360 20:20 29.09.2019
1068 Clear 21 1015 60 10000 1.5 330 19:59 29.09.2019
1069 Clear 21 1015 73 10000 1 0 19:38 29.09.2019
1070 Clear 21 1015 73 10000 1 0 19:19 29.09.2019
1071 Clear 21 1015 73 10000 1.5 250 18:56 29.09.2019
1072 Clear 21 1015 73 10000 1.5 250 18:56 29.09.2019
1073 Clear 22 1015 68 10000 1.5 250 18:38 29.09.2019
1074 Clear 22 1015 68 10000 1.5 250 18:19 29.09.2019
1075 Clear 22 1015 60 10000 2.1 230 17:59 29.09.2019
1076 Clear 23 1015 56 10000 2.6 230 17:40 29.09.2019
1077 Clear 23 1015 56 10000 2.6 230 17:40 29.09.2019
1078 Clear 24 1015 56 10000 2.6 230 17:20 29.09.2019
1079 Clear 24 1016 56 10000 3.1 240 16:59 29.09.2019
1080 Clear 24 1016 53 10000 3.6 240 16:40 29.09.2019
1081 Clear 24 1016 53 10000 3.6 240 16:19 29.09.2019
1082 Clear 25 1016 53 10000 3.6 240 15:57 29.09.2019
1083 Clear 24 1016 64 10000 3.6 230 15:37 29.09.2019
1084 Clear 24 1016 64 10000 3.6 230 15:18 29.09.2019
1085 Clear 24 1016 64 10000 3.6 230 14:55 29.09.2019
1086 Clear 24 1016 69 10000 4.1 210 14:37 29.09.2019
1087 Clear 24 1016 69 10000 4.1 210 14:37 29.09.2019
1088 Clear 24 1016 69 10000 4.1 210 14:18 29.09.2019
1089 Clear 23 1017 69 10000 3.6 200 13:42 29.09.2019
1090 Clear 23 1017 69 10000 3.6 200 13:19 29.09.2019
1091 Clear 24 1017 73 10000 3.1 200 12:58 29.09.2019
1092 Clear 24 1017 73 10000 3.6 190 12:40 29.09.2019
1093 Clear 23 1017 73 10000 3.6 190 12:22 29.09.2019
1094 Clear 23 1018 64 10000 3.1 200 11:59 29.09.2019
1095 Clear 23 1018 68 10000 2.6 190 11:40 29.09.2019
1096 Clear 23 1018 68 10000 2.1 180 11:19 29.09.2019
1097 Clear 22 1018 68 10000 2.1 180 10:57 29.09.2019
1098 Clear 22 1018 68 10000 2.1 180 10:37 29.09.2019
1099 Clear 22 1018 68 10000 2.1 180 10:19 29.09.2019
1100 Clear 21 1018 73 10000 2.1 190 09:55 29.09.2019
1101 Clear 21 1018 68 10000 2.1 170 09:37 29.09.2019
1102 Clear 20 1018 68 10000 2.1 170 09:18 29.09.2019
1103 Clear 18 1018 64 10000 0.5 0 08:42 29.09.2019
1104 Clear 18 1018 64 10000 0.5 0 08:21 29.09.2019
1105 Clear 16 1017 87 10000 2.6 340 07:43 29.09.2019
1106 Clear 15 1017 87 10000 2.1 360 07:25 29.09.2019
1107 Clear 15 1017 87 10000 2.1 360 06:46 29.09.2019
1108 Clear 15 1017 87 10000 2.1 350 05:47 29.09.2019
1109 Clear 15 1017 87 10000 2.1 350 05:47 29.09.2019
1110 Clear 16 1017 87 10000 3.6 350 04:41 29.09.2019
1111 Clear 16 1017 87 10000 3.6 350 04:23 29.09.2019
1112 Clear 16 1017 82 10000 2.6 350 02:51 29.09.2019
1113 Clear 17 1017 77 10000 1.5 360 02:19 29.09.2019
1114 Clear 18 1018 72 10000 2.6 40 01:38 29.09.2019
1115 Clear 18 1018 72 10000 3.1 50 00:53 29.09.2019
1116 Clear 18 1018 72 10000 3.1 30 00:21 29.09.2019
1117 Clear 18 1018 72 10000 3.1 70 23:56 28.09.2019
1118 Clear 18 1018 72 10000 3.1 60 23:37 28.09.2019
1119 Clear 18 1018 72 10000 3.1 60 23:18 28.09.2019
1120 Clear 18 1018 72 10000 3.6 70 22:40 28.09.2019
1121 Clear 18 1018 72 10000 3.6 70 22:21 28.09.2019
1122 Clear 18 1019 68 10000 4.1 70 21:57 28.09.2019
1123 Clear 19 1019 68 10000 4.6 60 21:39 28.09.2019
1124 Clear 19 1019 68 10000 4.6 60 21:21 28.09.2019
1125 Clear 19 1019 68 10000 5.1 60 20:57 28.09.2019
1126 Clear 19 1019 64 10000 4.6 60 20:38 28.09.2019
1127 Clear 20 1019 64 10000 4.1 50 20:18 28.09.2019
1128 Clear 20 1019 64 10000 4.1 50 19:56 28.09.2019
1129 Clear 20 1019 64 10000 4.6 50 19:37 28.09.2019
1130 Clear 20 1019 64 10000 4.6 50 19:19 28.09.2019
1131 Clear 21 1019 60 10000 4.6 40 18:54 28.09.2019
1132 Clear 21 1019 60 10000 5.7 20 18:36 28.09.2019
1133 Clear 21 1019 60 10000 5.7 20 18:18 28.09.2019
1134 Clear 22 1018 56 10000 5.1 30 17:42 28.09.2019
1135 Clear 22 1018 56 10000 5.1 30 17:22 28.09.2019
1136 Clear 23 1018 53 10000 5.7 30 16:57 28.09.2019
1137 Clear 23 1018 53 10000 5.7 30 16:57 28.09.2019
1138 Clouds 23 1018 53 10000 4.6 50 16:38 28.09.2019
1139 Clouds 23 1018 53 10000 4.6 50 16:20 28.09.2019
1140 Clouds 24 1019 50 10000 4.1 40 15:40 28.09.2019
1141 Clouds 24 1019 50 10000 4.1 40 15:40 28.09.2019
1142 Clouds 24 1019 50 10000 4.1 40 15:22 28.09.2019
1143 Clouds 23 1019 50 10000 4.1 110 14:56 28.09.2019
1144 Clouds 24 1019 50 10000 3.6 100 14:37 28.09.2019
1145 Clouds 24 1019 50 10000 3.6 100 14:19 28.09.2019
1146 Clouds 23 1020 53 10000 4.1 120 13:55 28.09.2019
1147 Clouds 23 1020 53 10000 4.1 120 13:55 28.09.2019
1148 Clouds 23 1020 53 10000 3.6 120 13:36 28.09.2019
1149 Clouds 23 1020 53 10000 3.6 120 13:18 28.09.2019
1150 Clouds 22 1021 60 10000 4.6 150 12:39 28.09.2019
1151 Clouds 22 1021 60 10000 4.6 150 12:19 28.09.2019
1152 Clear 22 1021 56 10000 4.1 110 11:42 28.09.2019
1153 Clear 22 1021 56 10000 4.1 110 11:21 28.09.2019
1154 Clear 22 1021 53 10000 4.6 110 10:59 28.09.2019
1155 Clear 22 1021 64 10000 3.6 110 10:39 28.09.2019
1156 Clear 22 1021 64 10000 3.6 110 10:19 28.09.2019
1157 Clear 21 1021 60 10000 2.6 60 09:42 28.09.2019
1158 Clear 21 1021 60 10000 3.1 20 09:23 28.09.2019
1159 Clear 20 1021 72 10000 3.1 40 08:55 28.09.2019
1160 Clouds 20 1021 68 10000 2.1 70 08:37 28.09.2019
1161 Clouds 19 1021 68 10000 2.1 70 08:18 28.09.2019
1162 Clear 18 1020 82 10000 1.5 360 07:43 28.09.2019
1163 Clear 17 1020 82 10000 1.5 360 07:19 28.09.2019
1164 Clear 16 1020 87 10000 2.1 350 06:51 28.09.2019
1165 Clear 16 1020 87 10000 2.1 350 06:30 28.09.2019
1166 Clear 16 1020 87 10000 1.5 10 05:41 28.09.2019
1167 Clear 16 1020 87 10000 1.5 10 05:19 28.09.2019
1168 Clear 16 1020 87 10000 1 10 04:37 28.09.2019
1169 Clear 17 1020 82 10000 1 0 03:48 28.09.2019
1170 Clear 17 1019 77 10000 1.5 40 03:20 28.09.2019
1171 Clear 18 1019 82 10000 0.5 0 02:43 28.09.2019
1172 Clear 18 1019 82 10000 0.5 0 02:25 28.09.2019
1173 Clear 18 1019 82 10000 1.5 350 01:46 28.09.2019
1174 Clear 18 1019 77 10000 2.1 360 01:24 28.09.2019
1175 Clear 18 1019 82 10000 3.1 360 00:49 28.09.2019
1176 Clear 19 1019 72 10000 4.1 350 00:30 28.09.2019
1177 Clouds 19 1019 88 10000 2.1 340 23:41 27.09.2019
1178 Clouds 19 1019 88 10000 2.1 340 23:22 27.09.2019
1179 Clouds 19 1018 77 10000 0.5 320 22:59 27.09.2019
1180 Clouds 19 1018 82 10000 1 0 22:41 27.09.2019
1181 Clouds 19 1018 82 10000 1 0 22:18 27.09.2019
1182 Clouds 20 1018 77 10000 1.5 140 21:55 27.09.2019
1183 Clear 20 1018 77 10000 1.5 100 21:36 27.09.2019
1184 Clear 20 1018 77 10000 1.5 100 21:18 27.09.2019
1185 Clear 20 1018 77 10000 1 0 20:54 27.09.2019
1186 Clear 20 1017 77 10000 2.1 100 20:36 27.09.2019
1187 Clear 20 1017 77 10000 2.1 100 20:18 27.09.2019
1188 Clear 21 1017 64 10000 2.6 90 19:42 27.09.2019
1189 Clear 21 1017 64 10000 2.6 90 19:23 27.09.2019
1190 Clouds 21 1017 64 10000 3.1 90 18:55 27.09.2019
1191 Clear 21 1016 64 10000 3.1 100 18:37 27.09.2019
1192 Clouds 22 1016 68 10000 2.6 240 18:19 27.09.2019
1193 Clouds 22 1016 73 10000 3.6 250 17:40 27.09.2019
1194 Clouds 22 1016 73 10000 3.6 250 17:22 27.09.2019
1195 Clouds 23 1016 69 10000 4.6 230 16:59 27.09.2019
1196 Clouds 23 1016 73 10000 4.1 230 16:41 27.09.2019
1197 Clouds 23 1016 73 10000 4.1 230 16:20 27.09.2019
1198 -273 0 0 0 0 0 15:55 27.09.2019
1199 Clouds 23 1015 69 10000 6.2 220 15:37 27.09.2019
1200 Clouds 23 1015 69 10000 6.2 220 15:19 27.09.2019
1201 Clouds 23 1015 64 10000 6.2 230 14:55 27.09.2019
1202 Clouds 23 1015 69 10000 6.2 220 14:37 27.09.2019
1203 Clouds 23 1015 64 10000 6.2 230 14:18 27.09.2019
1204 Clouds 23 1015 64 10000 5.7 220 13:42 27.09.2019
1205 Clouds 23 1015 64 10000 5.7 220 13:22 27.09.2019
1206 Clouds 23 1016 64 10000 5.7 220 12:57 27.09.2019
1207 Clouds 23 1016 69 10000 5.7 220 12:38 27.09.2019
1208 Clouds 23 1016 69 10000 5.7 220 12:20 27.09.2019
1209 Clouds 23 1015 50 10000 3.6 310 11:39 27.09.2019
1210 Clouds 23 1015 50 10000 3.6 310 11:21 27.09.2019
1211 Clouds 23 1015 53 10000 1.5 280 10:57 27.09.2019
1212 Clouds 22 1015 60 10000 1.5 60 10:39 27.09.2019
1213 Clouds 22 1015 60 10000 1.5 60 10:39 27.09.2019
1214 Clouds 22 1015 60 10000 1.5 60 10:20 27.09.2019
1215 Clouds 22 1015 68 10000 3.6 340 09:42 27.09.2019
1216 Clouds 22 1015 68 10000 3.6 340 09:21 27.09.2019
1217 Clouds 21 1015 77 10000 4.6 330 08:57 27.09.2019
1218 Clouds 21 1015 77 10000 4.1 330 08:38 27.09.2019
1219 Clouds 21 1015 77 10000 4.1 330 08:38 27.09.2019
1220 Clouds 21 1015 77 10000 4.1 330 08:19 27.09.2019
1221 Clouds 20 1014 82 10000 2.6 320 07:45 27.09.2019
1222 Clouds 20 1014 82 10000 2.6 320 07:22 27.09.2019
1223 Clouds 20 1013 94 7000 2.1 280 06:43 27.09.2019
1224 Clouds 20 1013 94 7000 2.1 280 06:23 27.09.2019
1225 Rain 19 1013 100 6000 5.1 250 05:50 27.09.2019
1226 Rain 20 1012 88 8000 4.6 240 05:31 27.09.2019
1227 Clouds 20 1012 88 10000 4.6 250 03:55 27.09.2019
1228 Clouds 20 1012 88 10000 2.1 190 02:41 27.09.2019
1229 Clouds 20 1012 82 10000 2.1 250 01:44 27.09.2019
1230 Rain 20 1013 83 10000 1.5 250 00:59 27.09.2019
1231 Clouds 21 1013 83 10000 1.5 250 00:20 27.09.2019
1232 Clouds 20 1012 73 10000 2.6 260 23:56 26.09.2019
1233 Rain 21 1012 68 10000 2.1 240 23:37 26.09.2019
1234 Rain 21 1012 68 10000 2.1 240 23:18 26.09.2019
1235 Clear 20 1012 88 10000 2.52 234.952 22:55 26.09.2019
1236 Clear 21 1012 77 10000 1 230 22:37 26.09.2019
1237 Clear 21 1012 77 10000 1 230 22:18 26.09.2019
1238 Clear 21 1012 83 10000 1 0 22:18 26.09.2019
1239 Clear 21 1012 83 10000 1 0 21:55 26.09.2019
1240 Clear 21 1012 83 10000 1.5 140 21:36 26.09.2019
1241 Clear 21 1012 83 10000 1.5 140 21:18 26.09.2019
1242 Clear 21 1012 77 10000 1.5 120 20:56 26.09.2019
1243 Clear 21 1012 73 10000 2.1 120 20:37 26.09.2019
1244 Clear 21 1012 73 10000 2.1 120 20:37 26.09.2019
1245 Clear 21 1012 73 10000 2.1 120 20:19 26.09.2019
1246 Clear 21 1012 73 10000 2.1 120 20:19 26.09.2019
1247 Clear 22 1012 73 10000 2.1 110 19:40 26.09.2019
1248 Clear 22 1012 73 10000 2.1 110 19:19 26.09.2019
1249 Clear 22 1012 73 10000 2.1 120 18:58 26.09.2019
1250 Clear 22 1012 73 10000 2.1 120 18:58 26.09.2019
1251 Clear 22 1012 77 10000 2.1 160 18:39 26.09.2019
1252 Clear 22 1012 77 10000 2.1 160 18:39 26.09.2019
1253 Clear 22 1012 77 10000 2.1 160 18:21 26.09.2019
1254 Clear 23 1012 68 10000 2.1 170 17:54 26.09.2019
1255 Clear 23 1012 64 10000 2.1 200 17:36 26.09.2019
1256 Clear 23 1012 64 10000 2.6 190 17:18 26.09.2019
1257 Clear 24 1012 64 10000 3.1 230 16:39 26.09.2019
1258 Clear 24 1012 64 10000 3.1 230 16:20 26.09.2019
1259 Clear 24 1012 64 10000 3.1 210 15:58 26.09.2019
1260 Clear 24 1012 57 10000 3.1 210 15:38 26.09.2019
1261 Clear 24 1013 64 10000 3.1 200 15:19 26.09.2019
1262 Clear 24 1013 64 10000 3.1 200 14:57 26.09.2019
1263 Clouds 24 1013 64 10000 3.1 190 14:37 26.09.2019
1264 Clouds 24 1013 64 10000 3.1 190 14:37 26.09.2019
1265 Clouds 24 1013 69 10000 3.1 210 14:19 26.09.2019
1266 Clouds 24 1013 73 10000 3.1 230 13:41 26.09.2019
1267 Clouds 24 1013 73 10000 3.1 230 13:41 26.09.2019
1268 Clouds 24 1013 73 10000 3.1 230 13:41 26.09.2019
1269 Clouds 24 1013 73 10000 3.1 230 13:20 26.09.2019
1270 Clouds 24 1014 69 10000 3.1 220 12:59 26.09.2019
1271 Clouds 24 1014 69 10000 3.1 220 12:59 26.09.2019
1272 Clouds 23 1014 78 10000 3.1 220 12:41 26.09.2019
1273 Clouds 23 1014 78 10000 3.1 220 12:20 26.09.2019
1274 Clouds 23 1014 78 10000 3.6 220 11:42 26.09.2019
1275 Clouds 23 1014 78 10000 3.6 220 11:23 26.09.2019
1276 Clouds 22 1014 78 10000 3.1 210 10:57 26.09.2019
1277 Clouds 22 1014 83 10000 3.6 200 10:39 26.09.2019
1278 Clouds 22 1014 83 10000 3.6 200 10:20 26.09.2019
1279 Clouds 22 1014 83 10000 3.6 200 10:20 26.09.2019
1280 Clouds 21 1014 83 10000 3.1 180 09:44 26.09.2019
1281 Clouds 21 1014 83 10000 3.1 180 09:26 26.09.2019
1282 Clouds 20 1014 83 10000 2.1 190 08:57 26.09.2019
1283 Mist 20 1014 83 10000 0.93 247.64 08:39 26.09.2019
1284 Mist 20 1014 83 10000 0.93 247.64 08:21 26.09.2019
1285 Clouds 18 1013 100 10000 0.5 0 07:43 26.09.2019
1286 Clouds 18 1013 100 10000 0.5 0 07:21 26.09.2019
1287 Clear 17 1013 100 10000 2.1 340 06:44 26.09.2019
1288 Clear 17 1013 100 10000 1.5 310 06:25 26.09.2019
1289 Clear 17 1013 100 10000 2.1 330 05:44 26.09.2019
1290 Clear 17 1013 100 10000 2.1 330 05:25 26.09.2019
1291 Clear 18 1012 93 10000 2.1 350 02:53 26.09.2019
1292 Clear 18 1013 93 10000 3.1 320 01:54 26.09.2019
1293 Clear 18 1013 93 10000 2.6 300 01:29 26.09.2019
1294 Clear 19 1013 88 10000 2.1 280 00:56 26.09.2019
1295 Clear 19 1013 88 10000 2.1 290 00:37 26.09.2019
1296 Clouds 20 1013 88 10000 2.1 280 23:58 25.09.2019
1297 Clouds 20 1013 88 10000 1.5 260 23:39 25.09.2019
1298 Clouds 20 1013 88 10000 1.5 260 23:18 25.09.2019
1299 Clouds 20 1013 88 10000 1.5 260 23:18 25.09.2019
1300 Clouds 20 1013 82 10000 1.5 290 22:42 25.09.2019
1301 Clouds 20 1013 82 10000 1.5 290 22:21 25.09.2019
1302 Clouds 20 1013 82 10000 2.1 310 21:57 25.09.2019
1303 Clouds 20 1013 82 10000 2.6 330 21:39 25.09.2019
1304 Clouds 20 1013 82 10000 2.6 330 21:19 25.09.2019
1305 Clouds 20 1013 82 10000 2.6 300 20:58 25.09.2019
1306 Clouds 20 1013 82 10000 3.1 290 20:40 25.09.2019
1307 Clouds 20 1013 82 10000 3.1 290 20:22 25.09.2019
1308 Clouds 21 1012 82 10000 3.1 320 19:54 25.09.2019
1309 Clouds 20 1012 82 10000 4.6 320 19:36 25.09.2019
1310 Clouds 21 1012 82 10000 4.6 330 19:18 25.09.2019
1311 Clouds 21 1012 77 10000 4.1 310 18:55 25.09.2019
1312 Clouds 21 1012 73 10000 3.6 310 18:37 25.09.2019
1313 Clouds 21 1012 73 10000 3.6 310 18:18 25.09.2019
1314 Clouds 21 1011 77 10000 4.1 240 17:38 25.09.2019
1315 Clouds 21 1011 77 10000 4.1 240 17:19 25.09.2019
1316 Clouds 21 1011 77 10000 3.6 240 16:56 25.09.2019
1317 Clouds 22 1011 73 10000 3.1 210 16:36 25.09.2019
1318 Clouds 22 1011 73 10000 3.1 210 16:18 25.09.2019
1319 Clouds 22 1011 73 10000 4.6 210 15:41 25.09.2019
1320 Clouds 22 1011 73 10000 4.6 210 15:41 25.09.2019
1321 Clouds 22 1011 73 10000 4.6 210 15:23 25.09.2019
1322 Clouds 23 1011 64 10000 1 0 14:57 25.09.2019
1323 Clouds 22 1011 73 10000 3.1 170 14:39 25.09.2019
1324 Clouds 22 1011 73 10000 3.1 170 14:21 25.09.2019
1325 Clouds 22 1011 68 10000 1.5 350 13:42 25.09.2019
1326 Clouds 22 1011 68 10000 1.5 350 13:24 25.09.2019
1327 Clouds 21 1011 68 10000 2.6 350 12:59 25.09.2019
1328 Clouds 22 1011 68 10000 2.6 350 12:59 25.09.2019
1329 Clouds 21 1011 73 10000 3.6 350 12:39 25.09.2019
1330 Clouds 21 1011 73 10000 4.1 350 12:21 25.09.2019
1331 Clouds 21 1011 73 10000 4.1 350 11:57 25.09.2019
1332 Clouds 21 1011 77 10000 3.1 10 11:38 25.09.2019
1333 Clouds 21 1011 77 10000 3.1 10 11:19 25.09.2019
1334 Clouds 20 1011 93 10000 4.6 350 10:43 25.09.2019
1335 -273 0 0 0 0 0 10:24 25.09.2019
1336 Clouds 20 1011 93 10000 4.6 350 09:57 25.09.2019
1337 Clouds 20 1011 82 10000 3.1 30 09:37 25.09.2019
1338 Clouds 19 1011 82 10000 2.1 30 09:19 25.09.2019
1339 Clouds 19 1010 82 10000 2.1 30 08:44 25.09.2019
1340 Clouds 19 1010 82 10000 2.1 30 08:21 25.09.2019
1341 Clouds 19 1010 82 10000 2.6 30 07:57 25.09.2019
1342 Clouds 18 1010 82 10000 2.1 40 07:38 25.09.2019
1343 Rain 18 1010 82 10000 2.1 40 07:20 25.09.2019
1344 Rain 18 1010 77 10000 2.6 20 06:43 25.09.2019
1345 Rain 18 1010 77 10000 2.6 20 06:22 25.09.2019
1346 Clouds 18 1009 77 10000 2.6 20 05:28 25.09.2019
1347 Clouds 18 1009 77 10000 2.6 20 04:50 25.09.2019
1348 Clouds 18 1009 72 10000 3.6 40 02:19 25.09.2019
1349 Rain 18 1010 82 10000 3.1 40 00:45 25.09.2019
1350 Rain 18 1010 82 10000 3.1 40 00:25 25.09.2019
1351 Rain 18 1010 88 10000 2.6 40 23:57 24.09.2019
1352 Rain 18 1010 88 10000 2.6 40 23:38 24.09.2019
1353 Rain 18 1010 88 10000 2.6 40 23:19 24.09.2019
1354 Rain 18 1011 88 10000 3.1 70 22:39 24.09.2019
1355 Rain 18 1011 88 10000 3.1 70 22:21 24.09.2019
1356 Rain 19 1011 82 10000 4.1 70 21:58 24.09.2019
1357 Rain 19 1011 82 10000 4.1 70 21:58 24.09.2019
1358 Rain 19 1011 72 10000 4.1 70 21:37 24.09.2019
1359 Rain 19 1011 72 10000 4.1 70 21:19 24.09.2019
1360 Rain 19 1010 77 10000 4.1 60 20:58 24.09.2019
1361 Rain 20 1011 73 10000 3.6 40 20:40 24.09.2019
1362 Rain 20 1011 73 10000 3.6 40 20:21 24.09.2019
1363 Rain 20 1011 68 10000 3.1 30 19:57 24.09.2019
1364 Rain 20 1011 68 10000 3.1 30 19:57 24.09.2019
1365 Rain 20 1010 68 10000 5.1 20 19:39 24.09.2019
1366 Rain 20 1010 68 10000 5.1 20 19:18 24.09.2019
1367 Rain 21 1010 60 10000 2.6 30 18:42 24.09.2019
1368 Rain 21 1010 60 10000 2.6 30 18:22 24.09.2019
1369 Rain 22 1011 77 10000 3.1 70 17:59 24.09.2019
1370 Clouds 22 1010 49 10000 3.1 230 17:39 24.09.2019
1371 Clouds 22 1010 49 10000 3.1 230 17:21 24.09.2019
1372 Clouds 22 1010 38 10000 2.6 240 16:59 24.09.2019
1373 Clouds 23 1010 41 10000 2.1 200 16:41 24.09.2019
1374 Clouds 23 1010 41 10000 2.1 200 16:19 24.09.2019
1375 Clouds 24 1010 31 10000 2.1 200 15:43 24.09.2019
1376 Clouds 24 1010 31 10000 2.1 200 15:24 24.09.2019
1377 Clouds 25 1010 34 10000 1.5 0 14:58 24.09.2019
1378 Clouds 25 1010 34 10000 1.5 0 14:58 24.09.2019
1379 Clouds 25 1011 31 10000 3.1 190 14:37 24.09.2019
1380 Clouds 25 1011 31 10000 3.1 190 14:18 24.09.2019
1381 Clouds 25 1011 31 10000 1.5 0 13:40 24.09.2019
1382 Clouds 24 1012 33 10000 2.6 160 13:21 24.09.2019
1383 Clouds 24 1012 38 10000 3.1 100 12:42 24.09.2019
1384 Clouds 23 1012 38 10000 3.1 100 12:21 24.09.2019
1385 Clouds 23 1012 38 10000 2.6 90 11:57 24.09.2019
1386 Clouds 23 1012 46 10000 2.6 100 11:39 24.09.2019
1387 Clouds 23 1012 46 10000 2.6 100 11:21 24.09.2019
1388 Clouds 21 1013 53 10000 3.1 110 10:40 24.09.2019
1389 Clouds 22 1013 53 10000 3.1 110 10:21 24.09.2019
1390 Clouds 21 1013 60 10000 2.6 80 09:57 24.09.2019
1391 Clouds 20 1013 68 10000 2.6 100 09:39 24.09.2019
1392 Clouds 19 1013 72 10000 2.1 100 09:19 24.09.2019
1393 Clouds 19 1013 72 10000 2.1 100 08:55 24.09.2019
1394 Clouds 19 1013 72 10000 2.1 100 08:55 24.09.2019
1395 Clouds 19 1013 72 10000 2.1 100 08:55 24.09.2019
1396 Clouds 19 1013 72 10000 2.1 100 08:55 24.09.2019
1397 Clouds 19 1013 72 10000 2.1 100 08:55 24.09.2019
1398 Clouds 18 1013 72 10000 2.1 80 08:36 24.09.2019
1399 Clouds 18 1013 72 10000 2.1 80 08:18 24.09.2019
1400 Clear 18 1013 82 10000 1 0 08:18 24.09.2019
1401 Clear 17 1013 82 10000 1 0 07:42 24.09.2019
1402 Clear 17 1013 82 10000 1 0 07:23 24.09.2019
1403 Clear 16 1013 88 10000 0.5 0 06:46 24.09.2019
1404 Clear 15 1013 88 10000 0.5 0 06:27 24.09.2019
1405 Clear 16 1013 87 10000 0.5 30 05:26 24.09.2019
1406 Clear 15 1013 82 10000 2.45 88.665 04:19 24.09.2019
1407 Clear 15 1013 87 10000 0.5 0 03:34 24.09.2019
1408 Clear 16 1013 82 10000 1.8 125.245 02:45 24.09.2019
1409 Clear 15 1014 77 10000 0.5 0 01:43 24.09.2019
1410 Clear 16 1014 72 10000 2.47 94.575 00:42 24.09.2019
1411 Clear 16 1014 72 10000 2.03 99.583 00:23 24.09.2019
1412 Clear 16 1015 72 10000 2.03 99.583 23:43 23.09.2019
1413 Clear 16 1015 72 10000 2.03 99.583 23:23 23.09.2019
1414 Clear 16 1015 77 10000 1 0 22:57 23.09.2019
1415 Clear 17 1015 68 10000 0.5 0 22:37 23.09.2019
1416 Clear 17 1015 68 10000 0.5 0 22:37 23.09.2019
1417 Clear 17 1015 68 10000 0.5 0 22:19 23.09.2019
1418 Clear 17 1015 72 10000 0.5 0 21:56 23.09.2019
1419 Clear 17 1015 72 10000 0.5 0 21:37 23.09.2019
1420 Clear 18 1015 68 10000 1.76 75.363 21:18 23.09.2019
1421 Clear 18 1015 68 10000 0.5 0 20:40 23.09.2019
1422 Clear 18 1015 68 10000 0.5 0 20:19 23.09.2019
1423 Clear 18 1015 68 10000 1 0 19:55 23.09.2019
1424 Clear 18 1015 68 10000 1 0 19:55 23.09.2019
1425 Clear 19 1015 68 10000 1 180 19:37 23.09.2019
1426 Clear 19 1015 68 10000 1 180 19:19 23.09.2019
1427 Clear 19 1015 63 10000 1.5 180 18:42 23.09.2019
1428 Clear 19 1015 63 10000 1.5 180 18:42 23.09.2019
1429 Clear 20 1015 63 10000 1.5 180 18:21 23.09.2019
1430 Clear 20 1015 60 10000 1.5 230 17:59 23.09.2019
1431 Clear 21 1015 60 10000 2.1 230 17:39 23.09.2019
1432 Clear 21 1015 60 10000 2.1 230 17:20 23.09.2019
1433 Clear 21 1015 60 10000 2.6 230 16:57 23.09.2019
1434 Clear 21 1015 56 10000 3.1 210 16:37 23.09.2019
1435 Clear 21 1015 56 10000 3.1 210 16:18 23.09.2019
1436 Clear 22 1016 52 10000 3.1 200 15:56 23.09.2019
1437 Clear 21 1016 56 10000 3.1 210 15:38 23.09.2019
1438 Clear 21 1016 60 10000 3.6 190 15:18 23.09.2019
1439 Clear 21 1016 60 10000 3.6 220 14:40 23.09.2019
1440 Clear 21 1016 60 10000 3.6 220 14:40 23.09.2019
1441 Clear 22 1016 60 10000 3.6 220 14:21 23.09.2019
1442 Clear 21 1016 64 10000 3.6 190 13:59 23.09.2019
1443 Clear 21 1016 64 10000 3.6 190 13:59 23.09.2019
1444 Clear 21 1017 60 10000 3.1 210 13:38 23.09.2019
1445 Clear 21 1017 60 10000 3.1 210 13:18 23.09.2019
1446 Clear 21 1017 64 10000 4.1 190 12:54 23.09.2019
1447 Clear 21 1018 64 10000 3.6 210 12:36 23.09.2019
1448 Clear 21 1018 64 10000 3.6 210 12:18 23.09.2019
1449 Clear 20 1018 68 10000 3.6 190 11:43 23.09.2019
1450 -273 0 0 0 0 0 11:24 23.09.2019
1451 Clear 19 1018 63 10000 2.6 160 10:49 23.09.2019
1452 Clear 19 1018 63 10000 2.6 160 10:22 23.09.2019
1453 Clear 19 1018 60 10000 2.6 120 09:59 23.09.2019
1454 Clear 18 1018 63 10000 1.5 0 09:38 23.09.2019
1455 Clear 18 1018 63 10000 1.5 0 09:20 23.09.2019
1456 Clear 16 1018 68 10000 1 0 08:48 23.09.2019
1457 Clear 16 1018 68 10000 1 0 08:29 23.09.2019
1458 Clear 15 1018 67 10000 1 0 07:58 23.09.2019
1459 Clear 14 1018 67 10000 1 0 07:58 23.09.2019
1460 Clear 15 1018 67 10000 1 0 07:58 23.09.2019
1461 Clear 14 1018 82 10000 2.6 350 07:30 23.09.2019
1462 Clear 12 1018 81 10000 2.1 340 06:40 23.09.2019
1463 Clear 12 1018 76 10000 2.1 340 05:56 23.09.2019
1464 Clear 12 1018 76 10000 2.6 340 05:21 23.09.2019
1465 Clear 12 1018 76 10000 2.6 20 04:54 23.09.2019
1466 Clear 12 1018 81 10000 2.1 360 03:33 23.09.2019
1467 Clear 14 1019 63 10000 2.1 30 01:19 23.09.2019
1468 Clear 15 1019 59 10000 2.6 40 00:23 23.09.2019
1469 Clear 16 1019 59 10000 2.6 50 23:56 22.09.2019
1470 Clear 16 1019 63 10000 2.6 50 23:33 22.09.2019
1471 Clear 16 1020 59 10000 3.1 50 22:58 22.09.2019
1472 Clear 16 1020 63 10000 2.6 50 22:40 22.09.2019
1473 Clear 16 1020 63 10000 2.6 50 22:22 22.09.2019
1474 Clear 16 1020 59 10000 3.1 60 21:43 22.09.2019
1475 Clear 17 1020 59 10000 3.1 60 21:23 22.09.2019
1476 Clear 17 1020 55 10000 3.6 60 20:59 22.09.2019
1477 Clear 17 1020 55 10000 4.6 60 20:41 22.09.2019
1478 Clear 17 1020 55 10000 4.6 60 20:23 22.09.2019
1479 Clear 17 1020 59 10000 5.7 50 19:42 22.09.2019
1480 Clouds 18 1020 59 10000 5.1 60 19:24 22.09.2019
1481 Clear 17 1020 59 10000 5.7 50 19:24 22.09.2019
1482 Clouds 18 1020 59 10000 5.1 60 18:59 22.09.2019
1483 Clear 18 1020 55 10000 5.7 20 18:41 22.09.2019
1484 Clear 18 1020 55 10000 5.7 20 18:20 22.09.2019
1485 Clear 19 1020 52 10000 6.2 20 17:59 22.09.2019
1486 Clear 19 1020 52 10000 6.2 20 17:59 22.09.2019
1487 Clear 19 1020 49 10000 5.7 30 17:41 22.09.2019
1488 Clear 19 1020 49 10000 5.7 30 17:20 22.09.2019
1489 Clear 20 1020 43 10000 5.7 20 16:45 22.09.2019
1490 Clear 20 1020 43 10000 5.7 20 16:26 22.09.2019
1491 Clear 20 1020 46 10000 5.7 30 15:57 22.09.2019
1492 Clouds 21 1021 46 10000 6.2 30 15:38 22.09.2019
1493 Clouds 21 1021 46 10000 6.2 30 15:38 22.09.2019
1494 Clouds 20 1021 46 10000 6.2 30 15:19 22.09.2019
1495 Clouds 21 1021 43 10000 5.1 30 14:43 22.09.2019
1496 Clouds 20 1021 43 10000 5.1 30 14:25 22.09.2019
1497 Clouds 21 1021 35 10000 3.6 60 13:58 22.09.2019
1498 Clouds 21 1022 37 10000 4.6 100 13:40 22.09.2019
1499 Clouds 21 1022 37 10000 4.6 100 13:40 22.09.2019
1500 Clouds 20 1022 37 10000 4.6 100 13:21 22.09.2019
1501 Clouds 20 1023 40 10000 4.6 70 12:44 22.09.2019
1502 Clouds 20 1023 40 10000 4.6 70 12:24 22.09.2019
1503 Clouds 19 1023 42 10000 5.1 60 11:59 22.09.2019
1504 Clouds 19 1024 42 10000 3.6 80 11:40 22.09.2019
1505 Clouds 20 1024 42 10000 3.6 80 11:22 22.09.2019
1506 Clouds 19 1024 45 10000 5.1 80 10:44 22.09.2019
1507 Clouds 19 1024 45 10000 5.1 80 10:20 22.09.2019
1508 Clouds 18 1024 48 10000 5.1 80 09:58 22.09.2019
1509 Clouds 18 1024 52 10000 4.6 70 09:39 22.09.2019
1510 Clouds 18 1024 52 10000 4.6 70 09:19 22.09.2019
1511 Clouds 17 1025 52 10000 3.1 60 08:45 22.09.2019
1512 Clear 16 1024 55 10000 3.1 60 08:25 22.09.2019
1513 Clouds 15 1024 55 10000 2.6 70 07:56 22.09.2019
1514 Clouds 15 1024 55 10000 3.1 40 07:37 22.09.2019
1515 Clouds 15 1024 54 10000 2.1 30 07:18 22.09.2019
1516 Clouds 14 1024 54 10000 2.1 30 06:54 22.09.2019
1517 Clear 14 1024 58 10000 3.1 20 05:30 22.09.2019
1518 Clear 14 1024 51 10000 3.1 40 03:33 22.09.2019
1519 Clear 14 1025 51 10000 2.6 30 02:38 22.09.2019
1520 Clear 14 1025 51 10000 2.6 30 02:38 22.09.2019
1521 Clear 14 1025 51 10000 2.6 30 02:18 22.09.2019
1522 Clear 14 1025 51 10000 3.1 50 00:59 22.09.2019
1523 Clear 14 1025 51 10000 3.1 50 00:33 22.09.2019
1524 Clear 15 1026 51 10000 3.6 50 23:59 21.09.2019
1525 Clear 15 1026 51 10000 3.1 50 23:40 21.09.2019
1526 Clear 15 1026 51 10000 3.1 50 23:19 21.09.2019
1527 Clear 16 1026 48 10000 3.1 60 22:39 21.09.2019
1528 Clear 16 1026 48 10000 3.1 60 22:21 21.09.2019
1529 Clear 16 1026 45 10000 4.1 50 21:43 21.09.2019
1530 Clear 16 1026 45 10000 4.1 50 21:20 21.09.2019
1531 Clear 16 1026 45 10000 3.6 40 20:59 21.09.2019
1532 Clear 16 1026 45 10000 4.1 40 20:38 21.09.2019
1533 Clear 16 1026 45 10000 4.1 40 20:19 21.09.2019
1534 Clouds 17 1026 48 10000 4.1 50 19:47 21.09.2019
1535 Clouds 17 1026 45 10000 4.6 40 19:23 21.09.2019
1536 Clouds 17 1025 42 10000 5.7 30 18:55 21.09.2019
1537 Clouds 18 1025 42 10000 6.7 30 18:37 21.09.2019
1538 Clouds 18 1025 39 10000 6.2 40 18:18 21.09.2019
1539 Clouds 19 1025 39 10000 7.2 30 17:40 21.09.2019
1540 Clouds 19 1025 39 10000 7.2 30 17:20 21.09.2019
1541 Clouds 19 1025 37 10000 6.2 40 16:43 21.09.2019
1542 Clouds 19 1025 37 10000 6.2 40 16:24 21.09.2019
1543 Clouds 20 1025 37 10000 7.2 50 15:49 21.09.2019
1544 Clouds 20 1025 37 10000 7.2 50 15:25 21.09.2019
1545 Clouds 20 1025 37 10000 6.7 60 14:55 21.09.2019
1546 Clouds 20 1025 37 10000 6.7 50 14:37 21.09.2019
1547 Clouds 20 1025 37 10000 6.7 50 14:19 21.09.2019
1548 Clouds 20 1025 35 9000 7.7 20 13:41 21.09.2019
1549 Clouds 20 1025 35 9000 7.7 20 13:23 21.09.2019
1550 Clouds 20 1025 40 10000 8.2 20 12:57 21.09.2019
1551 Clouds 20 1025 40 10000 8.2 20 12:38 21.09.2019
1552 Clouds 20 1025 40 10000 8.2 20 12:20 21.09.2019
1553 Clouds 20 1025 37 10000 7.2 60 11:47 21.09.2019
1554 Clouds 20 1025 37 10000 7.2 60 11:25 21.09.2019
1555 Clouds 19 1025 45 10000 6.2 30 10:56 21.09.2019
1556 Clouds 20 1025 40 10000 7.2 30 10:37 21.09.2019
1557 Clouds 20 1025 40 10000 7.2 30 10:19 21.09.2019
1558 Clouds 18 1025 48 10000 7.2 30 09:40 21.09.2019
1559 Clouds 18 1024 52 10000 6.2 40 09:21 21.09.2019
1560 Clouds 18 1024 52 10000 6.2 40 08:59 21.09.2019
1561 Clouds 17 1024 82 10000 3.6 70 08:40 21.09.2019
1562 Rain 18 1024 72 10000 3.1 40 07:55 21.09.2019
1563 Rain 18 1024 72 10000 3.1 40 07:55 21.09.2019
1564 Clouds 17 1024 59 10000 2.1 40 07:37 21.09.2019
1565 Clouds 17 1023 59 10000 2.1 80 07:18 21.09.2019
1566 Clouds 17 1023 55 10000 2.6 30 06:34 21.09.2019
1567 Clouds 16 1022 59 10000 3.1 20 05:51 21.09.2019
1568 Clouds 16 1022 72 10000 2.1 70 04:38 21.09.2019
1569 Rain 16 1022 77 10000 3.6 70 03:25 21.09.2019
1570 Clouds 17 1022 48 10000 7.2 30 02:22 21.09.2019
1571 Clouds 17 1022 87 10000 3.6 40 01:46 21.09.2019
1572 Rain 17 1022 87 10000 3.1 40 00:58 21.09.2019
1573 Clouds 17 1022 55 10000 4.1 20 00:22 21.09.2019
1574 Rain 17 1022 67 10000 3.6 40 23:48 20.09.2019
1575 Rain 17 1022 67 10000 3.6 40 23:29 20.09.2019
1576 Rain 17 1022 63 10000 3.1 60 22:44 20.09.2019
1577 Rain 17 1022 63 10000 3.1 60 22:25 20.09.2019
1578 Rain 17 1022 68 10000 4.6 50 21:57 20.09.2019
1579 Clouds 17 1021 77 10000 5.1 20 21:39 20.09.2019
1580 Clouds 17 1021 82 10000 2.6 50 21:20 20.09.2019
1581 Clouds 17 1021 82 10000 2.6 50 20:59 20.09.2019
1582 Rain 17 1021 82 10000 3.1 40 20:39 20.09.2019
1583 Rain 17 1021 82 10000 3.1 40 20:19 20.09.2019
1584 Rain 17 1020 82 10000 5.1 40 19:55 20.09.2019
1585 Rain 17 1020 82 10000 6.2 20 19:36 20.09.2019
1586 Rain 17 1021 68 10000 8.7 40 19:18 20.09.2019
1587 Rain 17 1019 82 10000 6.2 20 18:38 20.09.2019
1588 Rain 17 1019 88 10000 6.2 10 18:18 20.09.2019
1589 Rain 17 1020 82 6000 9.3 10 17:47 20.09.2019
1590 Rain 17 1020 82 6000 9.3 10 17:27 20.09.2019
1591 Rain 17 1019 88 10000 7.7 360 16:57 20.09.2019
1592 Rain 18 1018 93 8000 6.7 360 16:37 20.09.2019
1593 Rain 18 1018 93 8000 6.7 360 16:18 20.09.2019
1594 Rain 18 1018 93 8000 6.7 10 15:41 20.09.2019
1595 Rain 18 1018 93 8000 6.7 10 15:41 20.09.2019
1596 Rain 17 1018 93 8000 6.7 10 15:22 20.09.2019
1597 Rain 18 1018 88 8000 6.7 350 14:44 20.09.2019
1598 Rain 18 1017 88 7000 8.2 340 14:20 20.09.2019
1599 Rain 17 1017 88 7000 8.2 340 14:00 20.09.2019
1600 Rain 17 1017 88 10000 11.8 340 13:40 20.09.2019
1601 Rain 17 1017 88 10000 11.8 340 13:21 20.09.2019
1602 Rain 17 1017 87 10000 11.3 340 12:40 20.09.2019
1603 Rain 17 1017 87 10000 11.3 340 12:22 20.09.2019
1604 Rain 17 1017 87 6000 12.3 340 11:51 20.09.2019
1605 Rain 17 1017 87 6000 11.3 350 11:26 20.09.2019
1606 Rain 17 1017 93 6000 11.3 350 10:58 20.09.2019
1607 Rain 17 1017 93 4000 9.3 340 10:40 20.09.2019
1608 Rain 17 1017 93 4000 9.3 340 10:22 20.09.2019
1609 Rain 17 1017 93 4000 9.3 340 10:22 20.09.2019
1610 Rain 19 1017 87 2000 13.9 350 09:38 20.09.2019
1611 Rain 19 1015 64 10000 4.1 10 09:19 20.09.2019
1612 Rain 19 1015 88 10000 9.3 310 08:48 20.09.2019
1613 Rain 19 1015 88 10000 9.3 310 08:28 20.09.2019
1614 Rain 20 1015 77 10000 8.2 320 07:58 20.09.2019
1615 Rain 19 1015 93 6000 13.9 340 07:40 20.09.2019
1616 Rain 20 1015 93 6000 6.7 320 07:20 20.09.2019
1617 Rain 20 1016 88 10000 8.2 300 06:42 20.09.2019
1618 Clouds 20 1015 72 10000 2.6 20 06:18 20.09.2019
1619 Clouds 20 1015 68 10000 3.6 50 04:31 20.09.2019
1620 Clouds 20 1016 73 10000 2.6 30 03:27 20.09.2019
1621 Clear 20 1016 73 10000 3.6 40 02:18 20.09.2019
1622 Clear 21 1016 73 10000 3.6 30 01:39 20.09.2019
1623 Clear 21 1016 73 10000 5.1 40 00:42 20.09.2019
1624 Clear 21 1016 73 10000 5.1 50 23:50 19.09.2019
1625 Clear 21 1016 73 10000 4.6 50 23:28 19.09.2019
1626 Clear 21 1017 68 10000 5.7 50 22:59 19.09.2019
1627 Clouds 21 1017 68 10000 5.1 50 22:40 19.09.2019
1628 Clouds 21 1017 68 10000 5.1 50 22:21 19.09.2019
1629 Clouds 21 1017 68 10000 4.6 60 21:57 19.09.2019
1630 Clouds 21 1017 68 10000 6.2 60 21:38 19.09.2019
1631 Clouds 21 1017 68 10000 6.2 60 21:19 19.09.2019
1632 Clouds 22 1017 73 10000 5.7 60 20:55 19.09.2019
1633 Clouds 22 1017 73 10000 5.7 50 20:37 19.09.2019
1634 Clouds 22 1017 73 10000 5.7 50 20:18 19.09.2019
1635 Clouds 22 1018 77 10000 9.3 60 19:39 19.09.2019
1636 Clouds 22 1018 77 10000 9.3 60 19:21 19.09.2019
1637 Clouds 22 1017 73 10000 5.7 40 18:58 19.09.2019
1638 Clouds 22 1017 68 10000 8.2 40 18:40 19.09.2019
1639 Clouds 22 1018 73 10000 9.3 60 18:21 19.09.2019
1640 Clouds 23 1017 60 10000 7.7 50 17:42 19.09.2019
1641 Clouds 23 1017 60 10000 7.7 50 17:23 19.09.2019
1642 Clouds 23 1017 60 10000 8.2 30 16:59 19.09.2019
1643 Clouds 23 1017 57 10000 7.7 50 16:40 19.09.2019
1644 Clouds 23 1017 57 10000 7.7 50 16:19 19.09.2019
1645 Clouds 24 1017 60 10000 7.7 40 15:39 19.09.2019
1646 Clouds 24 1017 60 10000 7.7 40 15:21 19.09.2019
1647 Clouds 24 1017 60 10000 7.7 40 15:21 19.09.2019
1648 Clouds 24 1017 57 10000 8.2 20 14:57 19.09.2019
1649 Clouds 24 1017 57 10000 7.2 40 14:38 19.09.2019
1650 Clouds 24 1017 57 10000 7.2 40 14:18 19.09.2019
1651 Clouds 24 1017 57 10000 7.2 40 14:18 19.09.2019
1652 Clouds 24 1017 53 10000 7.2 40 13:40 19.09.2019
1653 Clouds 24 1017 53 10000 7.2 40 13:20 19.09.2019
1654 Clouds 25 1017 53 10000 6.7 60 12:40 19.09.2019
1655 Clouds 25 1017 53 10000 6.7 60 12:20 19.09.2019
1656 Clouds 25 1017 54 10000 6.7 50 11:59 19.09.2019
1657 Clouds 24 1017 57 10000 6.7 50 11:40 19.09.2019
1658 Clouds 24 1017 57 10000 6.7 50 11:21 19.09.2019
1659 Clouds 24 1017 57 10000 6.2 60 10:57 19.09.2019
1660 Clouds 24 1018 61 10000 6.2 60 10:37 19.09.2019
1661 Clouds 24 1018 61 10000 6.2 60 10:18 19.09.2019
1662 Clouds 23 1018 64 10000 7.2 60 09:42 19.09.2019
1663 Clouds 23 1019 73 10000 8.7 80 09:22 19.09.2019
1664 Clouds 22 1018 69 10000 7.2 60 08:56 19.09.2019
1665 Clouds 22 1018 69 10000 7.2 60 08:37 19.09.2019
1666 Clouds 22 1018 69 10000 7.2 60 08:19 19.09.2019
1667 Clouds 22 1018 69 10000 6.7 60 07:43 19.09.2019
1668 Clouds 22 1017 73 10000 7.7 50 07:21 19.09.2019
1669 Clouds 22 1017 78 10000 7.2 50 06:47 19.09.2019
1670 Clouds 22 1017 78 10000 7.2 50 06:27 19.09.2019
1671 Clouds 22 1017 78 10000 7.2 50 05:52 19.09.2019
1672 Clouds 22 1017 78 10000 6.2 40 04:58 19.09.2019
1673 Clouds 22 1017 78 10000 7.2 40 03:52 19.09.2019
1674 Clouds 22 1017 83 10000 5.7 30 02:45 19.09.2019
1675 Clouds 23 1016 83 10000 4.6 30 01:27 19.09.2019
1676 Clear 23 1016 83 10000 6.2 20 00:50 19.09.2019
1677 Clear 23 1016 64 10000 5.1 20 00:25 19.09.2019
1678 Clear 23 1015 50 10000 3.1 40 23:42 18.09.2019
1679 Clear 23 1015 50 10000 3.1 40 23:21 18.09.2019
1680 Clear 23 1015 68 10000 1 0 22:48 18.09.2019
1681 Clear 22 1015 68 10000 1 0 22:23 18.09.2019
1682 Clear 23 1015 64 10000 0.5 0 21:59 18.09.2019
1683 Clear 23 1015 68 10000 1 0 21:41 18.09.2019
1684 Clear 24 1014 69 10000 0.5 0 21:19 18.09.2019
1685 Clear 24 1014 69 10000 0.5 0 20:59 18.09.2019
1686 Clear 24 1014 69 10000 1.5 110 20:40 18.09.2019
1687 Clear 24 1014 60 10000 2.1 120 20:22 18.09.2019
1688 Clear 24 1014 60 10000 2.1 120 19:59 18.09.2019
1689 Clear 24 1014 31 10000 5.1 300 19:41 18.09.2019
1690 Clear 25 1013 60 10000 1.5 150 19:20 18.09.2019
1691 Clear 25 1013 60 10000 1.5 150 18:56 18.09.2019
1692 Clear 26 1013 61 10000 1 0 18:38 18.09.2019
1693 Clear 27 1013 61 10000 1 0 18:19 18.09.2019
1694 Clear 28 1013 39 10000 2.6 230 17:58 18.09.2019
1695 Clear 29 1013 39 10000 2.6 230 17:40 18.09.2019
1696 Smoke 29 1013 34 10000 3.1 220 17:19 18.09.2019
1697 Smoke 29 1013 34 10000 3.1 220 16:56 18.09.2019
1698 Smoke 30 1013 37 10000 3.1 220 16:38 18.09.2019
1699 Smoke 30 1013 36 10000 3.1 240 16:19 18.09.2019
1700 Smoke 29 1013 36 10000 3.1 240 15:55 18.09.2019
1701 Smoke 29 1013 36 10000 3.6 240 15:37 18.09.2019
1702 Smoke 29 1013 36 10000 4.1 250 15:19 18.09.2019
1703 Smoke 29 1013 36 10000 4.1 250 14:57 18.09.2019
1704 Smoke 28 1013 44 10000 4.1 250 14:39 18.09.2019
1705 Smoke 28 1014 44 10000 3.6 230 14:21 18.09.2019
1706 Smoke 28 1014 44 10000 3.6 230 14:21 18.09.2019
1707 Smoke 28 1014 39 10000 3.6 240 13:44 18.09.2019
1708 Smoke 28 1014 53 10000 3.6 240 13:19 18.09.2019
1709 Smoke 27 1014 53 10000 3.6 240 12:56 18.09.2019
1710 Smoke 28 1014 53 10000 4.1 230 12:37 18.09.2019
1711 Smoke 26 1014 53 10000 4.6 230 12:18 18.09.2019
1712 Clear 27 1014 53 10000 5.7 230 11:40 18.09.2019
1713 Clear 27 1014 65 10000 5.1 230 11:20 18.09.2019
1714 Clear 27 1014 69 10000 3.6 210 10:41 18.09.2019
1715 Clear 26 1014 69 10000 3.6 210 10:23 18.09.2019
1716 Clear 26 1014 69 10000 3.6 210 10:23 18.09.2019
1717 Clear 26 1014 69 10000 3.6 210 10:23 18.09.2019
1718 Clear 25 1014 64 10000 2.6 190 09:59 18.09.2019
1719 Clear 25 1014 57 10000 2.1 180 09:41 18.09.2019
1720 Clear 25 1014 57 10000 2.1 180 09:22 18.09.2019
1721 Clear 24 1014 64 10000 1 0 08:56 18.09.2019
1722 Clear 23 1014 69 10000 2.1 130 08:38 18.09.2019
1723 Clear 22 1014 78 10000 2.1 140 08:19 18.09.2019
1724 Clear 21 1014 83 10000 1 0 07:43 18.09.2019
1725 Clear 20 1014 83 10000 1 0 07:23 18.09.2019
1726 Fog 19 1014 93 800 4.13 202.694 06:45 18.09.2019
1727 Fog 19 1014 93 800 3.61 199.53 06:21 18.09.2019
1728 Clear 19 1013 93 10000 3.61 199.53 05:27 18.09.2019
1729 Clear 19 1013 88 10000 1 120 03:40 18.09.2019
1730 Clear 19 1014 82 10000 0.5 0 02:40 18.09.2019
1731 Clear 20 1014 77 10000 1 0 01:41 18.09.2019
1732 Clear 20 1014 82 10000 0.5 0 00:55 18.09.2019
1733 Clear 21 1014 77 10000 1.5 90 00:31 18.09.2019
1734 Clear 22 1014 73 10000 1 90 23:47 17.09.2019
1735 Clear 22 1014 73 10000 1 90 23:25 17.09.2019
1736 Clear 21 1014 78 10000 1.5 110 22:56 17.09.2019
1737 Clear 21 1014 78 10000 1.5 110 22:56 17.09.2019
1738 Clear 22 1014 78 10000 1.5 110 22:37 17.09.2019
1739 Clear 22 1014 78 10000 1.5 110 22:19 17.09.2019
1740 Clear 22 1014 78 10000 1.5 110 21:54 17.09.2019
1741 Clear 22 1014 78 10000 1.5 110 21:54 17.09.2019
1742 Clear 22 1015 78 10000 1.5 80 21:36 17.09.2019
1743 Clear 22 1014 78 10000 1.5 90 21:18 17.09.2019
1744 Clear 22 1014 78 10000 1.5 90 20:55 17.09.2019
1745 Clear 22 1014 73 10000 2.1 100 20:37 17.09.2019
1746 Clear 22 1014 46 10000 5.1 200 20:19 17.09.2019
1747 Clear 23 1014 49 10000 5.1 190 19:40 17.09.2019
1748 Clear 23 1014 47 10000 4.6 200 19:20 17.09.2019
1749 Clear 23 1014 60 10000 1.5 110 18:59 17.09.2019
1750 Clear 23 1014 60 10000 1.5 110 18:59 17.09.2019
1751 Clear 24 1014 53 10000 2.1 150 18:41 17.09.2019
1752 Clear 24 1014 53 10000 2.1 150 18:41 17.09.2019
1753 Clear 24 1014 53 10000 2.1 150 18:22 17.09.2019
1754 Clear 25 1014 50 10000 2.6 200 17:55 17.09.2019
1755 Clear 26 1014 50 10000 2.6 200 17:36 17.09.2019
1756 Clear 26 1014 50 10000 2.6 200 17:18 17.09.2019
1757 Clear 26 1014 57 10000 3.1 200 16:41 17.09.2019
1758 Clear 26 1014 57 10000 3.1 200 16:22 17.09.2019
1759 Clear 27 1015 50 10000 3.6 210 15:55 17.09.2019
1760 Clear 27 1015 64 10000 4.1 210 15:37 17.09.2019
1761 -273 0 0 0 0 0 15:19 17.09.2019
1762 Clear 27 1015 64 10000 4.1 200 14:55 17.09.2019
1763 Clear 27 1015 69 10000 4.1 200 14:37 17.09.2019
1764 Clear 26 1015 69 10000 4.1 200 14:18 17.09.2019
1765 Clear 26 1015 69 10000 4.1 200 14:18 17.09.2019
1766 Clear 26 1016 73 10000 5.1 210 13:41 17.09.2019
1767 Clear 26 1016 73 10000 5.1 210 13:23 17.09.2019
1768 Clear 26 1016 78 10000 5.7 210 12:55 17.09.2019
1769 Clear 26 1016 73 10000 6.2 210 12:37 17.09.2019
1770 Clear 25 1016 73 10000 5.7 210 12:18 17.09.2019
1771 Clear 24 1016 73 10000 5.1 210 11:41 17.09.2019
1772 Clear 24 1016 73 10000 5.1 210 11:19 17.09.2019
1773 Clouds 23 1016 73 10000 5.7 200 10:42 17.09.2019
1774 Clouds 23 1016 78 10000 4.6 200 10:23 17.09.2019
1775 Clouds 23 1016 78 10000 4.6 200 09:59 17.09.2019
1776 Clouds 22 1016 78 10000 3.1 220 09:40 17.09.2019
1777 Clear 21 1016 78 10000 3.1 230 09:20 17.09.2019
1778 Clear 20 1016 83 10000 2.6 240 08:45 17.09.2019
1779 Clear 20 1016 83 10000 2.6 240 08:25 17.09.2019
1780 Clear 19 1015 83 10000 2.6 230 07:56 17.09.2019
1781 Clear 18 1015 88 10000 2.6 230 07:38 17.09.2019
1782 Clear 17 1015 93 10000 1 0 07:19 17.09.2019
1783 Clear 16 1015 88 10000 1.5 250 06:45 17.09.2019
1784 Clear 16 1015 88 10000 1.5 250 06:19 17.09.2019
1785 Clear 17 1015 93 10000 2.1 240 05:35 17.09.2019
1786 Clear 16 1015 88 10000 1.1 285.852 04:26 17.09.2019
1787 Clear 17 1015 82 10000 1 320 02:53 17.09.2019
1788 Clear 17 1015 82 10000 2.1 290 02:33 17.09.2019
1789 Clear 17 1015 82 10000 1 330 01:19 17.09.2019
1790 Clear 17 1015 82 10000 1 350 00:28 17.09.2019
1791 Clear 18 1016 72 10000 1 0 23:37 16.09.2019
1792 Clear 19 1016 72 10000 1.5 30 23:18 16.09.2019
1793 Clear 19 1016 72 10000 2.1 50 22:42 16.09.2019
1794 Clear 19 1016 72 10000 2.1 50 22:24 16.09.2019
1795 Clear 19 1016 68 10000 2.6 60 21:59 16.09.2019
1796 Clear 20 1016 64 10000 3.1 70 21:39 16.09.2019
1797 Clear 20 1016 64 10000 3.1 70 21:20 16.09.2019
1798 Clear 20 1016 64 10000 3.1 60 20:58 16.09.2019
1799 Clear 20 1016 64 10000 2.6 30 20:39 16.09.2019
1800 Clear 20 1016 60 10000 3.6 20 20:19 16.09.2019
1801 Clear 20 1016 60 10000 3.6 20 19:55 16.09.2019
1802 Clear 21 1016 56 10000 4.1 20 19:37 16.09.2019
1803 Clear 21 1016 56 10000 4.1 20 19:18 16.09.2019
1804 Clear 21 1016 56 10000 4.1 20 19:18 16.09.2019
1805 Clear 21 1016 49 10000 5.1 360 18:43 16.09.2019
1806 Clear 22 1016 49 10000 5.1 360 18:25 16.09.2019
1807 Clear 22 1016 49 10000 4.6 20 17:54 16.09.2019
1808 Clear 23 1016 50 10000 5.1 10 17:36 16.09.2019
1809 Clear 23 1016 44 10000 5.1 10 17:18 16.09.2019
1810 Clear 23 1016 44 10000 5.1 10 17:18 16.09.2019
1811 Clouds 24 1016 47 10000 4.6 20 16:42 16.09.2019
1812 Clouds 24 1016 47 10000 4.6 20 16:21 16.09.2019
1813 Clouds 24 1016 50 10000 2.1 0 15:57 16.09.2019
1814 Clouds 24 1016 50 10000 2.1 0 15:57 16.09.2019
1815 Clouds 25 1016 50 10000 3.1 160 15:38 16.09.2019
1816 Clouds 25 1016 50 10000 3.1 160 15:38 16.09.2019
1817 Clouds 24 1016 50 10000 3.1 150 15:20 16.09.2019
1818 Clouds 25 1016 50 10000 3.1 150 14:57 16.09.2019
1819 Clouds 24 1016 47 10000 3.1 140 14:39 16.09.2019
1820 Clouds 24 1016 47 10000 3.1 140 14:20 16.09.2019
1821 Clouds 24 1017 50 10000 4.1 110 13:41 16.09.2019
1822 Clouds 24 1018 50 10000 4.1 110 13:22 16.09.2019
1823 Clouds 24 1017 50 10000 4.1 110 13:22 16.09.2019
1824 Clouds 24 1018 50 10000 4.1 110 12:55 16.09.2019
1825 Clouds 24 1018 50 10000 4.1 110 12:55 16.09.2019
1826 Clouds 23 1018 53 10000 4.1 100 12:36 16.09.2019
1827 Clouds 23 1018 53 10000 4.1 100 12:18 16.09.2019
1828 Clouds 23 1019 50 10000 3.1 10 11:44 16.09.2019
1829 Clouds 23 1019 50 10000 2.6 70 11:22 16.09.2019
1830 Clear 22 1019 50 10000 3.1 0 10:40 16.09.2019
1831 Clear 22 1019 50 10000 3.1 0 10:21 16.09.2019
1832 Clear 22 1019 56 10000 4.1 30 09:59 16.09.2019
1833 Clear 22 1019 60 10000 4.6 20 09:41 16.09.2019
1834 Clear 22 1019 60 10000 4.6 20 09:20 16.09.2019
1835 Clear 21 1019 56 10000 5.1 20 08:52 16.09.2019
1836 Clear 21 1019 60 10000 4.1 360 08:31 16.09.2019
1837 Clear 20 1019 64 10000 3.6 350 07:58 16.09.2019
1838 Clear 19 1019 72 10000 3.1 350 07:40 16.09.2019
1839 Clear 19 1019 68 10000 3.6 10 07:20 16.09.2019
1840 Clear 18 1019 72 10000 3.1 10 06:49 16.09.2019
1841 Clear 18 1019 72 10000 3.1 10 06:31 16.09.2019
1842 Clear 19 1019 72 10000 3.1 10 05:57 16.09.2019
1843 Clear 18 1019 77 10000 2.6 10 05:38 16.09.2019
1844 Clear 17 1019 77 10000 3.1 10 04:55 16.09.2019
1845 Clear 18 1019 68 10000 1 0 03:33 16.09.2019
1846 Clear 19 1021 68 10000 4.1 20 00:44 16.09.2019
1847 Clear 20 1021 68 10000 4.1 20 00:26 16.09.2019
1848 Clear 20 1021 64 10000 3.6 20 23:56 15.09.2019
1849 Clear 20 1021 60 10000 4.1 20 23:37 15.09.2019
1850 Clear 20 1021 60 10000 4.1 20 23:37 15.09.2019
1851 Clear 20 1021 60 10000 4.1 20 23:18 15.09.2019
1852 Clear 20 1021 60 10000 4.1 20 23:18 15.09.2019
1853 Clear 20 1022 60 10000 4.1 30 22:39 15.09.2019
1854 Clear 21 1022 60 10000 4.1 30 22:19 15.09.2019
1855 Clear 21 1022 60 10000 4.1 30 21:56 15.09.2019
1856 Clear 21 1022 60 10000 4.6 30 21:38 15.09.2019
1857 Clear 21 1022 60 10000 4.6 30 21:19 15.09.2019
1858 Clear 21 1022 60 10000 5.1 30 20:45 15.09.2019
1859 Clear 21 1022 60 10000 5.7 30 20:26 15.09.2019
1860 Clear 21 1022 60 10000 5.7 30 20:26 15.09.2019
1861 Clear 21 1022 56 10000 7.2 20 19:56 15.09.2019
1862 Clear 22 1022 56 10000 7.7 20 19:37 15.09.2019
1863 Clear 22 1022 56 10000 7.7 20 19:19 15.09.2019
1864 Clouds 22 1022 53 10000 8.2 30 18:40 15.09.2019
1865 Clouds 22 1022 53 10000 9.3 20 18:20 15.09.2019
1866 Clouds 23 1022 53 10000 8.7 30 17:43 15.09.2019
1867 Clouds 23 1022 53 10000 8.7 30 17:22 15.09.2019
1868 Clouds 23 1022 57 10000 8.7 40 16:58 15.09.2019
1869 Clouds 23 1022 57 10000 9.8 20 16:40 15.09.2019
1870 Clouds 24 1022 57 10000 10.8 10 16:21 15.09.2019
1871 Clouds 24 1022 57 10000 10.8 10 15:56 15.09.2019
1872 Clouds 24 1022 57 10000 10.3 20 15:37 15.09.2019
1873 Clouds 24 1022 61 10000 8.7 30 15:18 15.09.2019
1874 Clouds 24 1022 57 10000 9.8 20 14:43 15.09.2019
1875 Clouds 24 1022 57 10000 9.8 20 14:24 15.09.2019
1876 Clouds 25 1022 54 10000 9.3 20 13:55 15.09.2019
1877 Clouds 25 1022 50 10000 9.8 20 13:37 15.09.2019
1878 Clouds 25 1023 54 10000 10.3 20 13:19 15.09.2019
1879 Clouds 25 1022 54 10000 8.2 20 12:42 15.09.2019
1880 Clouds 25 1022 54 10000 8.2 20 12:23 15.09.2019
1881 Clouds 25 1022 54 10000 7.7 40 11:56 15.09.2019
1882 Clouds 25 1022 57 10000 7.2 40 11:38 15.09.2019
1883 Clouds 25 1022 57 10000 7.2 40 11:38 15.09.2019
1884 Clouds 25 1022 57 10000 7.2 40 11:19 15.09.2019
1885 Clouds 24 1022 53 10000 9.3 30 10:42 15.09.2019
1886 Clouds 24 1022 53 10000 9.3 30 10:22 15.09.2019
1887 Clouds 24 1022 64 10000 8.2 50 09:57 15.09.2019
1888 Clouds 24 1022 69 10000 2.6 40 09:37 15.09.2019
1889 Clouds 23 1022 60 10000 7.2 40 09:18 15.09.2019
1890 Clouds 23 1022 69 10000 4.1 40 08:44 15.09.2019
1891 Clouds 23 1022 69 10000 4.1 40 08:25 15.09.2019
1892 Clouds 22 1022 69 10000 3.1 30 07:48 15.09.2019
1893 Clouds 22 1022 69 10000 3.1 30 07:25 15.09.2019
1894 Clouds 21 1022 73 10000 3.6 30 06:33 15.09.2019
1895 Clear 21 1021 64 10000 3.6 10 03:25 15.09.2019
1896 Clear 21 1021 64 10000 4.1 10 02:30 15.09.2019
1897 Clear 21 1021 64 10000 3.1 10 01:38 15.09.2019
1898 Clear 21 1021 64 10000 3.1 10 01:38 15.09.2019
1899 Clear 21 1021 64 10000 3.1 10 00:58 15.09.2019
1900 Clear 22 1021 64 10000 3.6 20 00:39 15.09.2019
1901 Clear 22 1021 64 10000 3.6 20 00:19 15.09.2019
1902 Clear 22 1021 60 10000 4.1 40 23:57 14.09.2019
1903 Clear 22 1021 60 10000 4.1 40 23:39 14.09.2019
1904 Clear 22 1021 60 10000 4.1 40 23:19 14.09.2019
1905 Clear 22 1022 60 10000 3.6 40 22:58 14.09.2019
1906 Clear 22 1021 60 10000 4.6 50 22:38 14.09.2019
1907 Clear 22 1021 60 10000 4.6 50 22:19 14.09.2019
1908 Clear 23 1021 56 10000 4.1 50 21:40 14.09.2019
1909 Clear 23 1021 56 10000 4.1 50 21:40 14.09.2019
1910 Clear 23 1021 56 10000 4.1 50 21:21 14.09.2019
1911 Clear 23 1021 56 10000 4.1 30 20:59 14.09.2019
1912 Clear 23 1020 56 10000 5.7 20 20:40 14.09.2019
1913 Clear 23 1020 56 10000 5.7 20 20:22 14.09.2019
1914 Clear 23 1020 53 10000 6.2 30 19:51 14.09.2019
1915 Clear 23 1020 50 10000 5.7 30 19:23 14.09.2019
1916 Clear 23 1020 53 10000 6.2 30 19:23 14.09.2019
1917 Clear 23 1020 50 10000 5.7 30 18:58 14.09.2019
1918 Clear 24 1020 47 10000 6.2 40 18:39 14.09.2019
1919 Clear 24 1020 47 10000 6.2 40 18:20 14.09.2019
1920 Clear 24 1020 44 10000 8.7 20 17:55 14.09.2019
1921 Clear 25 1020 39 10000 8.2 30 17:37 14.09.2019
1922 Clear 25 1020 34 10000 8.7 30 17:18 14.09.2019
1923 Clear 26 1019 32 10000 9.8 40 16:42 14.09.2019
1924 Clear 26 1019 32 10000 9.8 40 16:21 14.09.2019
1925 Clouds 26 1019 36 10000 9.3 50 15:42 14.09.2019
1926 Clouds 26 1019 36 10000 9.3 50 15:23 14.09.2019
1927 Clouds 26 1020 39 10000 8.2 40 14:58 14.09.2019
1928 Clouds 26 1020 39 10000 8.7 40 14:39 14.09.2019
1929 Clouds 26 1020 39 10000 8.7 40 14:18 14.09.2019
1930 Clouds 26 1020 36 10000 8.7 40 13:47 14.09.2019
1931 Clouds 26 1020 36 10000 8.7 40 13:22 14.09.2019
1932 Clouds 26 1020 39 10000 8.2 20 12:47 14.09.2019
1933 Clouds 26 1020 39 10000 8.2 20 12:25 14.09.2019
1934 Clouds 26 1020 39 10000 7.2 60 11:42 14.09.2019
1935 Clouds 26 1020 36 10000 7.2 40 11:21 14.09.2019
1936 Clouds 26 1020 36 10000 7.2 40 10:55 14.09.2019
1937 Clouds 25 1020 36 10000 7.7 40 10:36 14.09.2019
1938 Clouds 25 1020 36 10000 7.7 40 10:18 14.09.2019
1939 Clouds 25 1020 36 10000 8.2 40 09:55 14.09.2019
1940 Clouds 24 1020 44 10000 8.2 40 09:37 14.09.2019
1941 Clouds 24 1020 44 10000 8.2 40 09:18 14.09.2019
1942 Clouds 23 1020 53 10000 6.2 30 08:41 14.09.2019
1943 Clouds 23 1020 53 10000 6.2 30 08:22 14.09.2019
1944 Clouds 22 1020 64 10000 5.7 20 07:43 14.09.2019
1945 Clouds 22 1020 64 10000 5.7 20 07:23 14.09.2019
1946 Clear 21 1020 73 10000 3.6 10 06:36 14.09.2019
1947 -273 0 0 0 0 0 05:55 14.09.2019
1948 Clear 21 1020 68 10000 3.6 10 04:43 14.09.2019
1949 Clear 21 1020 64 10000 4.1 10 03:32 14.09.2019
1950 Clear 21 1020 60 10000 3.6 20 02:48 14.09.2019
1951 Clear 22 1021 60 10000 4.6 20 01:45 14.09.2019
1952 Clear 22 1021 60 10000 4.6 20 01:20 14.09.2019
1953 Clear 22 1021 56 10000 5.1 20 00:41 14.09.2019
1954 Clear 22 1021 56 10000 5.1 30 00:22 14.09.2019
1955 Clear 22 1021 56 10000 5.1 30 23:56 13.09.2019
1956 Clear 22 1021 56 10000 4.6 30 23:37 13.09.2019
1957 Clear 22 1021 60 10000 6.2 30 23:18 13.09.2019
1958 Clear 22 1021 60 10000 6.2 30 22:55 13.09.2019
1959 Clear 22 1021 60 10000 6.2 30 22:55 13.09.2019
1960 Clear 22 1021 60 10000 5.7 30 22:37 13.09.2019
1961 Clear 22 1021 60 10000 5.7 30 22:19 13.09.2019
1962 Clear 23 1021 56 10000 5.7 30 21:40 13.09.2019
1963 Clear 23 1021 56 10000 5.7 30 21:19 13.09.2019
1964 Clear 23 1021 56 10000 5.7 30 21:19 13.09.2019
1965 Clouds 23 1021 56 10000 5.1 30 20:58 13.09.2019
1966 Clouds 23 1020 53 10000 5.7 30 20:38 13.09.2019
1967 Clouds 23 1020 53 10000 5.7 30 20:19 13.09.2019
1968 Clouds 23 1020 53 10000 6.2 30 19:54 13.09.2019
1969 Clouds 23 1020 57 10000 6.7 30 19:36 13.09.2019
1970 Clouds 24 1021 69 10000 9.8 50 19:18 13.09.2019
1971 Clouds 24 1020 53 10000 8.7 20 18:38 13.09.2019
1972 Clouds 24 1020 44 10000 9.8 50 18:20 13.09.2019
1973 Clouds 24 1020 44 10000 9.8 50 17:55 13.09.2019
1974 Clouds 24 1019 41 10000 9.8 50 17:37 13.09.2019
1975 Clouds 25 1019 41 10000 9.3 40 17:18 13.09.2019
1976 Clouds 26 1019 36 10000 10.3 40 16:40 13.09.2019
1977 Clouds 26 1019 36 10000 10.3 40 16:20 13.09.2019
1978 Clouds 26 1019 32 10000 10.8 40 15:44 13.09.2019
1979 Clouds 26 1019 32 10000 10.8 40 15:25 13.09.2019
1980 Clouds 26 1019 34 10000 9.8 50 14:56 13.09.2019
1981 Clouds 26 1019 44 10000 8.7 40 14:37 13.09.2019
1982 Clouds 26 1019 44 10000 8.7 40 14:19 13.09.2019
1983 Clouds 26 1018 42 10000 11.3 50 13:44 13.09.2019
1984 Clouds 26 1019 54 10000 9.3 40 13:22 13.09.2019
1985 Clouds 25 1019 54 10000 9.3 40 12:46 13.09.2019
1986 Clouds 25 1019 61 10000 8.2 30 12:26 13.09.2019
1987 Clouds 25 1019 61 10000 8.2 30 11:57 13.09.2019
1988 Clouds 24 1019 65 10000 7.2 40 11:21 13.09.2019
1989 Rain 24 1019 69 10000 9.3 50 10:59 13.09.2019
1990 Clouds 24 1019 83 10000 5.1 40 10:37 13.09.2019
1991 Rain 23 1019 83 8000 7.7 30 10:18 13.09.2019
1992 Clouds 24 1019 57 10000 7.2 40 09:43 13.09.2019
1993 Clouds 24 1019 57 10000 7.2 40 09:43 13.09.2019
1994 Clouds 24 1019 57 10000 7.2 40 09:23 13.09.2019
1995 Clouds 23 1019 65 10000 4.1 30 08:58 13.09.2019
1996 Rain 23 1019 69 10000 5.1 50 08:39 13.09.2019
1997 Rain 23 1019 69 10000 4.1 30 08:20 13.09.2019
1998 Rain 22 1018 73 10000 4.1 30 07:43 13.09.2019
1999 Rain 22 1018 73 10000 4.1 30 07:24 13.09.2019
2000 Thunderstorm 22 1019 88 3200 9.8 50 06:39 13.09.2019
2001 Clouds 21 1018 73 10000 3.6 20 05:39 13.09.2019
2002 Clouds 21 1018 73 10000 3.6 30 04:34 13.09.2019
2003 Clouds 21 1018 73 10000 3.1 30 03:33 13.09.2019
2004 Clouds 22 1018 73 10000 4.1 360 02:20 13.09.2019
2005 Clouds 22 1019 69 10000 3.6 30 01:38 13.09.2019
2006 Clouds 22 1019 73 10000 3.1 30 00:59 13.09.2019
2007 Clouds 22 1019 69 10000 2.6 20 00:36 13.09.2019
2008 Clouds 22 1019 69 10000 3.6 20 23:53 12.09.2019
2009 Clouds 22 1019 69 10000 4.1 20 23:26 12.09.2019
2010 Clouds 23 1020 69 10000 4.1 30 22:58 12.09.2019
2011 Clouds 23 1019 69 10000 5.7 40 22:40 12.09.2019
2012 Clouds 23 1019 69 10000 5.7 40 22:22 12.09.2019
2013 Clouds 23 1020 64 10000 5.7 50 21:56 12.09.2019
2014 Clouds 23 1020 64 10000 5.7 40 21:37 12.09.2019
2015 Clouds 23 1020 64 10000 5.7 40 21:19 12.09.2019
2016 Clouds 23 1020 69 10000 5.7 30 20:44 12.09.2019
2017 Clouds 23 1020 69 10000 5.7 30 20:23 12.09.2019
2018 Clouds 23 1020 69 10000 5.7 30 19:58 12.09.2019
2019 Clouds 23 1019 69 10000 7.2 30 19:39 12.09.2019
2020 Clouds 24 1019 69 10000 7.2 20 19:19 12.09.2019
2021 Clouds 24 1019 69 10000 7.2 20 18:56 12.09.2019
2022 Clouds 24 1019 65 10000 5.7 30 18:36 12.09.2019
2023 Clouds 24 1019 57 10000 9.3 20 18:18 12.09.2019
2024 Clouds 24 1019 61 10000 7.2 30 17:40 12.09.2019
2025 Clouds 24 1019 61 10000 7.2 30 17:20 12.09.2019
2026 Clouds 25 1019 57 10000 7.7 10 16:56 12.09.2019
2027 Clouds 25 1019 57 10000 7.7 10 16:56 12.09.2019
2028 Clouds 25 1019 57 10000 8.2 10 16:37 12.09.2019
2029 Clouds 25 1019 57 10000 8.2 10 16:19 12.09.2019
2030 Clouds 26 1019 54 10000 7.2 10 15:41 12.09.2019
2031 Clouds 26 1019 54 10000 7.2 10 15:23 12.09.2019
2032 Clouds 26 1019 54 10000 7.2 10 15:23 12.09.2019
2033 Clouds 26 1019 47 10000 8.2 10 14:46 12.09.2019
2034 Clouds 26 1019 47 10000 8.2 10 14:22 12.09.2019
2035 Clouds 26 1019 47 10000 9.3 10 13:58 12.09.2019
2036 Clouds 26 1020 51 10000 6.7 20 13:37 12.09.2019
2037 Clouds 26 1019 57 10000 7.7 10 13:19 12.09.2019
2038 Clouds 26 1019 54 10000 6.7 30 12:45 12.09.2019
2039 Clouds 26 1020 51 10000 6.7 20 12:19 12.09.2019
2040 Clouds 26 1020 51 10000 6.7 20 11:56 12.09.2019
2041 Clouds 26 1020 54 10000 5.7 20 11:38 12.09.2019
2042 Clouds 26 1020 54 10000 5.7 20 11:19 12.09.2019
2043 Clouds 24 1019 57 10000 7.2 20 10:44 12.09.2019
2044 Clouds 24 1019 57 10000 7.2 20 10:26 12.09.2019
2045 Clouds 24 1019 61 10000 6.2 20 09:45 12.09.2019
2046 Clouds 24 1019 61 10000 6.2 20 09:25 12.09.2019
2047 Clouds 24 1019 61 10000 6.2 20 09:25 12.09.2019
2048 Clear 23 1019 64 10000 6.7 40 08:59 12.09.2019
2049 Clear 23 1019 64 10000 5.1 40 08:40 12.09.2019
2050 Clear 23 1019 64 10000 5.1 40 08:21 12.09.2019
2051 Clear 21 1019 73 10000 4.1 20 07:40 12.09.2019
2052 Clear 21 1019 73 10000 4.1 20 07:19 12.09.2019
2053 Clear 21 1019 77 10000 3.6 10 06:50 12.09.2019
2054 Clear 20 1019 73 10000 3.6 10 06:19 12.09.2019
2055 Clear 20 1019 73 10000 3.6 10 05:49 12.09.2019
2056 Clear 20 1019 77 10000 3.6 10 05:30 12.09.2019
2057 Clear 20 1019 77 10000 4.1 10 04:35 12.09.2019
2058 Clear 21 1019 73 10000 3.1 20 02:28 12.09.2019
2059 Clear 21 1019 73 10000 3.6 20 01:36 12.09.2019
2060 Clear 22 1019 73 10000 3.1 30 01:18 12.09.2019
2061 Clear 22 1019 73 10000 3.1 30 00:42 12.09.2019
2062 Clear 22 1019 73 10000 3.1 30 00:23 12.09.2019
2063 Clear 22 1019 69 10000 4.6 20 23:42 11.09.2019
2064 Clear 22 1019 69 10000 4.6 20 23:22 11.09.2019
2065 Clear 23 1019 69 10000 4.1 30 22:56 11.09.2019
2066 Clear 23 1019 69 10000 4.6 30 22:37 11.09.2019
2067 Clear 23 1019 69 10000 4.6 30 22:19 11.09.2019
2068 Clear 23 1019 69 10000 5.1 50 21:42 11.09.2019
2069 Clear 23 1019 69 10000 5.1 50 21:24 11.09.2019
2070 Clear 23 1019 64 10000 6.2 60 20:58 11.09.2019
2071 Clear 23 1019 64 10000 4.6 40 20:39 11.09.2019
2072 Clear 23 1019 64 10000 4.6 40 20:39 11.09.2019
2073 Clear 23 1018 60 10000 5.7 50 20:19 11.09.2019
2074 Clear 23 1018 60 10000 5.7 50 19:58 11.09.2019
2075 Clear 24 1018 64 10000 7.2 40 19:39 11.09.2019
2076 Clear 24 1018 64 10000 7.2 40 19:21 11.09.2019
2077 Clear 24 1018 61 10000 8.2 50 18:58 11.09.2019
2078 Clear 24 1018 61 10000 8.2 40 18:38 11.09.2019
2079 Clouds 25 1018 54 10000 8.7 40 18:19 11.09.2019
2080 Clouds 25 1018 54 10000 8.7 40 17:55 11.09.2019
2081 Clouds 25 1018 57 10000 8.2 30 17:37 11.09.2019
2082 Clouds 25 1018 57 10000 8.2 30 17:19 11.09.2019
2083 Clouds 26 1017 51 10000 8.2 40 16:46 11.09.2019
2084 Clouds 26 1017 47 10000 9.3 30 16:23 11.09.2019
2085 Clouds 27 1017 48 10000 10.3 30 15:54 11.09.2019
2086 Clouds 28 1017 51 10000 9.8 40 15:36 11.09.2019
2087 Clouds 27 1017 57 10000 9.3 40 15:18 11.09.2019
2088 Clouds 27 1017 51 10000 8.7 30 14:41 11.09.2019
2089 Clouds 27 1017 51 10000 8.7 30 14:21 11.09.2019
2090 Clouds 28 1017 42 10000 8.2 40 13:59 11.09.2019
2091 Clouds 27 1017 48 10000 8.2 40 13:37 11.09.2019
2092 Clouds 28 1017 51 10000 8.2 40 13:19 11.09.2019
2093 Clouds 27 1017 58 10000 6.7 30 12:43 11.09.2019
2094 Clouds 27 1017 58 10000 6.7 30 12:23 11.09.2019
2095 Clouds 27 1017 61 10000 7.7 20 11:59 11.09.2019
2096 Clouds 27 1017 57 10000 7.7 50 11:39 11.09.2019
2097 Clouds 27 1017 57 10000 7.7 50 11:39 11.09.2019
2098 Clouds 27 1017 57 10000 7.7 50 11:21 11.09.2019
2099 Clouds 26 1017 61 10000 7.2 30 10:55 11.09.2019
2100 Clouds 26 1017 57 10000 6.7 30 10:37 11.09.2019
2101 Clouds 26 1017 57 10000 6.7 30 10:18 11.09.2019
2102 Clouds 25 1017 57 10000 6.7 30 09:37 11.09.2019
2103 Clouds 24 1017 57 10000 6.7 30 09:19 11.09.2019
2104 Clouds 23 1016 64 10000 6.2 50 08:42 11.09.2019
2105 Clouds 23 1016 64 10000 6.2 50 08:22 11.09.2019
2106 Clouds 23 1017 69 10000 4.6 30 07:57 11.09.2019
2107 Clear 22 1016 69 10000 3.6 30 07:39 11.09.2019
2108 Clear 22 1016 69 10000 3.6 30 07:20 11.09.2019
2109 Clear 22 1016 73 10000 4.1 40 06:40 11.09.2019
2110 Clear 21 1016 68 10000 3.6 30 06:21 11.09.2019
2111 Clear 21 1016 68 10000 4.6 30 05:34 11.09.2019
2112 Clear 21 1016 68 10000 4.1 30 04:53 11.09.2019
2113 Clear 21 1016 68 10000 4.6 20 04:18 11.09.2019
2114 Clear 22 1015 68 10000 5.7 20 03:27 11.09.2019
2115 Clear 22 1015 64 10000 5.1 30 02:32 11.09.2019
2116 Clear 22 1015 69 10000 5.7 40 01:32 11.09.2019
2117 Clear 22 1015 73 10000 5.7 50 00:37 11.09.2019
2118 Clear 22 1015 73 10000 5.7 50 00:19 11.09.2019
2119 Clear 23 1015 69 10000 4.6 40 23:40 10.09.2019
2120 Clear 23 1015 69 10000 4.6 40 23:21 10.09.2019
2121 Clear 22 1015 73 10000 6.7 50 22:55 10.09.2019
2122 Clear 23 1015 64 10000 6.2 40 22:37 10.09.2019
2123 Clear 23 1015 69 10000 5.7 40 22:18 10.09.2019
2124 Clouds 23 1015 69 10000 6.2 50 21:54 10.09.2019
2125 Clouds 23 1015 69 10000 6.2 50 21:36 10.09.2019
2126 Clouds 23 1015 69 10000 6.2 50 21:18 10.09.2019
2127 Clouds 23 1015 69 10000 6.2 60 21:18 10.09.2019
2128 Clouds 23 1015 73 10000 5.7 40 20:54 10.09.2019
2129 Clouds 23 1015 73 10000 5.7 40 20:36 10.09.2019
2130 Clouds 24 1015 73 10000 6.7 40 20:18 10.09.2019
2131 -273 0 0 0 0 0 19:55 10.09.2019
2132 Clouds 24 1015 73 10000 6.7 40 19:55 10.09.2019
2133 Clouds 24 1014 69 10000 6.7 40 19:36 10.09.2019
2134 Clouds 24 1014 69 10000 6.7 40 19:18 10.09.2019
2135 Clouds 24 1014 69 10000 7.7 30 18:42 10.09.2019
2136 Clouds 24 1014 69 10000 7.7 30 18:22 10.09.2019
2137 Clouds 25 1014 69 10000 8.2 30 17:56 10.09.2019
2138 Clouds 25 1014 65 10000 8.7 30 17:38 10.09.2019
2139 Clouds 25 1014 65 10000 8.7 30 17:19 10.09.2019
2140 -273 0 0 0 0 0 16:56 10.09.2019
2141 Clouds 26 1014 57 10000 9.3 30 16:37 10.09.2019
2142 Clouds 27 1014 54 10000 9.3 50 16:19 10.09.2019
2143 Clouds 27 1014 54 10000 8.2 20 15:43 10.09.2019
2144 Clouds 26 1014 57 10000 9.8 20 15:22 10.09.2019
2145 Clouds 26 1014 57 10000 9.8 20 14:57 10.09.2019
2146 Clouds 27 1014 57 10000 7.7 20 14:38 10.09.2019
2147 Clouds 26 1014 57 10000 7.7 30 14:19 10.09.2019
2148 Clouds 26 1014 65 10000 8.7 20 13:47 10.09.2019
2149 Clouds 26 1014 65 10000 8.7 20 13:23 10.09.2019
2150 Clouds 26 1014 61 10000 7.2 20 12:53 10.09.2019
2151 Clouds 26 1014 61 10000 7.7 20 12:28 10.09.2019
2152 Clouds 25 1014 65 10000 6.2 20 11:59 10.09.2019
2153 Clouds 25 1014 61 10000 6.7 30 11:40 10.09.2019
2154 Clouds 25 1014 61 10000 6.7 30 11:22 10.09.2019
2155 Clouds 25 1014 57 10000 5.1 70 10:54 10.09.2019
2156 Clouds 25 1014 57 10000 5.1 70 10:36 10.09.2019
2157 Clouds 24 1014 69 10000 3.1 110 10:18 10.09.2019
2158 Clouds 24 1014 61 10000 5.1 20 09:41 10.09.2019
2159 Clouds 23 1014 64 10000 4.6 50 09:19 10.09.2019
2160 Clear 23 1014 64 10000 4.1 30 08:47 10.09.2019
2161 Clear 22 1014 64 10000 4.1 30 08:29 10.09.2019
2162 Clear 22 1014 69 10000 2.1 30 07:56 10.09.2019
2163 Clear 21 1014 77 10000 2.6 340 07:38 10.09.2019
2164 Clouds 20 1014 73 10000 3.1 60 07:20 10.09.2019
2165 Clouds 19 1014 73 10000 3.1 60 06:40 10.09.2019
2166 Clouds 19 1014 77 10000 2.6 50 06:20 10.09.2019
2167 Clear 19 1013 82 10000 2.1 340 04:19 10.09.2019
2168 Clear 21 1014 73 10000 2.1 30 02:38 10.09.2019
2169 Clear 21 1014 73 10000 2.6 20 02:20 10.09.2019
2170 Clear 21 1014 73 10000 2.6 20 02:20 10.09.2019
2171 Clear 21 1014 73 10000 2.6 20 02:20 10.09.2019
2172 Clear 21 1014 73 10000 2.6 20 02:20 10.09.2019
2173 Clear 21 1014 73 10000 2.6 20 01:50 10.09.2019
2174 Clear 21 1014 73 10000 2.6 20 01:50 10.09.2019
2175 Clouds 21 1014 73 10000 3.6 30 01:22 10.09.2019
2176 Clouds 21 1014 68 10000 3.1 40 00:36 10.09.2019
2177 Clear 21 1014 68 10000 2.6 30 23:58 09.09.2019
2178 Clear 21 1014 68 10000 3.6 20 23:40 09.09.2019
2179 Clear 21 1014 68 10000 3.1 30 23:18 09.09.2019
2180 Clear 22 1014 68 10000 3.1 30 22:54 09.09.2019
2181 Clear 22 1014 68 10000 3.6 30 22:36 09.09.2019
2182 Clear 22 1015 64 10000 3.1 20 22:18 09.09.2019
2183 Clear 23 1015 64 10000 3.1 20 21:55 09.09.2019
2184 -273 0 0 0 0 0 21:55 09.09.2019
2185 Clear 23 1014 64 10000 4.1 30 21:36 09.09.2019
2186 Clear 23 1014 64 10000 4.6 40 21:18 09.09.2019
2187 Clear 23 1014 64 10000 4.6 40 20:55 09.09.2019
2188 Clear 23 1014 64 10000 5.1 40 20:36 09.09.2019
2189 Clouds 23 1014 57 10000 5.7 20 20:18 09.09.2019
2190 Clouds 23 1014 57 10000 5.7 20 19:55 09.09.2019
2191 Clouds 23 1015 60 10000 6.2 50 19:37 09.09.2019
2192 Clouds 23 1015 64 10000 6.7 50 19:18 09.09.2019
2193 Clouds 24 1015 60 10000 6.7 40 18:54 09.09.2019
2194 Clouds 24 1014 57 10000 5.7 30 18:36 09.09.2019
2195 Clouds 24 1015 60 10000 6.7 40 18:36 09.09.2019
2196 Clouds 24 1015 60 10000 7.2 50 18:18 09.09.2019
2197 Clouds 25 1013 57 10000 6.7 30 17:41 09.09.2019
2198 Clouds 25 1013 57 10000 6.7 30 17:21 09.09.2019
2199 Clouds 26 1013 57 10000 7.7 30 16:59 09.09.2019
2200 Clouds 26 1013 47 10000 7.2 40 16:39 09.09.2019
2201 Clouds 26 1013 47 10000 7.2 40 16:20 09.09.2019
2202 Clouds 26 1013 44 10000 6.7 40 15:56 09.09.2019
2203 Clouds 26 1014 51 10000 6.7 40 15:37 09.09.2019
2204 Clouds 27 1014 48 10000 6.7 40 15:19 09.09.2019
2205 Clouds 27 1014 48 10000 6.7 40 14:57 09.09.2019
2206 Clouds 26 1014 54 10000 6.7 30 14:38 09.09.2019
2207 Clouds 27 1014 51 10000 7.2 20 14:20 09.09.2019
2208 Clouds 27 1014 51 10000 7.7 20 13:45 09.09.2019
2209 Clouds 27 1015 65 10000 9.8 50 13:21 09.09.2019
2210 Clouds 27 1014 54 10000 6.2 30 12:58 09.09.2019
2211 Clouds 26 1015 65 10000 8.7 50 12:40 09.09.2019
2212 Clouds 26 1015 65 10000 9.3 60 12:20 09.09.2019
2213 Clouds 25 1014 61 10000 3.6 190 11:48 09.09.2019
2214 Clouds 25 1014 61 10000 3.6 190 11:24 09.09.2019
2215 Clouds 25 1015 61 10000 2.6 160 11:00 09.09.2019
2216 Clouds 24 1015 61 10000 2.6 170 10:41 09.09.2019
2217 Clouds 25 1015 61 10000 2.6 170 10:21 09.09.2019
2218 Clouds 24 1015 69 10000 3.1 160 09:57 09.09.2019
2219 Clouds 24 1015 69 10000 2.1 190 09:38 09.09.2019
2220 Clouds 24 1015 64 10000 4.1 20 09:20 09.09.2019
2221 Clouds 23 1015 60 10000 4.1 40 08:39 09.09.2019
2222 Clouds 23 1015 57 10000 3.1 30 08:20 09.09.2019
2223 Clouds 22 1015 60 10000 3.1 360 07:48 09.09.2019
2224 Clouds 22 1016 60 10000 8.2 50 07:23 09.09.2019
2225 Clouds 21 1015 68 10000 2.6 360 06:58 09.09.2019
2226 Clouds 21 1015 68 10000 3.1 10 06:40 09.09.2019
2227 Clouds 21 1015 60 10000 2.6 30 04:56 09.09.2019
2228 Clouds 21 1015 60 10000 2.6 30 04:56 09.09.2019
2229 Clouds 21 1016 64 10000 4.1 40 02:59 09.09.2019
2230 Clear 21 1016 64 10000 4.6 50 02:39 09.09.2019
2231 Clouds 22 1017 56 10000 8.7 70 00:46 09.09.2019
2232 Clear 22 1017 60 10000 4.1 50 00:22 09.09.2019
2233 Clear 22 1017 60 10000 4.1 50 23:46 08.09.2019
2234 Clear 22 1017 60 10000 4.1 50 23:24 08.09.2019
2235 Clear 22 1017 64 10000 3.6 50 22:57 08.09.2019
2236 Clouds 23 1017 60 10000 4.6 50 22:38 08.09.2019
2237 Clouds 23 1017 60 10000 4.6 50 22:19 08.09.2019
2238 Clear 23 1017 60 10000 6.7 50 21:42 08.09.2019
2239 Clear 23 1017 60 10000 6.7 50 21:23 08.09.2019
2240 Clear 23 1017 57 10000 6.2 50 20:59 08.09.2019
2241 Clear 23 1017 60 10000 6.7 50 20:59 08.09.2019
2242 Clear 23 1017 57 10000 6.2 50 20:40 08.09.2019
2243 Clear 23 1017 57 10000 6.2 50 20:21 08.09.2019
2244 Clear 23 1017 57 10000 6.2 50 19:59 08.09.2019
2245 Clouds 23 1018 60 10000 9.8 60 19:38 08.09.2019
2246 Clouds 24 1017 57 10000 9.8 50 19:20 08.09.2019
2247 Clear 24 1016 57 10000 8.7 50 18:57 08.09.2019
2248 Clouds 24 1017 57 10000 10.3 60 18:38 08.09.2019
2249 Clouds 24 1016 53 10000 8.7 50 18:18 08.09.2019
2250 Clouds 24 1016 53 10000 8.7 50 17:56 08.09.2019
2251 Clouds 25 1016 50 10000 8.7 50 17:36 08.09.2019
2252 Clouds 25 1016 50 10000 8.7 50 17:18 08.09.2019
2253 Clouds 26 1015 47 10000 7.7 50 16:43 08.09.2019
2254 Clouds 26 1015 47 10000 7.7 50 16:22 08.09.2019
2255 Clouds 26 1015 44 10000 7.7 50 15:58 08.09.2019
2256 Clouds 26 1015 47 10000 8.2 40 15:40 08.09.2019
2257 Clouds 27 1015 47 10000 8.2 40 15:21 08.09.2019
2258 Clouds 27 1015 51 10000 8.7 40 14:56 08.09.2019
2259 Clouds 27 1015 45 10000 7.2 60 14:37 08.09.2019
2260 Clouds 27 1015 45 10000 6.7 50 14:19 08.09.2019
2261 Clouds 27 1015 45 10000 6.7 50 13:55 08.09.2019
2262 Rain 27 1017 57 10000 9.3 70 13:36 08.09.2019
2263 Clouds 27 1017 61 10000 8.2 80 13:18 08.09.2019
2264 Clouds 27 1015 57 10000 6.2 30 12:41 08.09.2019
2265 Clouds 26 1015 54 10000 7.2 50 12:23 08.09.2019
2266 Clouds 26 1015 54 10000 7.2 50 11:58 08.09.2019
2267 Clouds 26 1015 54 10000 7.2 50 11:58 08.09.2019
2268 Clouds 26 1015 54 10000 7.2 40 11:38 08.09.2019
2269 Clouds 26 1015 54 10000 7.2 40 11:38 08.09.2019
2270 Clouds 26 1016 54 10000 6.7 60 11:20 08.09.2019
2271 Clouds 26 1016 54 10000 6.7 60 10:56 08.09.2019
2272 Clouds 25 1016 57 10000 5.7 60 10:38 08.09.2019
2273 Clouds 25 1016 57 10000 5.7 60 10:38 08.09.2019
2274 Clouds 25 1016 57 10000 5.7 50 10:19 08.09.2019
2275 Clouds 25 1016 61 10000 5.1 50 09:38 08.09.2019
2276 Clouds 24 1016 61 10000 5.1 50 09:20 08.09.2019
2277 Clouds 24 1016 61 10000 5.1 40 08:56 08.09.2019
2278 Rain 23 1016 69 10000 4.1 40 08:37 08.09.2019
2279 Clear 23 1016 64 10000 3.1 30 08:18 08.09.2019
2280 Clear 22 1016 69 10000 3.1 20 07:39 08.09.2019
2281 Clear 22 1016 69 10000 3.1 20 07:20 08.09.2019
2282 Clouds 21 1016 69 10000 4.1 70 06:49 08.09.2019
2283 Clear 21 1015 73 10000 3.1 20 06:31 08.09.2019
2284 Clouds 21 1015 78 10000 2.1 30 05:37 08.09.2019
2285 Clouds 21 1014 73 10000 2.6 30 03:54 08.09.2019
2286 Clear 21 1015 73 10000 3.1 10 02:56 08.09.2019
2287 Clear 21 1015 73 10000 2.6 10 02:26 08.09.2019
2288 Clear 21 1015 73 10000 2.6 10 02:26 08.09.2019
2289 Clear 22 1015 69 10000 3.1 40 01:45 08.09.2019
2290 Clear 21 1015 69 10000 3.1 40 01:19 08.09.2019
2291 Clear 22 1015 69 10000 3.1 40 00:44 08.09.2019
2292 Clear 22 1015 69 10000 3.1 40 00:26 08.09.2019
2293 Clear 22 1015 69 10000 3.6 40 23:38 07.09.2019
2294 Clear 22 1015 69 10000 3.6 40 23:20 07.09.2019
2295 Clear 23 1016 69 10000 3.6 40 22:57 07.09.2019
2296 Clear 23 1016 64 10000 4.6 50 22:38 07.09.2019
2297 Clear 23 1016 64 10000 4.1 40 22:19 07.09.2019
2298 Clear 23 1016 64 10000 5.7 30 21:42 07.09.2019
2299 Clear 23 1016 64 10000 5.7 20 21:23 07.09.2019
2300 Clear 23 1016 64 10000 5.7 20 20:54 07.09.2019
2301 Clear 23 1016 64 10000 6.2 40 20:36 07.09.2019
2302 Clear 23 1016 64 10000 6.2 40 20:18 07.09.2019
2303 Clear 23 1016 64 10000 6.2 40 19:54 07.09.2019
2304 Clear 23 1015 64 10000 7.2 40 19:36 07.09.2019
2305 Clouds 24 1016 69 10000 7.2 60 19:18 07.09.2019
2306 Clouds 24 1016 64 10000 8.2 60 18:54 07.09.2019
2307 Clouds 24 1016 64 10000 8.2 60 18:36 07.09.2019
2308 Clouds 24 1016 64 10000 8.2 60 18:18 07.09.2019
2309 Clouds 25 1015 50 10000 7.2 40 17:41 07.09.2019
2310 Clouds 25 1015 44 10000 6.7 30 17:19 07.09.2019
2311 Clouds 26 1015 44 10000 6.7 30 16:59 07.09.2019
2312 Clouds 25 1015 50 10000 6.7 50 16:40 07.09.2019
2313 Clouds 26 1015 37 10000 6.7 40 16:20 07.09.2019
2314 Clouds 26 1015 47 10000 6.2 40 15:47 07.09.2019
2315 Clouds 26 1015 47 10000 6.2 40 15:26 07.09.2019
2316 Clouds 26 1015 48 10000 6.2 50 14:57 07.09.2019
2317 Clouds 26 1015 45 10000 6.7 20 14:37 07.09.2019
2318 Clouds 26 1015 51 10000 5.7 0 14:19 07.09.2019
2319 Clouds 26 1015 51 10000 5.7 0 13:57 07.09.2019
2320 Clouds 26 1016 61 10000 2.1 0 13:39 07.09.2019
2321 Clouds 26 1016 61 10000 2.1 0 13:21 07.09.2019
2322 Clouds 25 1017 60 10000 8.2 60 12:44 07.09.2019
2323 Clouds 25 1016 54 10000 3.6 120 12:25 07.09.2019
2324 Clouds 25 1016 57 10000 4.1 140 11:55 07.09.2019
2325 Clouds 25 1016 64 10000 4.6 140 11:36 07.09.2019
2326 Clouds 25 1016 64 10000 4.1 150 11:18 07.09.2019
2327 Clouds 24 1016 60 10000 3.6 140 10:38 07.09.2019
2328 Clouds 24 1016 60 10000 3.6 140 10:38 07.09.2019
2329 Clouds 24 1016 69 10000 3.6 140 10:20 07.09.2019
2330 Clouds 23 1016 69 10000 3.6 130 09:43 07.09.2019
2331 Rain 23 1016 69 10000 3.6 130 09:25 07.09.2019
2332 Clouds 24 1016 53 10000 4.6 110 08:59 07.09.2019
2333 Clouds 23 1016 53 10000 3.1 90 08:40 07.09.2019
2334 Clouds 22 1016 53 10000 3.1 90 08:22 07.09.2019
2335 Clouds 21 1016 64 10000 1.5 10 07:45 07.09.2019
2336 Clouds 21 1016 64 10000 1.5 10 07:25 07.09.2019
2337 Rain 20 1016 68 10000 6.2 10 06:47 07.09.2019
2338 Clouds 19 1016 68 10000 4.6 30 06:20 07.09.2019
2339 Clear 20 1016 64 10000 1.5 30 04:48 07.09.2019
2340 Clear 20 1016 64 10000 1.5 30 04:20 07.09.2019
2341 Clear 20 1016 60 10000 3.1 10 02:45 07.09.2019
2342 Clear 20 1016 64 10000 3.6 10 01:44 07.09.2019
2343 Clouds 20 1016 64 10000 3.6 40 01:18 07.09.2019
2344 Clear 21 1016 60 10000 2.6 30 00:39 07.09.2019
2345 Clouds 21 1016 60 10000 4.6 50 00:19 07.09.2019
2346 Clear 21 1016 60 10000 2.6 50 23:40 06.09.2019
2347 Clear 21 1016 60 10000 2.6 50 23:40 06.09.2019
2348 Clear 21 1016 60 10000 3.1 40 23:21 06.09.2019
2349 Clear 21 1016 60 10000 3.1 40 23:21 06.09.2019
2350 Clear 21 1016 60 10000 3.1 40 23:21 06.09.2019
2351 Clear 21 1016 60 10000 3.1 40 22:57 06.09.2019
2352 Clear 21 1016 60 10000 2.6 50 22:37 06.09.2019
2353 Clear 21 1016 60 10000 2.6 50 22:37 06.09.2019
2354 Clear 21 1016 56 10000 3.1 60 22:19 06.09.2019
2355 Clear 21 1016 56 10000 3.1 60 21:56 06.09.2019
2356 Clear 22 1016 56 10000 3.1 60 21:38 06.09.2019
2357 Clear 22 1016 56 10000 4.6 60 21:20 06.09.2019
2358 Clear 22 1017 56 10000 4.1 60 20:56 06.09.2019
2359 Clear 22 1017 56 10000 4.1 60 20:37 06.09.2019
2360 Clear 22 1016 56 10000 5.7 50 20:18 06.09.2019
2361 Clear 22 1016 56 10000 5.7 50 20:18 06.09.2019
2362 Clear 23 1017 56 10000 6.2 60 19:42 06.09.2019
2363 Clear 23 1016 56 10000 5.7 40 19:24 06.09.2019
2364 Clear 23 1016 53 10000 5.7 40 18:58 06.09.2019
2365 Clouds 23 1017 60 10000 7.2 60 18:40 06.09.2019
2366 Clouds 24 1017 56 10000 7.7 50 18:22 06.09.2019
2367 Clear 24 1016 47 10000 8.2 30 17:56 06.09.2019
2368 Clear 24 1016 47 10000 8.2 30 17:56 06.09.2019
2369 Clouds 24 1016 47 10000 8.7 30 17:37 06.09.2019
2370 Clouds 24 1015 53 10000 10.3 30 17:18 06.09.2019
2371 Clouds 25 1016 47 10000 7.2 40 16:38 06.09.2019
2372 Clouds 25 1016 41 10000 7.2 40 16:18 06.09.2019
2373 Clouds 25 1015 41 10000 8.2 40 15:41 06.09.2019
2374 Clouds 25 1015 41 10000 8.2 40 15:22 06.09.2019
2375 Clouds 26 1015 42 10000 7.7 40 14:48 06.09.2019
2376 Clouds 26 1016 42 10000 7.2 40 14:20 06.09.2019
2377 Clouds 26 1016 47 10000 6.2 40 13:45 06.09.2019
2378 Clouds 26 1016 47 10000 6.2 40 13:26 06.09.2019
2379 Clouds 26 1016 44 10000 7.2 30 12:59 06.09.2019
2380 Clouds 26 1016 44 10000 6.7 50 12:37 06.09.2019
2381 Clouds 26 1016 50 10000 5.7 40 12:18 06.09.2019
2382 Clouds 26 1016 50 10000 5.7 40 12:18 06.09.2019
2383 Clouds 25 1016 47 10000 6.2 30 11:43 06.09.2019
2384 Clouds 25 1016 47 10000 6.2 30 11:24 06.09.2019
2385 Clouds 25 1016 47 10000 6.2 40 10:58 06.09.2019
2386 Clouds 25 1016 47 10000 6.7 60 10:39 06.09.2019
2387 Clouds 25 1016 47 10000 6.7 60 10:21 06.09.2019
2388 Clouds 24 1015 53 10000 7.7 70 09:40 06.09.2019
2389 Clouds 24 1015 57 10000 7.2 40 09:21 06.09.2019
2390 Clouds 24 1015 57 10000 7.2 40 08:57 06.09.2019
2391 Clouds 23 1015 60 10000 7.2 50 08:39 06.09.2019
2392 Clouds 23 1015 60 10000 7.2 50 08:39 06.09.2019
2393 Clear 23 1014 64 10000 6.2 40 08:20 06.09.2019
2394 Clear 23 1014 64 10000 6.2 40 08:20 06.09.2019
2395 Clear 22 1014 69 10000 5.1 40 07:45 06.09.2019
2396 Clear 22 1014 69 10000 5.1 40 07:27 06.09.2019
2397 Clear 22 1014 73 10000 3.1 40 06:56 06.09.2019
2398 Clear 21 1014 73 10000 4.1 30 05:58 06.09.2019
2399 Clear 21 1014 73 10000 4.1 40 05:29 06.09.2019
2400 Clear 22 1013 73 10000 5.1 40 04:42 06.09.2019
2401 Clear 22 1013 69 10000 5.1 50 03:45 06.09.2019
2402 Clear 22 1013 69 10000 5.7 50 01:53 06.09.2019
2403 Clouds 23 1014 73 10000 6.7 60 00:40 06.09.2019
2404 Clouds 22 1013 73 10000 6.2 50 23:44 05.09.2019
2405 Clouds 23 1013 73 10000 6.2 50 23:25 05.09.2019
2406 Clouds 23 1013 73 10000 6.2 40 22:58 05.09.2019
2407 Clouds 23 1013 73 10000 6.2 40 22:40 05.09.2019
2408 Clouds 23 1013 73 9000 5.7 50 22:22 05.09.2019
2409 Clouds 23 1013 73 9000 5.7 50 21:56 05.09.2019
2410 Clouds 23 1013 69 10000 5.7 50 21:37 05.09.2019
2411 Clouds 23 1013 69 10000 6.7 50 21:19 05.09.2019
2412 Clouds 23 1013 69 10000 6.7 50 20:56 05.09.2019
2413 Clouds 23 1013 69 10000 6.7 50 20:37 05.09.2019
2414 Clouds 23 1013 69 10000 7.2 40 20:19 05.09.2019
2415 Clouds 23 1014 73 10000 9.3 50 19:42 05.09.2019
2416 Clouds 23 1013 69 10000 6.2 40 19:24 05.09.2019
2417 Clouds 24 1013 73 10000 9.3 50 18:58 05.09.2019
2418 Clouds 24 1013 73 10000 9.3 50 18:39 05.09.2019
2419 Clouds 24 1013 69 10000 9.3 50 18:20 05.09.2019
2420 Clouds 25 1012 61 10000 7.7 30 17:56 05.09.2019
2421 Clouds 25 1012 61 10000 7.7 30 17:37 05.09.2019
2422 Clouds 25 1012 57 10000 8.7 20 17:18 05.09.2019
2423 Clouds 26 1012 57 10000 7.7 40 16:40 05.09.2019
2424 Clouds 26 1012 57 10000 9.8 20 16:20 05.09.2019
2425 Clouds 26 1012 57 10000 9.3 30 15:58 05.09.2019
2426 Clouds 26 1012 57 10000 9.3 30 15:39 05.09.2019
2427 Clouds 26 1012 54 10000 7.7 30 15:18 05.09.2019
2428 Clouds 26 1012 54 10000 7.7 30 15:18 05.09.2019
2429 Clouds 26 1012 58 10000 9.8 10 14:43 05.09.2019
2430 Clouds 26 1012 57 10000 9.3 30 14:22 05.09.2019
2431 Clouds 26 1012 58 10000 8.7 10 13:44 05.09.2019
2432 Clouds 26 1014 69 10000 10.3 40 13:23 05.09.2019
2433 Clouds 26 1012 61 10000 9.3 20 12:59 05.09.2019
2434 Clouds 26 1014 73 10000 10.8 40 12:41 05.09.2019
2435 Clouds 26 1014 73 10000 10.8 40 12:41 05.09.2019
2436 Clouds 26 1012 54 10000 7.7 50 12:22 05.09.2019
2437 Clouds 25 1012 57 10000 8.2 50 11:44 05.09.2019
2438 Clouds 26 1012 57 10000 8.2 50 11:20 05.09.2019
2439 Clouds 26 1012 57 10000 8.2 50 10:57 05.09.2019
2440 Clouds 26 1013 57 10000 7.2 30 10:36 05.09.2019
2441 Clouds 26 1013 61 10000 7.2 30 10:18 05.09.2019
2442 Clouds 25 1013 65 10000 6.2 40 09:40 05.09.2019
2443 Clouds 24 1013 69 9000 7.2 50 09:20 05.09.2019
2444 Clouds 24 1012 69 10000 6.2 30 08:56 05.09.2019
2445 Clouds 24 1012 69 10000 6.2 30 08:37 05.09.2019
2446 Clouds 23 1012 78 10000 6.2 30 08:19 05.09.2019
2447 Clouds 23 1012 78 10000 5.1 40 07:43 05.09.2019
2448 Clouds 23 1013 83 10000 9.8 50 07:24 05.09.2019
2449 Clouds 22 1013 83 10000 9.3 40 06:46 05.09.2019
2450 Clouds 22 1012 83 10000 3.6 30 06:26 05.09.2019
2451 Rain 22 1012 78 10000 4.1 40 05:43 05.09.2019
2452 Rain 22 1012 78 10000 4.1 40 05:25 05.09.2019
2453 Clouds 22 1012 78 10000 3.1 40 04:30 05.09.2019
2454 Clouds 22 1012 73 10000 3.6 40 03:47 05.09.2019
2455 Clouds 22 1012 73 10000 3.6 30 02:57 05.09.2019
2456 Clouds 22 1012 73 10000 3.6 30 02:29 05.09.2019
2457 Clear 22 1012 73 10000 3.6 40 01:54 05.09.2019
2458 Clouds 23 1013 78 10000 5.1 70 00:56 05.09.2019
2459 Clouds 23 1013 78 10000 5.1 70 00:37 05.09.2019
2460 Clouds 23 1013 73 10000 6.2 70 00:18 05.09.2019
2461 Clear 23 1013 78 10000 5.1 50 23:39 04.09.2019
2462 Clouds 24 1013 78 10000 4.6 40 23:21 04.09.2019
2463 Clouds 24 1013 83 10000 5.7 30 22:47 04.09.2019
2464 Clouds 24 1013 83 10000 5.7 30 22:20 04.09.2019
2465 Clear 24 1013 73 10000 5.7 40 21:56 04.09.2019
2466 Clear 24 1013 73 10000 5.7 40 21:38 04.09.2019
2467 Clear 24 1013 73 10000 5.7 40 21:19 04.09.2019
2468 Clouds 24 1013 73 10000 5.7 30 20:55 04.09.2019
2469 Clouds 24 1013 73 10000 5.7 40 20:36 04.09.2019
2470 Clouds 24 1014 83 10000 9.3 40 20:18 04.09.2019
2471 Clouds 24 1013 83 10000 8.2 40 19:40 04.09.2019
2472 Clouds 25 1013 83 10000 8.7 40 19:21 04.09.2019
2473 Clouds 25 1013 78 10000 9.3 30 18:42 04.09.2019
2474 Clear 25 1012 61 10000 8.2 20 18:24 04.09.2019
2475 Clear 26 1012 57 10000 8.7 30 17:58 04.09.2019
2476 Clear 26 1012 57 10000 8.7 20 17:40 04.09.2019
2477 Clear 26 1012 57 10000 8.7 20 17:21 04.09.2019
2478 Clear 27 1012 48 10000 8.7 20 16:48 04.09.2019
2479 Clear 27 1012 48 10000 8.7 20 16:28 04.09.2019
2480 Clear 28 1012 37 10000 8.2 30 15:59 04.09.2019
2481 Clear 28 1012 42 10000 9.3 20 15:39 04.09.2019
2482 Clear 28 1012 42 10000 9.3 20 15:21 04.09.2019
2483 Clear 28 1012 42 10000 9.3 30 14:58 04.09.2019
2484 Clear 28 1012 48 10000 8.7 20 14:38 04.09.2019
2485 Clear 28 1012 37 10000 8.7 50 14:20 04.09.2019
2486 Clear 28 1012 37 10000 8.7 50 13:57 04.09.2019
2487 Clouds 28 1013 61 10000 10.3 40 13:37 04.09.2019
2488 Clouds 28 1014 51 10000 9.8 50 13:19 04.09.2019
2489 Clouds 29 1014 57 10000 9.3 40 12:41 04.09.2019
2490 Clouds 29 1014 61 10000 9.3 40 12:23 04.09.2019
2491 Clear 28 1013 45 10000 8.2 30 11:56 04.09.2019
2492 Clear 28 1013 45 10000 8.2 30 11:37 04.09.2019
2493 Clear 28 1013 51 10000 8.2 30 11:19 04.09.2019
2494 Clear 27 1013 51 10000 6.7 30 10:45 04.09.2019
2495 Clear 27 1013 51 10000 6.7 30 10:26 04.09.2019
2496 Clear 27 1013 54 10000 7.2 20 09:58 04.09.2019
2497 Clear 26 1013 57 10000 7.7 30 09:40 04.09.2019
2498 Clear 26 1013 61 10000 7.2 30 09:19 04.09.2019
2499 Clear 25 1013 65 10000 5.1 40 08:41 04.09.2019
2500 Clear 25 1013 65 10000 5.1 40 08:23 04.09.2019
2501 Clear 24 1013 69 10000 4.6 40 07:56 04.09.2019
2502 Clear 24 1012 78 10000 3.6 30 07:34 04.09.2019
2503 Clear 23 1013 69 10000 6.2 50 06:49 04.09.2019
2504 Clear 22 1013 73 10000 6.2 50 06:26 04.09.2019
2505 Clear 22 1012 69 10000 3.1 40 04:54 04.09.2019
2506 Clear 23 1012 69 10000 3.1 40 04:21 04.09.2019
2507 Clear 23 1013 69 10000 6.2 60 02:21 04.09.2019
2508 Clear 23 1013 69 10000 7.2 60 00:56 04.09.2019
2509 Clear 23 1013 69 10000 7.2 60 00:38 04.09.2019
2510 Clear 23 1013 69 10000 6.7 60 00:18 04.09.2019
2511 Clear 23 1012 69 10000 4.1 30 23:38 03.09.2019
2512 Clear 24 1013 69 10000 4.1 30 23:20 03.09.2019
2513 Clear 24 1013 69 10000 4.6 30 22:40 03.09.2019
2514 Clear 24 1013 65 10000 4.6 30 22:22 03.09.2019
2515 Clear 24 1013 65 10000 4.1 30 21:56 03.09.2019
2516 Clear 24 1013 65 10000 4.1 30 21:38 03.09.2019
2517 Clear 24 1013 65 10000 5.1 40 21:20 03.09.2019
2518 Clear 24 1014 69 10000 6.7 60 20:54 03.09.2019
2519 Clear 24 1014 69 10000 6.7 60 20:36 03.09.2019
2520 Clear 24 1013 65 10000 5.7 50 20:36 03.09.2019
2521 Clear 24 1013 65 10000 5.7 50 20:36 03.09.2019
2522 Clear 25 1014 65 10000 7.2 60 20:18 03.09.2019
2523 Clear 25 1013 65 10000 7.7 50 19:42 03.09.2019
2524 Clear 25 1013 73 10000 7.7 50 19:19 03.09.2019
2525 Clear 25 1012 61 10000 7.7 40 18:56 03.09.2019
2526 Clear 25 1013 69 10000 8.2 50 18:38 03.09.2019
2527 Clear 25 1012 54 10000 8.2 40 18:38 03.09.2019
2528 Clear 26 1013 69 10000 9.3 40 18:18 03.09.2019
2529 Clear 27 1012 42 10000 8.7 40 17:43 03.09.2019
2530 Clear 27 1012 42 10000 8.2 50 17:21 03.09.2019
2531 Clear 27 1012 42 10000 8.2 50 17:00 03.09.2019
2532 Clear 27 1012 39 10000 10.3 30 16:41 03.09.2019
2533 Clear 28 1012 42 10000 9.8 30 16:22 03.09.2019
2534 Clear 28 1012 39 10000 8.7 30 15:42 03.09.2019
2535 Clear 28 1012 42 10000 8.2 40 15:22 03.09.2019
2536 Clear 28 1012 42 10000 8.2 40 15:00 03.09.2019
2537 Clear 28 1012 42 10000 8.7 40 14:41 03.09.2019
2538 Clear 28 1012 39 10000 8.2 50 14:22 03.09.2019
2539 Clear 28 1012 39 10000 8.2 50 13:58 03.09.2019
2540 Clouds 29 1014 57 10000 10.3 50 13:38 03.09.2019
2541 Clouds 28 1014 54 10000 10.3 60 13:20 03.09.2019
2542 Clouds 28 1014 54 10000 10.3 60 13:20 03.09.2019
2543 Clear 28 1013 42 10000 8.2 60 12:57 03.09.2019
2544 Clouds 28 1014 54 10000 10.8 50 12:39 03.09.2019
2545 Clouds 28 1014 54 10000 10.8 50 12:39 03.09.2019
2546 Clear 28 1012 42 10000 7.7 40 12:21 03.09.2019
2547 Clear 28 1013 45 10000 7.7 60 11:43 03.09.2019
2548 Clear 27 1012 45 10000 8.7 70 11:23 03.09.2019
2549 Clear 27 1012 45 10000 8.7 70 11:23 03.09.2019
2550 Clear 27 1012 45 10000 8.7 70 10:57 03.09.2019
2551 Clear 27 1013 48 10000 9.3 60 10:39 03.09.2019
2552 Clear 27 1013 48 10000 9.3 60 10:20 03.09.2019
2553 Clouds 26 1012 51 10000 7.7 50 09:48 03.09.2019
2554 Clouds 26 1012 51 10000 7.7 50 09:30 03.09.2019
2555 Clear 26 1013 61 10000 7.2 40 08:56 03.09.2019
2556 Clear 25 1013 61 10000 7.2 40 08:37 03.09.2019
2557 Clear 25 1012 65 10000 7.2 50 08:19 03.09.2019
2558 Clouds 24 1013 61 10000 10.3 60 07:42 03.09.2019
2559 Clear 24 1012 73 10000 4.1 30 07:23 03.09.2019
2560 Clouds 24 1013 73 10000 8.7 50 06:45 03.09.2019
2561 Clouds 23 1013 73 10000 8.7 50 06:18 03.09.2019
2562 Clear 22 1012 83 10000 3.1 40 03:43 03.09.2019
2563 Clear 23 1012 83 10000 3.6 40 02:47 03.09.2019
2564 Clouds 23 1013 78 10000 5.7 60 02:25 03.09.2019
2565 Clouds 23 1013 78 10000 6.2 60 01:51 03.09.2019
2566 Clouds 23 1013 78 10000 6.2 60 01:32 03.09.2019
2567 Clouds 23 1013 78 10000 6.2 60 00:44 03.09.2019
2568 Clear 23 1013 78 10000 4.1 40 00:25 03.09.2019
2569 Clear 23 1013 78 10000 4.6 50 23:40 02.09.2019
2570 Clear 23 1013 78 10000 4.6 50 23:40 02.09.2019
2571 Clear 24 1013 78 10000 4.6 60 23:20 02.09.2019
2572 Clear 24 1013 78 10000 4.6 60 22:56 02.09.2019
2573 Clear 24 1013 73 10000 5.7 50 22:38 02.09.2019
2574 Clear 24 1013 73 10000 5.7 50 22:20 02.09.2019
2575 Clear 24 1013 73 10000 5.7 50 21:57 02.09.2019
2576 Clear 24 1013 69 10000 6.2 50 21:39 02.09.2019
2577 Clear 24 1013 69 10000 7.2 50 21:20 02.09.2019
2578 Clear 24 1013 69 10000 7.2 50 20:58 02.09.2019
2579 Clouds 24 1014 73 10000 8.2 60 20:39 02.09.2019
2580 Clouds 24 1014 73 10000 8.2 60 20:18 02.09.2019
2581 Clouds 24 1013 69 10000 7.7 40 19:56 02.09.2019
2582 Clouds 25 1014 69 10000 7.2 60 19:38 02.09.2019
2583 Clouds 25 1013 69 10000 8.7 60 19:19 02.09.2019
2584 Clear 25 1012 61 10000 7.2 40 18:40 02.09.2019
2585 Clouds 26 1013 69 10000 9.3 70 18:22 02.09.2019
2586 Clear 26 1012 61 10000 8.2 30 17:57 02.09.2019
2587 Clear 26 1012 61 10000 8.2 30 17:57 02.09.2019
2588 Clear 26 1012 54 10000 9.3 30 17:39 02.09.2019
2589 Clear 27 1012 45 10000 9.3 50 17:19 02.09.2019
2590 Clear 27 1012 45 10000 9.3 50 16:42 02.09.2019
2591 Clear 27 1012 45 10000 9.3 50 16:23 02.09.2019
2592 Clear 27 1012 51 10000 8.7 40 15:59 02.09.2019
2593 Clouds 27 1012 54 10000 8.2 30 15:41 02.09.2019
2594 Clouds 27 1012 51 10000 8.2 20 15:21 02.09.2019
2595 Clouds 28 1012 51 10000 8.2 20 14:56 02.09.2019
2596 Clouds 28 1013 51 10000 7.7 30 14:37 02.09.2019
2597 Clouds 27 1013 51 10000 7.7 30 14:19 02.09.2019
2598 Clouds 28 1014 65 10000 9.3 50 13:45 02.09.2019
2599 Clear 27 1013 48 10000 6.7 20 13:25 02.09.2019
2600 Clear 27 1013 48 10000 6.7 20 13:25 02.09.2019
2601 Clouds 28 1014 65 10000 9.3 60 12:58 02.09.2019
2602 Clouds 28 1014 65 10000 9.3 60 12:40 02.09.2019
2603 Clear 28 1013 48 10000 7.2 40 12:22 02.09.2019
2604 Clouds 27 1013 51 10000 7.2 50 11:55 02.09.2019
2605 Clouds 27 1013 51 10000 7.2 50 11:36 02.09.2019
2606 Clouds 27 1013 54 10000 5.7 50 11:18 02.09.2019
2607 Clouds 27 1013 57 10000 6.7 20 10:42 02.09.2019
2608 Clouds 27 1013 57 10000 6.7 20 10:22 02.09.2019
2609 Clouds 26 1013 57 10000 5.7 60 09:58 02.09.2019
2610 Clouds 26 1013 57 10000 5.7 60 09:58 02.09.2019
2611 Clouds 26 1013 57 10000 5.7 60 09:38 02.09.2019
2612 Clouds 25 1013 61 10000 7.2 40 09:20 02.09.2019
2613 Clouds 24 1013 69 10000 4.1 50 08:43 02.09.2019
2614 Clouds 24 1013 73 10000 3.6 50 08:22 02.09.2019
2615 Clouds 24 1013 73 10000 3.6 50 07:56 02.09.2019
2616 Clouds 23 1014 65 10000 7.7 60 07:37 02.09.2019
2617 Clouds 23 1013 73 10000 7.2 60 07:18 02.09.2019
2618 Clouds 22 1013 78 10000 6.2 60 06:41 02.09.2019
2619 Clear 22 1012 78 10000 3.6 40 05:53 02.09.2019
2620 Clear 22 1012 78 10000 3.6 40 05:53 02.09.2019
2621 Clear 22 1012 78 10000 3.6 40 05:53 02.09.2019
2622 Clear 22 1012 78 10000 3.6 40 05:24 02.09.2019
2623 Clear 22 1012 78 10000 3.1 40 04:48 02.09.2019
2624 Clear 23 1013 73 10000 6.2 50 02:20 02.09.2019
2625 Clear 23 1013 69 10000 6.2 50 01:37 02.09.2019
2626 Clear 23 1013 73 10000 5.7 50 00:39 02.09.2019
2627 Clouds 23 1013 78 10000 6.2 50 00:19 02.09.2019
2628 Clear 23 1012 78 10000 3.6 50 23:39 01.09.2019
2629 Clouds 23 1012 78 10000 4.1 40 23:19 01.09.2019
2630 Clouds 23 1012 78 10000 4.1 40 22:56 01.09.2019
2631 Clouds 23 1012 78 10000 4.1 40 22:56 01.09.2019
2632 Clouds 23 1013 78 10000 6.2 60 22:38 01.09.2019
2633 Clouds 23 1012 78 10000 4.1 30 22:18 01.09.2019
2634 Clouds 24 1012 78 10000 4.1 40 21:43 01.09.2019
2635 Clouds 24 1012 78 10000 4.1 40 21:23 01.09.2019
2636 Clouds 24 1012 69 10000 5.1 30 20:58 01.09.2019
2637 Clouds 24 1013 78 10000 7.2 60 20:39 01.09.2019
2638 Clouds 24 1012 78 10000 7.7 50 20:19 01.09.2019
2639 Clouds 25 1012 69 10000 5.1 30 19:59 01.09.2019
2640 Clouds 25 1012 69 10000 6.7 30 19:40 01.09.2019
2641 Clouds 25 1012 73 10000 7.7 50 19:21 01.09.2019
2642 Clouds 25 1012 69 10000 7.7 50 18:49 01.09.2019
2643 Clouds 25 1011 65 10000 7.2 30 18:30 01.09.2019
2644 Clouds 26 1011 61 10000 7.7 10 17:59 01.09.2019
2645 Clouds 26 1011 61 10000 7.7 10 17:39 01.09.2019
2646 Clouds 26 1011 58 10000 6.7 30 17:21 01.09.2019
2647 Clouds 26 1011 58 10000 6.7 30 16:56 01.09.2019
2648 Clouds 27 1011 58 10000 8.2 20 16:37 01.09.2019
2649 Clouds 27 1011 58 10000 8.2 20 16:18 01.09.2019
2650 Clouds 27 1011 54 10000 8.7 10 15:42 01.09.2019
2651 Clouds 27 1011 54 10000 8.7 10 15:42 01.09.2019
2652 Clouds 27 1011 54 10000 8.7 10 15:23 01.09.2019
2653 Clouds 27 1011 48 10000 6.7 40 14:44 01.09.2019
2654 Clouds 28 1011 48 10000 6.7 40 14:26 01.09.2019
2655 Clouds 27 1011 51 10000 6.7 40 13:59 01.09.2019
2656 Clouds 28 1011 45 10000 6.7 40 13:41 01.09.2019
2657 Clouds 27 1012 69 10000 9.3 40 13:23 01.09.2019
2658 Clouds 27 1011 48 10000 6.7 50 12:44 01.09.2019
2659 Clouds 27 1011 58 10000 6.7 30 12:26 01.09.2019
2660 Clouds 27 1011 58 10000 6.7 30 11:58 01.09.2019
2661 Clouds 27 1011 57 10000 6.2 60 11:38 01.09.2019
2662 Clouds 26 1012 57 10000 5.1 60 11:19 01.09.2019
2663 Clouds 26 1012 54 10000 4.6 50 10:45 01.09.2019
2664 Clouds 26 1012 54 10000 4.6 50 10:23 01.09.2019
2665 Clouds 25 1012 57 10000 5.1 40 09:48 01.09.2019
2666 Clouds 25 1012 57 10000 5.1 40 09:26 01.09.2019
2667 Clouds 24 1012 65 10000 5.7 40 08:56 01.09.2019
2668 Clouds 24 1012 65 10000 4.6 50 08:38 01.09.2019
2669 Clouds 23 1012 69 10000 3.1 50 08:20 01.09.2019
2670 Clouds 22 1012 73 10000 3.6 30 07:41 01.09.2019
2671 Clouds 22 1012 69 10000 6.7 30 07:20 01.09.2019
2672 Clouds 21 1012 73 10000 5.1 40 06:38 01.09.2019
2673 Clouds 21 1012 69 10000 6.2 40 05:59 01.09.2019
2674 Clear 21 1012 73 10000 2.1 40 04:41 01.09.2019
2675 Clear 21 1012 73 10000 2.6 30 03:48 01.09.2019
2676 Clear 22 1012 69 10000 3.1 30 03:29 01.09.2019
2677 Clear 22 1012 69 10000 2.6 40 02:37 01.09.2019
2678 Clear 22 1012 69 10000 2.6 40 02:37 01.09.2019
2679 Clear 22 1012 69 10000 2.1 30 02:18 01.09.2019
2680 Clear 22 1013 64 10000 2.1 20 01:27 01.09.2019
2681 Clouds 22 1013 69 10000 5.7 30 00:48 01.09.2019
2682 Clouds 22 1014 69 10000 6.2 30 00:25 01.09.2019
2683 Clouds 22 1014 69 10000 6.2 30 23:59 31.08.2019
2684 Clear 22 1013 64 10000 2.6 50 23:39 31.08.2019
2685 Clear 22 1013 60 10000 3.1 40 23:19 31.08.2019
2686 Clear 22 1013 60 10000 4.1 40 22:54 31.08.2019
2687 Clear 22 1013 60 10000 4.1 40 22:36 31.08.2019
2688 Clear 22 1013 60 10000 4.1 40 22:36 31.08.2019
2689 Clear 23 1014 57 10000 4.1 40 22:18 31.08.2019
2690 Clear 23 1014 60 10000 4.1 40 21:41 31.08.2019
2691 Clear 23 1014 60 10000 5.1 50 21:21 31.08.2019
2692 Clear 23 1014 60 10000 6.2 50 20:50 31.08.2019
2693 Clear 23 1014 60 10000 6.2 50 20:31 31.08.2019
2694 Clear 23 1014 60 10000 6.7 50 19:59 31.08.2019
2695 Clouds 24 1015 60 10000 7.7 60 19:41 31.08.2019
2696 Clear 24 1014 60 10000 6.7 50 19:22 31.08.2019
2697 Clouds 24 1014 60 10000 8.2 60 18:41 31.08.2019
2698 Clouds 25 1015 53 10000 8.7 60 18:23 31.08.2019
2699 Clouds 25 1014 54 10000 8.2 20 17:58 31.08.2019
2700 Clouds 25 1014 50 10000 7.7 30 17:38 31.08.2019
2701 Clouds 25 1014 54 10000 7.7 20 17:19 31.08.2019
2702 Clouds 26 1014 54 10000 7.7 20 17:00 31.08.2019
2703 Clouds 26 1014 54 10000 7.7 30 16:41 31.08.2019
2704 Clouds 26 1014 54 10000 7.7 30 16:21 31.08.2019
2705 Clouds 26 1014 54 10000 8.2 30 15:59 31.08.2019
2706 Clouds 26 1014 51 10000 7.7 30 15:38 31.08.2019
2707 Clouds 26 1014 51 10000 7.2 30 15:18 31.08.2019
2708 Clouds 27 1014 48 10000 7.2 20 14:42 31.08.2019
2709 Clouds 27 1014 48 10000 7.2 20 14:24 31.08.2019
2710 Clouds 27 1015 51 10000 7.2 30 13:56 31.08.2019
2711 Clouds 27 1015 51 10000 7.2 30 13:36 31.08.2019
2712 Clouds 27 1015 51 10000 6.7 20 13:18 31.08.2019
2713 Clouds 26 1016 50 10000 7.7 30 12:41 31.08.2019
2714 Clouds 26 1015 54 10000 7.2 50 12:21 31.08.2019
2715 Clouds 26 1015 54 10000 7.2 50 11:58 31.08.2019
2716 Clouds 25 1015 57 10000 5.7 50 11:40 31.08.2019
2717 Clouds 25 1015 57 10000 5.7 50 11:22 31.08.2019
2718 Clouds 25 1015 57 10000 6.7 30 10:43 31.08.2019
2719 Clouds 24 1015 54 10000 7.2 40 10:20 31.08.2019
2720 Clouds 24 1015 54 10000 7.2 40 10:00 31.08.2019
2721 Clouds 24 1015 54 10000 8.2 20 09:39 31.08.2019
2722 Clouds 24 1015 57 10000 6.7 20 09:21 31.08.2019
2723 Clouds 23 1015 60 10000 6.2 20 08:44 31.08.2019
2724 Clear 23 1015 60 10000 5.7 30 08:26 31.08.2019
2725 Clouds 23 1016 60 10000 7.7 40 07:42 31.08.2019
2726 Clouds 23 1016 60 10000 8.2 50 07:23 31.08.2019
2727 Clouds 22 1016 64 10000 6.2 60 06:56 31.08.2019
2728 Clouds 22 1016 64 10000 6.2 60 06:56 31.08.2019
2729 Clouds 22 1015 64 10000 5.7 50 06:21 31.08.2019
2730 Clear 22 1015 64 10000 4.1 20 05:34 31.08.2019
2731 Clouds 21 1015 64 10000 4.1 10 04:39 31.08.2019
2732 Clouds 22 1015 68 10000 4.1 10 03:50 31.08.2019
2733 Clouds 21 1016 68 10000 4.1 10 02:59 31.08.2019
2734 Clear 21 1016 68 10000 4.6 360 01:59 31.08.2019
2735 Clouds 21 1016 60 10000 5.1 30 01:41 31.08.2019
2736 Clouds 21 1016 60 10000 5.1 30 01:41 31.08.2019
2737 Clouds 21 1017 60 10000 6.7 40 01:22 31.08.2019
2738 Clouds 22 1017 60 10000 6.7 40 00:42 31.08.2019
2739 Clouds 22 1017 60 10000 6.7 40 00:42 31.08.2019
2740 Clouds 22 1017 64 10000 7.2 40 00:24 31.08.2019
2741 Clouds 23 1016 64 10000 3.6 30 23:47 30.08.2019
2742 Clouds 23 1017 64 10000 3.6 50 23:18 30.08.2019
2743 Clouds 23 1017 64 10000 3.6 50 22:55 30.08.2019
2744 Clouds 23 1017 64 10000 3.6 50 22:55 30.08.2019
2745 Clouds 23 1017 64 10000 4.1 30 22:37 30.08.2019
2746 Clouds 23 1017 64 10000 4.1 20 22:18 30.08.2019
2747 Clouds 23 1017 64 10000 4.1 20 21:54 30.08.2019
2748 Clear 23 1017 60 10000 4.6 30 21:36 30.08.2019
2749 Clear 23 1017 57 10000 5.1 30 21:18 30.08.2019
2750 Clear 23 1017 57 10000 5.1 30 21:18 30.08.2019
2751 Clear 23 1017 60 10000 6.2 20 20:42 30.08.2019
2752 Clouds 24 1017 57 10000 6.7 50 20:22 30.08.2019
2753 Clear 24 1017 57 10000 6.7 40 19:59 30.08.2019
2754 Clouds 24 1017 53 10000 7.7 50 19:40 30.08.2019
2755 Clear 24 1017 60 10000 8.2 20 19:21 30.08.2019
2756 Clouds 24 1017 57 10000 7.7 50 18:58 30.08.2019
2757 Clouds 24 1017 57 10000 7.7 50 18:39 30.08.2019
2758 Clouds 25 1017 57 10000 8.2 50 18:18 30.08.2019
2759 -273 0 0 0 0 0 17:56 30.08.2019
2760 Clear 26 1016 36 10000 7.2 30 17:37 30.08.2019
2761 Clear 26 1016 36 10000 7.2 30 17:37 30.08.2019
2762 Clouds 26 1017 37 10000 9.3 30 17:18 30.08.2019
2763 Clouds 27 1016 45 10000 8.2 40 16:43 30.08.2019
2764 Clouds 27 1016 57 10000 9.8 30 16:25 30.08.2019
2765 Clouds 27 1016 48 10000 9.3 10 15:45 30.08.2019
2766 Clouds 27 1016 48 10000 9.3 10 15:25 30.08.2019
2767 Clouds 27 1017 48 10000 7.2 10 14:59 30.08.2019
2768 Clouds 27 1017 45 10000 8.7 20 14:41 30.08.2019
2769 Clouds 28 1017 45 10000 8.7 20 14:23 30.08.2019
2770 Clouds 28 1017 45 10000 8.7 20 14:23 30.08.2019
2771 Clouds 27 1017 45 10000 6.2 40 13:44 30.08.2019
2772 Clouds 28 1017 45 10000 6.2 40 13:23 30.08.2019
2773 Clouds 27 1018 61 10000 8.2 30 12:58 30.08.2019
2774 Clouds 27 1018 65 10000 8.7 30 12:40 30.08.2019
2775 Clouds 27 1017 48 10000 7.2 360 12:21 30.08.2019
2776 Clouds 27 1017 48 10000 7.2 360 12:21 30.08.2019
2777 Clouds 27 1017 45 10000 6.2 50 11:42 30.08.2019
2778 Clouds 27 1017 45 10000 7.2 50 11:24 30.08.2019
2779 Clouds 27 1017 48 10000 6.2 40 10:42 30.08.2019
2780 Clouds 27 1017 48 10000 6.2 40 10:23 30.08.2019
2781 Clouds 26 1017 51 10000 6.7 50 09:58 30.08.2019
2782 Clouds 25 1017 54 10000 6.2 60 09:40 30.08.2019
2783 Clouds 25 1017 57 10000 5.7 40 09:19 30.08.2019
2784 Clouds 25 1017 57 10000 5.7 40 08:54 30.08.2019
2785 Clouds 25 1017 57 10000 5.7 40 08:54 30.08.2019
2786 Clear 24 1017 65 10000 5.7 50 08:36 30.08.2019
2787 Clear 24 1017 65 10000 5.7 50 08:36 30.08.2019
2788 Clear 24 1017 69 10000 4.6 50 08:18 30.08.2019
2789 Clear 23 1017 73 10000 4.1 20 07:39 30.08.2019
2790 Clouds 23 1017 69 10000 6.2 60 07:21 30.08.2019
2791 Clouds 23 1017 73 10000 6.2 60 06:45 30.08.2019
2792 Clouds 22 1016 78 10000 3.6 20 06:27 30.08.2019
2793 Clear 22 1016 73 10000 2.6 40 05:44 30.08.2019
2794 Clear 22 1016 78 10000 3.1 40 03:59 30.08.2019
2795 Clear 22 1016 78 10000 3.1 50 03:38 30.08.2019
2796 Clear 23 1016 73 10000 4.1 50 02:55 30.08.2019
2797 Clear 23 1016 73 10000 3.1 30 02:26 30.08.2019
2798 Clear 23 1016 73 10000 4.1 40 01:28 30.08.2019
2799 Clouds 24 1017 73 10000 6.7 60 00:29 30.08.2019
2800 Clear 24 1016 73 10000 4.6 40 23:59 29.08.2019
2801 Clear 24 1017 69 10000 4.6 40 23:40 29.08.2019
2802 Clear 24 1017 69 10000 4.6 40 23:40 29.08.2019
2803 Clear 24 1017 69 10000 4.6 40 23:20 29.08.2019
2804 Clear 24 1017 69 10000 5.1 30 23:20 29.08.2019
2805 Clear 24 1016 69 10000 6.2 30 22:43 29.08.2019
2806 Clear 24 1016 69 10000 6.2 30 22:25 29.08.2019
2807 Clear 24 1016 65 10000 5.7 40 21:56 29.08.2019
2808 Clear 24 1016 65 10000 7.2 40 21:38 29.08.2019
2809 Clear 24 1016 65 10000 7.2 40 21:20 29.08.2019
2810 Clear 25 1016 69 10000 7.7 30 20:43 29.08.2019
2811 Clouds 24 1016 65 10000 8.2 30 20:21 29.08.2019
2812 Clouds 24 1016 65 10000 7.7 30 19:59 29.08.2019
2813 Clouds 25 1016 65 10000 7.7 30 19:40 29.08.2019
2814 Clouds 25 1016 65 10000 8.2 40 19:21 29.08.2019
2815 Clouds 25 1016 57 10000 7.2 40 18:44 29.08.2019
2816 Clouds 26 1016 57 10000 7.7 40 18:21 29.08.2019
2817 Clouds 26 1016 57 10000 7.7 40 18:21 29.08.2019
2818 Clear 26 1016 54 10000 7.7 50 17:57 29.08.2019
2819 Clear 26 1016 54 10000 7.7 50 17:39 29.08.2019
2820 Clear 26 1016 54 10000 7.7 40 17:19 29.08.2019
2821 Clear 27 1016 54 10000 8.2 40 16:57 29.08.2019
2822 Clear 27 1016 54 10000 8.2 40 16:39 29.08.2019
2823 Clouds 27 1017 61 10000 9.8 50 16:20 29.08.2019
2824 Clouds 27 1016 51 10000 8.7 30 15:39 29.08.2019
2825 Clouds 27 1016 51 10000 8.7 30 15:21 29.08.2019
2826 -273 0 0 0 0 0 14:50 29.08.2019
2827 Clouds 28 1016 48 10000 7.7 40 14:25 29.08.2019
2828 Clouds 28 1016 48 10000 7.7 30 13:59 29.08.2019
2829 Clouds 28 1016 48 10000 7.7 30 13:40 29.08.2019
2830 Clouds 28 1017 54 10000 10.3 50 13:21 29.08.2019
2831 Clouds 28 1016 48 10000 7.2 40 12:59 29.08.2019
2832 Clouds 27 1016 51 10000 6.7 40 12:40 29.08.2019
2833 Clouds 27 1016 48 10000 9.3 20 12:22 29.08.2019
2834 Clouds 26 1016 57 10000 7.7 20 11:59 29.08.2019
2835 Clouds 27 1016 57 10000 7.7 20 11:39 29.08.2019
2836 Clouds 27 1016 51 10000 6.7 30 11:20 29.08.2019
2837 Clouds 27 1017 54 10000 6.7 50 10:45 29.08.2019
2838 Clouds 26 1016 54 10000 6.7 50 10:25 29.08.2019
2839 Clouds 26 1016 54 10000 6.7 50 09:56 29.08.2019
2840 Clouds 26 1016 54 10000 6.7 50 09:38 29.08.2019
2841 Clouds 26 1016 54 10000 6.2 60 09:18 29.08.2019
2842 Clouds 25 1016 57 10000 7.2 50 08:41 29.08.2019
2843 Clouds 25 1016 57 10000 7.2 50 08:23 29.08.2019
2844 Clear 24 1016 64 10000 3.6 40 07:53 29.08.2019
2845 Clouds 23 1017 61 10000 8.7 60 07:30 29.08.2019
2846 Clear 23 1016 64 10000 2.6 40 06:54 29.08.2019
2847 Clear 23 1016 64 10000 2.6 40 06:54 29.08.2019
2848 Clear 23 1016 69 10000 3.1 30 06:33 29.08.2019
2849 Clear 23 1016 64 10000 4.1 40 05:48 29.08.2019
2850 Clear 23 1016 64 10000 3.6 50 04:51 29.08.2019
2851 Clear 22 1016 64 10000 3.6 30 04:30 29.08.2019
2852 Clear 23 1016 60 10000 4.6 20 03:54 29.08.2019
2853 Clear 23 1017 57 10000 7.7 60 01:53 29.08.2019
2854 Clear 23 1017 57 10000 7.7 60 01:34 29.08.2019
2855 Clear 23 1017 57 10000 7.7 60 01:34 29.08.2019
2856 Clear 24 1018 53 10000 7.7 60 00:46 29.08.2019
2857 Clear 24 1018 57 10000 7.7 60 00:21 29.08.2019
2858 Clear 24 1017 61 10000 5.1 40 23:56 28.08.2019
2859 Clear 24 1017 57 10000 5.1 50 23:38 28.08.2019
2860 Clouds 24 1017 61 10000 6.2 50 23:19 28.08.2019
2861 Clouds 24 1017 61 10000 5.1 50 22:39 28.08.2019
2862 Clouds 24 1017 61 10000 5.7 50 22:19 28.08.2019
2863 Clouds 24 1017 61 10000 5.7 50 21:59 28.08.2019
2864 Clouds 24 1017 65 10000 6.7 50 21:41 28.08.2019
2865 Clouds 24 1017 69 10000 7.2 50 21:21 28.08.2019
2866 Clouds 24 1017 69 10000 7.2 50 20:56 28.08.2019
2867 Clear 25 1018 61 10000 8.7 60 20:37 28.08.2019
2868 Clear 25 1018 61 10000 9.3 70 20:19 28.08.2019
2869 Clear 25 1018 61 10000 9.8 60 19:40 28.08.2019
2870 Clear 26 1017 57 10000 11.3 60 19:21 28.08.2019
2871 Clear 26 1017 61 10000 10.3 50 18:56 28.08.2019
2872 Clear 26 1017 61 10000 10.3 50 18:37 28.08.2019
2873 Clear 26 1017 65 10000 10.8 50 18:18 28.08.2019
2874 Clear 27 1016 51 10000 8.7 30 17:37 28.08.2019
2875 Clear 27 1016 51 10000 8.7 30 17:37 28.08.2019
2876 Clear 27 1016 51 10000 9.3 30 17:19 28.08.2019
2877 Clear 28 1016 42 10000 9.8 30 16:43 28.08.2019
2878 Clear 28 1016 48 10000 8.7 30 16:21 28.08.2019
2879 Clear 28 1016 48 10000 8.7 30 15:59 28.08.2019
2880 -273 0 0 0 0 0 15:37 28.08.2019
2881 Clear 28 1016 37 10000 10.3 20 15:19 28.08.2019
2882 Clear 29 1016 37 10000 10.3 20 14:56 28.08.2019
2883 Clear 29 1016 45 10000 9.8 30 14:38 28.08.2019
2884 Clear 29 1017 45 10000 10.3 20 14:19 28.08.2019
2885 Clear 29 1017 45 10000 7.7 50 13:57 28.08.2019
2886 Clear 29 1017 45 10000 7.7 50 13:37 28.08.2019
2887 Clear 29 1018 54 10000 11.3 60 13:18 28.08.2019
2888 Clouds 29 1017 51 10000 8.2 40 12:41 28.08.2019
2889 Clouds 28 1017 51 10000 8.2 40 12:23 28.08.2019
2890 Clouds 29 1017 51 10000 7.7 60 12:23 28.08.2019
2891 Clouds 28 1017 54 10000 7.2 60 11:54 28.08.2019
2892 Clouds 28 1017 54 10000 7.2 60 11:36 28.08.2019
2893 Clouds 28 1017 54 10000 7.7 50 11:18 28.08.2019
2894 Clouds 28 1017 51 10000 7.7 50 10:41 28.08.2019
2895 Clouds 28 1017 54 10000 7.7 50 10:21 28.08.2019
2896 Clouds 27 1017 54 10000 7.7 50 09:58 28.08.2019
2897 Clouds 27 1017 54 10000 7.2 50 09:39 28.08.2019
2898 Clouds 26 1017 61 10000 6.2 50 09:18 28.08.2019
2899 Clear 26 1017 61 10000 6.2 40 08:39 28.08.2019
2900 Clear 25 1017 69 10000 5.1 40 08:20 28.08.2019
2901 Clear 25 1017 69 10000 5.1 40 08:20 28.08.2019
2902 Clear 24 1017 73 10000 5.1 50 07:40 28.08.2019
2903 Clear 24 1017 73 10000 4.1 30 07:22 28.08.2019
2904 Clouds 24 1018 78 10000 8.2 50 06:51 28.08.2019
2905 Clouds 24 1018 78 10000 8.2 50 06:32 28.08.2019
2906 Clear 24 1017 78 10000 4.1 30 05:32 28.08.2019
2907 Clear 24 1017 73 10000 6.2 40 02:46 28.08.2019
2908 Clear 24 1017 78 10000 6.2 50 01:32 28.08.2019
2909 Clear 24 1017 78 10000 6.2 40 00:55 28.08.2019
2910 Clear 24 1018 73 10000 6.2 70 00:35 28.08.2019
2911 Clear 24 1017 78 10000 5.7 50 23:58 27.08.2019
2912 Clear 24 1017 78 10000 6.2 50 23:38 27.08.2019
2913 Clear 24 1017 78 10000 6.7 40 23:20 27.08.2019
2914 Clear 25 1017 74 10000 6.2 40 22:42 27.08.2019
2915 Clear 25 1017 69 10000 6.2 40 22:23 27.08.2019
2916 Clear 25 1017 69 10000 6.2 40 21:57 27.08.2019
2917 Clear 25 1017 69 10000 6.2 40 21:39 27.08.2019
2918 Clear 25 1017 69 10000 6.2 40 21:20 27.08.2019
2919 Clear 25 1017 69 10000 5.7 50 20:59 27.08.2019
2920 Clear 25 1017 69 10000 5.7 40 20:40 27.08.2019
2921 Clear 26 1016 65 10000 6.2 40 20:19 27.08.2019
2922 Clear 26 1018 74 10000 7.2 70 19:46 27.08.2019
2923 Clear 26 1017 65 10000 7.2 40 19:28 27.08.2019
2924 Clear 27 1018 78 10000 9.3 60 18:59 27.08.2019
2925 Clear 27 1018 78 10000 9.3 60 18:41 27.08.2019
2926 Clear 27 1017 78 10000 9.8 50 18:18 27.08.2019
2927 Clear 28 1016 54 10000 8.7 30 17:56 27.08.2019
2928 Clear 28 1016 54 10000 8.7 30 17:37 27.08.2019
2929 Clear 28 1016 51 10000 9.3 50 17:18 27.08.2019
2930 Clear 28 1016 55 10000 8.2 40 16:43 27.08.2019
2931 Clear 29 1016 55 10000 8.2 40 16:24 27.08.2019
2932 Clear 29 1016 48 10000 10.8 50 15:57 27.08.2019
2933 Clear 29 1016 48 10000 10.8 50 15:57 27.08.2019
2934 Clear 29 1017 48 10000 8.7 50 15:38 27.08.2019
2935 Clear 29 1017 45 10000 8.2 40 15:19 27.08.2019
2936 Clear 30 1017 48 10000 8.7 30 14:43 27.08.2019
2937 Clouds 30 1017 48 10000 8.2 40 14:24 27.08.2019
2938 Clouds 30 1017 48 10000 9.3 30 13:43 27.08.2019
2939 Clouds 30 1019 65 10000 9.8 50 13:25 27.08.2019
2940 Clouds 29 1017 55 10000 7.7 30 12:59 27.08.2019
2941 Clouds 29 1017 55 10000 9.3 30 12:39 27.08.2019
2942 Clouds 29 1017 55 10000 9.3 30 12:20 27.08.2019
2943 Clouds 29 1017 55 10000 7.7 50 11:47 27.08.2019
2944 Clouds 29 1017 55 10000 7.7 50 11:27 27.08.2019
2945 Clouds 29 1017 55 10000 7.2 50 10:55 27.08.2019
2946 Clouds 28 1017 58 10000 7.7 60 10:37 27.08.2019
2947 Clouds 28 1017 58 10000 7.2 40 10:18 27.08.2019
2948 Clouds 27 1017 65 10000 6.2 40 09:39 27.08.2019
2949 Clouds 27 1017 69 10000 7.2 50 09:21 27.08.2019
2950 Clouds 26 1017 69 10000 7.2 50 08:59 27.08.2019
2951 Clouds 26 1017 69 10000 6.2 50 08:40 27.08.2019
2952 Clouds 26 1017 69 10000 6.2 50 08:21 27.08.2019
2953 Clouds 25 1017 78 10000 4.1 40 07:41 27.08.2019
2954 Clouds 25 1017 83 10000 7.7 60 07:20 27.08.2019
2955 Clear 24 1017 83 10000 3.6 30 06:54 27.08.2019
2956 Clouds 24 1016 88 10000 4.1 20 06:27 27.08.2019
2957 Clear 24 1016 88 10000 3.6 30 05:47 27.08.2019
2958 Clouds 24 1016 88 10000 4.1 30 04:54 27.08.2019
2959 Clouds 24 1016 83 10000 4.1 40 03:39 27.08.2019
2960 Clouds 24 1016 83 10000 4.6 40 02:23 27.08.2019
2961 Clouds 24 1017 83 10000 7.2 40 01:44 27.08.2019
2962 Clear 24 1016 83 10000 5.7 30 01:23 27.08.2019
2963 Clouds 24 1017 88 10000 7.2 50 00:44 27.08.2019
2964 Clouds 25 1017 88 10000 7.7 50 00:24 27.08.2019
2965 Clear 25 1016 88 10000 8.2 20 23:39 26.08.2019
2966 Clear 25 1016 88 10000 8.2 20 23:21 26.08.2019
2967 Clouds 25 1016 78 10000 8.2 30 22:41 26.08.2019
2968 Clouds 25 1016 78 10000 8.2 30 22:21 26.08.2019
2969 Clear 25 1016 78 10000 7.2 40 22:00 26.08.2019
2970 Clear 25 1016 78 10000 7.2 40 21:38 26.08.2019
2971 Clear 25 1016 78 10000 7.2 40 21:20 26.08.2019
2972 Clear 25 1016 78 10000 7.2 40 20:57 26.08.2019
2973 Clear 25 1016 78 10000 7.2 40 20:38 26.08.2019
2974 Clear 25 1016 78 10000 7.2 40 20:19 26.08.2019
2975 Clear 26 1016 74 10000 7.2 30 19:44 26.08.2019
2976 Clear 26 1016 69 10000 7.2 30 19:20 26.08.2019
2977 Clear 27 1016 61 10000 5.7 30 18:59 26.08.2019
2978 Clear 27 1016 61 10000 5.7 30 18:38 26.08.2019
2979 Clear 27 1016 58 10000 8.7 20 18:38 26.08.2019
2980 Clear 27 1016 58 10000 8.7 20 18:19 26.08.2019
2981 Clear 27 1016 58 10000 8.7 20 18:19 26.08.2019
2982 Clear 28 1016 55 10000 8.2 20 17:44 26.08.2019
2983 Clear 28 1016 58 10000 9.3 30 17:20 26.08.2019
2984 Clear 28 1015 55 10000 9.3 20 16:58 26.08.2019
2985 Clear 28 1015 55 10000 9.3 20 16:58 26.08.2019
2986 Clear 29 1015 55 10000 9.3 20 16:40 26.08.2019
2987 Clear 29 1015 55 10000 9.3 20 16:40 26.08.2019
2988 Clear 29 1016 55 10000 8.2 20 16:19 26.08.2019
2989 Clear 29 1016 55 10000 8.2 20 16:19 26.08.2019
2990 Clear 30 1016 52 10000 8.2 20 15:59 26.08.2019
2991 Clear 30 1016 48 10000 8.2 50 15:41 26.08.2019
2992 Clear 30 1016 48 10000 8.2 50 15:21 26.08.2019
2993 Clear 30 1016 48 10000 10.3 50 14:44 26.08.2019
2994 Clear 30 1016 52 10000 9.8 50 14:23 26.08.2019
2995 Clear 30 1016 52 10000 9.8 50 14:23 26.08.2019
2996 Clear 30 1016 52 10000 9.3 50 13:57 26.08.2019
2997 Clear 30 1016 52 10000 9.3 50 13:38 26.08.2019
2998 Clear 30 1016 52 10000 8.7 40 13:19 26.08.2019
2999 Clear 30 1016 52 10000 9.3 30 12:43 26.08.2019
3000 Clear 29 1016 55 10000 7.2 30 12:23 26.08.2019
3001 Clear 29 1016 58 10000 9.8 50 11:56 26.08.2019
3002 Clouds 29 1016 58 10000 7.7 40 11:36 26.08.2019
3003 Clouds 29 1016 58 10000 7.7 40 11:18 26.08.2019
3004 Clouds 28 1016 62 10000 7.7 30 10:42 26.08.2019
3005 Clouds 28 1016 66 10000 7.2 50 10:21 26.08.2019
3006 Clouds 28 1017 66 10000 7.2 30 09:57 26.08.2019
3007 Clouds 27 1017 65 10000 7.7 50 09:37 26.08.2019
3008 Clouds 27 1017 65 10000 7.7 50 09:19 26.08.2019
3009 Clouds 26 1016 74 10000 5.7 40 08:42 26.08.2019
3010 Clouds 26 1016 74 10000 5.7 40 08:22 26.08.2019
3011 Clouds 26 1016 78 10000 5.7 40 07:59 26.08.2019
3012 Clouds 25 1016 78 10000 5.7 40 07:40 26.08.2019
3013 Clouds 25 1016 83 10000 5.7 40 07:21 26.08.2019
3014 Clouds 25 1016 88 10000 6.2 20 06:41 26.08.2019
3015 Clouds 25 1016 88 10000 6.2 20 06:21 26.08.2019
3016 Mist 24 1015 88 10000 5.7 30 05:48 26.08.2019
3017 Mist 24 1015 83 10000 5.1 30 04:25 26.08.2019
3018 Clear 25 1015 88 10000 4.6 40 02:53 26.08.2019
3019 Clouds 25 1015 88 10000 3.6 40 01:27 26.08.2019
3020 Clouds 25 1015 88 10000 5.1 30 00:53 26.08.2019
3021 Clouds 25 1015 83 10000 5.7 30 00:28 26.08.2019
3022 Clouds 25 1016 83 10000 4.6 30 23:59 25.08.2019
3023 Clouds 25 1016 83 10000 6.2 30 23:40 25.08.2019
3024 Clouds 25 1016 83 10000 6.2 30 23:18 25.08.2019
3025 Clouds 25 1016 83 10000 5.7 30 22:55 25.08.2019
3026 Clouds 25 1016 83 10000 5.7 30 22:37 25.08.2019
3027 Clouds 25 1016 83 10000 5.7 30 22:18 25.08.2019
3028 Clouds 25 1016 78 10000 5.7 30 21:55 25.08.2019
3029 Clouds 25 1016 78 10000 6.7 30 21:36 25.08.2019
3030 Clouds 26 1016 78 10000 6.7 30 21:18 25.08.2019
3031 Clouds 25 1016 78 8000 6.7 30 20:39 25.08.2019
3032 Clouds 25 1016 78 8000 6.7 30 20:19 25.08.2019
3033 Clear 26 1015 69 10000 6.7 40 19:56 25.08.2019
3034 Clear 26 1015 69 10000 6.2 40 19:37 25.08.2019
3035 Clear 26 1015 69 10000 6.2 40 19:18 25.08.2019
3036 Clear 27 1016 83 10000 8.2 40 18:57 25.08.2019
3037 Clear 27 1016 83 10000 8.2 40 18:39 25.08.2019
3038 Clear 27 1015 65 10000 6.2 20 18:18 25.08.2019
3039 Clear 28 1015 62 10000 7.7 20 17:42 25.08.2019
3040 Clear 28 1015 62 10000 7.7 20 17:23 25.08.2019
3041 Clear 28 1015 58 10000 8.7 20 16:45 25.08.2019
3042 Clear 28 1015 58 10000 8.7 20 16:24 25.08.2019
3043 Clear 29 1015 55 10000 8.2 40 15:59 25.08.2019
3044 Clear 29 1015 52 10000 8.2 30 15:40 25.08.2019
3045 Clear 29 1015 52 10000 8.2 30 15:21 25.08.2019
3046 Clear 30 1015 46 10000 8.2 40 14:42 25.08.2019
3047 Clear 30 1015 49 10000 7.7 30 14:23 25.08.2019
3048 Clear 30 1015 46 10000 7.2 30 13:55 25.08.2019
3049 Clear 31 1015 43 10000 6.2 20 13:36 25.08.2019
3050 Clear 31 1015 43 10000 6.2 20 13:36 25.08.2019
3051 Clear 30 1015 43 10000 6.2 20 13:18 25.08.2019
3052 Clear 30 1015 49 10000 5.1 360 12:41 25.08.2019
3053 Clear 30 1016 55 10000 5.7 10 12:22 25.08.2019
3054 Clear 29 1016 55 10000 4.6 20 11:57 25.08.2019
3055 Clear 29 1016 55 10000 4.6 60 11:37 25.08.2019
3056 Clear 29 1016 55 10000 4.6 60 11:19 25.08.2019
3057 Clear 29 1016 58 10000 4.6 20 10:55 25.08.2019
3058 Clear 28 1016 62 10000 4.1 20 10:37 25.08.2019
3059 Clear 28 1016 62 10000 4.1 20 10:18 25.08.2019
3060 Clouds 27 1016 65 10000 5.1 30 09:42 25.08.2019
3061 Clouds 27 1016 65 10000 5.1 30 09:23 25.08.2019
3062 Clouds 26 1016 74 10000 5.1 50 08:47 25.08.2019
3063 Clouds 26 1016 78 10000 5.7 30 08:28 25.08.2019
3064 Clouds 24 1016 83 10000 5.1 40 07:49 25.08.2019
3065 Clouds 25 1016 83 10000 4.1 40 07:30 25.08.2019
3066 Clear 24 1016 88 10000 3.6 40 06:38 25.08.2019
3067 Clear 24 1016 88 10000 4.1 20 05:27 25.08.2019
3068 Mist 24 1016 88 10000 4.1 20 03:43 25.08.2019
3069 Clear 24 1016 94 10000 5.1 10 02:42 25.08.2019
3070 Clear 24 1016 88 10000 4.1 360 01:53 25.08.2019
3071 Clear 24 1016 83 10000 3.1 30 00:45 25.08.2019
3072 Clear 24 1017 83 10000 4.1 50 00:23 25.08.2019
3073 Clear 25 1017 83 10000 3.6 60 23:58 24.08.2019
3074 Clear 25 1017 83 10000 3.6 60 23:39 24.08.2019
3075 Clear 25 1017 83 10000 4.1 60 23:21 24.08.2019
3076 Clear 25 1017 78 10000 4.6 50 22:42 24.08.2019
3077 Clear 25 1017 78 10000 4.6 50 22:19 24.08.2019
3078 Clear 25 1017 78 10000 5.7 50 21:59 24.08.2019
3079 Clear 25 1017 78 10000 4.6 60 21:39 24.08.2019
3080 Clear 25 1017 78 10000 4.6 60 21:21 24.08.2019
3081 Clear 25 1017 78 10000 5.1 40 20:57 24.08.2019
3082 Clear 25 1017 78 10000 5.1 40 20:38 24.08.2019
3083 Clear 25 1017 78 10000 6.2 40 20:19 24.08.2019
3084 Clear 25 1017 78 10000 6.2 40 19:57 24.08.2019
3085 Clear 25 1017 78 10000 6.2 40 19:38 24.08.2019
3086 Clear 25 1017 78 10000 6.2 40 19:38 24.08.2019
3087 Clear 26 1017 74 10000 6.2 40 19:20 24.08.2019
3088 Clear 26 1016 74 10000 7.7 20 18:46 24.08.2019
3089 Clear 27 1016 65 10000 8.7 20 18:24 24.08.2019
3090 Clear 27 1016 62 10000 9.8 20 17:46 24.08.2019
3091 Clear 27 1016 66 10000 8.2 20 17:27 24.08.2019
3092 Clear 28 1016 62 10000 9.3 20 16:56 24.08.2019
3093 Clear 28 1016 58 10000 8.7 10 16:37 24.08.2019
3094 Clear 28 1016 58 10000 8.7 10 16:19 24.08.2019
3095 Clear 29 1017 55 10000 8.7 20 15:44 24.08.2019
3096 Clear 29 1017 55 10000 8.7 20 15:25 24.08.2019
3097 Clear 30 1017 55 10000 8.7 10 14:57 24.08.2019
3098 Clear 30 1017 52 10000 8.7 360 14:38 24.08.2019
3099 Clear 30 1017 52 10000 8.7 360 14:18 24.08.2019
3100 Clear 30 1017 58 10000 7.2 10 13:43 24.08.2019
3101 Clear 31 1017 52 10000 5.7 20 13:22 24.08.2019
3102 Clear 30 1017 52 10000 5.1 360 12:59 24.08.2019
3103 Clear 29 1017 70 10000 2.6 150 12:40 24.08.2019
3104 Clear 29 1017 70 10000 2.6 150 12:40 24.08.2019
3105 Clear 29 1017 70 10000 2.6 150 12:22 24.08.2019
3106 Clear 29 1017 55 10000 5.1 20 11:46 24.08.2019
3107 Clear 28 1017 69 10000 3.1 100 11:26 24.08.2019
3108 Clouds 28 1018 78 10000 2.6 130 10:59 24.08.2019
3109 Clear 27 1017 83 10000 3.6 90 10:38 24.08.2019
3110 Clear 27 1017 83 10000 3.6 90 10:19 24.08.2019
3111 Clear 26 1017 78 10000 3.6 100 09:41 24.08.2019
3112 Clouds 26 1017 74 10000 3.1 70 09:18 24.08.2019
3113 Clouds 26 1017 74 10000 3.1 70 09:18 24.08.2019
3114 Clouds 26 1017 78 10000 4.1 20 08:43 24.08.2019
3115 Clouds 26 1017 78 10000 4.1 20 08:23 24.08.2019
3116 Mist 25 1017 83 10000 3.1 360 07:51 24.08.2019
3117 Mist 24 1017 88 10000 4.1 10 07:29 24.08.2019
3118 Clear 24 1017 94 10000 3.6 10 06:31 24.08.2019
3119 Mist 24 1017 88 10000 2.6 10 05:59 24.08.2019
3120 Mist 24 1017 88 10000 3.1 20 05:35 24.08.2019
3121 Clear 23 1017 88 10000 4.1 10 03:40 24.08.2019
3122 Mist 24 1017 88 10000 5.1 10 02:41 24.08.2019
3123 Clouds 24 1017 88 10000 4.6 360 01:53 24.08.2019
3124 Clouds 24 1018 88 10000 4.1 350 01:22 24.08.2019
3125 Clouds 24 1018 88 10000 3.6 340 00:45 24.08.2019
3126 Clouds 24 1018 83 10000 3.6 10 00:21 24.08.2019
3127 Clouds 24 1018 83 10000 3.6 10 23:44 23.08.2019
3128 Clouds 24 1018 83 10000 3.1 20 23:20 23.08.2019
3129 Clouds 24 1018 83 10000 4.1 20 22:44 23.08.2019
3130 Clouds 24 1018 83 10000 4.1 20 22:24 23.08.2019
3131 Clouds 24 1018 83 10000 4.1 20 21:55 23.08.2019
3132 Clouds 24 1018 83 10000 4.1 30 21:37 23.08.2019
3133 Clouds 24 1018 83 10000 4.1 30 21:18 23.08.2019
3134 Clouds 25 1018 78 10000 4.1 20 20:50 23.08.2019
3135 Clouds 25 1018 78 10000 5.1 30 20:32 23.08.2019
3136 Clouds 25 1018 78 10000 4.6 30 19:46 23.08.2019
3137 Clouds 25 1018 78 10000 4.6 10 19:19 23.08.2019
3138 Clouds 25 1018 78 10000 5.7 20 18:55 23.08.2019
3139 Clouds 26 1018 78 10000 4.1 20 18:37 23.08.2019
3140 Clouds 26 1018 78 10000 4.1 20 18:18 23.08.2019
3141 Clouds 26 1017 69 10000 5.1 20 17:41 23.08.2019
3142 Clouds 26 1017 69 10000 6.7 10 17:23 23.08.2019
3143 Clouds 27 1017 69 10000 7.7 10 16:49 23.08.2019
3144 Clouds 27 1017 65 10000 9.3 20 16:30 23.08.2019
3145 Clouds 27 1017 65 10000 9.8 360 15:59 23.08.2019
3146 Clouds 27 1017 65 10000 9.8 360 15:40 23.08.2019
3147 Clouds 27 1017 65 10000 9.8 360 15:21 23.08.2019
3148 Clouds 27 1017 65 10000 9.8 360 14:56 23.08.2019
3149 Clouds 27 1017 66 10000 10.3 350 14:38 23.08.2019
3150 Clouds 27 1017 66 10000 10.3 350 14:19 23.08.2019
3151 Clouds 28 1018 62 10000 9.3 10 13:42 23.08.2019
3152 Clouds 28 1018 62 10000 9.3 10 13:23 23.08.2019
3153 Clouds 28 1018 58 10000 9.3 360 12:59 23.08.2019
3154 Clouds 28 1017 62 10000 9.3 350 12:41 23.08.2019
3155 Clouds 28 1017 62 10000 9.3 350 12:21 23.08.2019
3156 Clouds 27 1018 66 10000 8.2 10 11:58 23.08.2019
3157 Clouds 27 1018 62 10000 8.7 10 11:39 23.08.2019
3158 Clouds 27 1018 62 10000 8.7 10 11:19 23.08.2019
3159 Clouds 27 1018 69 10000 8.7 10 10:56 23.08.2019
3160 Clouds 27 1018 69 10000 8.2 360 10:38 23.08.2019
3161 Clouds 26 1018 69 10000 8.2 360 10:18 23.08.2019
3162 Clouds 26 1017 74 10000 9.3 360 09:43 23.08.2019
3163 Clouds 26 1017 74 10000 8.7 350 09:20 23.08.2019
3164 Mist 25 1017 74 10000 8.7 360 08:45 23.08.2019
3165 Mist 25 1017 78 10000 8.7 360 08:22 23.08.2019
3166 Mist 24 1017 78 10000 7.2 360 07:57 23.08.2019
3167 Mist 24 1017 83 10000 6.7 360 07:38 23.08.2019
3168 Mist 24 1017 83 10000 6.7 360 07:20 23.08.2019
3169 Mist 24 1017 83 10000 6.2 360 06:41 23.08.2019
3170 Mist 23 1017 88 10000 5.1 360 06:22 23.08.2019
3171 Mist 23 1017 88 10000 5.1 360 05:44 23.08.2019
3172 Mist 23 1017 83 10000 3.1 350 05:24 23.08.2019
3173 Mist 23 1017 88 10000 2.1 330 03:42 23.08.2019
3174 Mist 23 1017 88 10000 2.1 290 02:38 23.08.2019
3175 Mist 22 1017 88 10000 2.1 290 02:20 23.08.2019
3176 Clear 23 1017 83 10000 1 0 00:57 23.08.2019
3177 Clear 23 1017 83 10000 1 0 00:37 23.08.2019
3178 Clear 23 1017 83 10000 1 0 00:18 23.08.2019
3179 Clear 24 1017 73 10000 1 360 23:40 22.08.2019
3180 Clear 23 1017 78 10000 2.1 350 23:21 22.08.2019
3181 Clear 24 1017 78 10000 2.6 350 22:42 22.08.2019
3182 Clear 24 1017 69 10000 4.1 350 22:23 22.08.2019
3183 Clear 25 1017 65 10000 4.1 20 21:58 22.08.2019
3184 Clear 25 1017 65 10000 4.1 20 21:58 22.08.2019
3185 Clear 25 1018 65 10000 4.1 20 21:40 22.08.2019
3186 Clear 25 1018 65 10000 4.1 20 21:21 22.08.2019
3187 Clear 25 1018 69 10000 4.6 360 20:58 22.08.2019
3188 Clouds 25 1018 74 10000 5.1 10 20:39 22.08.2019
3189 Clouds 25 1018 74 10000 5.1 10 20:20 22.08.2019
3190 Clouds 25 1018 74 10000 5.1 10 20:20 22.08.2019
3191 Clouds 25 1017 78 10000 7.2 10 19:56 22.08.2019
3192 Clouds 25 1017 78 10000 7.7 10 19:38 22.08.2019
3193 Clouds 25 1017 78 10000 7.7 10 19:20 22.08.2019
3194 Clouds 26 1017 69 10000 8.7 10 18:57 22.08.2019
3195 Clouds 26 1017 74 10000 8.7 10 18:39 22.08.2019
3196 Clouds 26 1017 74 10000 8.7 10 18:19 22.08.2019
3197 Clear 27 1016 65 10000 8.7 10 17:43 22.08.2019
3198 Clear 27 1016 62 10000 8.7 10 17:24 22.08.2019
3199 Clear 28 1016 62 10000 8.7 20 16:59 22.08.2019
3200 Clear 28 1016 58 10000 7.7 20 16:40 22.08.2019
3201 Clear 28 1016 62 10000 8.7 20 16:40 22.08.2019
3202 Clear 28 1016 58 10000 7.7 20 16:22 22.08.2019
3203 Clear 28 1016 58 10000 7.7 20 16:22 22.08.2019
3204 Clear 28 1016 58 10000 7.7 20 16:22 22.08.2019
3205 Clear 28 1016 58 10000 7.7 20 16:22 22.08.2019
3206 Clear 29 1016 58 10000 7.2 10 16:00 22.08.2019
3207 Clear 29 1016 58 10000 7.2 10 15:41 22.08.2019
3208 Clear 29 1016 55 10000 7.2 10 15:41 22.08.2019
3209 Clear 29 1016 55 10000 7.2 10 15:22 22.08.2019
3210 Clear 29 1016 55 10000 7.2 10 14:57 22.08.2019
3211 Clear 29 1016 55 10000 7.2 10 14:39 22.08.2019
3212 Clear 29 1016 49 10000 5.1 360 14:19 22.08.2019
3213 Clouds 28 1016 62 10000 4.1 210 13:56 22.08.2019
3214 Clouds 28 1016 62 10000 4.1 210 13:38 22.08.2019
3215 Clouds 28 1016 65 10000 3.6 190 13:18 22.08.2019
3216 Clouds 28 1016 69 10000 3.6 200 12:40 22.08.2019
3217 Clouds 27 1016 65 10000 3.6 190 12:22 22.08.2019
3218 Clouds 27 1016 65 10000 4.1 180 11:58 22.08.2019
3219 Clouds 27 1016 65 10000 4.1 180 11:39 22.08.2019
3220 Clouds 27 1016 65 10000 4.1 180 11:19 22.08.2019
3221 Clear 28 1016 51 10000 4.6 40 10:57 22.08.2019
3222 Clear 27 1016 65 10000 5.1 20 10:37 22.08.2019
3223 Clear 27 1016 65 10000 5.1 20 10:19 22.08.2019
3224 Clouds 27 1016 62 10000 4.6 20 09:54 22.08.2019
3225 Clouds 26 1016 69 10000 4.6 360 09:36 22.08.2019
3226 Clouds 26 1015 74 10000 5.1 10 09:18 22.08.2019
3227 Clouds 25 1016 74 10000 3.1 350 08:41 22.08.2019
3228 Mist 25 1016 73 10000 2.6 320 08:21 22.08.2019
3229 Mist 24 1016 74 10000 7.7 350 07:55 22.08.2019
3230 Mist 24 1016 73 10000 3.1 280 07:37 22.08.2019
3231 Mist 23 1016 73 10000 3.1 280 07:18 22.08.2019
3232 Mist 23 1016 78 10000 3.1 270 06:44 22.08.2019
3233 Mist 23 1015 78 10000 3.1 300 06:20 22.08.2019
3234 Mist 22 1015 94 10000 2.1 240 04:58 22.08.2019
3235 Mist 22 1015 88 10000 2.6 310 03:20 22.08.2019
3236 Mist 23 1015 94 10000 2.1 290 02:36 22.08.2019
3237 Clear 22 1016 94 10000 3.6 310 01:30 22.08.2019
3238 Clear 23 1016 88 10000 2.6 340 00:50 22.08.2019
3239 Clear 23 1016 88 10000 2.1 320 00:30 22.08.2019
3240 Clear 23 1016 88 10000 2.1 310 23:59 21.08.2019
3241 Clear 23 1016 88 10000 2.1 310 23:39 21.08.2019
3242 Clear 23 1016 88 10000 2.6 270 23:21 21.08.2019
3243 Clear 23 1016 88 10000 2.6 290 22:57 21.08.2019
3244 Clear 23 1016 88 10000 2.6 290 22:57 21.08.2019
3245 Clouds 22 1016 88 10000 1.5 320 22:38 21.08.2019
3246 Clear 23 1016 83 10000 1 0 22:20 21.08.2019
3247 Clear 23 1016 83 10000 2.1 350 21:55 21.08.2019
3248 Clear 23 1016 83 10000 2.1 350 21:37 21.08.2019
3249 Clear 23 1017 78 10000 1.5 350 21:18 21.08.2019
3250 Clear 23 1017 78 10000 2.6 20 20:43 21.08.2019
3251 Clear 23 1017 78 10000 2.6 350 20:25 21.08.2019
3252 Clouds 24 1017 73 10000 3.1 20 19:58 21.08.2019
3253 Clouds 24 1016 73 10000 4.1 10 19:40 21.08.2019
3254 Clouds 24 1016 73 10000 4.1 10 19:21 21.08.2019
3255 Clouds 24 1016 69 10000 4.1 40 18:56 21.08.2019
3256 Clouds 24 1017 83 10000 3.6 340 18:38 21.08.2019
3257 Clear 24 1016 69 10000 3.1 50 18:20 21.08.2019
3258 Clouds 24 1016 65 10000 4.1 20 17:43 21.08.2019
3259 Clouds 24 1016 65 10000 4.1 20 17:43 21.08.2019
3260 Clouds 24 1016 65 10000 3.6 50 17:21 21.08.2019
3261 Clouds 24 1016 73 10000 5.7 50 16:56 21.08.2019
3262 Clouds 24 1016 73 10000 5.7 50 16:37 21.08.2019
3263 Clouds 24 1016 78 10000 5.7 30 16:18 21.08.2019
3264 Rain 23 1016 78 10000 6.7 20 15:56 21.08.2019
3265 Rain 24 1016 69 10000 6.2 20 15:38 21.08.2019
3266 Rain 24 1016 69 10000 6.2 20 15:18 21.08.2019
3267 Rain 24 1016 74 10000 2.6 80 14:54 21.08.2019
3268 Rain 23 1016 78 10000 3.6 150 14:36 21.08.2019
3269 Rain 24 1016 78 10000 3.6 150 14:18 21.08.2019
3270 Rain 24 1016 78 10000 3.6 150 14:18 21.08.2019
3271 Thunderstorm 26 1016 61 10000 6.7 350 13:42 21.08.2019
3272 Thunderstorm 25 1016 61 10000 6.7 350 13:20 21.08.2019
3273 Clouds 25 1016 65 10000 4.6 360 12:57 21.08.2019
3274 Thunderstorm 25 1016 69 10000 5.1 20 12:38 21.08.2019
3275 Thunderstorm 25 1016 69 10000 5.1 20 12:19 21.08.2019
3276 Rain 24 1017 65 10000 9.3 350 11:44 21.08.2019
3277 Rain 24 1017 65 10000 9.3 350 11:24 21.08.2019
3278 Thunderstorm 24 1017 65 10000 9.8 360 10:58 21.08.2019
3279 Thunderstorm 23 1017 65 10000 9.8 360 10:40 21.08.2019
3280 Thunderstorm 24 1016 65 10000 9.3 350 10:21 21.08.2019
3281 Thunderstorm 24 1016 88 6000 4.6 10 09:58 21.08.2019
3282 Thunderstorm 24 1016 69 10000 6.7 350 09:40 21.08.2019
3283 Thunderstorm 24 1016 69 10000 6.7 350 09:21 21.08.2019
3284 Thunderstorm 24 1016 65 10000 5.7 330 08:50 21.08.2019
3285 Thunderstorm 24 1016 73 10000 4.6 340 08:26 21.08.2019
3286 Thunderstorm 24 1017 78 10000 4.1 330 07:46 21.08.2019
3287 Thunderstorm 24 1017 78 10000 3.6 320 07:26 21.08.2019
3288 Clouds 23 1017 83 10000 2.6 320 06:59 21.08.2019
3289 Clouds 23 1017 88 10000 1 280 06:40 21.08.2019
3290 Clouds 23 1017 88 10000 1 280 06:18 21.08.2019
3291 Clouds 23 1017 83 10000 2.6 310 05:29 21.08.2019
3292 Clear 22 1017 88 10000 3.1 310 04:42 21.08.2019
3293 Clear 22 1017 83 10000 2.6 360 02:44 21.08.2019
3294 Clear 23 1018 78 10000 3.1 40 01:34 21.08.2019
3295 Clear 23 1018 78 10000 2.6 30 00:42 21.08.2019
3296 Clear 23 1018 78 10000 2.6 30 00:21 21.08.2019
3297 Clear 23 1018 78 10000 2.6 20 23:45 20.08.2019
3298 Clouds 23 1018 78 10000 3.6 40 23:20 20.08.2019
3299 Clouds 23 1018 78 10000 4.1 20 22:59 20.08.2019
3300 Clouds 23 1018 78 10000 4.1 20 22:40 20.08.2019
3301 Clouds 23 1019 78 10000 4.1 30 22:21 20.08.2019
3302 Clouds 24 1019 78 10000 4.1 30 21:58 20.08.2019
3303 Clouds 24 1019 73 10000 4.1 60 21:39 20.08.2019
3304 Clouds 24 1019 73 10000 4.1 60 21:20 20.08.2019
3305 Clouds 24 1019 69 10000 6.2 20 20:59 20.08.2019
3306 Clouds 24 1019 69 10000 6.2 20 20:59 20.08.2019
3307 Clouds 24 1019 69 10000 6.2 20 20:41 20.08.2019
3308 Clouds 24 1018 69 10000 6.7 20 20:22 20.08.2019
3309 Clouds 25 1018 69 10000 7.7 20 19:40 20.08.2019
3310 Clouds 25 1018 69 10000 7.7 20 19:22 20.08.2019
3311 Clouds 25 1018 65 10000 7.7 20 18:57 20.08.2019
3312 Clouds 25 1018 65 10000 7.7 20 18:39 20.08.2019
3313 Clouds 25 1018 69 10000 7.7 30 18:39 20.08.2019
3314 Clouds 25 1018 69 10000 7.7 30 18:19 20.08.2019
3315 Clouds 26 1018 57 10000 8.7 10 17:57 20.08.2019
3316 Clouds 26 1018 54 10000 8.7 20 17:38 20.08.2019
3317 Clouds 26 1018 65 10000 8.7 30 17:19 20.08.2019
3318 Clouds 26 1018 57 10000 8.7 10 16:44 20.08.2019
3319 Clouds 26 1018 57 10000 8.7 10 16:26 20.08.2019
3320 Clouds 27 1018 54 10000 7.2 20 15:56 20.08.2019
3321 Clouds 27 1018 54 10000 7.2 20 15:37 20.08.2019
3322 Clouds 27 1018 54 10000 7.2 30 15:18 20.08.2019
3323 Clouds 27 1018 57 10000 7.2 20 14:42 20.08.2019
3324 Clouds 27 1018 48 10000 7.7 40 14:22 20.08.2019
3325 Clouds 27 1018 48 10000 7.7 40 13:57 20.08.2019
3326 Clouds 27 1018 48 10000 7.2 60 13:38 20.08.2019
3327 Clouds 26 1018 42 10000 7.2 60 13:20 20.08.2019
3328 Clouds 26 1018 45 10000 6.2 50 12:51 20.08.2019
3329 Clouds 26 1018 45 10000 6.2 50 12:51 20.08.2019
3330 Clouds 26 1018 45 10000 6.2 50 12:30 20.08.2019
3331 Clouds 26 1018 42 10000 6.7 50 11:59 20.08.2019
3332 Clouds 26 1018 42 10000 6.7 50 11:40 20.08.2019
3333 Clouds 26 1018 47 10000 6.2 40 11:20 20.08.2019
3334 Clouds 26 1018 47 10000 6.2 40 10:57 20.08.2019
3335 Clouds 25 1019 61 10000 4.1 80 10:38 20.08.2019
3336 Clouds 25 1019 61 10000 4.1 80 10:20 20.08.2019
3337 Clouds 24 1018 69 10000 4.1 110 09:44 20.08.2019
3338 Clouds 24 1018 69 10000 4.1 110 09:25 20.08.2019
3339 Clouds 23 1018 69 10000 3.6 100 08:58 20.08.2019
3340 Clouds 23 1018 73 10000 2.6 110 08:40 20.08.2019
3341 Rain 22 1018 73 10000 1 0 08:21 20.08.2019
3342 Rain 22 1018 73 10000 1 0 07:56 20.08.2019
3343 Rain 22 1018 73 10000 1 0 07:37 20.08.2019
3344 Clouds 21 1018 69 10000 6.2 40 07:18 20.08.2019
3345 Clouds 21 1018 69 10000 6.2 40 07:18 20.08.2019
3346 Clouds 20 1018 88 10000 1.5 340 06:28 20.08.2019
3347 Clouds 20 1018 88 10000 2.6 10 05:51 20.08.2019
3348 Clouds 20 1018 88 10000 2.6 10 05:30 20.08.2019
3349 Clouds 21 1017 78 10000 2.6 50 04:18 20.08.2019
3350 Clouds 21 1017 73 10000 2.6 50 02:46 20.08.2019
3351 Clear 21 1017 69 10000 3.1 60 01:43 20.08.2019
3352 Clear 21 1017 69 10000 2.6 50 00:59 20.08.2019
3353 Clear 21 1018 69 10000 3.1 40 00:40 20.08.2019
3354 Clear 22 1018 69 10000 3.1 40 00:19 20.08.2019
3355 Clear 23 1018 69 10000 3.6 40 23:40 19.08.2019
3356 Clear 23 1018 69 10000 3.1 30 23:18 19.08.2019
3357 Clear 23 1018 69 10000 3.1 30 23:18 19.08.2019
3358 Clear 22 1018 64 10000 4.1 50 22:56 19.08.2019
3359 Clear 23 1018 64 10000 4.1 50 22:38 19.08.2019
3360 Clear 23 1018 64 10000 3.6 30 22:18 19.08.2019
3361 Clear 23 1018 64 10000 3.6 30 21:55 19.08.2019
3362 Clouds 23 1018 64 10000 4.1 50 21:36 19.08.2019
3363 Clear 23 1018 64 10000 5.7 40 21:18 19.08.2019
3364 Clear 23 1018 60 10000 5.1 50 20:39 19.08.2019
3365 Clear 23 1018 60 10000 5.1 50 20:39 19.08.2019
3366 Clouds 23 1018 60 10000 5.7 30 20:20 19.08.2019
3367 Clouds 23 1018 60 10000 5.7 30 19:58 19.08.2019
3368 Clouds 23 1018 64 10000 7.2 60 19:39 19.08.2019
3369 Clouds 24 1018 64 10000 8.7 50 19:19 19.08.2019
3370 Clouds 24 1018 64 10000 7.7 60 18:46 19.08.2019
3371 Clouds 24 1017 57 10000 6.7 40 18:28 19.08.2019
3372 Clouds 25 1018 57 10000 8.2 50 17:59 19.08.2019
3373 Clouds 25 1017 54 10000 6.7 40 17:41 19.08.2019
3374 Clouds 25 1017 54 10000 6.7 40 17:41 19.08.2019
3375 Clouds 25 1017 47 10000 7.7 20 17:21 19.08.2019
3376 Clouds 26 1017 47 10000 7.7 20 16:58 19.08.2019
3377 Clouds 26 1017 47 10000 8.2 10 16:37 19.08.2019
3378 Clouds 26 1017 47 10000 8.2 10 16:19 19.08.2019
3379 Clouds 26 1017 51 10000 6.7 40 15:55 19.08.2019
3380 Clouds 26 1017 45 10000 7.2 20 15:36 19.08.2019
3381 Clouds 26 1017 45 10000 7.2 20 15:18 19.08.2019
3382 Clouds 26 1017 51 10000 7.2 20 14:40 19.08.2019
3383 Clouds 26 1017 47 10000 8.2 10 14:21 19.08.2019
3384 Clouds 26 1017 45 10000 6.7 30 13:57 19.08.2019
3385 Clouds 26 1017 45 10000 6.7 30 13:57 19.08.2019
3386 Clouds 26 1017 42 10000 7.2 20 13:37 19.08.2019
3387 Clouds 26 1017 42 10000 7.2 20 13:19 19.08.2019
3388 Clouds 26 1017 47 10000 7.7 20 12:45 19.08.2019
3389 Clouds 25 1017 47 10000 7.7 20 12:24 19.08.2019
3390 Clouds 25 1017 47 10000 6.7 10 11:59 19.08.2019
3391 Clouds 26 1017 44 10000 5.7 40 11:39 19.08.2019
3392 Clouds 26 1017 44 10000 5.7 40 11:20 19.08.2019
3393 Clouds 25 1017 47 10000 5.1 70 10:55 19.08.2019
3394 Clouds 25 1017 47 10000 4.1 70 10:36 19.08.2019
3395 Clouds 25 1017 47 10000 4.1 70 10:18 19.08.2019
3396 Clouds 24 1017 61 10000 3.6 90 09:41 19.08.2019
3397 Clouds 24 1017 73 10000 2.6 140 09:22 19.08.2019
3398 Clouds 23 1017 69 10000 3.1 120 08:55 19.08.2019
3399 Clear 22 1017 69 10000 2.1 100 08:37 19.08.2019
3400 Clear 22 1017 69 10000 2.1 100 08:18 19.08.2019
3401 Clear 22 1017 69 10000 2.1 100 08:18 19.08.2019
3402 Clouds 21 1017 77 10000 2.1 360 07:42 19.08.2019
3403 Clouds 21 1017 82 10000 2.6 340 07:24 19.08.2019
3404 Clouds 19 1017 82 10000 2.6 360 06:45 19.08.2019
3405 Clouds 19 1017 82 10000 1.5 20 06:24 19.08.2019
3406 Clear 18 1016 88 10000 3.6 350 04:54 19.08.2019
3407 Clear 18 1016 82 10000 2.6 360 04:23 19.08.2019
3408 Clear 18 1016 82 10000 2.6 350 03:20 19.08.2019
3409 Clear 19 1016 82 10000 2.6 340 01:48 19.08.2019
3410 Clear 19 1017 82 10000 2.6 340 01:21 19.08.2019
3411 Clear 20 1017 72 10000 2.6 350 00:43 19.08.2019
3412 Clear 20 1017 64 10000 2.1 30 00:20 19.08.2019
3413 Clear 21 1017 64 10000 2.1 20 23:41 18.08.2019
3414 Clear 21 1017 64 10000 2.1 30 23:21 18.08.2019
3415 Clear 21 1017 56 10000 2.6 60 22:40 18.08.2019
3416 Clear 21 1017 56 10000 2.6 60 22:22 18.08.2019
3417 Clear 23 1017 56 10000 3.1 70 21:58 18.08.2019
3418 Clear 22 1017 56 10000 3.1 70 21:40 18.08.2019
3419 Clear 23 1017 53 10000 2.6 50 21:40 18.08.2019
3420 Clear 23 1017 53 10000 2.6 50 21:21 18.08.2019
3421 Clear 23 1017 53 10000 2.6 50 21:21 18.08.2019
3422 Clear 23 1017 50 10000 2.6 50 20:59 18.08.2019
3423 Clear 23 1017 50 10000 2.6 50 20:41 18.08.2019
3424 Clear 23 1016 50 10000 3.1 60 20:23 18.08.2019
3425 Clear 23 1016 53 10000 4.1 60 19:43 18.08.2019
3426 Clouds 24 1016 50 10000 4.6 50 19:25 18.08.2019
3427 Clouds 24 1016 50 10000 5.1 30 18:59 18.08.2019
3428 Clouds 25 1016 47 10000 6.7 10 18:40 18.08.2019
3429 Clouds 25 1016 47 10000 6.7 10 18:21 18.08.2019
3430 Clouds 25 1016 44 10000 7.2 10 17:55 18.08.2019
3431 Clouds 25 1016 44 10000 7.2 10 17:37 18.08.2019
3432 Clouds 25 1016 44 10000 7.2 20 17:18 18.08.2019
3433 Clouds 26 1016 44 10000 7.7 10 16:55 18.08.2019
3434 Clouds 26 1016 44 10000 7.7 10 16:37 18.08.2019
3435 Clouds 26 1016 47 10000 6.7 20 16:18 18.08.2019
3436 Clouds 26 1016 44 10000 6.7 20 15:40 18.08.2019
3437 Clouds 26 1016 44 10000 6.7 20 15:20 18.08.2019
3438 Clouds 26 1016 42 10000 7.7 20 14:58 18.08.2019
3439 Clouds 26 1016 42 10000 7.7 20 14:40 18.08.2019
3440 Clouds 26 1016 44 10000 7.7 20 14:19 18.08.2019
3441 Clouds 26 1016 47 10000 7.7 20 13:57 18.08.2019
3442 Clouds 26 1016 47 10000 7.7 20 13:39 18.08.2019
3443 Clouds 25 1016 39 10000 7.7 20 13:20 18.08.2019
3444 Clouds 25 1016 42 10000 7.7 10 12:45 18.08.2019
3445 Clouds 25 1016 42 10000 8.7 350 12:23 18.08.2019
3446 Clouds 25 1016 44 10000 8.2 360 11:59 18.08.2019
3447 Clouds 25 1016 44 10000 8.2 360 11:40 18.08.2019
3448 Clouds 24 1016 57 10000 7.7 350 11:21 18.08.2019
3449 Clouds 24 1016 83 10000 3.6 200 10:41 18.08.2019
3450 Clouds 22 1016 83 10000 2.1 220 10:22 18.08.2019
3451 Clouds 22 1016 83 10000 2.1 220 09:56 18.08.2019
3452 Clouds 21 1016 83 10000 2.1 220 09:37 18.08.2019
3453 Clouds 22 1016 83 10000 2.6 210 09:18 18.08.2019
3454 Clouds 21 1015 83 10000 2.1 190 08:42 18.08.2019
3455 Clouds 20 1015 83 10000 2.1 200 08:24 18.08.2019
3456 Clouds 20 1015 88 10000 1 0 07:49 18.08.2019
3457 Clouds 20 1015 88 10000 0.5 0 07:29 18.08.2019
3458 Clear 18 1014 93 7000 1.95 78.955 05:50 18.08.2019
3459 Clear 18 1014 100 10000 1.5 310 04:58 18.08.2019
3460 Clear 18 1014 93 10000 0.5 0 03:46 18.08.2019
3461 Clear 18 1015 93 10000 1 260 02:50 18.08.2019
3462 Clear 19 1015 93 10000 2.1 280 02:26 18.08.2019
3463 Clear 19 1015 93 10000 1 230 01:48 18.08.2019
3464 Clear 19 1015 93 10000 1 270 01:25 18.08.2019
3465 Clear 19 1015 93 10000 1 270 01:25 18.08.2019
3466 Clear 18 1015 100 10000 0.5 340 00:40 18.08.2019
3467 Clouds 19 1014 93 10000 0.5 0 00:19 18.08.2019
3468 Rain 19 1015 93 10000 5.2 52.04 23:57 17.08.2019
3469 Rain 19 1015 93 10000 5.2 52.04 23:37 17.08.2019
3470 Rain 19 1015 93 10000 2.1 110 23:19 17.08.2019
3471 Rain 19 1015 93 10000 2.1 110 23:19 17.08.2019
3472 Rain 19 1015 88 10000 3.1 120 22:56 17.08.2019
3473 Rain 20 1015 88 10000 3.1 120 22:38 17.08.2019
3474 Thunderstorm 20 1015 88 10000 2.6 360 22:20 17.08.2019
3475 Rain 20 1014 88 10000 1 0 21:43 17.08.2019
3476 Rain 19 1014 88 10000 1 0 21:23 17.08.2019
3477 Rain 19 1014 93 6000 3.6 80 20:57 17.08.2019
3478 Rain 20 1014 88 10000 1 190 20:36 17.08.2019
3479 Rain 20 1014 88 10000 1 190 20:18 17.08.2019
3480 Rain 20 1013 88 10000 1.5 360 19:43 17.08.2019
3481 Rain 20 1014 88 10000 2.1 180 19:24 17.08.2019
3482 Rain 20 1014 88 10000 2.6 140 18:55 17.08.2019
3483 Rain 19 1014 88 10000 2.1 160 18:37 17.08.2019
3484 Rain 19 1015 88 10000 3.6 150 18:18 17.08.2019
3485 Rain 20 1015 88 10000 4.1 40 17:42 17.08.2019
3486 Rain 20 1014 88 10000 4.6 40 17:22 17.08.2019
3487 Rain 20 1014 88 10000 4.1 30 16:56 17.08.2019
3488 Rain 20 1014 88 10000 4.1 30 16:37 17.08.2019
3489 Rain 20 1014 88 10000 4.1 30 16:19 17.08.2019
3490 Rain 20 1014 88 10000 4.1 40 15:42 17.08.2019
3491 Rain 20 1014 88 10000 4.1 360 15:22 17.08.2019
3492 Thunderstorm 20 1014 88 10000 6.2 30 14:58 17.08.2019
3493 Thunderstorm 20 1014 88 10000 4.1 20 14:39 17.08.2019
3494 Thunderstorm 20 1014 88 10000 4.1 20 14:21 17.08.2019
3495 Thunderstorm 20 1014 88 10000 4.1 20 14:21 17.08.2019
3496 Rain 21 1014 82 10000 4.6 320 13:44 17.08.2019
3497 Rain 22 1014 82 10000 5.7 20 13:19 17.08.2019
3498 Thunderstorm 22 1012 88 4000 4.1 50 12:44 17.08.2019
3499 Thunderstorm 22 1014 93 4000 8.2 340 12:20 17.08.2019
3500 Thunderstorm 23 1014 88 10000 5.1 320 11:58 17.08.2019
3501 Thunderstorm 23 1014 94 4000 6.2 350 11:38 17.08.2019
3502 Rain 25 1013 61 8000 5.7 10 11:20 17.08.2019
3503 Thunderstorm 25 1013 54 10000 5.1 40 10:42 17.08.2019
3504 Thunderstorm 25 1014 78 7000 9.8 360 10:21 17.08.2019
3505 Thunderstorm 25 1013 61 10000 4.6 50 09:57 17.08.2019
3506 Thunderstorm 24 1014 64 10000 7.7 50 09:38 17.08.2019
3507 Clouds 24 1013 61 10000 5.1 40 09:20 17.08.2019
3508 Clouds 24 1013 65 10000 4.6 30 08:50 17.08.2019
3509 Clouds 24 1014 69 10000 4.6 40 08:21 17.08.2019
3510 Clouds 23 1013 69 10000 4.6 50 07:42 17.08.2019
3511 Clouds 22 1013 73 10000 4.1 40 07:20 17.08.2019
3512 Clear 21 1013 73 10000 4.1 20 06:25 17.08.2019
3513 Clear 21 1012 78 10000 5.1 20 04:36 17.08.2019
3514 Clear 21 1012 78 10000 5.1 20 04:18 17.08.2019
3515 Clear 21 1013 78 10000 4.1 20 02:43 17.08.2019
3516 Clear 22 1013 78 10000 4.1 40 01:39 17.08.2019
3517 Clear 22 1013 78 10000 3.1 30 01:20 17.08.2019
3518 Clear 22 1013 78 10000 3.1 40 00:46 17.08.2019
3519 Clear 22 1013 78 10000 3.6 50 00:21 17.08.2019
3520 Clear 22 1013 78 10000 3.1 50 23:44 16.08.2019
3521 Clear 22 1013 78 10000 4.6 50 23:24 16.08.2019
3522 Clear 22 1013 73 10000 3.6 60 22:43 16.08.2019
3523 Clear 23 1013 73 10000 4.6 50 22:20 16.08.2019
3524 Clear 23 1013 73 10000 5.1 60 21:58 16.08.2019
3525 Clear 23 1013 73 10000 5.1 60 21:38 16.08.2019
3526 Clear 23 1013 73 10000 4.1 50 21:18 16.08.2019
3527 Clear 23 1013 73 10000 6.2 30 20:42 16.08.2019
3528 Clear 23 1013 73 10000 6.2 30 20:20 16.08.2019
3529 Clear 23 1013 73 10000 5.7 30 19:56 16.08.2019
3530 Clouds 24 1012 65 10000 5.7 40 19:38 16.08.2019
3531 Clouds 24 1012 65 10000 5.7 40 19:19 16.08.2019
3532 Clouds 24 1012 65 10000 6.2 40 18:41 16.08.2019
3533 Clouds 24 1012 65 10000 6.2 30 18:22 16.08.2019
3534 Clouds 25 1012 61 10000 7.2 10 17:46 16.08.2019
3535 Clouds 25 1012 61 10000 8.2 20 17:27 16.08.2019
3536 Clouds 25 1012 61 10000 7.7 10 16:58 16.08.2019
3537 Clouds 25 1012 61 10000 8.2 360 16:39 16.08.2019
3538 Clouds 25 1012 61 10000 8.2 360 16:18 16.08.2019
3539 Clouds 26 1012 57 10000 7.7 10 15:55 16.08.2019
3540 Clouds 26 1012 57 10000 7.7 10 15:37 16.08.2019
3541 Clouds 25 1012 57 10000 7.7 10 15:19 16.08.2019
3542 Clouds 25 1012 54 10000 6.7 10 14:56 16.08.2019
3543 Clouds 25 1012 54 10000 6.7 10 14:37 16.08.2019
3544 Clouds 25 1012 54 10000 8.2 360 14:18 16.08.2019
3545 Clouds 26 1012 58 10000 7.2 20 13:39 16.08.2019
3546 Clouds 26 1012 58 10000 7.7 10 13:20 16.08.2019
3547 Clouds 26 1012 58 10000 7.7 10 12:40 16.08.2019
3548 Clouds 25 1012 61 10000 8.2 360 12:21 16.08.2019
3549 Clouds 25 1012 61 10000 8.2 360 12:21 16.08.2019
3550 Clouds 25 1012 65 10000 8.2 360 11:55 16.08.2019
3551 Clouds 25 1012 69 10000 8.7 350 11:37 16.08.2019
3552 Clouds 25 1012 69 10000 8.7 350 11:18 16.08.2019
3553 Clouds 25 1012 61 10000 7.7 10 10:42 16.08.2019
3554 Clouds 25 1012 61 10000 6.7 20 10:20 16.08.2019
3555 Clouds 24 1011 69 10000 7.7 10 09:38 16.08.2019
3556 Rain 24 1011 69 10000 7.7 10 09:19 16.08.2019
3557 Thunderstorm 24 1011 73 10000 6.7 30 08:57 16.08.2019
3558 Thunderstorm 24 1011 73 10000 6.7 30 08:38 16.08.2019
3559 Rain 24 1011 73 10000 8.7 10 08:19 16.08.2019
3560 Rain 24 1011 73 10000 7.2 10 07:44 16.08.2019
3561 Clouds 24 1011 78 10000 6.7 360 07:25 16.08.2019
3562 Clouds 24 1011 83 10000 8.2 350 06:43 16.08.2019
3563 Rain 24 1010 73 10000 5.7 360 05:58 16.08.2019
3564 Rain 24 1010 73 10000 6.7 350 05:33 16.08.2019
3565 Rain 24 1010 78 10000 4.6 360 03:19 16.08.2019
3566 Clouds 24 1009 94 8000 4.1 50 01:50 16.08.2019
3567 Clear 24 1010 78 10000 3.6 20 01:25 16.08.2019
3568 Clear 24 1010 78 10000 3.6 20 01:25 16.08.2019
3569 Clear 24 1010 78 10000 4.1 30 00:48 16.08.2019
3570 Clear 24 1010 78 10000 4.1 40 00:23 16.08.2019
3571 Clear 24 1010 78 10000 3.1 40 23:55 15.08.2019
3572 Clear 24 1010 78 10000 4.6 30 23:37 15.08.2019
3573 Clear 24 1010 78 10000 4.6 30 23:18 15.08.2019
3574 Clouds 24 1010 78 10000 4.6 30 22:41 15.08.2019
3575 Clouds 24 1010 78 10000 4.6 30 22:22 15.08.2019
3576 Clouds 25 1010 74 10000 4.6 20 21:58 15.08.2019
3577 Clouds 25 1010 74 10000 5.7 30 21:39 15.08.2019
3578 Clouds 25 1010 74 10000 5.7 30 21:19 15.08.2019
3579 Clouds 25 1009 78 10000 5.7 20 20:56 15.08.2019
3580 Clouds 25 1009 74 10000 5.7 20 20:38 15.08.2019
3581 Clouds 25 1009 74 10000 5.7 20 20:19 15.08.2019
3582 Clouds 26 1009 69 10000 5.7 20 19:39 15.08.2019
3583 Clouds 26 1009 69 10000 5.7 20 19:21 15.08.2019
3584 Clouds 26 1008 65 10000 6.7 20 18:49 15.08.2019
3585 Clouds 26 1008 65 10000 6.7 20 18:24 15.08.2019
3586 Clouds 27 1008 58 10000 7.2 10 17:59 15.08.2019
3587 Clouds 27 1008 58 10000 7.2 10 17:39 15.08.2019
3588 Clouds 27 1008 61 10000 7.7 10 17:20 15.08.2019
3589 Clouds 27 1008 61 10000 8.2 360 16:58 15.08.2019
3590 Clouds 27 1008 61 10000 8.2 360 16:40 15.08.2019
3591 Clouds 28 1008 58 10000 7.7 20 16:22 15.08.2019
3592 Clouds 27 1008 58 10000 8.2 10 15:39 15.08.2019
3593 Clouds 27 1008 58 10000 8.2 10 15:20 15.08.2019
3594 Clouds 27 1008 62 10000 9.3 10 14:57 15.08.2019
3595 Clouds 27 1008 62 10000 9.3 20 14:39 15.08.2019
3596 Clouds 27 1008 62 10000 9.3 20 14:20 15.08.2019
3597 Clouds 27 1008 62 10000 10.3 360 13:56 15.08.2019
3598 Clouds 27 1008 62 10000 10.3 360 13:38 15.08.2019
3599 Clouds 27 1008 69 10000 10.3 350 13:19 15.08.2019
3600 Clouds 27 1008 65 10000 8.7 10 12:40 15.08.2019
3601 Clouds 27 1008 66 10000 8.7 10 12:22 15.08.2019
3602 Clouds 27 1008 69 10000 8.2 20 11:59 15.08.2019
3603 Clouds 26 1008 69 10000 8.2 20 11:39 15.08.2019
3604 Clouds 26 1008 74 10000 7.2 360 11:20 15.08.2019
3605 Clouds 26 1008 74 10000 8.2 360 10:59 15.08.2019
3606 Clouds 26 1008 69 10000 5.1 40 10:37 15.08.2019
3607 Clouds 26 1008 69 10000 5.1 40 10:18 15.08.2019
3608 Rain 25 1008 74 10000 4.6 20 09:44 15.08.2019
3609 Clouds 25 1008 74 10000 4.1 20 09:22 15.08.2019
3610 Clouds 25 1008 78 10000 3.1 20 08:54 15.08.2019
3611 Clouds 25 1008 78 10000 3.6 10 08:36 15.08.2019
3612 Clouds 25 1008 78 10000 3.6 10 08:18 15.08.2019
3613 Clouds 24 1008 78 10000 3.1 80 07:40 15.08.2019
3614 Clouds 24 1008 83 10000 2.1 80 07:21 15.08.2019
3615 Clouds 24 1007 83 10000 3.1 360 06:52 15.08.2019
3616 Clouds 24 1007 88 10000 3.6 340 06:31 15.08.2019
3617 Clouds 24 1008 88 10000 2.6 110 05:39 15.08.2019
3618 Rain 24 1008 88 10000 2.6 110 05:21 15.08.2019
3619 Rain 24 1006 83 8000 6.2 30 04:29 15.08.2019
3620 Clouds 24 1006 83 10000 6.2 350 03:28 15.08.2019
3621 Clouds 24 1006 83 10000 3.6 350 02:35 15.08.2019
3622 Clouds 24 1007 78 10000 2.6 330 01:45 15.08.2019
3623 Thunderstorm 24 1007 78 10000 2.6 340 01:23 15.08.2019
3624 Clouds 24 1007 78 10000 3.1 290 00:38 15.08.2019
3625 Clouds 24 1008 88 10000 1.5 170 00:19 15.08.2019
3626 Rain 24 1007 78 10000 2.6 40 23:57 14.08.2019
3627 Rain 24 1007 78 10000 2.6 40 23:37 14.08.2019
3628 Clouds 25 1006 78 10000 2.6 60 23:19 14.08.2019
3629 Clouds 24 1006 78 10000 3.6 60 22:42 14.08.2019
3630 Clouds 24 1005 78 10000 6.2 350 22:23 14.08.2019
3631 Clouds 25 1005 78 10000 7.7 350 21:58 14.08.2019
3632 Clouds 25 1005 78 10000 7.7 350 21:58 14.08.2019
3633 Clouds 25 1005 78 10000 7.7 350 21:40 14.08.2019
3634 Clouds 25 1007 78 10000 2.1 340 21:21 14.08.2019
3635 Clouds 25 1007 74 10000 3.1 30 20:59 14.08.2019
3636 Clouds 25 1007 74 10000 3.1 30 20:41 14.08.2019
3637 Clouds 25 1006 78 10000 6.2 340 20:19 14.08.2019
3638 Clouds 25 1006 74 10000 4.6 30 19:55 14.08.2019
3639 Clouds 25 1006 69 10000 7.2 20 19:36 14.08.2019
3640 Clouds 26 1007 74 10000 6.7 10 19:18 14.08.2019
3641 Clouds 25 1006 69 10000 7.2 20 19:18 14.08.2019
3642 Clouds 26 1006 65 10000 7.2 360 18:43 14.08.2019
3643 Clouds 26 1006 65 10000 7.2 360 18:24 14.08.2019
3644 Clouds 26 1006 69 10000 7.2 360 17:59 14.08.2019
3645 Clouds 27 1007 65 10000 6.7 360 17:40 14.08.2019
3646 Clouds 27 1007 65 10000 6.7 360 17:22 14.08.2019
3647 Clouds 27 1007 65 10000 6.7 360 17:22 14.08.2019
3648 Clouds 27 1006 58 10000 7.2 10 16:57 14.08.2019
3649 Clouds 27 1006 58 10000 7.2 10 16:57 14.08.2019
3650 Clouds 27 1006 58 10000 7.2 10 16:39 14.08.2019
3651 Clouds 27 1006 61 10000 7.2 350 16:19 14.08.2019
3652 Clouds 28 1007 58 10000 5.1 360 15:43 14.08.2019
3653 Clouds 28 1007 58 10000 5.1 360 15:43 14.08.2019
3654 Clouds 28 1007 58 10000 5.1 360 15:43 14.08.2019
3655 Clear 28 1007 58 10000 6.2 350 15:19 14.08.2019
3656 Clear 28 1007 58 10000 6.2 350 15:19 14.08.2019
3657 Clear 28 1006 55 10000 7.2 340 14:57 14.08.2019
3658 Clouds 29 1007 48 10000 4.6 10 14:39 14.08.2019
3659 Clouds 29 1007 48 10000 4.6 10 14:19 14.08.2019
3660 Clouds 28 1007 62 10000 3.1 160 13:44 14.08.2019
3661 Clouds 28 1007 69 10000 5.1 230 13:24 14.08.2019
3662 Clouds 28 1007 65 10000 4.1 220 12:58 14.08.2019
3663 Clouds 27 1008 74 10000 4.6 210 12:39 14.08.2019
3664 Clouds 28 1008 74 10000 4.6 210 12:21 14.08.2019
3665 Clouds 27 1008 69 10000 4.1 200 11:57 14.08.2019
3666 Clouds 27 1008 69 10000 3.6 220 11:38 14.08.2019
3667 Clouds 27 1008 69 10000 3.6 220 11:38 14.08.2019
3668 Clouds 27 1008 69 10000 3.6 220 11:38 14.08.2019
3669 Clouds 27 1008 69 10000 3.6 220 11:20 14.08.2019
3670 Clouds 27 1008 74 10000 3.6 210 10:45 14.08.2019
3671 Clouds 27 1008 74 10000 2.1 200 10:24 14.08.2019
3672 Clouds 26 1008 78 10000 2.6 140 09:57 14.08.2019
3673 Clouds 26 1008 78 10000 2.6 140 09:38 14.08.2019
3674 Clouds 25 1009 78 10000 3.1 140 09:19 14.08.2019
3675 Clouds 25 1009 69 10000 3.1 60 08:40 14.08.2019
3676 Clouds 25 1009 69 10000 3.1 60 08:21 14.08.2019
3677 Clouds 25 1009 73 10000 3.1 60 07:51 14.08.2019
3678 Clear 24 1009 78 10000 3.1 30 07:32 14.08.2019
3679 Clouds 24 1009 78 10000 2.6 30 06:46 14.08.2019
3680 Clouds 23 1009 83 10000 2.6 50 05:54 14.08.2019
3681 Clouds 23 1009 78 10000 3.1 30 05:28 14.08.2019
3682 Clouds 23 1009 78 10000 3.6 40 03:38 14.08.2019
3683 Clouds 23 1009 78 10000 3.6 40 02:34 14.08.2019
3684 Clouds 23 1009 78 10000 4.1 50 01:49 14.08.2019
3685 Clouds 23 1009 78 10000 4.6 40 01:18 14.08.2019
3686 Clouds 24 1010 73 10000 5.7 50 23:51 13.08.2019
3687 Clouds 24 1010 73 10000 5.7 40 23:27 13.08.2019
3688 Clouds 24 1010 73 10000 5.1 40 23:00 13.08.2019
3689 Clouds 24 1010 73 10000 5.1 40 22:40 13.08.2019
3690 Clouds 24 1010 73 10000 5.1 40 22:40 13.08.2019
3691 Clouds 24 1010 73 10000 6.2 50 22:21 13.08.2019
3692 Clouds 24 1010 73 10000 6.2 40 21:58 13.08.2019
3693 Clouds 24 1010 73 10000 6.2 40 21:38 13.08.2019
3694 Clouds 24 1010 73 10000 7.7 40 21:19 13.08.2019
3695 Clear 24 1010 69 10000 7.2 40 20:56 13.08.2019
3696 Clear 25 1010 69 10000 7.2 40 20:37 13.08.2019
3697 Clear 25 1010 69 10000 7.2 40 20:18 13.08.2019
3698 Clouds 25 1010 69 10000 7.7 40 19:43 13.08.2019
3699 Clouds 25 1010 65 10000 9.3 30 19:22 13.08.2019
3700 Clear 26 1010 61 10000 10.3 40 18:59 13.08.2019
3701 Clear 26 1010 61 10000 10.3 40 18:40 13.08.2019
3702 Clouds 26 1010 61 10000 9.3 40 18:20 13.08.2019
3703 Clouds 26 1010 61 10000 10.3 50 17:43 13.08.2019
3704 Clouds 27 1010 58 10000 9.8 40 17:22 13.08.2019
3705 Clouds 27 1010 58 10000 10.8 40 16:57 13.08.2019
3706 Clouds 27 1010 58 10000 10.8 40 16:39 13.08.2019
3707 Clouds 27 1010 58 10000 11.3 40 16:20 13.08.2019
3708 Clear 28 1010 51 10000 10.3 40 15:58 13.08.2019
3709 Clear 28 1010 51 10000 10.8 40 15:36 13.08.2019
3710 Clear 28 1010 51 10000 10.8 40 15:18 13.08.2019
3711 Clear 28 1010 48 10000 10.8 40 14:41 13.08.2019
3712 Clear 28 1010 45 10000 11.3 40 14:19 13.08.2019
3713 Clear 28 1010 45 10000 10.3 30 13:55 13.08.2019
3714 Clear 28 1010 45 10000 10.3 30 13:37 13.08.2019
3715 Clear 28 1010 45 10000 10.3 30 13:18 13.08.2019
3716 Clear 28 1010 48 10000 8.7 20 12:41 13.08.2019
3717 Clear 28 1010 48 10000 8.7 20 12:22 13.08.2019
3718 Clear 28 1011 42 10000 8.7 20 11:59 13.08.2019
3719 Clear 27 1011 48 10000 7.7 30 11:39 13.08.2019
3720 Clear 27 1011 48 10000 7.7 30 11:20 13.08.2019
3721 Clear 27 1011 45 10000 8.2 20 10:56 13.08.2019
3722 Clear 26 1011 51 10000 6.7 30 10:37 13.08.2019
3723 Clear 26 1011 51 10000 6.7 30 10:19 13.08.2019
3724 Clear 26 1011 51 10000 7.2 30 09:44 13.08.2019
3725 Clear 26 1011 54 10000 7.7 40 09:23 13.08.2019
3726 Clear 26 1011 54 10000 7.7 40 09:23 13.08.2019
3727 Clear 26 1011 54 10000 7.7 40 09:23 13.08.2019
3728 Clear 25 1011 61 10000 7.2 50 08:44 13.08.2019
3729 Clear 24 1011 65 10000 7.7 50 08:23 13.08.2019
3730 Clear 24 1011 65 10000 7.7 50 08:23 13.08.2019
3731 Clear 24 1011 65 10000 7.2 50 07:58 13.08.2019
3732 Clear 23 1011 73 10000 5.1 50 07:37 13.08.2019
3733 Clear 23 1011 73 10000 7.2 50 07:00 13.08.2019
3734 Clear 22 1011 73 10000 6.7 50 06:40 13.08.2019
3735 Clear 22 1010 73 10000 7.2 40 05:35 13.08.2019
3736 Clear 23 1011 64 10000 6.2 50 03:36 13.08.2019
3737 Clear 23 1011 65 10000 5.1 40 02:20 13.08.2019
3738 Clear 24 1012 65 10000 5.7 40 01:19 13.08.2019
3739 Clear 24 1012 69 10000 5.7 30 00:47 13.08.2019
3740 Clear 24 1012 69 10000 6.2 40 23:57 12.08.2019
3741 Clear 24 1013 73 10000 7.2 40 23:38 12.08.2019
3742 Clear 24 1013 73 10000 7.2 40 23:19 12.08.2019
3743 Clear 24 1013 73 10000 7.2 40 23:19 12.08.2019
3744 Clear 24 1013 73 10000 7.2 50 22:40 12.08.2019
3745 Clear 24 1013 69 10000 6.7 50 22:20 12.08.2019
3746 Clear 24 1013 69 10000 6.7 50 22:20 12.08.2019
3747 Clear 24 1013 69 10000 7.7 50 21:56 12.08.2019
3748 Clear 24 1013 69 10000 7.2 50 21:37 12.08.2019
3749 Clear 24 1013 69 10000 7.2 50 21:19 12.08.2019
3750 Clear 25 1013 65 10000 8.2 50 20:57 12.08.2019
3751 Clear 25 1013 65 10000 7.7 50 20:38 12.08.2019
3752 Clear 25 1013 65 10000 7.7 50 20:20 12.08.2019
3753 Clear 25 1013 65 10000 8.7 40 19:56 12.08.2019
3754 Clear 26 1013 61 10000 8.2 40 19:37 12.08.2019
3755 Clear 26 1013 61 10000 8.2 40 19:19 12.08.2019
3756 Clear 26 1012 57 10000 9.8 50 18:55 12.08.2019
3757 Clear 26 1012 57 10000 9.8 50 18:55 12.08.2019
3758 Clear 27 1012 54 10000 10.3 50 18:37 12.08.2019
3759 Clear 27 1012 54 10000 10.3 50 18:18 12.08.2019
3760 Clear 27 1012 54 10000 10.3 50 18:18 12.08.2019
3761 Clear 27 1013 48 10000 9.3 50 17:46 12.08.2019
3762 Clear 28 1013 48 10000 10.8 50 17:28 12.08.2019
3763 Clear 28 1013 48 10000 11.3 40 16:56 12.08.2019
3764 Clear 28 1013 48 10000 11.3 40 16:56 12.08.2019
3765 Clear 28 1013 48 10000 11.3 40 16:56 12.08.2019
3766 Clear 28 1013 48 10000 11.3 40 16:56 12.08.2019
3767 Clear 28 1013 48 10000 11.3 40 16:56 12.08.2019
3768 Clear 28 1013 48 10000 11.3 40 16:37 12.08.2019
3769 Clear 28 1013 45 10000 10.8 40 16:18 12.08.2019
3770 Clear 28 1013 45 10000 10.8 40 15:54 12.08.2019
3771 Clear 29 1013 45 10000 10.3 50 15:36 12.08.2019
3772 Clear 29 1013 45 10000 10.3 50 15:18 12.08.2019
3773 -273 0 0 0 0 0 14:41 12.08.2019
3774 -273 0 0 0 0 0 14:41 12.08.2019
3775 -273 0 0 0 0 0 14:41 12.08.2019
3776 Clear 29 1013 42 10000 11.3 50 14:41 12.08.2019
3777 Clear 29 1013 42 10000 10.8 50 14:22 12.08.2019
3778 Clear 29 1013 42 10000 10.8 60 13:57 12.08.2019
3779 Clear 29 1013 42 10000 10.8 60 13:39 12.08.2019
3780 Clear 29 1014 40 10000 10.3 50 13:20 12.08.2019
3781 Clear 29 1014 35 10000 10.3 50 12:43 12.08.2019
3782 Clear 29 1014 37 10000 10.3 50 12:43 12.08.2019
3783 Clear 29 1014 37 10000 10.3 50 12:19 12.08.2019
3784 Clear 29 1014 40 10000 9.3 50 11:45 12.08.2019
3785 Clear 28 1014 42 10000 9.3 50 11:26 12.08.2019
3786 Clear 28 1014 42 10000 9.8 40 10:59 12.08.2019
3787 Clear 28 1014 42 10000 9.8 40 10:40 12.08.2019
3788 -273 0 0 0 0 0 10:21 12.08.2019
3789 Clear 27 1014 45 10000 10.3 30 09:55 12.08.2019
3790 Clear 27 1014 48 10000 10.8 40 09:36 12.08.2019
3791 Clear 27 1014 48 10000 10.8 40 09:36 12.08.2019
3792 Clear 27 1014 48 10000 10.8 40 09:18 12.08.2019
3793 Clear 27 1014 48 10000 10.8 40 09:18 12.08.2019
3794 Clear 26 1014 51 10000 10.8 40 08:40 12.08.2019
3795 Clear 26 1014 54 10000 9.3 40 08:22 12.08.2019
3796 Clear 26 1014 54 10000 9.3 40 08:22 12.08.2019
3797 Clear 26 1014 54 10000 7.2 50 07:56 12.08.2019
3798 Clear 25 1014 54 10000 7.2 50 07:35 12.08.2019
3799 Clear 25 1014 57 10000 6.7 50 06:54 12.08.2019
3800 Clear 24 1014 61 10000 6.2 50 06:18 12.08.2019
3801 Clear 24 1014 65 10000 5.7 60 04:26 12.08.2019
3802 Clear 24 1014 65 10000 6.2 50 02:43 12.08.2019
3803 Clear 24 1015 65 10000 5.1 50 01:42 12.08.2019
3804 Clear 24 1015 65 10000 5.1 50 01:18 12.08.2019
3805 Clear 24 1015 69 10000 5.1 50 00:54 12.08.2019
3806 Clear 24 1015 69 10000 6.2 50 00:36 12.08.2019
3807 Clear 24 1015 69 10000 6.2 50 00:18 12.08.2019
3808 Clear 24 1015 69 10000 6.2 50 23:39 11.08.2019
3809 Clear 24 1015 69 10000 6.2 50 23:39 11.08.2019
3810 Clear 24 1016 73 10000 6.2 50 23:19 11.08.2019
3811 Clouds 24 1015 73 10000 6.2 50 22:56 11.08.2019
3812 Clouds 24 1015 73 10000 7.2 50 22:37 11.08.2019
3813 Clouds 24 1015 73 10000 7.2 50 22:18 11.08.2019
3814 Clouds 24 1015 73 10000 6.2 60 21:56 11.08.2019
3815 Clouds 25 1015 73 10000 6.7 50 21:38 11.08.2019
3816 Clouds 25 1015 73 10000 6.7 50 21:19 11.08.2019
3817 Clouds 25 1015 69 10000 6.2 50 20:44 11.08.2019
3818 Clouds 25 1015 69 10000 6.2 50 20:23 11.08.2019
3819 -273 0 0 0 0 0 19:56 11.08.2019
3820 Clouds 26 1015 69 10000 5.7 40 19:55 11.08.2019
3821 Clouds 26 1015 61 10000 8.2 40 19:36 11.08.2019
3822 Clouds 26 1015 61 10000 8.2 40 19:18 11.08.2019
3823 Clouds 26 1015 61 10000 8.2 50 18:39 11.08.2019
3824 Clouds 27 1014 58 10000 7.7 40 18:19 11.08.2019
3825 Clouds 27 1014 58 10000 9.3 40 17:54 11.08.2019
3826 Clouds 27 1014 58 10000 9.3 40 17:36 11.08.2019
3827 Clouds 27 1015 58 10000 9.3 50 17:18 11.08.2019
3828 Clouds 28 1015 58 10000 7.2 40 16:40 11.08.2019
3829 Clouds 28 1015 54 10000 8.7 30 16:22 11.08.2019
3830 Clouds 28 1015 54 10000 9.3 30 15:57 11.08.2019
3831 Clouds 28 1015 54 10000 9.3 30 15:39 11.08.2019
3832 Clouds 28 1015 54 10000 9.3 40 15:21 11.08.2019
3833 Clear 28 1015 54 10000 8.2 40 14:55 11.08.2019
3834 Clear 28 1015 54 10000 8.2 40 14:37 11.08.2019
3835 Clear 28 1015 51 10000 8.2 50 14:19 11.08.2019
3836 Clear 29 1015 51 10000 8.7 30 13:42 11.08.2019
3837 Clear 29 1015 51 10000 8.7 30 13:23 11.08.2019
3838 Clear 29 1015 51 10000 9.3 30 12:44 11.08.2019
3839 Clear 28 1015 51 10000 8.2 20 12:22 11.08.2019
3840 Clear 28 1016 45 10000 8.7 40 11:41 11.08.2019
3841 Clear 28 1016 54 10000 8.2 40 11:23 11.08.2019
3842 Clear 28 1016 54 10000 7.2 50 10:57 11.08.2019
3843 Clear 28 1016 54 10000 7.2 50 10:39 11.08.2019
3844 Clear 28 1016 54 10000 6.7 30 10:21 11.08.2019
3845 Clear 27 1016 58 10000 6.2 60 09:55 11.08.2019
3846 Clouds 27 1016 61 10000 6.7 50 09:37 11.08.2019
3847 Clouds 26 1016 61 10000 6.7 50 09:18 11.08.2019
3848 Clouds 26 1016 65 10000 7.2 80 08:43 11.08.2019
3849 Clouds 25 1016 74 10000 6.2 70 08:25 11.08.2019
3850 Clouds 25 1016 73 10000 5.7 60 07:49 11.08.2019
3851 Clouds 24 1016 83 10000 4.1 90 07:21 11.08.2019
3852 Clear 23 1015 78 10000 3.1 80 06:39 11.08.2019
3853 Clear 23 1015 78 10000 5.1 40 05:34 11.08.2019
3854 Clear 23 1015 78 10000 4.6 60 03:36 11.08.2019
3855 Clear 23 1015 83 10000 5.7 70 02:46 11.08.2019
3856 Clear 23 1016 83 10000 4.1 70 01:36 11.08.2019
3857 Clear 23 1016 78 10000 4.6 70 00:59 11.08.2019
3858 Clear 23 1016 73 10000 5.1 70 00:41 11.08.2019
3859 Clear 24 1016 73 10000 5.1 70 00:23 11.08.2019
3860 Clear 24 1016 73 10000 4.6 60 23:43 10.08.2019
3861 Clear 24 1016 73 10000 4.6 60 23:23 10.08.2019
3862 Clear 24 1016 73 10000 5.1 60 22:43 10.08.2019
3863 Clear 24 1016 73 10000 4.6 70 22:24 10.08.2019
3864 Clear 24 1016 73 10000 6.2 60 21:57 10.08.2019
3865 Clear 24 1016 69 10000 6.2 60 21:38 10.08.2019
3866 Clear 24 1016 69 10000 6.2 60 21:18 10.08.2019
3867 Clear 25 1016 69 10000 6.7 40 20:42 10.08.2019
3868 Clear 25 1015 65 10000 6.7 50 20:21 10.08.2019
3869 Clear 26 1015 69 10000 6.7 30 19:57 10.08.2019
3870 Clear 25 1015 69 10000 6.7 30 19:38 10.08.2019
3871 Clear 26 1015 61 10000 7.2 40 19:19 10.08.2019
3872 Clear 27 1014 51 10000 8.7 50 18:39 10.08.2019
3873 Clear 27 1014 51 10000 8.7 50 18:21 10.08.2019
3874 Clear 28 1014 45 10000 8.7 50 17:44 10.08.2019
3875 Clear 28 1014 40 10000 8.2 50 17:25 10.08.2019
3876 Clear 29 1014 40 10000 7.7 50 16:47 10.08.2019
3877 Clear 29 1014 38 10000 8.2 40 16:28 10.08.2019
3878 Clear 29 1014 40 10000 8.2 30 15:55 10.08.2019
3879 Clear 29 1014 38 10000 8.2 40 15:26 10.08.2019
3880 Clear 29 1014 35 10000 8.2 40 14:45 10.08.2019
3881 Clear 29 1014 40 10000 9.3 20 14:23 10.08.2019
3882 Clear 29 1014 43 10000 7.2 30 13:57 10.08.2019
3883 Clear 29 1014 45 10000 7.7 20 13:39 10.08.2019
3884 Clear 29 1014 45 10000 7.7 20 13:18 10.08.2019
3885 Clear 29 1014 51 10000 5.7 40 12:41 10.08.2019
3886 Clear 29 1014 51 10000 6.2 20 12:21 10.08.2019
3887 Clear 29 1014 48 10000 5.7 50 11:56 10.08.2019
3888 Clear 28 1015 51 10000 6.2 30 11:37 10.08.2019
3889 Clear 28 1015 51 10000 6.2 30 11:19 10.08.2019
3890 Clear 27 1015 61 10000 5.7 60 10:38 10.08.2019
3891 Clear 27 1015 61 10000 5.7 60 10:20 10.08.2019
3892 Clouds 26 1015 61 10000 6.2 50 09:44 10.08.2019
3893 Clouds 26 1015 65 10000 5.7 60 09:25 10.08.2019
3894 Clouds 25 1015 69 10000 4.6 50 08:59 10.08.2019
3895 Clouds 25 1015 69 10000 4.6 50 08:38 10.08.2019
3896 Clouds 25 1014 69 10000 5.1 50 08:19 10.08.2019
3897 Clear 24 1014 69 10000 4.1 50 07:48 10.08.2019
3898 Clear 23 1014 73 10000 4.1 60 07:26 10.08.2019
3899 Clear 23 1014 78 10000 3.6 50 06:47 10.08.2019
3900 Clear 22 1014 78 10000 3.1 40 06:18 10.08.2019
3901 Clear 22 1013 83 10000 2.6 40 05:22 10.08.2019
3902 Clouds 22 1012 88 10000 4.1 30 04:18 10.08.2019
3903 Clear 22 1013 73 10000 3.1 30 02:52 10.08.2019
3904 Clear 22 1012 73 10000 3.6 50 01:57 10.08.2019
3905 Clear 22 1012 73 10000 4.1 60 01:38 10.08.2019
3906 Clear 22 1012 73 10000 4.1 60 01:19 10.08.2019
3907 Clear 22 1012 73 10000 3.6 60 00:43 10.08.2019
3908 Clear 23 1013 73 10000 4.1 60 00:21 10.08.2019
3909 Clear 23 1013 73 10000 4.6 50 23:42 09.08.2019
3910 Clear 23 1013 73 10000 4.6 60 23:22 09.08.2019
3911 Clear 23 1013 69 10000 4.6 70 22:56 09.08.2019
3912 Clear 24 1013 69 10000 5.1 60 22:38 09.08.2019
3913 Clear 24 1013 69 10000 5.1 60 22:19 09.08.2019
3914 Clear 24 1013 69 10000 5.7 60 21:41 09.08.2019
3915 Clear 24 1013 69 10000 5.7 60 21:22 09.08.2019
3916 Clear 24 1012 69 10000 5.7 60 20:58 09.08.2019
3917 Clear 24 1012 69 10000 5.7 60 20:39 09.08.2019
3918 Clear 25 1012 65 10000 6.7 50 20:20 09.08.2019
3919 -273 0 0 0 0 0 19:56 09.08.2019
3920 Clear 25 1012 65 10000 6.7 50 19:37 09.08.2019
3921 Clear 25 1012 65 10000 7.7 30 19:18 09.08.2019
3922 Clear 26 1012 57 10000 7.7 40 18:39 09.08.2019
3923 Clear 26 1011 54 10000 8.2 50 18:21 09.08.2019
3924 Clear 27 1011 54 10000 7.2 30 17:45 09.08.2019
3925 -273 0 0 0 0 0 17:25 09.08.2019
3926 Clear 28 1011 45 10000 7.2 30 16:59 09.08.2019
3927 Clear 27 1011 48 10000 7.2 20 16:39 09.08.2019
3928 Clear 28 1011 48 10000 7.2 20 16:20 09.08.2019
3929 Clear 28 1011 51 10000 8.2 10 15:55 09.08.2019
3930 Clear 28 1011 48 10000 7.7 20 15:36 09.08.2019
3931 Clear 28 1011 48 10000 7.7 20 15:18 09.08.2019
3932 Clear 29 1011 45 10000 6.7 40 14:43 09.08.2019
3933 Clear 29 1011 35 10000 8.7 50 14:22 09.08.2019
3934 Clear 29 1011 40 10000 7.2 40 13:56 09.08.2019
3935 Clear 28 1011 40 10000 7.7 40 13:38 09.08.2019
3936 Clear 28 1011 40 10000 7.7 40 13:19 09.08.2019
3937 Clear 28 1011 45 10000 6.2 40 12:44 09.08.2019
3938 Clear 28 1012 48 10000 5.7 40 12:23 09.08.2019
3939 Clear 28 1012 45 10000 5.7 50 11:42 09.08.2019
3940 Clear 28 1012 51 10000 6.7 20 11:22 09.08.2019
3941 Clear 27 1012 48 10000 6.2 40 10:59 09.08.2019
3942 Clear 27 1012 54 10000 5.7 30 10:39 09.08.2019
3943 Clear 27 1012 54 10000 5.7 30 10:21 09.08.2019
3944 Clear 26 1012 54 10000 5.7 20 09:43 09.08.2019
3945 Clouds 26 1012 57 10000 5.1 60 09:20 09.08.2019
3946 Clouds 25 1012 65 10000 4.6 60 08:55 09.08.2019
3947 Clouds 25 1012 73 10000 4.6 60 08:37 09.08.2019
3948 Clouds 25 1012 73 10000 4.6 60 08:18 09.08.2019
3949 Clear 24 1012 73 10000 4.1 60 07:43 09.08.2019
3950 Clear 23 1012 78 10000 3.6 40 07:21 09.08.2019
3951 Clear 23 1012 78 10000 2.6 40 06:52 09.08.2019
3952 Clear 22 1012 83 10000 2.6 40 06:27 09.08.2019
3953 Clear 22 1012 88 10000 2.6 40 05:46 09.08.2019
3954 Clear 22 1012 78 10000 2.1 20 02:33 09.08.2019
3955 Clear 22 1012 78 10000 2.6 50 01:41 09.08.2019
3956 Clear 22 1012 73 10000 3.6 60 00:44 09.08.2019
3957 Clear 22 1013 73 10000 4.1 50 00:25 09.08.2019
3958 Clear 22 1013 73 10000 3.6 50 23:59 08.08.2019
3959 Clear 22 1013 78 10000 4.6 40 23:38 08.08.2019
3960 Clear 22 1013 78 10000 4.6 40 23:19 08.08.2019
3961 Clear 23 1013 78 10000 5.1 20 22:57 08.08.2019
3962 Clear 23 1013 73 10000 4.6 30 22:36 08.08.2019
3963 Clear 23 1013 73 10000 4.6 30 22:18 08.08.2019
3964 Clear 23 1012 73 10000 6.2 40 21:55 08.08.2019
3965 Clear 24 1012 69 10000 6.2 40 21:36 08.08.2019
3966 Clear 24 1012 69 10000 6.7 30 21:18 08.08.2019
3967 Clear 25 1012 69 10000 6.7 30 20:42 08.08.2019
3968 Clear 25 1012 73 10000 7.2 20 20:21 08.08.2019
3969 Clear 25 1012 69 10000 7.2 10 19:56 08.08.2019
3970 Clear 25 1012 65 10000 7.7 20 19:37 08.08.2019
3971 Clear 25 1012 65 10000 7.7 20 19:19 08.08.2019
3972 Clear 26 1012 54 10000 6.7 20 18:41 08.08.2019
3973 Clear 27 1012 54 10000 6.7 20 18:21 08.08.2019
3974 Clear 27 1012 51 10000 6.2 30 17:55 08.08.2019
3975 Clear 27 1012 48 10000 7.2 20 17:36 08.08.2019
3976 Clear 27 1012 48 10000 7.2 20 17:18 08.08.2019
3977 Clear 28 1012 42 10000 6.2 20 16:41 08.08.2019
3978 Clear 28 1012 48 10000 7.2 10 16:23 08.08.2019
3979 Clear 28 1012 45 10000 6.2 10 15:58 08.08.2019
3980 Clear 28 1012 45 10000 6.2 10 15:39 08.08.2019
3981 Clear 28 1012 45 10000 6.2 10 15:39 08.08.2019
3982 Clear 28 1013 45 10000 5.1 30 15:20 08.08.2019
3983 Clear 28 1013 45 10000 5.1 30 15:20 08.08.2019
3984 Clear 29 1013 43 10000 5.7 360 14:41 08.08.2019
3985 Clear 29 1013 40 10000 5.1 10 14:22 08.08.2019
3986 Clear 29 1013 42 10000 5.7 20 13:57 08.08.2019
3987 Clear 29 1013 45 10000 5.1 30 13:36 08.08.2019
3988 Clear 28 1013 33 10000 5.1 60 13:18 08.08.2019
3989 Clear 28 1014 35 10000 4.6 50 12:39 08.08.2019
3990 Clear 28 1014 35 10000 4.6 50 12:19 08.08.2019
3991 Clear 28 1014 35 10000 4.6 50 12:19 08.08.2019
3992 Clear 28 1014 35 10000 4.6 50 12:19 08.08.2019
3993 Clear 28 1014 40 10000 4.1 40 11:47 08.08.2019
3994 Clear 28 1014 39 10000 4.6 50 11:26 08.08.2019
3995 Clear 27 1014 37 10000 5.1 70 10:57 08.08.2019
3996 Clear 27 1014 37 10000 5.1 70 10:57 08.08.2019
3997 Clear 27 1014 37 10000 5.1 70 10:57 08.08.2019
3998 Clear 27 1014 37 10000 5.1 70 10:39 08.08.2019
3999 Clear 27 1014 48 10000 4.6 60 10:20 08.08.2019
4000 Clear 26 1014 54 10000 4.1 40 09:43 08.08.2019
4001 Clear 26 1014 57 10000 3.6 40 09:23 08.08.2019
4002 Clear 25 1014 61 10000 4.1 50 08:54 08.08.2019
4003 Clear 25 1014 65 10000 3.1 90 08:36 08.08.2019
4004 Clear 25 1014 65 10000 3.1 90 08:18 08.08.2019
4005 Clear 23 1014 65 10000 4.1 70 07:39 08.08.2019
4006 Clear 23 1014 69 10000 2.6 80 07:19 08.08.2019
4007 Clear 22 1014 69 10000 2.1 50 06:46 08.08.2019
4008 Clear 22 1014 69 10000 2.1 50 06:19 08.08.2019
4009 Clear 21 1014 73 10000 2.6 40 05:51 08.08.2019
4010 Clear 21 1014 73 10000 2.6 30 04:43 08.08.2019
4011 Clear 21 1014 69 10000 3.6 20 03:51 08.08.2019
4012 Clear 22 1015 73 10000 3.6 60 01:59 08.08.2019
4013 Clear 22 1015 73 10000 3.6 60 01:24 08.08.2019
4014 Clear 22 1015 69 10000 5.1 70 00:25 08.08.2019
4015 Clear 23 1015 69 10000 5.1 60 23:42 07.08.2019
4016 Clear 23 1015 69 10000 5.1 60 23:19 07.08.2019
4017 Clear 24 1015 69 10000 5.7 60 22:55 07.08.2019
4018 Clear 23 1015 69 10000 5.1 60 22:36 07.08.2019
4019 Clear 23 1015 69 10000 5.1 60 22:36 07.08.2019
4020 Clear 24 1015 69 10000 5.1 60 22:18 07.08.2019
4021 Clear 24 1015 69 10000 5.1 60 22:18 07.08.2019
4022 Clear 23 1016 69 10000 5.7 60 21:54 07.08.2019
4023 Clear 24 1016 65 10000 5.7 50 21:36 07.08.2019
4024 Clear 24 1016 65 10000 5.7 50 21:18 07.08.2019
4025 Clear 24 1015 65 10000 6.2 60 20:41 07.08.2019
4026 Clear 24 1015 61 10000 7.2 60 20:22 07.08.2019
4027 Clear 24 1015 61 10000 7.2 50 19:56 07.08.2019
4028 Clear 25 1015 61 10000 7.2 50 19:38 07.08.2019
4029 Clear 25 1015 57 10000 7.2 50 19:19 07.08.2019
4030 Clear 25 1015 54 10000 6.7 40 18:41 07.08.2019
4031 Clear 26 1015 51 10000 7.7 40 18:20 07.08.2019
4032 Clear 26 1015 48 10000 7.7 40 17:57 07.08.2019
4033 Clear 27 1015 51 10000 7.7 50 17:38 07.08.2019
4034 Clear 27 1015 51 10000 7.7 50 17:20 07.08.2019
4035 Clear 27 1015 45 10000 7.7 40 16:57 07.08.2019
4036 Clear 27 1015 45 10000 7.7 40 16:57 07.08.2019
4037 Clear 27 1015 45 10000 7.7 40 16:57 07.08.2019
4038 Clear 27 1015 45 10000 7.7 30 16:38 07.08.2019
4039 Clear 28 1015 45 10000 7.7 30 16:19 07.08.2019
4040 Clear 28 1015 45 10000 8.2 20 15:55 07.08.2019
4041 Clear 28 1015 42 10000 7.2 50 15:37 07.08.2019
4042 Clear 28 1015 42 10000 7.2 50 15:37 07.08.2019
4043 Clear 28 1015 42 10000 7.2 50 15:18 07.08.2019
4044 Clear 29 1015 40 10000 6.7 40 14:45 07.08.2019
4045 Clear 29 1016 42 10000 6.2 60 14:24 07.08.2019
4046 Clear 29 1016 42 10000 5.7 50 13:44 07.08.2019
4047 Clear 29 1016 37 10000 6.2 60 13:19 07.08.2019
4048 Clear 29 1016 37 10000 6.2 60 13:19 07.08.2019
4049 Clear 28 1016 39 10000 6.2 40 12:58 07.08.2019
4050 Clear 28 1016 39 10000 6.2 50 12:39 07.08.2019
4051 Clear 28 1016 39 10000 6.2 50 12:20 07.08.2019
4052 Clear 28 1016 39 10000 6.2 40 11:59 07.08.2019
4053 Clear 28 1016 39 10000 6.2 40 11:40 07.08.2019
4054 Clear 28 1017 37 10000 6.2 70 11:19 07.08.2019
4055 Clear 27 1017 39 10000 5.7 60 10:42 07.08.2019
4056 Clouds 27 1017 42 10000 6.7 70 10:20 07.08.2019
4057 Clouds 26 1017 42 10000 7.2 70 09:59 07.08.2019
4058 Clouds 26 1017 42 10000 7.2 70 09:41 07.08.2019
4059 Clouds 26 1017 44 10000 6.7 60 09:21 07.08.2019
4060 Clouds 25 1016 47 10000 8.2 80 08:45 07.08.2019
4061 Clear 25 1017 57 10000 6.2 60 08:26 07.08.2019
4062 Clear 24 1016 57 10000 5.1 60 07:52 07.08.2019
4063 Clear 23 1016 60 10000 4.6 40 07:33 07.08.2019
4064 Clear 23 1016 64 10000 4.1 40 06:50 07.08.2019
4065 Clear 22 1016 64 10000 3.6 40 06:29 07.08.2019
4066 Clear 21 1016 64 10000 3.6 50 05:46 07.08.2019
4067 Clear 22 1016 64 10000 4.1 40 04:46 07.08.2019
4068 Clear 22 1016 60 10000 3.6 50 03:21 07.08.2019
4069 Clear 22 1016 60 10000 4.1 40 02:43 07.08.2019
4070 Clear 22 1016 60 10000 4.1 50 01:58 07.08.2019
4071 Clear 22 1016 60 10000 3.6 50 01:31 07.08.2019
4072 Clear 22 1016 60 10000 4.1 50 00:38 07.08.2019
4073 Clear 23 1016 60 10000 4.1 50 00:19 07.08.2019
4074 Clear 23 1016 60 10000 4.6 50 23:41 06.08.2019
4075 Clear 23 1016 57 10000 3.6 60 23:21 06.08.2019
4076 Clear 23 1016 57 10000 4.6 70 22:56 06.08.2019
4077 Clear 23 1016 57 10000 5.1 60 22:37 06.08.2019
4078 Clear 23 1016 57 10000 5.1 60 22:18 06.08.2019
4079 Clear 23 1016 57 10000 6.2 60 21:40 06.08.2019
4080 Clear 23 1016 57 10000 6.2 60 21:20 06.08.2019
4081 Clear 24 1016 53 10000 6.2 60 20:48 06.08.2019
4082 Clear 24 1016 53 10000 6.2 40 20:29 06.08.2019
4083 Clear 24 1016 50 10000 6.7 40 19:59 06.08.2019
4084 Clear 25 1016 50 10000 6.7 40 19:41 06.08.2019
4085 Clear 25 1015 47 10000 7.2 50 19:22 06.08.2019
4086 Clear 25 1015 50 10000 6.2 30 18:45 06.08.2019
4087 Clear 26 1015 47 10000 7.2 30 18:26 06.08.2019
4088 Clear 26 1015 44 10000 8.2 30 17:58 06.08.2019
4089 Clear 26 1015 44 10000 8.2 30 17:38 06.08.2019
4090 Clear 26 1015 42 10000 7.2 30 17:20 06.08.2019
4091 Clear 27 1015 42 10000 8.7 20 16:55 06.08.2019
4092 Clear 27 1015 39 10000 8.2 40 16:37 06.08.2019
4093 Clear 27 1015 39 10000 8.2 40 16:19 06.08.2019
4094 Clear 27 1015 37 10000 8.2 30 15:56 06.08.2019
4095 Clear 28 1015 35 10000 7.7 30 15:38 06.08.2019
4096 Clear 28 1015 35 10000 7.7 30 15:18 06.08.2019
4097 Clear 28 1016 37 10000 7.7 20 14:41 06.08.2019
4098 Clear 28 1016 37 10000 7.7 20 14:22 06.08.2019
4099 -273 0 0 0 0 0 13:57 06.08.2019
4100 Clouds 27 1016 39 10000 6.2 60 13:38 06.08.2019
4101 Clouds 27 1016 39 10000 6.2 60 13:19 06.08.2019
4102 Clouds 27 1016 35 10000 6.2 50 12:55 06.08.2019
4103 Clouds 27 1016 35 10000 5.7 40 12:36 06.08.2019
4104 Clouds 27 1016 35 10000 5.7 40 12:18 06.08.2019
4105 Clouds 27 1016 42 10000 6.2 30 11:40 06.08.2019
4106 Clouds 27 1016 42 10000 6.2 30 11:40 06.08.2019
4107 Clouds 27 1016 42 10000 6.2 30 11:18 06.08.2019
4108 Clouds 26 1016 39 10000 6.2 70 10:41 06.08.2019
4109 Clouds 26 1016 42 10000 5.7 70 10:22 06.08.2019
4110 Clouds 26 1016 47 10000 6.2 50 09:48 06.08.2019
4111 Clouds 25 1016 53 10000 3.6 90 09:24 06.08.2019
4112 Clouds 25 1016 57 10000 3.6 120 08:57 06.08.2019
4113 Clouds 24 1016 57 10000 4.1 120 08:37 06.08.2019
4114 Clouds 24 1016 57 10000 4.1 120 08:19 06.08.2019
4115 Clear 23 1016 57 10000 3.6 60 07:35 06.08.2019
4116 Clear 22 1016 60 10000 3.1 50 06:51 06.08.2019
4117 Clear 21 1016 64 10000 2.6 30 06:26 06.08.2019
4118 Clear 20 1015 64 10000 1.5 50 05:47 06.08.2019
4119 Clear 20 1015 64 10000 3.1 50 02:59 06.08.2019
4120 Clear 21 1015 60 10000 2.6 40 01:46 06.08.2019
4121 Clear 21 1015 60 10000 2.6 80 01:21 06.08.2019
4122 Clear 21 1015 56 10000 2.6 70 00:26 06.08.2019
4123 Clear 22 1015 56 10000 3.1 60 23:21 05.08.2019
4124 Clear 22 1015 53 10000 3.6 60 22:59 05.08.2019
4125 Clear 22 1015 57 10000 4.1 70 22:40 05.08.2019
4126 Clear 23 1015 57 10000 4.1 70 22:22 05.08.2019
4127 Clear 23 1015 57 10000 4.1 70 22:22 05.08.2019
4128 Clear 23 1015 57 10000 4.6 70 21:43 05.08.2019
4129 Clear 23 1015 53 10000 5.1 70 21:21 05.08.2019
4130 Clear 23 1014 53 10000 5.7 60 20:59 05.08.2019
4131 Clear 24 1014 53 10000 5.7 60 20:40 05.08.2019
4132 Clear 24 1014 50 10000 5.7 60 20:22 05.08.2019
4133 Clear 24 1014 50 10000 6.2 50 19:59 05.08.2019
4134 Clear 24 1014 50 10000 6.2 50 19:38 05.08.2019
4135 Clear 25 1014 47 10000 5.7 60 19:20 05.08.2019
4136 Clear 25 1014 41 10000 5.7 50 18:42 05.08.2019
4137 Clear 25 1014 41 10000 5.7 50 18:21 05.08.2019
4138 Clear 26 1013 41 10000 6.2 50 17:56 05.08.2019
4139 Clouds 26 1014 39 10000 6.7 20 17:38 05.08.2019
4140 Clouds 26 1014 39 10000 6.7 20 17:20 05.08.2019
4141 Clouds 26 1014 39 10000 7.2 40 16:42 05.08.2019
4142 Clouds 26 1013 36 10000 6.2 40 16:23 05.08.2019
4143 Clouds 26 1013 34 10000 7.2 50 15:43 05.08.2019
4144 Clouds 26 1014 39 10000 6.7 40 15:20 05.08.2019
4145 Clouds 27 1014 37 10000 6.7 30 14:42 05.08.2019
4146 Clouds 27 1014 34 10000 6.2 40 14:23 05.08.2019
4147 Clouds 27 1014 34 10000 6.2 40 14:23 05.08.2019
4148 Clouds 27 1014 34 10000 6.7 40 13:57 05.08.2019
4149 Clouds 27 1014 34 10000 6.7 40 13:57 05.08.2019
4150 Clouds 27 1014 34 10000 6.2 50 13:38 05.08.2019
4151 Clouds 27 1014 34 10000 6.2 50 13:18 05.08.2019
4152 Clouds 26 1014 39 10000 6.7 40 12:42 05.08.2019
4153 Clouds 27 1014 39 10000 6.7 40 12:19 05.08.2019
4154 Clouds 26 1014 39 10000 5.7 40 11:43 05.08.2019
4155 Clouds 26 1014 39 10000 5.7 40 11:43 05.08.2019
4156 Clouds 26 1014 39 10000 5.7 40 11:25 05.08.2019
4157 Clouds 26 1014 42 10000 5.1 70 10:48 05.08.2019
4158 Clouds 26 1014 47 10000 5.7 70 10:30 05.08.2019
4159 Clouds 25 1014 47 10000 5.7 40 09:57 05.08.2019
4160 Clouds 25 1014 44 10000 6.7 50 09:37 05.08.2019
4161 Clouds 25 1014 53 10000 4.6 70 09:19 05.08.2019
4162 Clouds 24 1014 57 10000 4.6 60 08:43 05.08.2019
4163 Clouds 24 1014 57 10000 4.6 60 08:24 05.08.2019
4164 Clouds 23 1014 53 10000 3.6 60 07:47 05.08.2019
4165 Clouds 23 1014 60 10000 2.1 70 07:28 05.08.2019
4166 Rain 23 1014 60 10000 2.1 40 06:53 05.08.2019
4167 Clouds 20 1013 68 10000 2.1 10 06:19 05.08.2019
4168 Clouds 20 1013 72 10000 3.1 350 05:28 05.08.2019
4169 Clear 20 1013 68 10000 2.1 350 04:41 05.08.2019
4170 Clear 21 1013 64 10000 1.5 30 03:50 05.08.2019
4171 Clear 21 1013 60 10000 2.1 80 02:38 05.08.2019
4172 Clear 21 1013 60 10000 2.1 60 01:41 05.08.2019
4173 Clear 21 1013 60 10000 2.6 50 00:59 05.08.2019
4174 Clear 21 1013 60 10000 2.6 50 00:39 05.08.2019
4175 Clear 21 1013 60 10000 3.6 60 00:18 05.08.2019
4176 Clear 21 1013 60 10000 3.6 40 23:41 04.08.2019
4177 Clear 21 1013 57 10000 4.1 50 23:22 04.08.2019
4178 Clear 23 1013 57 10000 4.1 50 22:57 04.08.2019
4179 Clear 23 1013 57 10000 4.1 50 22:38 04.08.2019
4180 Clear 23 1012 57 10000 4.1 50 22:19 04.08.2019
4181 Clear 23 1012 57 10000 4.1 50 22:19 04.08.2019
4182 Clear 23 1012 57 10000 4.6 60 21:45 04.08.2019
4183 Clear 23 1012 57 10000 4.6 60 21:24 04.08.2019
4184 Clear 23 1012 57 10000 5.1 40 20:58 04.08.2019
4185 Clear 23 1012 57 10000 6.2 50 20:40 04.08.2019
4186 Clear 23 1012 57 10000 6.2 50 20:18 04.08.2019
4187 Clear 23 1011 53 10000 6.2 50 19:48 04.08.2019
4188 Clear 24 1011 53 10000 6.2 50 19:27 04.08.2019
4189 Clear 24 1011 50 10000 5.7 40 18:57 04.08.2019
4190 Clear 24 1011 53 10000 6.7 30 18:39 04.08.2019
4191 Clear 24 1011 53 10000 6.7 30 18:19 04.08.2019
4192 Clear 25 1011 53 10000 6.7 30 17:41 04.08.2019
4193 Clear 25 1011 50 10000 7.7 20 17:21 04.08.2019
4194 Clouds 25 1010 50 10000 8.2 20 16:44 04.08.2019
4195 Clouds 25 1010 50 10000 6.7 30 16:26 04.08.2019
4196 Clouds 26 1010 47 10000 8.2 10 15:55 04.08.2019
4197 Clouds 26 1010 47 10000 7.7 10 15:37 04.08.2019
4198 Clouds 26 1010 47 10000 7.7 10 15:18 04.08.2019
4199 Clouds 26 1010 47 10000 8.2 10 14:42 04.08.2019
4200 Clouds 26 1010 47 10000 7.7 360 14:20 04.08.2019
4201 Clouds 26 1010 47 10000 8.2 10 13:43 04.08.2019
4202 Clouds 26 1010 45 10000 7.7 360 13:23 04.08.2019
4203 Clouds 26 1010 42 10000 8.2 360 12:46 04.08.2019
4204 Clouds 26 1010 48 10000 8.2 360 12:27 04.08.2019
4205 Clouds 26 1009 54 10000 7.2 350 11:58 04.08.2019
4206 Clouds 26 1009 54 10000 7.2 350 11:38 04.08.2019
4207 Clouds 26 1009 51 10000 7.7 350 11:19 04.08.2019
4208 Clouds 26 1009 51 10000 7.7 350 11:19 04.08.2019
4209 Clouds 26 1009 51 10000 7.7 360 10:41 04.08.2019
4210 Clouds 26 1009 47 10000 9.3 340 10:21 04.08.2019
4211 Clouds 25 1009 57 10000 7.2 360 09:45 04.08.2019
4212 Clouds 25 1009 57 10000 6.7 340 09:23 04.08.2019
4213 Clouds 25 1009 61 10000 8.2 330 08:48 04.08.2019
4214 Clouds 25 1008 57 10000 6.7 330 08:27 04.08.2019
4215 Clouds 25 1008 61 10000 6.2 340 07:52 04.08.2019
4216 Clouds 25 1008 61 10000 5.7 350 07:22 04.08.2019
4217 Clouds 24 1007 61 10000 3.6 360 06:28 04.08.2019
4218 Clouds 25 1006 57 10000 3.1 360 04:43 04.08.2019
4219 Clouds 25 1006 61 10000 3.1 360 02:47 04.08.2019
4220 Clouds 26 1006 65 10000 4.6 350 01:44 04.08.2019
4221 Clouds 26 1005 65 10000 5.7 10 01:25 04.08.2019
4222 Clouds 26 1005 61 10000 3.6 360 00:41 04.08.2019
4223 Clouds 26 1005 61 10000 3.1 320 00:19 04.08.2019
4224 Thunderstorm 27 1005 61 10000 5.1 340 23:41 03.08.2019
4225 Thunderstorm 27 1004 57 10000 4.6 30 23:18 03.08.2019
4226 Thunderstorm 27 1005 57 10000 4.1 320 22:45 03.08.2019
4227 Thunderstorm 27 1005 57 10000 4.1 320 22:45 03.08.2019
4228 Thunderstorm 27 1005 51 10000 5.1 320 22:22 03.08.2019
4229 Clear 27 1005 51 10000 6.2 320 21:59 03.08.2019
4230 Clear 27 1005 54 10000 0.5 0 21:37 03.08.2019
4231 Clear 27 1005 54 10000 0.5 0 21:19 03.08.2019
4232 Clear 28 1004 51 10000 1.5 170 20:42 03.08.2019
4233 Clear 28 1004 45 10000 1.5 90 20:22 03.08.2019
4234 Clear 29 1004 45 10000 2.1 140 19:42 03.08.2019
4235 Clear 29 1003 54 10000 2.6 110 19:24 03.08.2019
4236 Clear 29 1003 54 10000 2.6 110 19:24 03.08.2019
4237 Clear 30 1003 42 10000 2.6 150 18:53 03.08.2019
4238 Clear 31 1004 40 10000 1.5 180 18:27 03.08.2019
4239 Clear 31 1004 42 10000 2.6 210 17:49 03.08.2019
4240 Clear 31 1004 40 10000 2.6 210 17:22 03.08.2019
4241 Clear 31 1004 42 10000 2.6 190 16:56 03.08.2019
4242 Clear 31 1005 45 10000 3.1 200 16:37 03.08.2019
4243 Clear 31 1005 45 10000 3.1 200 16:19 03.08.2019
4244 Clear 31 1005 42 10000 3.6 240 15:43 03.08.2019
4245 Clear 31 1005 42 10000 3.6 240 15:23 03.08.2019
4246 Clear 31 1006 48 10000 3.6 250 14:41 03.08.2019
4247 Clear 30 1006 48 10000 4.1 220 14:21 03.08.2019
4248 Clear 30 1006 48 10000 4.1 220 14:21 03.08.2019
4249 Clear 30 1007 58 10000 4.1 220 13:52 03.08.2019
4250 Clear 30 1007 61 10000 4.1 200 13:25 03.08.2019
4251 Clear 29 1007 61 10000 3.6 210 12:57 03.08.2019
4252 Clear 29 1008 61 10000 3.6 200 12:39 03.08.2019
4253 Clear 29 1008 61 10000 3.6 200 12:21 03.08.2019
4254 Clear 28 1008 65 10000 3.6 180 11:48 03.08.2019
4255 Clear 28 1008 65 10000 3.6 180 11:26 03.08.2019
4256 Clear 28 1008 65 10000 3.1 180 10:42 03.08.2019
4257 Clear 27 1008 74 10000 3.1 200 10:22 03.08.2019
4258 Clear 27 1008 74 10000 3.6 190 09:42 03.08.2019
4259 Clear 26 1008 74 10000 3.1 150 09:21 03.08.2019
4260 Clear 26 1008 74 10000 3.6 150 08:51 03.08.2019
4261 Clear 24 1008 69 10000 2.1 90 07:55 03.08.2019
4262 Clear 24 1008 73 10000 2.1 80 07:32 03.08.2019
4263 Fog 22 1008 78 10000 2.1 90 06:36 03.08.2019
4264 Clear 22 1009 88 10000 2.1 330 04:41 03.08.2019
4265 Clear 23 1009 78 10000 1 0 02:38 03.08.2019
4266 Clear 23 1009 73 10000 2.6 30 01:42 03.08.2019
4267 Clear 23 1009 73 10000 2.6 60 00:49 03.08.2019
4268 Clear 23 1010 78 10000 2.6 80 23:59 02.08.2019
4269 Clear 23 1010 78 10000 2.6 80 23:40 02.08.2019
4270 Clear 24 1010 78 10000 3.1 70 23:19 02.08.2019
4271 Clear 23 1010 73 10000 3.6 70 22:57 02.08.2019
4272 Clear 24 1010 73 10000 3.6 70 22:38 02.08.2019
4273 Clear 24 1010 69 10000 4.1 70 22:19 02.08.2019
4274 Clear 25 1010 69 10000 4.1 70 21:43 02.08.2019
4275 Clear 25 1010 69 10000 3.6 70 21:24 02.08.2019
4276 Clear 26 1010 65 10000 3.6 50 20:57 02.08.2019
4277 Clear 26 1010 65 10000 5.1 50 20:39 02.08.2019
4278 Clear 26 1010 65 10000 5.1 50 20:20 02.08.2019
4279 Clear 27 1010 61 10000 5.1 50 19:45 02.08.2019
4280 Clear 26 1010 58 10000 5.1 50 19:25 02.08.2019
4281 Clear 27 1010 58 10000 5.1 60 18:44 02.08.2019
4282 Clear 27 1010 54 10000 5.1 60 18:25 02.08.2019
4283 Clear 28 1011 54 10000 5.1 40 17:48 02.08.2019
4284 Clear 28 1011 54 10000 5.7 50 17:25 02.08.2019
4285 Clouds 28 1011 51 10000 5.7 20 16:58 02.08.2019
4286 Clouds 28 1011 51 10000 6.2 360 16:38 02.08.2019
4287 Clouds 28 1011 51 10000 6.2 360 16:18 02.08.2019
4288 Clouds 29 1011 48 10000 5.7 10 15:39 02.08.2019
4289 Clouds 29 1011 48 10000 6.2 360 15:19 02.08.2019
4290 Clouds 29 1011 51 10000 5.7 20 14:46 02.08.2019
4291 Clouds 29 1011 51 10000 5.1 30 14:18 02.08.2019
4292 Clouds 29 1011 51 10000 5.1 30 14:18 02.08.2019
4293 Clouds 29 1011 51 10000 5.7 20 13:48 02.08.2019
4294 Clouds 29 1011 48 10000 5.1 10 13:26 02.08.2019
4295 Clouds 29 1011 48 10000 5.1 30 12:45 02.08.2019
4296 Clouds 30 1012 48 10000 5.1 20 12:22 02.08.2019
4297 Clouds 29 1012 51 10000 5.7 10 11:53 02.08.2019
4298 Clouds 29 1011 48 10000 6.2 20 11:34 02.08.2019
4299 Clouds 29 1012 55 10000 6.2 20 10:57 02.08.2019
4300 Clouds 29 1012 55 10000 6.2 20 10:39 02.08.2019
4301 Clouds 29 1011 52 10000 6.2 10 10:20 02.08.2019
4302 Clouds 28 1011 54 10000 6.7 30 09:52 02.08.2019
4303 Clouds 28 1011 62 10000 6.7 20 09:25 02.08.2019
4304 Clouds 27 1011 58 10000 5.1 20 08:49 02.08.2019
4305 Clouds 27 1011 58 10000 5.1 20 08:49 02.08.2019
4306 Clouds 26 1011 65 10000 6.2 360 08:22 02.08.2019
4307 Clouds 26 1011 74 10000 5.1 10 07:50 02.08.2019
4308 Mist 26 1011 74 10000 4.1 20 07:31 02.08.2019
4309 Mist 25 1011 78 10000 4.1 10 06:46 02.08.2019
4310 Mist 24 1011 83 10000 4.6 10 05:52 02.08.2019
4311 Mist 24 1010 83 7000 4.1 10 05:25 02.08.2019
4312 Clear 24 1010 88 7000 5.1 360 03:28 02.08.2019
4313 Clear 24 1010 83 7000 5.1 360 02:33 02.08.2019
4314 Clear 25 1010 88 7000 5.1 360 00:40 02.08.2019
4315 Clouds 25 1011 88 7000 4.6 10 23:47 01.08.2019
4316 Clouds 25 1011 83 7000 4.6 20 23:28 01.08.2019
4317 Clouds 25 1010 78 10000 4.6 40 22:59 01.08.2019
4318 Clouds 25 1010 78 10000 4.6 20 22:39 01.08.2019
4319 Clouds 25 1010 78 10000 4.6 20 22:20 01.08.2019
4320 Clouds 25 1010 78 10000 5.1 50 21:43 01.08.2019
4321 Clear 25 1010 78 10000 4.6 50 21:24 01.08.2019
4322 Clear 26 1010 69 10000 5.7 30 20:55 01.08.2019
4323 Clear 26 1010 69 10000 4.1 40 20:37 01.08.2019
4324 Clear 27 1010 69 10000 4.1 40 20:19 01.08.2019
4325 Clear 27 1010 62 10000 5.1 20 19:41 01.08.2019
4326 Clear 27 1010 62 10000 6.2 40 19:20 01.08.2019
4327 Clear 28 1010 51 10000 6.7 10 18:44 01.08.2019
4328 Clear 28 1010 51 10000 6.7 10 18:24 01.08.2019
4329 Clear 28 1009 51 10000 7.2 20 17:52 01.08.2019
4330 Clear 29 1009 51 10000 6.7 30 17:33 01.08.2019
4331 Clear 30 1009 52 10000 6.7 20 16:59 01.08.2019
4332 Clear 30 1009 52 10000 6.7 20 16:40 01.08.2019
4333 Clear 30 1009 48 10000 6.7 20 16:20 01.08.2019
4334 Clear 30 1009 43 10000 7.2 20 15:41 01.08.2019
4335 Clear 30 1009 43 10000 7.2 30 15:20 01.08.2019
4336 Clear 30 1010 40 10000 7.2 20 14:43 01.08.2019
4337 Clear 30 1010 40 10000 7.2 20 14:20 01.08.2019
4338 Clear 30 1010 40 10000 7.2 10 13:58 01.08.2019
4339 Clear 30 1010 40 10000 7.2 10 13:40 01.08.2019
4340 Clear 30 1009 41 10000 7.2 10 13:21 01.08.2019
4341 Clear 30 1010 38 10000 5.7 40 12:48 01.08.2019
4342 Clear 30 1010 33 10000 6.2 70 12:27 01.08.2019
4343 Clear 30 1010 38 10000 6.2 60 11:44 01.08.2019
4344 Clear 29 1010 40 10000 6.2 50 11:25 01.08.2019
4345 Clouds 29 1010 43 10000 5.7 40 10:57 01.08.2019
4346 Clouds 29 1010 45 10000 5.1 30 10:39 01.08.2019
4347 Clouds 29 1010 45 10000 5.1 30 10:21 01.08.2019
4348 Clear 28 1010 51 10000 3.1 40 09:45 01.08.2019
4349 Clear 28 1010 62 10000 4.1 70 09:23 01.08.2019
4350 Clear 27 1010 61 10000 3.6 40 08:48 01.08.2019
4351 Clear 26 1010 69 10000 3.6 70 08:21 01.08.2019
4352 Clear 25 1010 74 10000 4.6 50 07:52 01.08.2019
4353 Clear 25 1010 74 10000 4.6 50 07:52 01.08.2019
4354 Clear 25 1010 78 10000 4.6 40 07:28 01.08.2019
4355 Clear 24 1010 78 10000 4.1 30 06:49 01.08.2019
4356 Clear 23 1010 83 10000 3.6 30 06:29 01.08.2019
4357 Clear 22 1010 88 10000 4.1 20 05:31 01.08.2019
4358 Clear 23 1009 69 10000 3.6 20 02:35 01.08.2019
4359 Clear 23 1009 61 10000 2.6 30 00:51 01.08.2019
4360 Clear 23 1009 57 10000 2.6 40 00:26 01.08.2019
4361 Clear 23 1009 57 10000 2.6 20 23:55 31.07.2019
4362 Clear 24 1009 54 10000 3.1 40 23:36 31.07.2019
4363 Clear 24 1009 54 10000 3.1 40 23:18 31.07.2019
4364 Clear 24 1009 51 10000 4.1 40 22:42 31.07.2019
4365 Clear 25 1009 54 10000 3.6 40 22:23 31.07.2019
4366 Clear 25 1009 48 10000 4.1 60 21:40 31.07.2019
4367 Clear 25 1009 48 10000 4.1 60 21:22 31.07.2019
4368 Clear 26 1009 48 10000 3.6 60 20:49 31.07.2019
4369 Clear 26 1009 45 10000 4.1 70 20:23 31.07.2019
4370 Clear 27 1008 48 10000 3.6 50 19:48 31.07.2019
4371 Clear 27 1008 45 10000 4.1 50 19:29 31.07.2019
4372 Clear 28 1008 42 10000 4.6 50 18:55 31.07.2019
4373 Clear 28 1008 38 10000 5.1 60 18:37 31.07.2019
4374 Clear 29 1008 38 10000 5.1 60 18:18 31.07.2019
4375 Clear 29 1008 40 10000 5.1 20 17:43 31.07.2019
4376 Clear 29 1008 38 10000 5.7 30 17:20 31.07.2019
4377 Clear 30 1008 33 10000 5.1 20 16:48 31.07.2019
4378 Clear 30 1008 35 10000 4.1 30 16:21 31.07.2019
4379 Clear 30 1008 35 10000 4.6 10 15:54 31.07.2019
4380 Clear 30 1008 51 10000 2.6 240 15:36 31.07.2019
4381 Clear 30 1008 51 10000 2.6 240 15:18 31.07.2019
4382 Clear 30 1009 51 10000 4.1 230 14:42 31.07.2019
4383 Clear 29 1009 51 10000 4.1 230 14:19 31.07.2019
4384 Clear 29 1009 51 10000 4.1 240 13:45 31.07.2019
4385 Clouds 29 1009 54 10000 4.1 240 13:27 31.07.2019
4386 Clear 28 1009 54 10000 4.1 230 12:57 31.07.2019
4387 Clouds 29 1009 51 10000 3.6 210 12:38 31.07.2019
4388 Clouds 29 1009 51 10000 3.6 210 12:18 31.07.2019
4389 Clouds 28 1009 54 10000 3.1 200 11:39 31.07.2019
4390 Clouds 28 1009 54 10000 3.1 200 11:20 31.07.2019
4391 Clear 28 1009 61 10000 3.1 190 10:44 31.07.2019
4392 Clear 27 1009 61 10000 3.1 200 10:21 31.07.2019
4393 Clear 27 1009 65 10000 3.6 160 09:58 31.07.2019
4394 Clear 27 1009 65 10000 4.1 140 09:39 31.07.2019
4395 Clear 27 1009 65 10000 4.1 140 09:21 31.07.2019
4396 Clear 26 1009 69 10000 1.5 0 08:42 31.07.2019
4397 Clear 26 1009 69 10000 1.5 0 08:22 31.07.2019
4398 Clear 24 1009 74 10000 2.6 80 07:37 31.07.2019
4399 Fog 22 1008 88 10000 2.1 360 06:44 31.07.2019
4400 Fog 22 1008 94 8000 3.1 50 04:56 31.07.2019
4401 Clear 22 1008 83 10000 2.1 10 03:29 31.07.2019
4402 Clear 23 1008 78 10000 3.1 50 00:24 31.07.2019
4403 Clear 24 1008 73 10000 3.6 50 23:40 30.07.2019
4404 Clear 24 1008 73 10000 2.6 40 23:20 30.07.2019
4405 Clear 24 1008 73 10000 3.1 50 22:46 30.07.2019
4406 Clear 24 1008 73 10000 3.6 40 22:25 30.07.2019
4407 Clear 25 1008 69 10000 3.6 60 21:57 30.07.2019
4408 Clear 25 1008 69 10000 3.6 30 21:37 30.07.2019
4409 Clear 25 1008 69 10000 3.6 30 21:18 30.07.2019
4410 Clear 25 1007 69 10000 4.1 50 20:43 30.07.2019
4411 Clear 25 1007 65 10000 4.1 20 20:24 30.07.2019
4412 Clear 26 1007 61 10000 5.1 10 19:59 30.07.2019
4413 Clear 26 1007 61 10000 5.1 10 19:40 30.07.2019
4414 Clear 26 1006 58 10000 4.1 20 19:18 30.07.2019
4415 Clear 27 1006 58 10000 3.6 20 18:43 30.07.2019
4416 Clear 27 1006 61 10000 3.1 10 18:19 30.07.2019
4417 Clear 28 1006 55 10000 4.1 30 17:42 30.07.2019
4418 Clear 28 1006 66 10000 1.5 0 17:19 30.07.2019
4419 Clouds 28 1006 66 10000 2.1 210 16:53 30.07.2019
4420 Clouds 28 1006 69 10000 3.6 230 16:22 30.07.2019
4421 Clouds 28 1006 69 10000 3.1 190 15:58 30.07.2019
4422 Clouds 28 1007 66 10000 1.5 0 15:38 30.07.2019
4423 Clouds 28 1007 66 10000 1.5 0 15:19 30.07.2019
4424 Clouds 28 1007 66 10000 3.1 260 14:42 30.07.2019
4425 Clouds 28 1007 65 10000 5.1 260 14:21 30.07.2019
4426 Clouds 28 1007 69 10000 4.6 230 13:48 30.07.2019
4427 Clouds 28 1007 65 10000 4.1 230 13:29 30.07.2019
4428 Rain 27 1007 69 10000 4.1 230 12:59 30.07.2019
4429 Rain 27 1007 69 10000 4.1 230 12:40 30.07.2019
4430 Rain 28 1007 54 10000 1.5 0 12:22 30.07.2019
4431 Clouds 27 1007 78 10000 4.1 220 11:44 30.07.2019
4432 Clouds 27 1007 78 10000 4.1 220 11:21 30.07.2019
4433 Clouds 27 1007 78 10000 4.6 220 10:55 30.07.2019
4434 Clouds 27 1007 78 10000 3.6 210 10:37 30.07.2019
4435 Clouds 26 1007 78 10000 3.6 210 10:18 30.07.2019
4436 Clouds 26 1007 74 10000 4.1 190 09:44 30.07.2019
4437 Clouds 26 1006 74 10000 3.1 180 09:24 30.07.2019
4438 Clouds 26 1006 74 10000 3.1 180 09:24 30.07.2019
4439 Clouds 25 1006 65 10000 2.1 0 08:32 30.07.2019
4440 Clouds 25 1006 74 10000 2.1 20 07:52 30.07.2019
4441 Clouds 24 1006 83 10000 0.5 0 07:34 30.07.2019
4442 Clouds 24 1006 78 10000 1 0 06:50 30.07.2019
4443 Clouds 23 1005 83 10000 1.5 360 06:31 30.07.2019
4444 Clear 23 1005 83 10000 2.6 40 05:34 30.07.2019
4445 Clear 23 1004 83 10000 3.6 20 03:28 30.07.2019
4446 Clear 24 1004 83 10000 5.1 360 01:22 30.07.2019
4447 Clear 23 1004 83 10000 4.6 350 00:25 30.07.2019
4448 Clear 24 1004 78 10000 4.6 10 23:47 29.07.2019
4449 Clear 24 1004 78 10000 5.1 10 23:28 29.07.2019
4450 Clear 24 1004 78 10000 5.1 20 22:58 29.07.2019
4451 Clear 24 1004 78 10000 5.1 20 22:58 29.07.2019
4452 Clear 24 1004 73 10000 5.1 20 22:39 29.07.2019
4453 Clear 24 1004 73 10000 5.1 20 22:20 29.07.2019
4454 Clear 24 1004 74 10000 5.1 40 21:59 29.07.2019
4455 Clouds 24 1003 69 10000 5.1 30 21:41 29.07.2019
4456 Clouds 25 1003 69 10000 5.1 30 21:22 29.07.2019
4457 Clouds 25 1003 69 10000 6.2 50 20:55 29.07.2019
4458 Clear 25 1003 69 10000 6.2 50 20:36 29.07.2019
4459 Clear 25 1003 69 10000 6.2 50 20:18 29.07.2019
4460 Clouds 26 1003 65 10000 6.7 60 19:41 29.07.2019
4461 Clouds 26 1003 65 10000 6.7 60 19:21 29.07.2019
4462 Clear 26 1002 61 10000 6.7 30 18:43 29.07.2019
4463 Clear 27 1002 61 10000 6.7 50 18:23 29.07.2019
4464 Clear 27 1002 58 10000 6.7 30 17:56 29.07.2019
4465 Clear 27 1002 58 10000 6.2 30 17:37 29.07.2019
4466 Clear 27 1002 58 10000 6.2 30 17:19 29.07.2019
4467 Clear 29 1003 58 10000 6.2 10 16:42 29.07.2019
4468 Clear 29 1003 52 10000 5.1 10 16:23 29.07.2019
4469 Clear 28 1003 51 10000 3.1 220 15:53 29.07.2019
4470 Clear 29 1003 45 10000 2.6 190 15:34 29.07.2019
4471 Clear 29 1003 51 10000 3.1 200 14:56 29.07.2019
4472 Clear 29 1003 51 10000 3.1 200 14:56 29.07.2019
4473 Clear 29 1003 54 10000 3.6 200 14:38 29.07.2019
4474 Clear 29 1003 54 10000 3.6 200 14:19 29.07.2019
4475 Clear 29 1003 54 10000 4.1 210 13:42 29.07.2019
4476 Clear 29 1003 51 10000 4.1 230 13:23 29.07.2019
4477 Clear 28 1004 58 10000 3.1 210 12:42 29.07.2019
4478 Clear 28 1004 58 10000 3.1 210 12:24 29.07.2019
4479 Clear 28 1004 65 10000 2.6 200 11:44 29.07.2019
4480 Clear 28 1004 65 10000 2.6 200 11:22 29.07.2019
4481 Clear 27 1004 65 10000 2.6 140 10:47 29.07.2019
4482 Clear 27 1004 69 10000 3.1 150 10:25 29.07.2019
4483 Clear 26 1004 69 10000 2.6 0 09:51 29.07.2019
4484 Clear 26 1004 65 10000 2.1 140 09:30 29.07.2019
4485 Clear 25 1004 69 10000 3.1 140 08:57 29.07.2019
4486 Clear 25 1004 73 10000 2.6 150 08:32 29.07.2019
4487 Clear 24 1005 69 10000 2.1 130 07:59 29.07.2019
4488 Clear 24 1005 69 10000 2.1 120 07:36 29.07.2019
4489 Clear 24 1005 73 10000 1.5 70 06:53 29.07.2019
4490 Clear 22 1005 73 10000 2.1 60 05:47 29.07.2019
4491 Clear 22 1005 73 10000 2.1 70 04:53 29.07.2019
4492 Clear 22 1005 73 10000 3.1 60 02:26 29.07.2019
4493 Clear 22 1005 73 10000 3.1 70 01:43 29.07.2019
4494 Clear 22 1006 73 10000 3.1 70 01:22 29.07.2019
4495 Clear 23 1006 69 10000 3.6 50 00:43 29.07.2019
4496 Clear 23 1006 69 10000 3.6 60 00:20 29.07.2019
4497 Clear 23 1006 69 10000 4.1 50 23:41 28.07.2019
4498 Clear 23 1006 65 10000 5.1 50 23:18 28.07.2019
4499 Clear 23 1006 65 10000 5.7 50 22:40 28.07.2019
4500 Clear 24 1006 65 10000 5.7 50 22:22 28.07.2019
4501 Clear 24 1006 69 10000 5.1 50 21:48 28.07.2019
4502 Clear 24 1006 69 10000 5.1 50 21:19 28.07.2019
4503 Clear 25 1006 69 10000 5.1 30 20:48 28.07.2019
4504 Clear 25 1006 65 10000 5.1 20 20:29 28.07.2019
4505 Clear 25 1006 65 10000 4.1 40 19:54 28.07.2019
4506 Clear 26 1006 61 10000 5.1 20 19:36 28.07.2019
4507 Clear 26 1006 61 10000 5.1 20 19:18 28.07.2019
4508 Clear 26 1006 57 10000 5.1 30 18:42 28.07.2019
4509 Clear 26 1006 61 10000 6.2 10 18:19 28.07.2019
4510 Clear 27 1006 61 10000 5.1 40 17:42 28.07.2019
4511 Clear 27 1006 58 10000 6.2 50 17:22 28.07.2019
4512 Clear 28 1006 54 10000 5.7 30 16:57 28.07.2019
4513 Clear 28 1006 54 10000 5.7 30 16:38 28.07.2019
4514 Clear 28 1006 51 10000 6.2 10 16:19 28.07.2019
4515 Clouds 28 1006 51 10000 6.2 10 15:42 28.07.2019
4516 Clouds 28 1007 51 10000 7.2 20 15:21 28.07.2019
4517 Clouds 28 1007 48 10000 6.2 10 14:37 28.07.2019
4518 Clouds 28 1007 48 10000 6.2 10 14:37 28.07.2019
4519 Clouds 28 1007 48 10000 6.2 10 14:37 28.07.2019
4520 Clouds 28 1007 48 10000 5.7 30 14:37 28.07.2019
4521 Clouds 28 1007 48 10000 6.2 10 14:37 28.07.2019
4522 Clouds 28 1007 48 10000 6.2 10 14:19 28.07.2019
4523 Clouds 28 1007 51 10000 6.2 10 13:45 28.07.2019
4524 Clouds 28 1007 51 10000 6.2 10 13:25 28.07.2019
4525 Clouds 28 1008 51 10000 4.6 20 12:59 28.07.2019
4526 Clouds 28 1008 48 10000 5.1 30 12:40 28.07.2019
4527 Clouds 28 1008 48 10000 5.1 30 12:22 28.07.2019
4528 Clouds 28 1008 51 10000 5.7 360 11:47 28.07.2019
4529 Clouds 28 1008 48 10000 5.1 40 11:27 28.07.2019
4530 Clouds 27 1008 51 10000 5.7 40 10:41 28.07.2019
4531 Clouds 27 1008 57 10000 5.7 30 10:22 28.07.2019
4532 Clouds 27 1008 51 10000 5.1 50 09:45 28.07.2019
4533 Clouds 26 1008 57 10000 4.6 50 09:27 28.07.2019
4534 Clouds 26 1008 57 10000 5.7 70 08:51 28.07.2019
4535 Clear 26 1008 65 10000 4.6 50 08:28 28.07.2019
4536 Clear 25 1008 69 10000 5.7 50 07:57 28.07.2019
4537 Clear 24 1008 69 10000 3.6 50 07:37 28.07.2019
4538 Clear 23 1008 73 10000 3.1 30 06:42 28.07.2019
4539 Clear 22 1008 73 10000 3.1 20 05:27 28.07.2019
4540 Clear 22 1007 73 10000 3.1 30 03:30 28.07.2019
4541 Clear 22 1008 69 10000 3.1 40 02:23 28.07.2019
4542 Clear 23 1008 69 10000 4.1 50 01:19 28.07.2019
4543 Clear 23 1008 69 10000 3.1 60 00:44 28.07.2019
4544 Clear 23 1008 69 10000 3.1 50 00:18 28.07.2019
4545 Clear 24 1008 73 10000 4.1 60 23:44 27.07.2019
4546 Clear 24 1008 73 10000 5.1 50 23:19 27.07.2019
4547 Clear 24 1008 73 10000 5.1 50 23:19 27.07.2019
4548 Clear 24 1008 65 10000 6.2 50 22:40 27.07.2019
4549 Clear 24 1008 69 10000 5.7 50 22:19 27.07.2019
4550 Clear 24 1008 65 10000 6.2 40 21:39 27.07.2019
4551 Clear 24 1008 65 10000 6.2 40 21:20 27.07.2019
4552 Clear 24 1008 65 10000 6.2 40 21:20 27.07.2019
4553 Clear 24 1008 69 10000 5.7 50 20:50 27.07.2019
4554 Clear 25 1008 61 10000 7.2 40 20:25 27.07.2019
4555 Clear 25 1007 61 10000 7.2 60 19:46 27.07.2019
4556 Clear 25 1007 61 10000 7.2 50 19:26 27.07.2019
4557 Clear 26 1007 57 10000 8.2 50 18:54 27.07.2019
4558 Clear 26 1007 57 10000 8.2 50 18:36 27.07.2019
4559 Clouds 27 1007 51 10000 7.2 40 17:57 27.07.2019
4560 Clouds 27 1007 51 10000 7.2 50 17:36 27.07.2019
4561 Clouds 27 1007 51 10000 7.2 50 17:18 27.07.2019
4562 Clear 28 1008 51 10000 7.2 30 16:42 27.07.2019
4563 Clear 28 1008 51 10000 7.2 30 16:23 27.07.2019
4564 Clear 28 1008 48 10000 7.2 30 15:52 27.07.2019
4565 Clear 28 1008 45 10000 7.7 30 15:21 27.07.2019
4566 Clear 28 1008 45 10000 7.7 30 15:21 27.07.2019
4567 Clear 28 1008 48 10000 7.7 30 14:51 27.07.2019
4568 Clear 28 1008 45 10000 7.7 20 14:31 27.07.2019
4569 Clouds 28 1008 45 10000 7.2 20 13:56 27.07.2019
4570 Clouds 28 1008 40 10000 6.7 60 13:37 27.07.2019
4571 Clouds 28 1008 40 10000 6.7 60 13:18 27.07.2019
4572 Clouds 28 1008 45 10000 6.2 50 12:41 27.07.2019
4573 Clouds 28 1008 48 10000 7.2 40 12:21 27.07.2019
4574 Clouds 27 1009 45 10000 6.2 50 11:42 27.07.2019
4575 Clouds 27 1009 45 10000 6.2 50 11:24 27.07.2019
4576 Clouds 27 1009 45 10000 7.2 40 10:42 27.07.2019
4577 Clouds 27 1009 48 10000 6.2 60 10:23 27.07.2019
4578 Clouds 26 1009 48 10000 6.7 40 09:43 27.07.2019
4579 Clouds 26 1009 57 10000 5.1 60 09:24 27.07.2019
4580 Clouds 26 1009 61 10000 5.7 70 08:53 27.07.2019
4581 Clouds 26 1009 61 10000 5.7 70 08:53 27.07.2019
4582 Clear 25 1009 65 10000 5.7 60 08:34 27.07.2019
4583 Clear 25 1009 69 10000 4.1 60 07:58 27.07.2019
4584 Clear 24 1009 69 10000 4.1 60 07:40 27.07.2019
4585 Clear 24 1009 73 10000 3.6 60 07:20 27.07.2019
4586 Clear 22 1009 78 10000 3.1 30 06:49 27.07.2019
4587 Clear 22 1009 78 10000 3.1 30 06:49 27.07.2019
4588 Clear 22 1008 78 10000 3.1 20 06:21 27.07.2019
4589 Clear 21 1008 78 10000 2.1 40 05:35 27.07.2019
4590 Clear 21 1008 78 10000 2.6 50 04:46 27.07.2019
4591 Clear 22 1009 73 10000 2.6 30 03:46 27.07.2019
4592 Clear 22 1009 73 10000 2.1 40 02:43 27.07.2019
4593 Clear 22 1010 73 10000 2.6 40 01:57 27.07.2019
4594 Clear 22 1010 73 10000 2.6 40 01:57 27.07.2019
4595 Clear 22 1010 73 10000 2.6 40 01:32 27.07.2019
4596 Clear 22 1010 69 10000 2.6 60 00:38 27.07.2019
4597 Clear 22 1010 69 10000 2.6 60 00:19 27.07.2019
4598 Clear 23 1010 69 10000 4.1 50 23:42 26.07.2019
4599 Clear 22 1010 69 10000 5.1 50 23:23 26.07.2019
4600 Clear 23 1010 69 10000 4.6 60 22:43 26.07.2019
4601 Clear 23 1010 65 10000 4.6 70 22:25 26.07.2019
4602 Clear 23 1011 61 10000 4.6 50 21:52 26.07.2019
4603 Clear 24 1011 61 10000 4.1 50 21:20 26.07.2019
4604 Clear 24 1011 61 10000 5.1 60 20:52 26.07.2019
4605 Clear 24 1011 54 10000 5.1 50 20:33 26.07.2019
4606 Clear 25 1011 54 10000 5.7 50 19:55 26.07.2019
4607 Clear 25 1011 54 10000 5.1 50 19:36 26.07.2019
4608 Clear 25 1011 54 10000 5.1 50 19:18 26.07.2019
4609 Clear 26 1011 44 10000 6.2 50 18:41 26.07.2019
4610 Clear 26 1011 37 10000 7.7 50 18:21 26.07.2019
4611 Clear 26 1011 34 10000 7.2 40 17:56 26.07.2019
4612 Clear 27 1011 34 10000 7.2 40 17:37 26.07.2019
4613 Clear 27 1011 32 10000 8.2 40 17:18 26.07.2019
4614 Clear 27 1011 32 10000 7.2 30 16:54 26.07.2019
4615 Clear 28 1011 33 10000 7.2 40 16:36 26.07.2019
4616 Clear 28 1011 33 10000 7.2 40 16:18 26.07.2019
4617 Clear 28 1012 40 10000 7.2 30 15:43 26.07.2019
4618 Clear 28 1012 42 10000 6.7 20 15:21 26.07.2019
4619 Clear 28 1012 40 10000 5.7 40 14:45 26.07.2019
4620 Clear 28 1012 42 10000 5.7 30 14:25 26.07.2019
4621 Clear 28 1012 42 10000 5.7 30 13:48 26.07.2019
4622 Clear 28 1013 42 10000 5.7 30 13:29 26.07.2019
4623 Clear 28 1013 37 10000 5.7 60 12:55 26.07.2019
4624 Clear 28 1013 40 10000 5.1 70 12:36 26.07.2019
4625 Clear 28 1013 40 10000 5.1 70 12:18 26.07.2019
4626 Clouds 27 1014 48 10000 4.6 110 11:38 26.07.2019
4627 Clouds 27 1014 48 10000 4.6 110 11:18 26.07.2019
4628 Clouds 26 1014 61 10000 4.1 110 10:46 26.07.2019
4629 Clouds 26 1014 61 10000 4.1 110 10:28 26.07.2019
4630 Clouds 26 1014 61 10000 4.6 110 09:50 26.07.2019
4631 Clouds 25 1014 65 10000 4.6 100 09:31 26.07.2019
4632 Clear 24 1015 61 10000 5.1 80 08:42 26.07.2019
4633 Clear 24 1015 69 10000 4.6 80 08:21 26.07.2019
4634 Clear 24 1015 69 10000 4.6 60 07:52 26.07.2019
4635 Clear 23 1014 73 10000 3.6 60 07:26 26.07.2019
4636 Clear 22 1014 73 10000 3.1 50 06:41 26.07.2019
4637 Clear 19 1015 88 10000 2.6 10 04:50 26.07.2019
4638 Clear 20 1015 88 10000 3.6 360 04:21 26.07.2019
4639 Clear 21 1015 73 10000 2.1 30 02:25 26.07.2019
4640 Clear 21 1016 73 10000 2.1 60 01:31 26.07.2019
4641 Clear 22 1016 69 10000 2.6 50 00:33 26.07.2019
4642 Clear 22 1016 69 10000 3.1 40 23:55 25.07.2019
4643 Clear 22 1016 69 10000 2.6 50 23:23 25.07.2019
4644 Clear 23 1016 73 10000 2.1 60 22:42 25.07.2019
4645 Clear 23 1016 69 10000 2.6 70 22:24 25.07.2019
4646 Clear 23 1016 69 10000 3.6 50 21:58 25.07.2019
4647 Clear 23 1016 69 10000 3.6 50 21:58 25.07.2019
4648 Clear 23 1016 69 10000 3.6 50 21:40 25.07.2019
4649 Clear 24 1016 69 10000 3.6 40 21:20 25.07.2019
4650 Clear 24 1016 69 10000 3.6 40 21:20 25.07.2019
4651 Clear 24 1016 65 10000 4.6 40 20:41 25.07.2019
4652 Clear 24 1016 65 10000 4.6 40 20:21 25.07.2019
4653 Clear 24 1016 65 10000 5.7 20 19:42 25.07.2019
4654 Clear 25 1016 57 10000 5.7 30 19:23 25.07.2019
4655 Clear 26 1016 47 10000 5.7 40 18:45 25.07.2019
4656 Clear 26 1016 51 10000 6.2 30 18:27 25.07.2019
4657 Clouds 26 1016 54 10000 6.7 20 17:57 25.07.2019
4658 Clouds 26 1016 51 10000 6.2 40 17:38 25.07.2019
4659 Clouds 27 1016 51 10000 6.2 40 17:20 25.07.2019
4660 Clouds 27 1016 51 10000 6.7 40 16:42 25.07.2019
4661 Clouds 27 1016 48 10000 7.2 30 16:22 25.07.2019
4662 Clouds 27 1016 54 10000 6.7 40 15:51 25.07.2019
4663 Clouds 27 1016 45 10000 7.2 360 15:21 25.07.2019
4664 Clouds 27 1016 48 10000 6.7 30 14:44 25.07.2019
4665 Clouds 28 1016 51 10000 7.2 30 14:25 25.07.2019
4666 Clouds 27 1016 51 10000 7.2 20 13:59 25.07.2019
4667 Clouds 27 1016 51 10000 7.2 20 13:37 25.07.2019
4668 Clouds 27 1016 50 10000 6.7 20 13:19 25.07.2019
4669 Clouds 27 1017 57 10000 3.1 30 12:35 25.07.2019
4670 Clouds 26 1017 69 10000 5.7 60 11:59 25.07.2019
4671 Clouds 26 1016 73 10000 3.6 170 11:40 25.07.2019
4672 Clouds 26 1016 73 10000 3.6 170 11:40 25.07.2019
4673 Clouds 25 1016 73 10000 3.6 170 11:22 25.07.2019
4674 Clouds 26 1016 61 10000 4.1 150 10:45 25.07.2019
4675 Clouds 25 1016 73 10000 3.6 170 10:24 25.07.2019
4676 Clouds 25 1016 73 10000 4.6 180 09:46 25.07.2019
4677 Clouds 25 1016 69 10000 4.1 150 09:27 25.07.2019
4678 Clouds 24 1016 61 10000 4.1 30 08:49 25.07.2019
4679 Clouds 24 1016 61 10000 2.6 0 08:29 25.07.2019
4680 Clear 23 1016 65 10000 3.1 20 07:40 25.07.2019
4681 Clear 22 1016 73 10000 2.1 350 06:46 25.07.2019
4682 Clear 21 1016 83 10000 2.6 340 06:19 25.07.2019
4683 Clear 20 1015 88 10000 2.6 340 05:34 25.07.2019
4684 Clear 20 1015 88 10000 3.1 350 04:45 25.07.2019
4685 Clear 21 1015 83 10000 2.1 350 02:26 25.07.2019
4686 Clear 21 1015 83 10000 3.1 10 01:21 25.07.2019
4687 Clear 21 1015 83 10000 2.6 350 00:31 25.07.2019
4688 Clear 21 1015 78 10000 4.1 10 23:56 24.07.2019
4689 Clear 22 1015 78 10000 3.1 10 23:38 24.07.2019
4690 Clear 22 1015 78 10000 3.1 10 23:19 24.07.2019
4691 Clear 22 1015 78 10000 3.1 10 22:44 24.07.2019
4692 Clear 22 1015 78 10000 4.1 10 22:22 24.07.2019
4693 Clouds 22 1015 78 10000 3.6 30 21:55 24.07.2019
4694 Clear 22 1015 73 10000 4.1 30 21:37 24.07.2019
4695 Clear 22 1015 73 10000 4.1 30 21:18 24.07.2019
4696 Clear 23 1014 69 10000 4.6 40 20:40 24.07.2019
4697 Clear 23 1014 69 10000 4.6 40 20:22 24.07.2019
4698 Clouds 23 1014 64 10000 5.7 30 19:57 24.07.2019
4699 Clouds 23 1014 64 10000 5.7 30 19:39 24.07.2019
4700 Clouds 23 1014 64 10000 5.1 30 19:19 24.07.2019
4701 Clouds 24 1013 61 10000 7.2 10 18:42 24.07.2019
4702 Clouds 24 1013 61 10000 7.2 10 18:23 24.07.2019
4703 Clouds 24 1013 61 10000 8.2 360 17:46 24.07.2019
4704 Clouds 24 1013 61 10000 7.2 20 17:20 24.07.2019
4705 Clouds 24 1013 57 10000 7.7 350 16:43 24.07.2019
4706 Rain 24 1013 57 10000 6.7 20 16:23 24.07.2019
4707 Rain 24 1013 57 10000 6.7 20 16:23 24.07.2019
4708 Rain 24 1014 78 10000 7.7 20 15:58 24.07.2019
4709 Clouds 24 1013 61 10000 5.1 30 15:36 24.07.2019
4710 Clouds 24 1013 61 10000 5.1 30 15:18 24.07.2019
4711 Clouds 22 1013 78 10000 2.6 110 14:43 24.07.2019
4712 Clouds 22 1013 78 10000 2.6 110 14:19 24.07.2019
4713 Rain 21 1012 73 10000 3.1 110 13:38 24.07.2019
4714 Rain 21 1012 73 10000 3.1 110 13:19 24.07.2019
4715 Rain 21 1013 78 10000 2.6 110 12:51 24.07.2019
4716 Rain 21 1012 78 10000 3.6 70 12:33 24.07.2019
4717 Rain 21 1012 83 8000 5.1 20 11:40 24.07.2019
4718 Rain 21 1012 88 8000 3.1 60 11:21 24.07.2019
4719 Rain 22 1012 83 8000 8.7 350 10:46 24.07.2019
4720 Rain 22 1012 78 10000 3.6 10 10:26 24.07.2019
4721 Rain 22 1011 78 10000 4.6 20 09:52 24.07.2019
4722 Rain 22 1011 83 7000 5.7 30 09:26 24.07.2019
4723 Rain 22 1011 83 10000 4.6 20 08:58 24.07.2019
4724 Rain 22 1011 83 7000 6.2 20 08:32 24.07.2019
4725 Rain 22 1011 78 10000 6.2 10 07:52 24.07.2019
4726 Rain 22 1011 78 10000 6.7 360 07:31 24.07.2019
4727 Rain 22 1011 78 10000 6.2 360 06:36 24.07.2019
4728 Rain 22 1010 73 10000 5.1 20 06:36 24.07.2019
4729 Rain 22 1011 88 10000 6.2 30 05:56 24.07.2019
4730 Thunderstorm 22 1012 88 10000 9.8 330 02:56 24.07.2019
4731 Clear 23 1012 78 10000 4.1 20 01:44 24.07.2019
4732 Rain 23 1012 78 10000 3.1 60 00:57 24.07.2019
4733 Clear 23 1012 78 10000 3.6 50 00:24 24.07.2019
4734 Clear 23 1012 78 10000 4.1 10 23:45 23.07.2019
4735 Clear 23 1012 73 10000 3.1 40 23:25 23.07.2019
4736 Clear 24 1012 69 10000 3.6 50 22:55 23.07.2019
4737 Clear 24 1012 65 10000 4.1 50 22:36 23.07.2019
4738 Clear 24 1012 65 10000 4.1 50 22:18 23.07.2019
4739 Clear 24 1012 65 10000 4.1 50 21:42 23.07.2019
4740 Clear 24 1012 65 10000 4.1 40 21:23 23.07.2019
4741 Clear 25 1012 61 10000 4.6 40 20:48 23.07.2019
4742 Clear 25 1012 61 10000 5.1 30 20:27 23.07.2019
4743 Clear 26 1012 54 10000 6.7 30 19:43 23.07.2019
4744 Clear 26 1012 47 10000 6.7 20 19:24 23.07.2019
4745 Clear 26 1012 47 10000 6.7 20 19:24 23.07.2019
4746 Clear 27 1012 42 10000 6.7 360 18:55 23.07.2019
4747 Clear 27 1012 39 10000 6.7 20 18:37 23.07.2019
4748 Clear 27 1012 39 10000 6.7 20 18:19 23.07.2019
4749 Clear 28 1012 35 10000 6.2 20 17:41 23.07.2019
4750 Clear 28 1012 35 10000 7.2 20 17:20 23.07.2019
4751 Clear 28 1012 35 10000 7.7 20 16:42 23.07.2019
4752 Clear 29 1012 35 10000 7.2 20 16:24 23.07.2019
4753 Clear 29 1012 35 10000 6.7 10 15:48 23.07.2019
4754 Clear 29 1012 38 10000 6.7 20 15:29 23.07.2019
4755 Clear 29 1012 40 10000 7.2 70 14:41 23.07.2019
4756 Clear 29 1012 38 10000 5.1 50 14:23 23.07.2019
4757 Clear 29 1012 40 10000 7.2 10 14:00 23.07.2019
4758 Clear 29 1012 40 10000 7.2 10 13:41 23.07.2019
4759 Clear 29 1013 33 10000 6.7 60 13:23 23.07.2019
4760 Clear 29 1013 29 10000 6.7 40 12:49 23.07.2019
4761 Clear 29 1013 31 10000 5.7 60 12:28 23.07.2019
4762 Clear 29 1013 38 10000 6.2 60 11:59 23.07.2019
4763 Clear 28 1013 38 10000 6.2 60 11:40 23.07.2019
4764 Clear 28 1013 37 10000 6.7 70 11:20 23.07.2019
4765 Clear 28 1013 38 10000 5.1 70 10:42 23.07.2019
4766 Clear 28 1014 45 10000 5.1 30 10:22 23.07.2019
4767 Clear 27 1013 51 10000 5.1 50 09:42 23.07.2019
4768 Clear 27 1014 58 10000 4.1 30 09:20 23.07.2019
4769 Clear 25 1014 65 10000 3.6 50 08:44 23.07.2019
4770 Clear 25 1014 69 10000 5.1 30 08:20 23.07.2019
4771 Clear 24 1014 69 10000 4.6 40 07:56 23.07.2019
4772 Clear 24 1014 78 10000 4.6 20 07:36 23.07.2019
4773 Clear 23 1014 83 10000 3.6 30 06:50 23.07.2019
4774 Clear 22 1014 83 10000 3.1 10 06:30 23.07.2019
4775 Clear 22 1014 78 10000 2.1 10 03:39 23.07.2019
4776 Clear 22 1015 73 10000 3.1 40 01:35 23.07.2019
4777 Clear 23 1015 69 10000 4.1 30 00:31 23.07.2019
4778 Clear 23 1015 65 10000 4.6 40 23:56 22.07.2019
4779 Clear 23 1015 65 10000 5.1 30 23:38 22.07.2019
4780 Clear 23 1015 65 10000 5.1 30 23:18 22.07.2019
4781 Clear 23 1015 61 10000 5.1 40 22:44 22.07.2019
4782 Clear 24 1016 65 10000 5.7 40 22:21 22.07.2019
4783 Clear 24 1016 69 10000 5.7 40 21:43 22.07.2019
4784 Clear 24 1016 69 10000 5.7 40 21:23 22.07.2019
4785 Clear 25 1016 61 10000 5.1 30 20:51 22.07.2019
4786 Clear 25 1016 57 10000 6.2 30 20:33 22.07.2019
4787 Clear 25 1016 51 10000 5.7 30 19:58 22.07.2019
4788 Clear 26 1016 42 10000 5.7 40 19:38 22.07.2019
4789 Clear 26 1016 42 10000 5.7 40 19:20 22.07.2019
4790 Clear 26 1015 42 10000 7.2 40 18:46 22.07.2019
4791 Clear 27 1016 35 10000 7.2 30 18:27 22.07.2019
4792 Clear 27 1016 35 10000 8.2 40 17:57 22.07.2019
4793 Clear 28 1016 33 10000 8.2 50 17:38 22.07.2019
4794 Clear 28 1016 33 10000 8.2 50 17:19 22.07.2019
4795 Clear 28 1016 33 10000 7.2 30 16:40 22.07.2019
4796 Clear 28 1016 35 10000 7.7 30 16:21 22.07.2019
4797 Clear 29 1016 38 10000 6.2 40 15:44 22.07.2019
4798 Clear 28 1016 38 10000 8.2 70 15:20 22.07.2019
4799 Clear 29 1017 40 10000 7.7 30 14:44 22.07.2019
4800 Clear 29 1017 40 10000 7.7 30 14:24 22.07.2019
4801 Clear 29 1017 40 10000 8.7 30 13:52 22.07.2019
4802 Clear 29 1017 43 10000 7.7 20 13:32 22.07.2019
4803 Clear 28 1017 45 10000 7.2 30 12:55 22.07.2019
4804 Clear 28 1017 40 10000 7.7 50 12:32 22.07.2019
4805 Clear 28 1017 42 10000 6.2 30 11:57 22.07.2019
4806 Clear 28 1017 45 10000 6.7 50 11:39 22.07.2019
4807 Clear 28 1017 45 10000 6.7 50 11:19 22.07.2019
4808 Clear 27 1017 51 10000 4.6 40 10:38 22.07.2019
4809 Clear 27 1017 51 10000 4.6 40 10:19 22.07.2019
4810 Clear 26 1017 51 10000 5.1 60 09:40 22.07.2019
4811 Clear 26 1017 57 10000 5.1 50 09:21 22.07.2019
4812 Clear 25 1018 65 10000 4.6 20 08:40 22.07.2019
4813 Clear 24 1018 73 10000 3.6 40 08:22 22.07.2019
4814 Clouds 24 1018 73 10000 4.1 30 07:53 22.07.2019
4815 Clouds 23 1018 78 10000 3.1 20 07:31 22.07.2019
4816 Clear 22 1018 83 10000 2.1 60 05:51 22.07.2019
4817 Clear 21 1018 78 10000 3.6 50 03:46 22.07.2019
4818 Clear 22 1018 78 10000 2.1 80 01:44 22.07.2019
4819 Clear 22 1018 78 10000 2.1 110 00:50 22.07.2019
4820 Clear 22 1018 78 10000 2.1 110 00:50 22.07.2019
4821 Clear 22 1018 73 10000 2.1 80 00:22 22.07.2019
4822 Clear 22 1018 69 10000 2.6 50 23:51 21.07.2019
4823 Clear 22 1018 69 10000 3.1 40 23:23 21.07.2019
4824 Clear 23 1018 69 10000 3.6 40 22:41 21.07.2019
4825 Clear 23 1018 61 10000 4.1 30 22:21 21.07.2019
4826 Clear 23 1018 61 10000 3.1 40 21:55 21.07.2019
4827 Clear 23 1018 61 10000 3.1 40 21:36 21.07.2019
4828 Clear 24 1018 54 10000 4.1 50 21:18 21.07.2019
4829 Clear 24 1018 50 10000 4.6 60 20:41 21.07.2019
4830 Clear 24 1018 54 10000 5.1 50 20:23 21.07.2019
4831 Clear 25 1018 57 10000 4.6 40 19:53 21.07.2019
4832 Clear 25 1018 51 10000 5.7 50 19:29 21.07.2019
4833 Clear 26 1018 42 10000 6.2 40 18:56 21.07.2019
4834 Clear 26 1018 39 10000 7.2 30 18:37 21.07.2019
4835 Clear 26 1018 39 10000 7.2 30 18:37 21.07.2019
4836 Clear 27 1018 39 10000 7.2 30 18:19 21.07.2019
4837 Clear 27 1018 42 10000 7.2 40 17:40 21.07.2019
4838 Clear 27 1018 42 10000 7.2 40 17:19 21.07.2019
4839 Clear 28 1018 39 10000 7.2 50 16:42 21.07.2019
4840 Clear 28 1018 39 10000 7.2 50 16:24 21.07.2019
4841 Clear 28 1018 37 10000 7.2 40 15:45 21.07.2019
4842 Clear 28 1018 35 10000 8.2 40 15:24 21.07.2019
4843 Clouds 28 1018 37 10000 8.2 40 14:54 21.07.2019
4844 Clouds 28 1018 35 10000 7.2 50 14:26 21.07.2019
4845 Clouds 28 1018 37 10000 8.2 30 13:59 21.07.2019
4846 Clouds 28 1018 42 10000 7.7 50 13:40 21.07.2019
4847 Clouds 28 1018 42 10000 7.7 50 13:20 21.07.2019
4848 Clouds 28 1018 37 10000 7.7 50 12:41 21.07.2019
4849 Clouds 28 1018 42 10000 6.7 50 12:22 21.07.2019
4850 Clouds 28 1018 42 10000 6.7 40 11:46 21.07.2019
4851 Clouds 28 1018 39 10000 6.7 40 11:27 21.07.2019
4852 Clouds 27 1018 45 10000 6.7 70 10:47 21.07.2019
4853 Clouds 27 1018 42 10000 6.7 70 10:25 21.07.2019
4854 Clouds 26 1018 42 10000 6.2 70 09:56 21.07.2019
4855 Clouds 26 1018 47 10000 5.7 60 09:36 21.07.2019
4856 Clouds 26 1018 47 10000 5.7 60 09:36 21.07.2019
4857 Clouds 25 1018 51 10000 6.2 70 08:50 21.07.2019
4858 Clouds 25 1018 65 10000 5.1 40 08:32 21.07.2019
4859 Clouds 24 1018 69 10000 4.6 60 07:58 21.07.2019
4860 Clear 24 1018 69 10000 4.1 50 07:19 21.07.2019
4861 Clear 22 1018 83 10000 2.1 40 06:37 21.07.2019
4862 Clear 21 1018 83 10000 3.6 30 04:21 21.07.2019
4863 Clear 22 1018 78 10000 3.6 40 01:57 21.07.2019
4864 Clear 23 1018 78 10000 4.1 40 00:48 21.07.2019
4865 Clear 23 1018 78 10000 4.1 30 00:22 21.07.2019
4866 Clear 23 1018 78 10000 5.1 40 23:48 20.07.2019
4867 Clear 23 1018 78 10000 5.1 30 23:27 20.07.2019
4868 Clear 23 1018 73 10000 5.7 40 22:58 20.07.2019
4869 Clear 23 1018 69 10000 5.7 50 22:40 20.07.2019
4870 Clear 24 1018 69 10000 5.7 50 22:19 20.07.2019
4871 Clear 24 1017 69 10000 6.2 40 21:43 20.07.2019
4872 Clear 24 1017 69 10000 6.2 40 21:24 20.07.2019
4873 Clouds 24 1017 69 10000 6.2 40 20:43 20.07.2019
4874 Clouds 25 1017 61 10000 6.2 50 20:23 20.07.2019
4875 Clouds 25 1017 65 10000 6.2 30 19:51 20.07.2019
4876 Clouds 25 1017 65 10000 7.2 30 19:28 20.07.2019
4877 Clouds 26 1017 65 10000 8.2 40 18:56 20.07.2019
4878 Clouds 26 1016 61 10000 7.7 30 18:37 20.07.2019
4879 Clouds 26 1016 61 10000 7.7 30 18:18 20.07.2019
4880 Clear 27 1016 54 10000 9.3 30 17:43 20.07.2019
4881 Clear 27 1016 54 10000 9.3 30 17:19 20.07.2019
4882 Clouds 27 1016 51 10000 8.7 50 16:40 20.07.2019
4883 Clouds 27 1016 54 10000 7.7 40 16:22 20.07.2019
4884 Clear 27 1016 54 10000 9.3 20 15:42 20.07.2019
4885 Clear 27 1016 54 10000 9.3 20 15:42 20.07.2019
4886 Clear 27 1016 54 10000 8.7 20 15:21 20.07.2019
4887 Clear 27 1016 48 10000 8.2 30 14:50 20.07.2019
4888 Clear 27 1016 48 10000 8.7 50 14:30 20.07.2019
4889 Clear 28 1016 51 10000 8.7 30 13:58 20.07.2019
4890 Clear 27 1016 54 10000 8.7 30 13:38 20.07.2019
4891 Clear 27 1016 54 10000 8.7 30 13:19 20.07.2019
4892 Clouds 27 1017 54 10000 7.7 30 12:49 20.07.2019
4893 Clouds 27 1017 54 10000 8.7 30 12:19 20.07.2019
4894 Clouds 27 1017 54 10000 8.7 20 11:47 20.07.2019
4895 Clouds 27 1017 58 10000 7.7 40 11:21 20.07.2019
4896 Clouds 27 1016 58 10000 7.2 30 10:45 20.07.2019
4897 Clouds 27 1016 58 10000 7.2 30 10:25 20.07.2019
4898 Clouds 26 1016 57 10000 7.7 50 09:52 20.07.2019
4899 Clouds 26 1016 57 10000 6.7 60 09:27 20.07.2019
4900 Clouds 25 1016 61 10000 7.2 60 08:54 20.07.2019
4901 Clouds 25 1016 65 10000 6.7 40 08:24 20.07.2019
4902 Clear 24 1016 65 10000 7.2 50 07:43 20.07.2019
4903 Clear 22 1016 69 10000 5.1 50 06:46 20.07.2019
4904 Clear 22 1016 73 10000 3.6 40 05:49 20.07.2019
4905 Clear 22 1016 73 10000 3.1 40 04:31 20.07.2019
4906 Clear 22 1016 69 10000 4.1 50 01:59 20.07.2019
4907 Clear 23 1016 64 10000 5.1 60 00:59 20.07.2019
4908 Clear 22 1016 64 10000 5.1 50 00:37 20.07.2019
4909 Clear 22 1016 64 10000 5.1 50 00:18 20.07.2019
4910 Clear 23 1016 64 10000 5.7 60 23:39 19.07.2019
4911 Clear 23 1016 64 10000 5.7 60 23:21 19.07.2019
4912 Clear 23 1016 64 10000 6.7 60 22:43 19.07.2019
4913 Clear 23 1016 64 10000 6.2 60 22:22 19.07.2019
4914 Clear 23 1016 64 10000 5.7 60 21:45 19.07.2019
4915 Clear 23 1016 64 10000 7.7 50 21:26 19.07.2019
4916 Clear 24 1016 65 10000 8.2 60 20:45 19.07.2019
4917 Clear 24 1015 65 10000 7.7 60 20:26 19.07.2019
4918 Clear 24 1015 61 10000 6.2 50 19:48 19.07.2019
4919 Clear 25 1015 54 10000 8.2 50 19:20 19.07.2019
4920 Clear 25 1015 54 10000 8.2 40 18:42 19.07.2019
4921 Clear 26 1015 54 10000 8.7 40 18:21 19.07.2019
4922 Clear 26 1014 51 10000 9.3 40 17:52 19.07.2019
4923 Clear 26 1014 51 10000 8.7 40 17:27 19.07.2019
4924 Clear 26 1014 51 10000 8.7 40 17:27 19.07.2019
4925 Clear 27 1014 51 10000 8.2 50 16:49 19.07.2019
4926 Clear 27 1015 48 10000 8.2 60 16:26 19.07.2019
4927 Clear 27 1015 48 10000 8.2 50 15:52 19.07.2019
4928 Clear 28 1015 48 10000 6.7 40 15:31 19.07.2019
4929 Clear 28 1015 48 10000 8.7 30 14:57 19.07.2019
4930 Clouds 28 1015 45 10000 7.2 50 14:39 19.07.2019
4931 Clouds 28 1015 45 10000 7.2 50 14:21 19.07.2019
4932 Clouds 28 1015 42 10000 6.7 50 13:44 19.07.2019
4933 Clouds 28 1015 42 10000 6.7 50 13:44 19.07.2019
4934 Clouds 28 1015 42 10000 6.7 50 13:44 19.07.2019
4935 Clouds 28 1015 42 10000 6.7 50 13:44 19.07.2019
4936 Clouds 28 1015 42 10000 6.7 50 13:44 19.07.2019
4937 Clouds 28 1015 42 10000 6.7 50 13:25 19.07.2019
4938 Clouds 27 1015 45 10000 6.2 40 12:55 19.07.2019
4939 Clouds 27 1015 45 10000 6.2 60 12:31 19.07.2019
4940 Clouds 27 1015 48 10000 5.7 60 11:59 19.07.2019
4941 Clouds 27 1015 48 10000 5.7 60 11:41 19.07.2019
4942 Clouds 27 1015 48 10000 7.2 80 11:18 19.07.2019
4943 Clouds 26 1015 51 10000 6.2 70 10:42 19.07.2019
4944 Clouds 26 1015 51 10000 6.2 70 10:22 19.07.2019
4945 Clouds 26 1015 51 10000 5.7 70 09:57 19.07.2019
4946 Clouds 25 1015 57 10000 6.2 60 09:39 19.07.2019
4947 Clouds 25 1015 57 10000 6.2 60 09:20 19.07.2019
4948 Clouds 25 1015 61 10000 6.7 60 08:42 19.07.2019
4949 Clouds 24 1015 61 10000 5.1 60 07:53 19.07.2019
4950 Clear 23 1015 69 10000 3.1 60 07:28 19.07.2019
4951 Clear 21 1015 73 10000 3.1 30 05:55 19.07.2019
4952 Clear 21 1014 69 10000 3.1 40 02:23 19.07.2019
4953 Clear 21 1014 69 10000 3.6 40 01:18 19.07.2019
4954 Clear 21 1014 69 10000 4.1 40 00:35 19.07.2019
4955 Clear 22 1014 69 10000 4.1 50 23:44 18.07.2019
4956 Clear 22 1014 69 10000 4.6 50 23:24 18.07.2019
4957 Clear 22 1014 69 10000 4.1 60 22:59 18.07.2019
4958 Clear 23 1014 69 10000 4.1 60 22:40 18.07.2019
4959 Clear 23 1014 64 10000 4.1 70 22:19 18.07.2019
4960 Clear 23 1014 64 10000 4.1 60 21:44 18.07.2019
4961 Clear 23 1013 60 10000 5.1 60 21:26 18.07.2019
4962 Clear 24 1013 53 10000 5.1 60 20:51 18.07.2019
4963 Clear 24 1013 47 10000 4.6 60 20:29 18.07.2019
4964 Clear 24 1012 44 10000 4.1 40 19:54 18.07.2019
4965 Clear 25 1012 36 10000 5.1 40 19:32 18.07.2019
4966 Clear 25 1012 32 10000 6.2 50 18:58 18.07.2019
4967 Clear 26 1012 32 10000 6.2 50 18:40 18.07.2019
4968 Clear 26 1012 32 10000 6.2 50 18:20 18.07.2019
4969 Clear 26 1012 34 10000 6.2 40 17:42 18.07.2019
4970 Clear 26 1012 34 10000 6.2 40 17:24 18.07.2019
4971 -273 0 0 0 0 0 16:56 18.07.2019
4972 Clear 27 1011 35 10000 6.2 20 16:30 18.07.2019
4973 Clear 27 1011 35 10000 5.1 40 15:59 18.07.2019
4974 Clear 27 1011 35 10000 5.1 30 15:39 18.07.2019
4975 Clear 27 1011 35 10000 5.1 30 15:21 18.07.2019
4976 Clear 27 1011 35 10000 5.1 30 14:43 18.07.2019
4977 Clouds 27 1011 32 10000 6.2 70 14:25 18.07.2019
4978 Clouds 27 1011 32 10000 5.1 40 13:48 18.07.2019
4979 Clouds 27 1011 30 10000 5.7 40 13:23 18.07.2019
4980 Clouds 27 1012 50 10000 5.7 60 12:50 18.07.2019
4981 Clear 27 1011 32 10000 6.7 20 12:21 18.07.2019
4982 Clouds 26 1011 35 10000 5.7 20 11:57 18.07.2019
4983 Clouds 26 1011 39 10000 5.7 10 11:39 18.07.2019
4984 Clouds 26 1011 39 10000 5.7 10 11:20 18.07.2019
4985 Clouds 26 1011 39 10000 5.1 50 10:41 18.07.2019
4986 Clouds 26 1010 44 10000 4.6 30 09:50 18.07.2019
4987 Clouds 26 1010 50 10000 5.7 10 09:26 18.07.2019
4988 Clouds 25 1010 57 10000 4.6 20 08:51 18.07.2019
4989 Clear 24 1010 61 10000 4.6 20 08:22 18.07.2019
4990 Clear 24 1010 64 10000 4.1 20 07:55 18.07.2019
4991 Clear 23 1010 73 10000 5.1 360 07:34 18.07.2019
4992 Clouds 22 1010 78 10000 2.6 320 06:46 18.07.2019
4993 Clouds 20 1010 83 10000 2.6 310 05:58 18.07.2019
4994 Clear 21 1009 82 10000 3.1 340 03:25 18.07.2019
4995 Clear 21 1008 82 10000 3.1 340 01:52 18.07.2019
4996 Clear 22 1009 73 10000 3.1 20 01:32 18.07.2019
4997 Clear 22 1009 69 10000 3.6 30 23:57 17.07.2019
4998 Clear 23 1009 69 10000 4.1 30 23:21 17.07.2019
4999 Clear 23 1009 69 10000 4.1 30 22:58 17.07.2019
5000 Clear 23 1008 69 10000 4.1 20 22:40 17.07.2019
5001 Clear 23 1008 69 10000 4.1 20 22:21 17.07.2019
5002 Clear 23 1009 69 10000 4.6 30 21:56 17.07.2019
5003 Clear 23 1008 64 10000 5.7 30 21:36 17.07.2019
5004 Clear 23 1008 64 10000 5.7 30 21:18 17.07.2019
5005 Clear 23 1009 69 10000 6.7 50 20:41 17.07.2019
5006 Clouds 23 1008 60 10000 6.7 20 20:21 17.07.2019
5007 Clouds 24 1008 60 10000 7.2 20 19:59 17.07.2019
5008 Clouds 24 1008 60 10000 7.2 30 19:39 17.07.2019
5009 Clouds 24 1008 64 10000 8.2 40 19:18 17.07.2019
5010 Clouds 24 1008 60 10000 8.7 40 18:41 17.07.2019
5011 Clouds 24 1007 57 10000 7.7 20 18:20 17.07.2019
5012 Clouds 24 1007 54 10000 8.2 30 17:50 17.07.2019
5013 Clouds 24 1007 54 10000 8.2 30 17:27 17.07.2019
5014 Clouds 25 1007 50 10000 7.7 30 16:56 17.07.2019
5015 Clouds 25 1007 47 10000 9.3 20 16:38 17.07.2019
5016 Clouds 25 1007 47 10000 10.3 10 16:18 17.07.2019
5017 Clouds 25 1007 47 10000 7.2 30 15:50 17.07.2019
5018 Clear 25 1003 47 10000 9.3 30 15:25 17.07.2019
5019 Clouds 25 1007 47 10000 7.7 40 14:55 17.07.2019
5020 Clouds 25 1007 47 10000 7.7 40 14:37 17.07.2019
5021 Clouds 25 1007 47 10000 8.7 20 14:18 17.07.2019
5022 Clouds 26 1007 47 10000 8.2 30 13:41 17.07.2019
5023 Clouds 25 1007 51 10000 9.3 20 13:21 17.07.2019
5024 Clouds 25 1007 50 10000 7.2 30 12:40 17.07.2019
5025 Clouds 25 1007 54 10000 7.2 50 12:21 17.07.2019
5026 Clouds 25 1007 50 10000 7.2 40 11:45 17.07.2019
5027 Clouds 25 1007 57 10000 6.7 40 11:21 17.07.2019
5028 Clouds 25 1007 57 10000 6.7 40 10:51 17.07.2019
5029 Clouds 24 1007 47 10000 7.7 40 10:31 17.07.2019
5030 Clouds 24 1007 47 10000 7.7 40 10:31 17.07.2019
5031 Clouds 24 1007 53 10000 7.2 30 09:59 17.07.2019
5032 Clouds 24 1007 57 10000 7.7 30 09:40 17.07.2019
5033 Clouds 24 1007 57 10000 7.7 30 09:22 17.07.2019
5034 Rain 23 1007 60 10000 6.7 30 08:43 17.07.2019
5035 Rain 23 1007 78 10000 6.2 50 08:22 17.07.2019
5036 Clear 23 1007 69 10000 6.2 30 07:50 17.07.2019
5037 Rain 23 1007 78 10000 6.2 50 07:50 17.07.2019
5038 Clear 23 1007 69 10000 6.2 30 07:24 17.07.2019
5039 Clear 23 1007 69 10000 5.1 30 06:56 17.07.2019
5040 Clear 22 1007 68 10000 4.6 30 06:30 17.07.2019
5041 Clear 22 1006 68 10000 4.6 20 05:50 17.07.2019
5042 Clear 21 1007 68 10000 3.6 40 05:30 17.07.2019
5043 Clear 21 1007 73 10000 4.1 30 04:45 17.07.2019
5044 Clear 21 1007 73 10000 3.1 30 03:29 17.07.2019
5045 Clear 21 1008 73 10000 3.6 50 02:19 17.07.2019
5046 Clear 22 1008 69 10000 3.1 40 01:26 17.07.2019
5047 Clear 22 1008 64 10000 4.1 40 00:55 17.07.2019
5048 Clear 22 1008 64 10000 4.1 40 00:36 17.07.2019
5049 Clear 22 1008 64 10000 4.1 50 00:18 17.07.2019
5050 Clear 21 1008 64 10000 4.1 40 23:36 16.07.2019
5051 Clear 21 1008 64 10000 5.1 40 23:18 16.07.2019
5052 Clear 22 1008 64 10000 4.1 40 22:42 16.07.2019
5053 Clear 22 1008 64 10000 4.1 40 22:24 16.07.2019
5054 Clear 23 1008 60 10000 5.7 50 21:47 16.07.2019
5055 Clear 23 1008 60 10000 6.2 60 21:22 16.07.2019
5056 Clear 23 1008 60 10000 6.2 60 20:58 16.07.2019
5057 Clear 23 1008 57 10000 6.7 60 20:39 16.07.2019
5058 Clear 23 1008 57 10000 6.2 50 20:21 16.07.2019
5059 Clear 23 1008 53 10000 6.7 40 19:52 16.07.2019
5060 Clear 24 1008 53 10000 6.7 40 19:29 16.07.2019
5061 Clear 24 1008 53 10000 7.2 20 18:58 16.07.2019
5062 Clear 25 1008 47 10000 7.7 20 18:39 16.07.2019
5063 Clear 25 1008 42 10000 7.7 50 18:20 16.07.2019
5064 Clear 25 1008 42 10000 7.7 50 17:44 16.07.2019
5065 Clear 25 1008 42 10000 7.7 50 17:23 16.07.2019
5066 Clear 26 1008 44 10000 6.7 60 16:48 16.07.2019
5067 Clear 26 1008 44 10000 6.7 60 16:25 16.07.2019
5068 Clear 26 1008 39 10000 6.7 40 15:56 16.07.2019
5069 Clouds 26 1008 42 10000 6.2 50 15:37 16.07.2019
5070 Clouds 26 1008 44 10000 7.2 30 15:18 16.07.2019
5071 Clouds 26 1008 44 10000 7.2 20 14:45 16.07.2019
5072 Clouds 26 1008 44 10000 7.2 20 14:27 16.07.2019
5073 Clouds 26 1009 44 10000 4.1 30 13:47 16.07.2019
5074 Clouds 26 1009 44 10000 4.1 30 13:27 16.07.2019
5075 Clouds 25 1009 50 10000 3.6 110 12:57 16.07.2019
5076 Clouds 25 1009 44 10000 4.6 120 12:38 16.07.2019
5077 Clouds 25 1009 44 10000 4.6 120 12:38 16.07.2019
5078 Clouds 25 1009 50 10000 4.1 130 12:19 16.07.2019
5079 Clouds 25 1010 57 10000 4.1 160 11:44 16.07.2019
5080 Clouds 25 1010 57 10000 4.1 160 11:24 16.07.2019
5081 Clouds 24 1010 57 10000 4.1 140 10:57 16.07.2019
5082 Clouds 24 1010 57 10000 4.1 120 10:39 16.07.2019
5083 Clouds 24 1010 57 10000 3.6 100 10:18 16.07.2019
5084 Clouds 23 1010 69 10000 3.1 120 09:43 16.07.2019
5085 Clouds 23 1010 69 10000 3.1 120 09:20 16.07.2019
5086 Clouds 23 1010 69 10000 2.1 110 08:46 16.07.2019
5087 Clouds 23 1010 69 10000 2.1 110 08:24 16.07.2019
5088 Clear 21 1010 73 10000 1 0 07:51 16.07.2019
5089 Clear 20 1010 73 10000 1 0 07:32 16.07.2019
5090 Clear 19 1010 77 10000 0.5 0 06:58 16.07.2019
5091 Clear 18 1010 88 10000 1 360 06:35 16.07.2019
5092 Clear 17 1010 88 10000 2.1 350 05:48 16.07.2019
5093 Clear 17 1009 88 10000 2.1 350 05:25 16.07.2019
5094 Clear 17 1009 88 10000 2.8 29.029 04:27 16.07.2019
5095 Clear 17 1009 88 10000 2.6 350 03:34 16.07.2019
5096 Clear 17 1009 82 10000 2.1 350 02:42 16.07.2019
5097 Clear 18 1009 88 10000 1.5 360 02:19 16.07.2019
5098 Clear 18 1010 82 10000 2.6 350 01:23 16.07.2019
5099 Clear 18 1010 77 10000 1.5 350 00:22 16.07.2019
5100 Clear 19 1010 77 10000 1.5 350 23:58 15.07.2019
5101 Clear 19 1010 77 10000 1.5 360 23:37 15.07.2019
5102 Clear 20 1010 72 10000 1 330 22:59 15.07.2019
5103 Clear 20 1010 72 10000 1 0 22:38 15.07.2019
5104 Clear 20 1010 64 10000 1 60 22:19 15.07.2019
5105 Clear 21 1010 64 10000 1 60 21:57 15.07.2019
5106 Clear 21 1010 64 10000 1 0 21:38 15.07.2019
5107 Clear 21 1010 64 10000 1 0 21:19 15.07.2019
5108 Clear 21 1009 68 10000 1.5 140 20:42 15.07.2019
5109 Clear 21 1009 68 10000 1.5 140 20:22 15.07.2019
5110 Clear 22 1009 64 10000 2.1 140 19:56 15.07.2019
5111 Clear 22 1009 60 10000 3.1 140 19:38 15.07.2019
5112 Clouds 23 1009 56 10000 2.6 130 19:18 15.07.2019
5113 Clouds 23 1009 69 10000 3.1 110 18:43 15.07.2019
5114 Clouds 23 1009 64 10000 3.1 120 18:20 15.07.2019
5115 Clouds 23 1009 64 10000 3.1 120 17:55 15.07.2019
5116 Clouds 24 1009 57 10000 3.6 210 17:37 15.07.2019
5117 Clouds 23 1009 57 10000 3.6 220 17:19 15.07.2019
5118 Clouds 23 1009 53 10000 3.6 220 16:39 15.07.2019
5119 Rain 23 1009 57 10000 3.6 240 16:21 15.07.2019
5120 Rain 23 1009 57 10000 3.6 240 15:58 15.07.2019
5121 Rain 22 1010 64 10000 4.1 240 15:37 15.07.2019
5122 Rain 22 1010 77 4000 2.1 30 15:19 15.07.2019
5123 Rain 22 1010 77 10000 4.1 230 14:45 15.07.2019
5124 Rain 22 1010 77 10000 4.1 230 14:26 15.07.2019
5125 Rain 22 1010 82 8000 4.1 270 13:57 15.07.2019
5126 Clouds 22 1009 73 10000 5.7 220 13:36 15.07.2019
5127 Clouds 22 1009 73 10000 4.6 230 13:18 15.07.2019
5128 Clouds 21 1009 77 10000 5.1 220 12:42 15.07.2019
5129 Rain 21 1009 77 10000 4.1 230 12:22 15.07.2019
5130 Rain 21 1009 77 10000 3.1 230 11:43 15.07.2019
5131 Rain 20 1009 77 10000 3.1 230 11:25 15.07.2019
5132 Rain 21 1008 73 10000 5.1 270 10:48 15.07.2019
5133 Rain 21 1008 73 10000 5.1 270 10:30 15.07.2019
5134 Clouds 20 1008 73 10000 3.6 290 09:57 15.07.2019
5135 Clouds 20 1008 73 10000 3.1 280 09:39 15.07.2019
5136 Clouds 20 1008 77 10000 3.1 280 09:18 15.07.2019
5137 Clouds 19 1008 77 10000 4.6 270 08:41 15.07.2019
5138 Rain 19 1008 77 10000 4.6 270 08:23 15.07.2019
5139 Rain 18 1008 88 10000 3.6 300 07:41 15.07.2019
5140 Rain 18 1008 82 10000 3.6 300 07:20 15.07.2019
5141 Rain 18 1007 82 10000 3.6 320 06:39 15.07.2019
5142 Rain 18 1007 82 10000 4.1 280 05:50 15.07.2019
5143 Rain 18 1007 82 10000 4.1 280 05:30 15.07.2019
5144 Rain 18 1007 88 10000 4.1 280 04:43 15.07.2019
5145 Rain 18 1006 88 10000 3.6 280 03:51 15.07.2019
5146 Rain 18 1006 88 7000 2.1 270 02:47 15.07.2019
5147 Clouds 18 1006 88 10000 4.6 320 01:45 15.07.2019
5148 Clouds 18 1006 88 10000 4.6 320 01:26 15.07.2019
5149 Rain 18 1007 88 10000 3.6 320 00:51 15.07.2019
5150 Rain 18 1007 88 10000 3.6 320 00:22 15.07.2019
5151 Rain 18 1007 93 4500 4.1 310 23:55 14.07.2019
5152 Rain 18 1007 93 4500 4.1 310 23:37 14.07.2019
5153 Rain 18 1007 82 10000 4.1 340 23:18 14.07.2019
5154 Rain 18 1006 82 10000 4.6 360 22:55 14.07.2019
5155 Rain 18 1006 82 10000 4.6 360 22:36 14.07.2019
5156 Rain 18 1007 82 10000 4.1 350 22:18 14.07.2019
5157 Rain 18 1007 88 10000 3.6 350 21:42 14.07.2019
5158 Rain 18 1006 88 10000 3.6 350 21:18 14.07.2019
5159 Rain 18 1006 88 10000 3.6 350 20:57 14.07.2019
5160 Rain 18 1006 88 10000 4.1 350 20:37 14.07.2019
5161 Rain 18 1006 93 10000 4.6 340 20:18 14.07.2019
5162 Rain 18 1006 88 10000 6.7 330 19:43 14.07.2019
5163 Rain 18 1006 88 10000 6.7 330 19:24 14.07.2019
5164 Rain 19 1006 82 10000 5.1 330 18:57 14.07.2019
5165 Rain 19 1006 82 10000 5.1 350 18:38 14.07.2019
5166 Rain 20 1006 72 10000 5.7 340 18:19 14.07.2019
5167 Rain 21 1006 72 10000 5.1 320 17:47 14.07.2019
5168 Rain 21 1006 72 10000 5.1 320 17:21 14.07.2019
5169 Rain 22 1005 68 10000 3.1 290 16:46 14.07.2019
5170 Rain 22 1005 68 10000 2.6 280 16:24 14.07.2019
5171 Rain 22 1005 68 10000 3.1 280 15:54 14.07.2019
5172 Clouds 22 1005 68 10000 3.1 280 15:29 14.07.2019
5173 Clouds 23 1005 64 10000 3.1 220 14:50 14.07.2019
5174 Clouds 23 1005 53 10000 2.1 100 14:22 14.07.2019
5175 Clouds 23 1005 53 10000 2.1 100 13:49 14.07.2019
5176 Clouds 23 1006 56 10000 1 0 13:27 14.07.2019
5177 Clouds 23 1006 60 10000 2.1 150 12:59 14.07.2019
5178 Clouds 23 1005 49 10000 2.6 90 12:41 14.07.2019
5179 Clouds 23 1005 49 10000 2.6 90 12:21 14.07.2019
5180 Clouds 23 1006 50 10000 4.1 110 11:52 14.07.2019
5181 Clouds 23 1006 50 10000 4.1 110 11:27 14.07.2019
5182 Clouds 23 1006 53 10000 2.6 70 10:58 14.07.2019
5183 Clouds 22 1007 56 10000 1.5 50 10:40 14.07.2019
5184 Clouds 22 1007 56 10000 2.6 90 10:19 14.07.2019
5185 Clouds 22 1007 53 10000 3.1 70 09:42 14.07.2019
5186 Clouds 22 1007 53 10000 3.1 70 09:23 14.07.2019
5187 Clouds 21 1007 49 10000 3.1 60 08:41 14.07.2019
5188 Clouds 21 1007 49 10000 3.1 70 07:57 14.07.2019
5189 Clouds 21 1006 60 10000 4.1 30 07:35 14.07.2019
5190 Clear 20 1007 64 10000 2.6 350 06:40 14.07.2019
5191 Clear 19 1007 64 10000 1.5 360 05:44 14.07.2019
5192 Clear 19 1007 60 10000 2.1 40 03:46 14.07.2019
5193 Clear 19 1007 60 10000 2.1 40 03:28 14.07.2019
5194 Clear 20 1008 56 10000 2.6 60 02:39 14.07.2019
5195 Clear 20 1008 56 10000 3.1 60 02:20 14.07.2019
5196 Clear 20 1009 56 10000 2.6 50 01:31 14.07.2019
5197 Clear 20 1009 56 10000 3.1 70 00:55 14.07.2019
5198 Clear 20 1009 56 10000 3.1 50 00:37 14.07.2019
5199 Clear 21 1009 53 10000 3.1 80 00:19 14.07.2019
5200 Clear 21 1010 49 10000 2.6 60 23:43 13.07.2019
5201 Clear 20 1010 49 10000 3.6 70 23:23 13.07.2019
5202 Clear 21 1010 49 10000 3.1 40 22:43 13.07.2019
5203 Clear 21 1010 49 10000 3.6 60 22:22 13.07.2019
5204 Clear 21 1010 49 10000 3.6 60 21:54 13.07.2019
5205 Clear 22 1010 44 10000 4.1 50 21:23 13.07.2019
5206 Clear 22 1010 47 10000 4.1 50 21:23 13.07.2019
5207 Clear 22 1010 47 10000 4.1 50 20:59 13.07.2019
5208 Clear 22 1010 47 10000 4.1 60 20:39 13.07.2019
5209 Clear 23 1010 41 10000 3.6 50 20:21 13.07.2019
5210 Clear 24 1010 41 10000 4.1 60 19:41 13.07.2019
5211 Clear 24 1010 41 10000 2.1 140 19:23 13.07.2019
5212 Clear 24 1010 41 10000 2.6 150 18:40 13.07.2019
5213 Clouds 24 1010 44 10000 2.6 200 18:19 13.07.2019
5214 Clouds 25 1010 41 10000 3.1 230 17:38 13.07.2019
5215 Clouds 25 1010 41 10000 3.1 230 17:38 13.07.2019
5216 Clouds 25 1011 39 10000 2.6 220 17:19 13.07.2019
5217 Clouds 26 1011 41 10000 3.6 250 16:45 13.07.2019
5218 Clouds 26 1011 41 10000 3.6 210 16:26 13.07.2019
5219 Clouds 26 1011 41 10000 3.6 210 16:26 13.07.2019
5220 Clouds 26 1011 41 10000 3.6 210 15:50 13.07.2019
5221 Clouds 26 1011 41 10000 3.6 210 15:50 13.07.2019
5222 Clouds 26 1011 41 10000 4.1 210 15:25 13.07.2019
5223 Clouds 26 1011 39 10000 4.1 190 14:59 13.07.2019
5224 Clouds 26 1011 39 10000 4.1 190 14:41 13.07.2019
5225 Clouds 26 1011 41 10000 4.1 170 14:20 13.07.2019
5226 Clouds 26 1012 44 10000 4.6 180 13:44 13.07.2019
5227 Clouds 26 1012 44 10000 3.6 170 13:19 13.07.2019
5228 Clouds 25 1012 47 10000 3.6 150 12:42 13.07.2019
5229 Clouds 25 1012 50 10000 4.1 150 12:23 13.07.2019
5230 Clouds 25 1012 50 10000 4.1 150 11:57 13.07.2019
5231 Clouds 25 1012 53 10000 4.6 150 11:37 13.07.2019
5232 Clouds 24 1012 53 10000 4.1 140 11:18 13.07.2019
5233 Clouds 24 1012 60 10000 4.1 140 10:40 13.07.2019
5234 Clouds 24 1012 53 10000 3.6 120 10:22 13.07.2019
5235 Clear 23 1012 68 10000 2.6 110 09:42 13.07.2019
5236 Clear 23 1012 68 10000 2.6 110 09:24 13.07.2019
5237 Clear 23 1012 60 10000 2.6 100 08:55 13.07.2019
5238 Clear 22 1012 64 10000 2.6 100 08:27 13.07.2019
5239 Clear 21 1012 64 10000 2.1 60 07:50 13.07.2019
5240 Clear 21 1012 64 10000 2.1 60 07:23 13.07.2019
5241 Clear 18 1012 77 10000 2.1 350 06:31 13.07.2019
5242 Clear 17 1012 72 10000 1 0 05:47 13.07.2019
5243 Clear 18 1011 60 10000 2.1 30 04:40 13.07.2019
5244 Clear 18 1012 60 10000 2.1 50 04:20 13.07.2019
5245 Clear 18 1012 60 10000 1.5 80 03:41 13.07.2019
5246 Clear 18 1012 60 10000 2.1 20 02:54 13.07.2019
5247 Clear 18 1012 68 10000 1.5 30 01:53 13.07.2019
5248 Clear 18 1012 68 10000 1.5 30 01:21 13.07.2019
5249 Clear 18 1012 72 10000 2.1 360 00:58 13.07.2019
5250 Clear 21 1012 56 10000 1.5 40 00:21 13.07.2019
5251 Clear 21 1012 60 10000 2.6 40 23:50 12.07.2019
5252 Clear 21 1012 56 10000 2.1 40 23:50 12.07.2019
5253 Clear 21 1012 60 10000 2.6 40 23:30 12.07.2019
5254 Clear 21 1012 60 10000 3.1 50 22:58 12.07.2019
5255 Clear 21 1012 60 10000 2.1 70 22:40 12.07.2019
5256 Clear 21 1012 60 10000 2.1 70 22:21 12.07.2019
5257 Clear 22 1012 56 10000 1.5 80 21:42 12.07.2019
5258 Clear 22 1012 56 10000 1.5 80 21:19 12.07.2019
5259 Clouds 22 1012 56 10000 1 0 20:46 12.07.2019
5260 Clouds 22 1012 50 10000 1.5 130 20:23 12.07.2019
5261 Clouds 23 1012 53 10000 1.5 180 19:44 12.07.2019
5262 Clouds 23 1011 53 10000 1.5 250 19:26 12.07.2019
5263 Clouds 23 1011 53 10000 1.5 250 18:57 12.07.2019
5264 Clouds 23 1012 56 10000 2.1 220 18:36 12.07.2019
5265 Clouds 23 1012 56 10000 2.1 210 18:18 12.07.2019
5266 Clouds 23 1012 53 10000 1.5 0 17:43 12.07.2019
5267 Clouds 23 1012 53 10000 1.5 0 17:23 12.07.2019
5268 Thunderstorm 24 1012 53 10000 4.1 280 16:37 12.07.2019
5269 Clouds 24 1012 60 10000 2.6 240 16:19 12.07.2019
5270 Clouds 24 1012 68 10000 3.6 240 15:40 12.07.2019
5271 Clouds 24 1012 56 10000 4.1 200 15:20 12.07.2019
5272 Thunderstorm 23 1012 53 10000 3.6 200 14:46 12.07.2019
5273 Thunderstorm 23 1012 53 10000 3.6 200 14:46 12.07.2019
5274 Rain 24 1011 53 10000 3.1 280 14:21 12.07.2019
5275 Rain 24 1011 53 10000 3.1 280 14:21 12.07.2019
5276 Rain 24 1011 53 10000 3.1 280 13:54 12.07.2019
5277 Clouds 24 1011 60 10000 4.6 190 13:34 12.07.2019
5278 Clouds 24 1012 50 10000 3.6 190 12:44 12.07.2019
5279 Clouds 23 1012 50 10000 3.6 190 12:24 12.07.2019
5280 Rain 23 1012 77 10000 5.1 290 11:59 12.07.2019
5281 Rain 23 1012 77 10000 5.1 290 11:40 12.07.2019
5282 Thunderstorm 24 1011 64 10000 4.1 250 11:19 12.07.2019
5283 Clouds 24 1012 50 10000 3.6 210 10:42 12.07.2019
5284 Clouds 24 1012 57 10000 1.5 0 10:23 12.07.2019
5285 Clouds 23 1012 60 10000 2.6 320 09:53 12.07.2019
5286 Clouds 23 1012 60 10000 2.6 320 09:29 12.07.2019
5287 Tornado 23 1012 60 10000 2.6 350 08:56 12.07.2019
5288 Clouds 22 1012 60 10000 2.6 350 08:26 12.07.2019
5289 Clear 21 1012 56 10000 3.1 350 07:55 12.07.2019
5290 Clear 21 1011 64 10000 3.1 340 07:32 12.07.2019
5291 Clear 18 1011 82 10000 2.6 340 06:51 12.07.2019
5292 Clear 17 1011 82 10000 2.6 340 06:26 12.07.2019
5293 Clear 16 1011 87 10000 2.6 350 05:24 12.07.2019
5294 Clear 16 1010 82 10000 3.1 350 03:20 12.07.2019
5295 Clear 17 1011 82 10000 3.1 340 01:38 12.07.2019
5296 Clear 18 1011 82 10000 3.1 350 00:49 12.07.2019
5297 Clear 19 1011 72 10000 2.6 320 00:20 12.07.2019
5298 Clear 19 1011 68 10000 2.1 330 23:43 11.07.2019
5299 Clear 19 1011 77 10000 2.1 350 23:24 11.07.2019
5300 Clear 20 1011 64 10000 1.5 30 22:52 11.07.2019
5301 Clear 20 1011 64 10000 1.5 30 22:26 11.07.2019
5302 Clear 20 1011 64 10000 2.6 40 21:57 11.07.2019
5303 Clear 21 1011 60 10000 3.1 30 21:38 11.07.2019
5304 Clear 21 1011 60 10000 3.1 30 21:18 11.07.2019
5305 Clear 21 1010 60 10000 4.1 30 20:42 11.07.2019
5306 Clear 21 1010 60 10000 5.1 30 20:23 11.07.2019
5307 Clear 22 1010 60 10000 5.1 30 19:57 11.07.2019
5308 Clear 22 1010 56 10000 4.6 20 19:39 11.07.2019
5309 Clouds 22 1010 60 10000 5.7 360 19:20 11.07.2019
5310 Clouds 22 1010 64 10000 6.7 350 18:42 11.07.2019
5311 Clouds 22 1010 64 10000 6.7 350 18:24 11.07.2019
5312 Clouds 22 1009 68 10000 9.3 340 17:49 11.07.2019
5313 Clouds 22 1009 68 10000 9.3 340 17:31 11.07.2019
5314 Clouds 22 1009 57 10000 6.2 10 16:55 11.07.2019
5315 Rain 22 1009 57 10000 7.7 10 16:37 11.07.2019
5316 Rain 22 1009 60 10000 6.2 40 16:18 11.07.2019
5317 Rain 22 1008 64 10000 5.7 20 15:40 11.07.2019
5318 Rain 22 1008 64 10000 5.7 20 15:20 11.07.2019
5319 Rain 22 1008 64 10000 6.7 20 14:45 11.07.2019
5320 Rain 22 1008 64 10000 6.7 20 14:25 11.07.2019
5321 Rain 22 1008 69 10000 5.7 360 13:56 11.07.2019
5322 Rain 22 1008 73 10000 5.7 10 13:37 11.07.2019
5323 Rain 21 1008 73 10000 5.1 10 13:18 11.07.2019
5324 Rain 21 1008 77 10000 6.7 10 12:38 11.07.2019
5325 Rain 21 1008 83 10000 6.2 20 12:19 11.07.2019
5326 Rain 20 1008 94 10000 6.2 360 11:45 11.07.2019
5327 Rain 20 1008 93 10000 5.7 350 11:24 11.07.2019
5328 Rain 19 1008 88 6000 6.7 340 10:51 11.07.2019
5329 Rain 19 1008 93 6000 6.7 360 10:20 11.07.2019
5330 Rain 19 1008 88 6000 6.2 360 09:52 11.07.2019
5331 Rain 19 1008 88 6000 6.2 360 09:31 11.07.2019
5332 Rain 19 1006 93 6000 8.2 20 08:59 11.07.2019
5333 Rain 19 1006 88 10000 7.2 360 08:39 11.07.2019
5334 Rain 19 1006 82 10000 8.2 10 08:19 11.07.2019
5335 Rain 19 1006 88 10000 8.7 360 07:43 11.07.2019
5336 Rain 20 1006 88 10000 8.7 360 06:55 11.07.2019
5337 Rain 20 1007 82 10000 10.3 10 06:18 11.07.2019
5338 Rain 20 1006 93 10000 9.8 350 05:31 11.07.2019
5339 Rain 20 1006 83 10000 7.2 360 04:56 11.07.2019
5340 Rain 20 1007 78 10000 1.5 360 03:19 11.07.2019
5341 Clouds 21 1008 78 10000 3.6 340 02:18 11.07.2019
5342 Clouds 21 1008 73 10000 3.1 340 00:32 11.07.2019
5343 Clouds 21 1007 69 10000 3.6 40 23:50 10.07.2019
5344 Clouds 21 1008 69 10000 3.1 70 23:24 10.07.2019
5345 Clouds 22 1008 69 10000 3.1 70 22:54 10.07.2019
5346 Clouds 22 1009 73 10000 2.1 50 22:22 10.07.2019
5347 Clouds 22 1009 69 10000 3.1 80 21:56 10.07.2019
5348 Clouds 22 1008 69 10000 3.1 60 21:38 10.07.2019
5349 Clouds 22 1008 69 10000 3.6 40 21:19 10.07.2019
5350 Rain 22 1009 69 10000 3.6 10 20:44 10.07.2019
5351 Clouds 22 1009 64 10000 4.6 40 20:26 10.07.2019
5352 Clouds 22 1009 64 10000 4.6 40 19:55 10.07.2019
5353 Clouds 23 1009 64 10000 4.1 30 19:37 10.07.2019
5354 Clouds 23 1008 64 10000 4.6 30 19:19 10.07.2019
5355 Clouds 24 1008 61 10000 5.1 40 18:44 10.07.2019
5356 Clouds 24 1008 61 10000 5.1 40 18:23 10.07.2019
5357 Clouds 24 1008 61 10000 5.1 40 18:23 10.07.2019
5358 Clouds 24 1008 61 10000 5.7 360 17:46 10.07.2019
5359 Clouds 24 1008 61 10000 5.7 360 17:27 10.07.2019
5360 Clouds 24 1008 57 10000 7.2 30 16:46 10.07.2019
5361 Clouds 23 1008 57 10000 7.2 30 16:21 10.07.2019
5362 Clouds 24 1009 61 10000 9.3 360 15:47 10.07.2019
5363 Clouds 25 1009 61 10000 9.3 360 15:25 10.07.2019
5364 Rain 25 1008 57 10000 7.7 360 14:48 10.07.2019
5365 Rain 25 1008 57 10000 7.7 360 14:28 10.07.2019
5366 Rain 25 1008 58 10000 4.6 20 13:56 10.07.2019
5367 Rain 26 1008 58 10000 4.6 20 13:36 10.07.2019
5368 Clouds 25 1008 58 10000 4.6 10 13:18 10.07.2019
5369 Clouds 25 1008 61 10000 5.7 10 12:40 10.07.2019
5370 Clouds 25 1008 61 10000 5.7 10 12:21 10.07.2019
5371 Rain 25 1009 65 10000 5.1 40 11:47 10.07.2019
5372 Rain 25 1009 61 10000 5.1 30 11:22 10.07.2019
5373 Rain 25 1009 61 10000 5.1 30 10:58 10.07.2019
5374 Clouds 24 1009 69 10000 6.7 30 10:24 10.07.2019
5375 Clouds 24 1009 69 10000 6.7 30 09:55 10.07.2019
5376 Clouds 24 1009 73 10000 6.7 10 09:36 10.07.2019
5377 Rain 24 1009 73 10000 6.2 30 09:18 10.07.2019
5378 Rain 24 1010 73 10000 6.2 10 08:45 10.07.2019
5379 Clouds 24 1009 73 10000 7.2 350 08:22 10.07.2019
5380 Clouds 24 1010 88 10000 4.6 30 07:45 10.07.2019
5381 Clouds 24 1009 73 10000 5.1 10 07:23 10.07.2019
5382 Clear 24 1009 69 10000 6.2 30 06:33 10.07.2019
5383 Clear 23 1009 78 10000 5.1 20 05:40 10.07.2019
5384 Clear 23 1009 69 10000 6.2 10 04:30 10.07.2019
5385 Clear 23 1009 65 10000 2.6 40 01:49 10.07.2019
5386 Clear 23 1009 65 10000 2.6 40 01:49 10.07.2019
5387 Clear 25 1009 54 10000 2.1 60 00:43 10.07.2019
5388 Clear 25 1010 48 10000 2.1 70 23:42 09.07.2019
5389 Clear 25 1010 51 10000 2.6 50 23:23 09.07.2019
5390 Clear 25 1010 51 10000 2.6 50 22:57 09.07.2019
5391 Clear 25 1010 51 10000 2.6 60 22:36 09.07.2019
5392 Clear 26 1011 51 7000 4.6 40 22:18 09.07.2019
5393 Clear 26 1010 51 7000 4.6 50 21:43 09.07.2019
5394 Clear 26 1010 51 7000 4.6 50 21:25 09.07.2019
5395 Clear 27 1010 42 10000 4.1 40 20:44 09.07.2019
5396 Clear 27 1010 42 10000 4.1 40 20:26 09.07.2019
5397 Clear 27 1009 42 10000 4.6 70 19:44 09.07.2019
5398 Clear 28 1009 42 10000 4.6 70 19:26 09.07.2019
5399 Clear 29 1009 45 10000 3.1 160 18:49 09.07.2019
5400 Clear 29 1009 45 10000 3.1 160 18:27 09.07.2019
5401 Clear 29 1009 45 10000 3.1 160 18:27 09.07.2019
5402 Clear 29 1010 48 10000 3.1 240 17:58 09.07.2019
5403 Clear 29 1010 48 10000 3.1 240 17:40 09.07.2019
5404 Clouds 29 1010 42 10000 3.1 220 17:20 09.07.2019
5405 Clouds 30 1010 42 10000 3.1 220 16:50 09.07.2019
5406 Clouds 30 1010 38 10000 4.1 230 16:25 09.07.2019
5407 Clouds 30 1011 38 10000 3.1 250 15:56 09.07.2019
5408 Clouds 30 1011 38 10000 3.1 250 15:36 09.07.2019
5409 Clouds 30 1011 51 10000 5.1 250 14:59 09.07.2019
5410 Clouds 30 1011 51 10000 5.1 250 14:40 09.07.2019
5411 Clouds 30 1011 43 10000 3.6 200 14:20 09.07.2019
5412 Clouds 30 1012 43 10000 4.1 190 13:45 09.07.2019
5413 Clouds 30 1012 43 10000 4.1 190 13:27 09.07.2019
5414 Clouds 30 1012 40 10000 4.1 140 12:42 09.07.2019
5415 Clouds 29 1012 45 10000 4.1 140 12:23 09.07.2019
5416 Clouds 29 1012 45 10000 4.1 140 11:58 09.07.2019
5417 Clouds 29 1012 43 10000 4.1 140 11:40 09.07.2019
5418 Clouds 29 1013 48 10000 4.1 140 11:21 09.07.2019
5419 -273 0 0 0 0 0 10:57 09.07.2019
5420 Clouds 28 1013 45 10000 3.1 110 10:34 09.07.2019
5421 Clouds 28 1013 45 10000 3.1 110 10:34 09.07.2019
5422 Clear 28 1013 45 10000 3.6 110 09:56 09.07.2019
5423 Clear 28 1013 48 10000 3.6 110 09:37 09.07.2019
5424 Clear 28 1013 51 10000 3.6 110 09:18 09.07.2019
5425 Clear 27 1013 54 10000 3.1 70 08:41 09.07.2019
5426 Clear 23 1016 83 10000 3.1 50 04:18 05.07.2019
5427 Clear 23 1016 83 10000 3.6 30 03:39 05.07.2019
5428 Clear 23 1016 83 10000 3.6 30 03:19 05.07.2019
5429 Clear 23 1016 83 10000 4.1 50 02:49 05.07.2019
5430 Clear 24 1016 78 10000 4.1 50 01:52 05.07.2019
5431 Clear 24 1016 78 10000 4.1 20 01:27 05.07.2019
5432 Clear 24 1016 78 10000 4.1 30 00:51 05.07.2019
5433 Clear 24 1016 78 10000 4.1 30 00:27 05.07.2019
5434 Clouds 24 1016 78 10000 5.1 50 23:23 04.07.2019
5435 Clouds 24 1016 78 10000 5.1 50 23:00 04.07.2019
5436 Clear 25 1016 78 10000 5.7 40 22:40 04.07.2019
5437 Clear 25 1016 78 10000 5.7 40 22:19 04.07.2019
5438 Clear 25 1016 69 10000 6.2 50 21:44 04.07.2019
5439 Clear 25 1016 69 10000 6.2 50 21:25 04.07.2019
5440 Clear 25 1015 69 10000 5.1 40 20:58 04.07.2019
5441 Clear 25 1015 69 10000 5.7 50 20:37 04.07.2019
5442 Clear 25 1015 69 10000 7.7 20 20:18 04.07.2019
5443 Clear 26 1015 65 10000 8.2 30 19:41 04.07.2019
5444 Clear 26 1015 65 10000 8.2 30 19:21 04.07.2019
5445 Clear 27 1015 61 10000 8.7 20 18:46 04.07.2019
5446 Clear 27 1015 61 10000 8.7 20 18:28 04.07.2019
5447 Clear 27 1015 61 10000 8.2 360 17:58 04.07.2019
5448 Clear 28 1015 62 10000 6.7 30 17:40 04.07.2019
5449 Clear 28 1015 58 10000 7.2 30 17:18 04.07.2019
5450 Clear 28 1015 58 10000 7.2 30 17:18 04.07.2019
5451 Clear 28 1015 48 10000 6.7 360 15:43 04.07.2019
5452 Clear 28 1015 45 10000 5.7 30 15:24 04.07.2019
5453 Clear 29 1015 45 10000 5.7 30 14:59 04.07.2019
5454 Clear 28 1016 54 10000 5.7 30 14:38 04.07.2019
5455 Clouds 27 1016 61 10000 6.7 20 14:19 04.07.2019
5456 Clouds 27 1016 61 10000 6.7 20 13:56 04.07.2019
5457 Clouds 27 1016 61 10000 7.2 10 13:38 04.07.2019
5458 Clouds 28 1016 54 10000 6.2 30 13:18 04.07.2019
5459 Clouds 28 1016 54 10000 8.2 10 12:38 04.07.2019
5460 Clouds 29 1016 51 10000 7.2 30 12:19 04.07.2019
5461 Clouds 29 1016 51 10000 7.2 30 11:42 04.07.2019
5462 Clear 29 1016 40 10000 8.2 10 11:20 04.07.2019
5463 Clear 29 1015 37 10000 6.2 30 10:45 04.07.2019
5464 Clouds 29 1015 42 10000 5.7 40 10:27 04.07.2019
5465 Clouds 28 1015 51 10000 4.6 60 09:56 04.07.2019
5466 Clouds 28 1015 51 10000 4.6 60 09:38 04.07.2019
5467 Clouds 27 1015 54 10000 6.2 70 09:18 04.07.2019
5468 Clear 26 1015 65 10000 5.1 70 08:42 04.07.2019
5469 Clear 26 1015 69 10000 6.2 80 08:18 04.07.2019
5470 Clear 25 1015 69 10000 4.6 60 07:38 04.07.2019
5471 Clear 25 1015 73 10000 3.6 60 07:18 04.07.2019
5472 Clear 24 1015 78 10000 4.1 30 06:20 04.07.2019
5473 Clear 23 1015 78 10000 2.6 30 05:41 04.07.2019
5474 Clear 23 1015 78 10000 5.7 20 03:48 04.07.2019
5475 Clear 24 1015 73 10000 5.1 40 01:52 04.07.2019
5476 Clear 24 1015 73 10000 5.1 40 01:26 04.07.2019
5477 Clear 24 1015 78 10000 6.7 20 00:39 04.07.2019
5478 Clear 24 1015 83 10000 9.3 10 23:52 03.07.2019
5479 Clear 24 1014 78 10000 6.7 20 23:21 03.07.2019
5480 Clear 24 1013 78 10000 6.7 20 22:56 03.07.2019
5481 Clear 24 1013 78 10000 6.7 20 22:37 03.07.2019
5482 Clear 24 1013 69 10000 4.6 40 22:19 03.07.2019
5483 Clear 25 1012 69 10000 4.6 60 21:54 03.07.2019
5484 Clear 25 1012 69 10000 4.6 60 21:35 03.07.2019
5485 Clear 25 1012 74 10000 5.7 50 20:48 03.07.2019
5486 Clear 25 1012 74 10000 5.7 50 20:29 03.07.2019
5487 Clear 25 1012 65 10000 6.7 30 19:59 03.07.2019
5488 Clear 26 1012 61 10000 6.2 20 19:40 03.07.2019
5489 Clear 26 1012 61 10000 6.2 20 18:58 03.07.2019
5490 Clear 27 1012 58 10000 7.2 20 18:39 03.07.2019
5491 Clear 27 1011 51 10000 7.2 30 18:20 03.07.2019
5492 Clear 28 1011 48 10000 7.7 20 17:49 03.07.2019
5493 Clear 29 1011 52 10000 8.2 10 17:19 03.07.2019
5494 Clear 29 1012 46 10000 7.2 20 16:45 03.07.2019
5495 Clear 29 1012 46 10000 7.2 20 16:24 03.07.2019
5496 Clear 30 1012 43 10000 6.7 10 15:55 03.07.2019
5497 Clear 30 1012 43 10000 5.1 20 15:37 03.07.2019
5498 Clear 30 1012 43 10000 5.1 360 15:18 03.07.2019
5499 Clear 30 1012 43 10000 4.6 40 14:43 03.07.2019
5500 Clear 30 1012 43 10000 4.6 40 14:20 03.07.2019
5501 Clear 30 1012 52 10000 4.1 30 13:45 03.07.2019
5502 Clear 29 1012 52 10000 4.1 30 13:27 03.07.2019
5503 Clear 28 1012 69 10000 4.1 210 12:51 03.07.2019
5504 Clear 28 1012 74 10000 3.6 200 12:19 03.07.2019
5505 Clear 28 1012 65 10000 2.6 180 11:43 03.07.2019
5506 Clear 28 1012 65 10000 2.6 180 11:43 03.07.2019
5507 Clear 27 1012 65 10000 2.6 180 11:23 03.07.2019
5508 Clear 27 1012 69 10000 3.1 120 10:58 03.07.2019
5509 Clear 27 1012 69 10000 4.1 130 10:37 03.07.2019
5510 Clear 27 1012 61 10000 3.6 90 10:19 03.07.2019
5511 Clear 26 1012 65 10000 3.1 70 09:40 03.07.2019
5512 Clear 26 1012 65 10000 3.1 70 09:40 03.07.2019
5513 Clear 25 1013 69 10000 3.6 40 09:20 03.07.2019
5514 Clear 25 1013 69 10000 4.6 60 08:50 03.07.2019
5515 Clear 25 1013 69 10000 4.6 60 08:28 03.07.2019
5516 Clear 23 1012 78 10000 4.1 60 07:42 03.07.2019
5517 Clear 23 1012 83 10000 3.6 40 07:21 03.07.2019
5518 Clear 22 1012 78 10000 2.6 50 06:27 03.07.2019
5519 Clouds 21 1012 78 10000 2.6 30 05:34 03.07.2019
5520 Clear 21 1012 78 10000 2.1 40 04:42 03.07.2019
5521 Clear 22 1011 88 10000 4.6 30 03:24 03.07.2019
5522 Clear 21 1012 78 10000 4.1 50 01:59 03.07.2019
5523 Clear 21 1012 78 10000 4.1 50 01:21 03.07.2019
5524 Clear 22 1012 73 10000 3.6 60 00:46 03.07.2019
5525 Clear 22 1012 73 10000 3.6 60 00:24 03.07.2019
5526 Clear 22 1013 83 10000 5.7 60 23:38 02.07.2019
5527 Clear 22 1013 78 10000 6.2 60 23:20 02.07.2019
5528 Clear 23 1013 73 10000 6.2 60 22:57 02.07.2019
5529 Clear 23 1013 73 10000 6.2 60 22:38 02.07.2019
5530 Clear 24 1013 73 10000 6.2 60 22:19 02.07.2019
5531 Clear 24 1013 73 10000 6.7 60 21:44 02.07.2019
5532 Clear 24 1013 73 10000 6.7 60 21:23 02.07.2019
5533 Clear 24 1012 69 10000 6.2 40 20:58 02.07.2019
5534 Clear 24 1012 69 10000 6.2 40 20:39 02.07.2019
5535 Clear 25 1012 65 10000 5.7 30 20:21 02.07.2019
5536 Clear 25 1012 61 10000 6.7 40 19:43 02.07.2019
5537 Clear 25 1012 61 10000 7.2 50 19:23 02.07.2019
5538 Clear 26 1012 57 10000 7.2 20 18:50 02.07.2019
5539 Clear 26 1012 51 10000 7.7 20 18:19 02.07.2019
5540 Clear 27 1011 48 10000 8.2 20 17:45 02.07.2019
5541 Clear 27 1011 48 10000 8.2 20 17:24 02.07.2019
5542 Clear 27 1012 45 10000 8.2 20 16:55 02.07.2019
5543 Clear 28 1012 42 10000 7.2 40 16:35 02.07.2019
5544 Clear 28 1013 40 10000 7.7 20 15:59 02.07.2019
5545 Clear 28 1013 40 10000 7.7 20 15:38 02.07.2019
5546 Clear 28 1013 38 10000 4.1 30 15:20 02.07.2019
5547 Clouds 28 1013 61 10000 8.7 40 14:41 02.07.2019
5548 Clouds 29 1014 61 10000 7.7 10 14:22 02.07.2019
5549 Clouds 29 1014 65 10000 8.2 40 13:43 02.07.2019
5550 Clouds 29 1014 65 10000 7.7 40 13:19 02.07.2019
5551 Clouds 29 1014 65 10000 7.2 30 12:44 02.07.2019
5552 Clouds 29 1014 69 10000 7.2 40 12:23 02.07.2019
5553 Clouds 28 1014 48 10000 6.2 40 11:44 02.07.2019
5554 Clouds 28 1014 48 10000 6.2 40 11:44 02.07.2019
5555 Clouds 28 1014 73 10000 6.2 40 11:24 02.07.2019
5556 Clouds 28 1014 51 10000 6.2 40 10:58 02.07.2019
5557 Clouds 28 1014 55 10000 2.1 50 10:37 02.07.2019
5558 Clouds 27 1014 54 10000 1.5 40 10:18 02.07.2019
5559 Clear 26 1014 61 10000 2.6 60 09:23 02.07.2019
5560 Clouds 26 1015 65 10000 7.2 60 08:59 02.07.2019
5561 Clouds 25 1015 65 10000 7.2 60 08:38 02.07.2019
5562 Clouds 25 1015 69 10000 7.2 60 08:19 02.07.2019
5563 Clear 24 1014 73 10000 3.6 40 07:43 02.07.2019
5564 Clear 24 1015 65 10000 3.1 40 07:20 02.07.2019
5565 Clear 22 1015 68 10000 2.6 40 06:38 02.07.2019
5566 Clear 21 1015 68 10000 2.6 40 05:46 02.07.2019
5567 Clear 20 1016 64 10000 5.1 70 02:43 02.07.2019
5568 Clear 21 1017 60 10000 6.2 80 00:31 02.07.2019
5569 Clear 22 1017 64 10000 3.1 30 23:39 01.07.2019
5570 Clear 22 1017 64 10000 2.6 30 23:19 01.07.2019
5571 Clear 22 1017 60 10000 3.6 30 22:42 01.07.2019
5572 Clear 22 1017 60 10000 3.1 30 22:24 01.07.2019
5573 Clear 23 1017 57 10000 2.6 40 21:45 01.07.2019
5574 Clear 23 1017 57 10000 2.6 40 21:25 01.07.2019
5575 Clear 23 1017 47 10000 3.6 40 20:51 01.07.2019
5576 Clear 24 1017 60 10000 6.2 70 20:21 01.07.2019
5577 Clear 24 1017 44 10000 3.1 40 19:56 01.07.2019
5578 Clear 24 1017 57 10000 6.7 70 19:37 01.07.2019
5579 Clear 25 1018 57 10000 7.2 70 19:18 01.07.2019
5580 Clear 25 1017 42 10000 2.1 60 18:44 01.07.2019
5581 Clear 25 1017 42 10000 2.1 60 18:26 01.07.2019
5582 Clear 26 1018 53 10000 7.2 60 17:47 01.07.2019
5583 Clear 26 1018 44 10000 4.6 40 17:26 01.07.2019
5584 Clear 27 1019 44 10000 4.6 30 16:57 01.07.2019
5585 Clear 27 1019 44 10000 4.1 30 16:39 01.07.2019
5586 Clear 27 1019 44 10000 4.1 30 16:21 01.07.2019
5587 Clear 27 1019 42 10000 4.6 30 15:44 01.07.2019
5588 Clear 27 1019 42 10000 4.1 30 15:23 01.07.2019
5589 Clear 27 1019 44 10000 4.1 150 14:44 01.07.2019
5590 Clear 27 1019 44 10000 4.1 150 14:20 01.07.2019
5591 Clear 27 1019 44 10000 2.6 140 13:48 01.07.2019
5592 Clear 27 1019 44 10000 3.6 130 13:24 01.07.2019
5593 Clear 26 1019 47 10000 4.1 140 12:58 01.07.2019
5594 Clear 26 1018 47 10000 4.1 140 12:38 01.07.2019
5595 Clear 26 1018 47 10000 4.1 140 12:20 01.07.2019
5596 Clear 26 1019 47 10000 3.6 150 11:45 01.07.2019
5597 Clear 26 1019 47 10000 3.6 150 11:23 01.07.2019
5598 Clear 25 1019 50 10000 3.6 150 10:48 01.07.2019
5599 Clear 25 1019 50 10000 3.6 150 10:25 01.07.2019
5600 Clear 24 1019 53 10000 3.6 160 09:59 01.07.2019
5601 Clear 24 1019 53 10000 3.6 160 09:40 01.07.2019
5602 Clear 24 1019 50 10000 4.1 130 09:21 01.07.2019
5603 Clear 23 1019 53 10000 3.6 120 08:38 01.07.2019
5604 Clear 23 1019 53 10000 3.6 120 08:38 01.07.2019
5605 Clear 23 1019 53 10000 3.6 120 08:19 01.07.2019
5606 Clear 21 1019 49 10000 2.6 70 07:28 01.07.2019
5607 Clear 20 1019 53 10000 2.1 40 06:30 01.07.2019
5608 Clear 20 1020 53 10000 2.1 60 02:27 01.07.2019
5609 Clear 20 1020 53 10000 2.6 60 00:50 01.07.2019
5610 Clear 20 1020 53 10000 3.1 50 00:30 01.07.2019
5611 Clear 20 1020 53 10000 2.1 60 23:57 30.06.2019
5612 Clear 22 1020 49 10000 3.1 60 23:22 30.06.2019
5613 Clear 22 1020 49 10000 2.6 50 22:53 30.06.2019
5614 Clear 22 1020 49 10000 3.1 60 22:22 30.06.2019
5615 Clear 22 1020 49 10000 4.1 60 21:44 30.06.2019
5616 Clear 22 1020 49 10000 4.1 60 21:26 30.06.2019
5617 Clear 22 1020 49 10000 3.6 40 20:58 30.06.2019
5618 Clear 23 1020 49 10000 3.6 40 20:39 30.06.2019
5619 Clear 23 1019 44 10000 4.1 30 20:21 30.06.2019
5620 Clear 23 1019 44 10000 4.1 30 19:45 30.06.2019
5621 Clear 24 1019 41 10000 5.7 30 19:25 30.06.2019
5622 Clear 24 1019 47 10000 6.7 50 18:39 30.06.2019
5623 Clouds 24 1019 44 10000 7.2 30 18:20 30.06.2019
5624 Clouds 25 1019 36 10000 7.7 20 17:40 30.06.2019
5625 Clouds 25 1019 36 10000 7.7 20 17:18 30.06.2019
5626 Clouds 25 1019 39 10000 6.2 10 16:49 30.06.2019
5627 Clouds 25 1019 41 10000 7.7 10 16:31 30.06.2019
5628 Clouds 26 1019 39 10000 8.2 360 15:38 30.06.2019
5629 Clouds 26 1019 39 10000 8.2 360 15:19 30.06.2019
5630 Clouds 26 1019 39 10000 8.2 20 14:55 30.06.2019
5631 Clouds 26 1019 41 10000 6.7 10 14:36 30.06.2019
5632 Clouds 26 1019 39 10000 7.2 10 13:57 30.06.2019
5633 Clouds 26 1019 36 10000 8.2 40 13:37 30.06.2019
5634 Clouds 26 1019 36 10000 8.2 40 13:18 30.06.2019
5635 Clouds 26 1019 32 10000 7.2 20 12:42 30.06.2019
5636 Clouds 26 1019 32 10000 7.2 20 12:20 30.06.2019
5637 Clouds 25 1019 30 10000 7.2 10 11:45 30.06.2019
5638 Clouds 25 1018 36 10000 6.2 20 11:22 30.06.2019
5639 Clouds 25 1018 41 10000 5.7 360 10:55 30.06.2019
5640 Clouds 24 1018 47 10000 5.7 350 10:36 30.06.2019
5641 Clouds 24 1018 47 10000 5.7 350 10:18 30.06.2019
5642 Clouds 24 1018 44 10000 4.6 360 09:43 30.06.2019
5643 Clouds 24 1018 47 10000 3.6 350 09:21 30.06.2019
5644 Clouds 23 1018 56 10000 4.6 350 08:40 30.06.2019
5645 Clouds 23 1018 56 10000 4.6 350 08:22 30.06.2019
5646 Rain 21 1018 49 10000 3.1 10 07:51 30.06.2019
5647 Rain 20 1018 53 10000 1.5 350 07:26 30.06.2019
5648 Clear 19 1018 63 10000 2.1 360 06:37 30.06.2019
5649 Clear 17 1017 63 10000 2.6 340 04:48 30.06.2019
5650 Clear 18 1017 59 10000 3.1 340 02:27 30.06.2019
5651 Clear 19 1017 52 10000 2.6 10 01:23 30.06.2019
5652 Clear 20 1017 46 10000 3.1 40 00:24 30.06.2019
5653 Clear 20 1017 46 10000 2.1 60 23:53 29.06.2019
5654 Clear 21 1017 46 10000 2.6 60 23:23 29.06.2019
5655 Clear 21 1017 46 10000 3.1 60 22:52 29.06.2019
5656 Clear 21 1018 43 10000 4.1 60 22:25 29.06.2019
5657 Clear 22 1018 40 10000 4.6 60 21:57 29.06.2019
5658 -273 0 0 0 0 0 21:56 29.06.2019
5659 Clear 22 1017 43 10000 5.1 60 21:38 29.06.2019
5660 Clear 22 1017 43 10000 5.1 60 21:19 29.06.2019
5661 Clear 22 1017 43 10000 6.2 40 20:36 29.06.2019
5662 Clear 22 1017 43 10000 6.2 40 20:18 29.06.2019
5663 Clear 23 1017 41 10000 7.2 30 19:43 29.06.2019
5664 Clear 23 1017 41 10000 7.2 30 19:22 29.06.2019
5665 Clear 24 1017 41 10000 8.7 20 18:48 29.06.2019
5666 Clear 24 1017 41 10000 8.7 20 18:25 29.06.2019
5667 Clear 25 1016 34 10000 9.3 20 17:40 29.06.2019
5668 Clear 25 1016 34 10000 9.3 20 17:21 29.06.2019
5669 Clear 25 1016 41 10000 8.7 20 16:51 29.06.2019
5670 Clear 25 1016 41 10000 9.3 20 16:28 29.06.2019
5671 Clouds 25 1015 39 10000 8.7 10 15:37 29.06.2019
5672 Clouds 26 1015 39 10000 8.7 10 15:19 29.06.2019
5673 Clouds 26 1015 44 10000 9.8 10 14:41 29.06.2019
5674 Clouds 26 1015 44 10000 9.8 10 14:23 29.06.2019
5675 Clouds 26 1015 44 10000 9.3 10 13:44 29.06.2019
5676 Clouds 26 1015 44 10000 8.7 20 13:26 29.06.2019
5677 Clouds 25 1015 47 10000 9.8 10 12:45 29.06.2019
5678 Clouds 26 1015 47 10000 9.8 10 12:26 29.06.2019
5679 Clouds 26 1015 50 10000 10.3 10 11:51 29.06.2019
5680 Clouds 26 1015 47 10000 9.3 10 11:30 29.06.2019
5681 Clouds 26 1014 47 10000 8.2 20 10:53 29.06.2019
5682 Clouds 26 1014 47 10000 8.7 10 10:32 29.06.2019
5683 Clouds 26 1014 50 10000 7.7 10 09:58 29.06.2019
5684 Clouds 26 1014 50 10000 8.2 10 09:36 29.06.2019
5685 Rain 25 1014 54 10000 8.2 20 08:41 29.06.2019
5686 Clouds 24 1013 73 10000 3.6 40 07:46 29.06.2019
5687 Clouds 24 1013 73 10000 3.6 40 07:21 29.06.2019
5688 Rain 23 1013 64 10000 3.6 60 06:43 29.06.2019
5689 Rain 23 1013 64 10000 3.6 60 06:21 29.06.2019
5690 Clear 24 1012 61 10000 5.1 50 02:30 29.06.2019
5691 Clear 24 1012 65 10000 7.2 50 00:57 29.06.2019
5692 Clear 24 1012 65 10000 6.2 50 00:23 29.06.2019
5693 Clouds 24 1012 69 10000 6.7 50 23:26 28.06.2019
5694 Clouds 24 1011 69 10000 5.7 60 22:53 28.06.2019
5695 Clouds 25 1011 65 10000 6.7 60 22:33 28.06.2019
5696 Clouds 25 1011 69 10000 5.1 50 21:47 28.06.2019
5697 Clouds 25 1011 65 10000 6.2 40 21:21 28.06.2019
5698 Clouds 25 1010 69 10000 7.2 40 20:46 28.06.2019
5699 Clouds 25 1010 69 10000 7.2 40 20:26 28.06.2019
5700 Clouds 25 1010 69 10000 8.2 40 19:53 28.06.2019
5701 Clouds 26 1010 69 10000 8.2 30 19:28 28.06.2019
5702 Clouds 26 1009 65 10000 9.3 50 18:56 28.06.2019
5703 Clouds 27 1009 58 10000 8.2 20 18:38 28.06.2019
5704 Clouds 27 1009 58 10000 8.2 20 18:20 28.06.2019
5705 Clouds 26 1009 83 10000 9.8 30 17:30 28.06.2019
5706 Clouds 27 1009 65 10000 8.2 30 16:51 28.06.2019
5707 Clouds 27 1009 58 10000 9.3 10 16:27 28.06.2019
5708 Clouds 29 1009 51 10000 8.2 20 15:48 28.06.2019
5709 Clouds 29 1008 52 10000 9.8 10 15:24 28.06.2019
5710 Clouds 28 1009 55 10000 8.2 360 14:56 28.06.2019
5711 Clouds 29 1009 55 10000 8.7 360 14:37 28.06.2019
5712 Rain 29 1009 58 10000 8.7 360 14:18 28.06.2019
5713 Clouds 28 1009 66 10000 8.2 10 13:42 28.06.2019
5714 Clouds 28 1009 66 10000 8.2 10 13:20 28.06.2019
5715 Clouds 27 1009 74 10000 3.1 0 12:47 28.06.2019
5716 Clouds 27 1009 74 10000 3.6 190 11:56 28.06.2019
5717 Clouds 28 1009 74 10000 3.6 200 11:26 28.06.2019
5718 Clear 27 1009 74 10000 3.1 190 10:46 28.06.2019
5719 Clear 27 1009 74 10000 3.1 170 10:22 28.06.2019
5720 Clear 26 1009 69 10000 3.1 180 09:49 28.06.2019
5721 Clear 26 1009 74 10000 4.1 210 09:30 28.06.2019
5722 Clear 26 1009 78 10000 2.1 180 08:48 28.06.2019
5723 Clear 26 1009 65 10000 2.6 220 08:26 28.06.2019
5724 Clear 24 1009 69 10000 1.5 240 07:53 28.06.2019
5725 Clear 24 1009 73 8000 1 0 07:35 28.06.2019
5726 Clear 21 1009 83 7000 0.5 0 06:33 28.06.2019
5727 Clear 22 1011 73 10000 1.5 40 01:42 28.06.2019
5728 Clear 23 1011 69 10000 1.5 40 00:44 28.06.2019
5729 Clear 22 1011 69 10000 3.1 60 23:55 27.06.2019
5730 Clear 23 1012 65 10000 3.1 70 23:37 27.06.2019
5731 Clear 23 1012 65 10000 3.1 70 23:18 27.06.2019
5732 Clear 23 1012 61 10000 4.1 50 22:41 27.06.2019
5733 Clear 24 1012 61 10000 4.1 50 22:22 27.06.2019
5734 Clear 24 1012 61 10000 4.1 40 21:49 27.06.2019
5735 Clear 25 1012 65 10000 4.1 30 21:31 27.06.2019
5736 Clear 25 1012 61 10000 4.6 20 20:57 27.06.2019
5737 Clear 26 1012 61 10000 4.6 20 20:39 27.06.2019
5738 Clear 26 1011 51 10000 4.6 30 20:19 27.06.2019
5739 Clear 26 1012 45 10000 5.7 40 19:44 27.06.2019
5740 Clear 27 1012 39 10000 5.1 50 19:25 27.06.2019
5741 Clear 28 1012 35 10000 6.2 50 18:43 27.06.2019
5742 Clear 28 1012 27 10000 7.2 50 18:21 27.06.2019
5743 Clear 28 1012 28 10000 6.7 50 17:45 27.06.2019
5744 Clear 29 1012 28 10000 7.7 60 17:22 27.06.2019
5745 Clear 29 1013 31 10000 6.2 50 16:41 27.06.2019
5746 Clear 30 1013 31 10000 6.2 50 16:20 27.06.2019
5747 Clear 30 1013 29 10000 8.2 60 15:58 27.06.2019
5748 Clouds 30 1013 35 10000 7.2 50 15:40 27.06.2019
5749 Clouds 30 1013 35 10000 7.2 60 14:59 27.06.2019
5750 Clouds 30 1013 35 10000 7.2 60 14:39 27.06.2019
5751 Clouds 30 1014 38 10000 8.2 50 14:21 27.06.2019
5752 Clouds 30 1014 38 10000 7.7 30 13:44 27.06.2019
5753 Clouds 30 1014 31 10000 8.7 30 13:25 27.06.2019
5754 Clouds 30 1014 38 10000 8.2 20 12:49 27.06.2019
5755 Clouds 30 1015 33 10000 8.7 20 12:31 27.06.2019
5756 Clouds 30 1015 40 10000 8.2 30 11:49 27.06.2019
5757 Clouds 29 1015 45 10000 7.2 20 11:25 27.06.2019
5758 -273 0 0 0 0 0 10:59 27.06.2019
5759 Clouds 29 1016 45 10000 4.6 50 10:41 27.06.2019
5760 Clouds 28 1016 45 10000 4.6 50 10:20 27.06.2019
5761 Clouds 28 1016 48 10000 7.2 50 09:49 27.06.2019
5762 Clouds 28 1016 54 10000 6.7 40 09:21 27.06.2019
5763 Clouds 27 1016 58 10000 7.2 40 08:51 27.06.2019
5764 Clouds 27 1016 61 10000 6.7 60 08:30 27.06.2019
5765 Clouds 26 1016 65 10000 6.7 40 07:48 27.06.2019
5766 Clouds 26 1016 65 10000 6.7 40 07:48 27.06.2019
5767 Clouds 26 1016 65 10000 7.2 50 07:24 27.06.2019
5768 Clear 25 1016 74 9000 5.1 40 06:39 27.06.2019
5769 Clear 25 1016 74 10000 6.2 50 03:53 27.06.2019
5770 Clear 25 1016 74 10000 6.2 40 02:43 27.06.2019
5771 Clear 25 1016 74 10000 5.7 50 01:46 27.06.2019
5772 Clouds 25 1016 74 10000 7.2 50 00:54 27.06.2019
5773 Clouds 25 1016 78 10000 7.2 50 00:29 27.06.2019
5774 Clouds 26 1016 78 10000 7.2 60 23:52 26.06.2019
5775 Clouds 26 1016 78 10000 6.2 40 23:23 26.06.2019
5776 Clouds 26 1017 74 10000 6.2 40 22:59 26.06.2019
5777 Clouds 26 1017 74 10000 6.2 40 22:40 26.06.2019
5778 Clouds 26 1017 74 10000 6.2 40 22:20 26.06.2019
5779 Clouds 26 1017 74 10000 5.7 40 21:43 26.06.2019
5780 Clouds 26 1017 74 10000 6.2 40 21:22 26.06.2019
5781 Clouds 26 1017 69 10000 6.7 50 20:58 26.06.2019
5782 Clouds 26 1017 69 10000 6.7 40 20:39 26.06.2019
5783 Clouds 26 1017 69 10000 6.7 40 20:39 26.06.2019
5784 Clouds 26 1017 69 10000 6.7 40 20:21 26.06.2019
5785 Clouds 27 1017 69 10000 7.2 40 19:44 26.06.2019
5786 Clouds 27 1017 69 10000 7.7 30 19:25 26.06.2019
5787 Clouds 27 1016 65 10000 8.2 40 18:48 26.06.2019
5788 Clouds 28 1016 62 10000 9.3 40 18:23 26.06.2019
5789 Clouds 28 1016 62 10000 8.7 20 17:59 26.06.2019
5790 Clouds 28 1016 66 10000 8.2 30 17:38 26.06.2019
5791 Clouds 28 1016 66 10000 8.2 30 17:19 26.06.2019
5792 Rain 28 1016 62 10000 10.3 20 16:46 26.06.2019
5793 Clouds 29 1016 51 10000 9.3 30 16:24 26.06.2019
5794 Clouds 28 1017 62 10000 8.2 30 15:42 26.06.2019
5795 Clouds 29 1017 62 10000 8.2 30 15:23 26.06.2019
5796 Clouds 29 1017 58 10000 9.3 20 14:38 26.06.2019
5797 Clouds 29 1017 58 10000 9.3 20 14:20 26.06.2019
5798 Clouds 29 1017 58 10000 8.2 30 13:44 26.06.2019
5799 Clouds 30 1017 55 10000 8.2 30 13:21 26.06.2019
5800 Clouds 29 1017 58 10000 9.8 20 12:42 26.06.2019
5801 Clouds 29 1017 58 10000 9.8 20 12:42 26.06.2019
5802 Clouds 29 1017 58 10000 9.8 20 12:42 26.06.2019
5803 Clouds 29 1017 58 10000 9.3 30 12:23 26.06.2019
5804 Clouds 29 1017 58 10000 8.7 40 11:49 26.06.2019
5805 Clouds 29 1017 55 10000 8.7 20 11:21 26.06.2019
5806 Clouds 28 1017 55 10000 7.2 40 10:46 26.06.2019
5807 Rain 28 1017 55 10000 7.2 40 10:27 26.06.2019
5808 Clouds 28 1017 58 10000 5.7 50 09:49 26.06.2019
5809 Clouds 27 1017 62 10000 6.2 50 09:20 26.06.2019
5810 Clouds 27 1017 65 10000 6.2 60 08:49 26.06.2019
5811 Clouds 26 1017 65 10000 6.7 60 08:20 26.06.2019
5812 Clear 26 1017 69 10000 6.2 50 07:46 26.06.2019
5813 Clouds 25 1017 78 10000 6.2 60 07:25 26.06.2019
5814 Clouds 24 1016 78 10000 4.1 60 06:32 26.06.2019
5815 Clear 24 1017 78 10000 4.1 30 01:28 26.06.2019
5816 Clear 24 1017 83 10000 5.1 40 00:25 26.06.2019
5817 Clear 24 1017 78 10000 4.6 40 23:47 25.06.2019
5818 Clear 24 1017 78 10000 5.1 30 23:27 25.06.2019
5819 Clear 25 1017 78 10000 5.1 20 22:57 25.06.2019
5820 Clear 25 1017 78 10000 4.6 40 22:39 25.06.2019
5821 Clear 25 1017 78 10000 4.6 40 22:20 25.06.2019
5822 Clear 25 1017 74 10000 6.2 40 21:43 25.06.2019
5823 Clear 26 1016 69 10000 5.7 40 21:22 25.06.2019
5824 Clouds 26 1016 69 10000 5.7 40 20:46 25.06.2019
5825 Clouds 26 1016 69 10000 5.7 40 20:46 25.06.2019
5826 Clouds 26 1016 69 10000 5.7 40 20:22 25.06.2019
5827 Clear 27 1016 65 10000 6.7 40 19:48 25.06.2019
5828 Clouds 27 1016 65 10000 6.2 30 19:23 25.06.2019
5829 Clear 28 1015 58 10000 6.7 40 18:59 25.06.2019
5830 Clouds 28 1015 62 10000 6.2 40 18:40 25.06.2019
5831 Clouds 28 1015 62 10000 6.2 40 18:21 25.06.2019
5832 -273 0 0 0 0 0 17:32 25.06.2019
5833 -273 0 0 0 0 0 17:32 25.06.2019
5834 Clouds 28 1015 58 10000 8.7 20 16:59 25.06.2019
5835 Clouds 29 1015 58 10000 8.7 20 16:40 25.06.2019
5836 Clouds 29 1015 48 10000 8.2 20 16:22 25.06.2019
5837 Clouds 29 1015 51 10000 7.7 10 15:43 25.06.2019
5838 Clouds 30 1015 55 10000 8.2 10 15:24 25.06.2019
5839 Clouds 30 1015 52 10000 8.2 10 14:55 25.06.2019
5840 -273 0 0 0 0 0 14:36 25.06.2019
5841 Clouds 30 1015 52 10000 7.7 10 13:50 25.06.2019
5842 Clouds 30 1015 43 10000 7.7 20 13:30 25.06.2019
5843 Clouds 30 1015 45 10000 8.2 10 12:58 25.06.2019
5844 Clouds 29 1015 48 10000 7.2 30 12:38 25.06.2019
5845 Clouds 29 1015 48 10000 7.2 30 12:20 25.06.2019
5846 Clouds 29 1016 58 10000 8.2 10 11:44 25.06.2019
5847 Clouds 29 1016 51 10000 7.7 10 11:21 25.06.2019
5848 Clouds 29 1016 51 10000 5.7 40 10:45 25.06.2019
5849 Clouds 29 1016 51 10000 5.7 40 10:23 25.06.2019
5850 Clouds 28 1016 55 10000 6.2 20 09:56 25.06.2019
5851 Clouds 28 1016 55 10000 6.2 20 09:38 25.06.2019
5852 Clouds 28 1015 55 10000 5.1 30 09:19 25.06.2019
5853 Clouds 27 1015 51 10000 6.2 50 08:47 25.06.2019
5854 Clouds 27 1015 58 10000 6.2 30 08:28 25.06.2019
5855 Clouds 26 1016 69 10000 9.3 50 07:40 25.06.2019
5856 Clouds 25 1015 78 10000 5.7 30 06:58 25.06.2019
5857 Clouds 25 1015 78 10000 5.7 30 06:40 25.06.2019
5858 Clear 24 1014 83 10000 3.1 50 02:48 25.06.2019
5859 Clear 24 1014 83 10000 5.1 50 01:50 25.06.2019
5860 Clear 24 1015 74 10000 5.7 50 00:37 25.06.2019
5861 Clear 25 1015 74 10000 6.2 40 23:59 24.06.2019
5862 Clear 25 1015 61 10000 5.7 50 23:40 24.06.2019
5863 Clear 25 1015 61 10000 5.7 50 23:22 24.06.2019
5864 Clear 25 1014 61 10000 6.2 50 22:41 24.06.2019
5865 Clear 25 1014 61 10000 6.2 50 22:19 24.06.2019
5866 Clear 25 1014 54 10000 6.2 50 21:41 24.06.2019
5867 Clear 25 1014 54 10000 6.2 50 21:19 24.06.2019
5868 Clear 26 1014 48 10000 5.7 50 20:57 24.06.2019
5869 Clear 26 1014 48 10000 5.7 50 20:39 24.06.2019
5870 Clear 26 1014 48 10000 7.2 40 20:20 24.06.2019
5871 Clear 27 1013 45 10000 6.7 40 19:46 24.06.2019
5872 Clear 27 1013 45 10000 6.7 40 19:21 24.06.2019
5873 Clear 28 1013 42 10000 7.2 40 18:48 24.06.2019
5874 Clear 29 1013 38 10000 8.2 50 18:29 24.06.2019
5875 Clear 29 1013 33 10000 6.7 50 17:56 24.06.2019
5876 Clear 30 1013 33 10000 7.2 60 17:35 24.06.2019
5877 Clear 30 1013 29 10000 6.2 60 16:48 24.06.2019
5878 Clear 31 1013 31 10000 5.1 50 16:21 24.06.2019
5879 Clear 31 1013 31 10000 5.1 50 16:21 24.06.2019
5880 Clear 31 1013 27 10000 6.2 80 15:59 24.06.2019
5881 Clear 31 1013 29 10000 6.2 50 15:38 24.06.2019
5882 Clear 31 1013 29 10000 6.2 50 15:19 24.06.2019
5883 Clear 31 1013 29 10000 6.2 50 15:19 24.06.2019
5884 Clear 31 1013 29 10000 5.7 60 14:34 24.06.2019
5885 Clear 31 1014 27 10000 5.7 70 13:50 24.06.2019
5886 Clear 31 1014 29 10000 5.1 70 13:24 24.06.2019
5887 Clear 31 1014 27 10000 6.2 80 12:44 24.06.2019
5888 Clear 31 1014 31 10000 5.7 50 12:22 24.06.2019
5889 Clear 31 1014 33 10000 5.1 80 11:55 24.06.2019
5890 Clear 31 1014 29 10000 5.7 60 11:37 24.06.2019
5891 Clear 30 1014 29 10000 5.1 80 11:18 24.06.2019
5892 Clear 30 1014 29 10000 3.6 90 10:41 24.06.2019
5893 Clear 30 1014 29 10000 3.6 90 10:20 24.06.2019
5894 Clear 29 1014 35 10000 3.1 90 09:48 24.06.2019
5895 Clear 29 1014 45 10000 2.6 100 09:19 24.06.2019
5896 Clear 29 1014 37 10000 2.6 110 08:51 24.06.2019
5897 Clear 28 1014 39 10000 2.1 100 08:22 24.06.2019
5898 Clear 27 1014 42 10000 2.6 80 07:44 24.06.2019
5899 Clear 26 1014 45 10000 1.5 60 07:24 24.06.2019
5900 Clear 25 1013 54 10000 1.5 30 06:27 24.06.2019
5901 Clear 23 1013 64 10000 1.5 320 05:56 24.06.2019
5902 Clear 22 1013 68 10000 2.1 10 04:59 24.06.2019
5903 Clear 22 1013 54 10000 1.5 50 04:21 24.06.2019
5904 Clear 23 1013 65 10000 2.1 80 02:53 24.06.2019
5905 Clear 23 1014 69 10000 2.1 80 01:58 24.06.2019
5906 Clear 23 1014 69 10000 2.6 80 01:40 24.06.2019
5907 Clear 23 1014 69 10000 2.6 80 01:21 24.06.2019
5908 Clear 24 1014 61 10000 2.6 80 00:38 24.06.2019
5909 Clear 24 1014 65 10000 2.1 90 00:18 24.06.2019
5910 Clear 25 1014 57 10000 2.6 90 23:42 23.06.2019
5911 Clear 25 1014 57 10000 2.6 90 23:21 23.06.2019
5912 Clear 26 1014 57 10000 3.6 100 22:42 23.06.2019
5913 Clear 26 1014 57 10000 3.6 100 22:20 23.06.2019
5914 Clear 25 1014 48 10000 3.6 80 21:43 23.06.2019
5915 Clear 26 1014 48 10000 3.1 80 21:25 23.06.2019
5916 Clear 26 1014 42 10000 3.6 70 20:57 23.06.2019
5917 Clear 27 1014 37 10000 3.6 60 20:38 23.06.2019
5918 Clear 27 1014 37 10000 3.6 60 20:19 23.06.2019
5919 Clear 28 1014 38 10000 4.1 90 19:43 23.06.2019
5920 Clear 29 1014 38 10000 4.1 90 19:20 23.06.2019
5921 Clear 29 1014 38 10000 4.1 90 19:20 23.06.2019
5922 Clear 29 1014 48 10000 3.1 110 18:47 23.06.2019
5923 Clear 29 1014 45 10000 2.1 180 18:20 23.06.2019
5924 Clear 29 1014 54 10000 3.1 240 17:45 23.06.2019
5925 Clear 30 1014 43 10000 2.1 230 17:25 23.06.2019
5926 Clear 29 1014 58 10000 3.6 240 16:47 23.06.2019
5927 Clear 29 1014 65 10000 3.6 230 16:26 23.06.2019
5928 Clear 30 1014 58 10000 4.1 240 15:58 23.06.2019
5929 Clear 30 1014 58 10000 4.1 240 15:37 23.06.2019
5930 Clear 30 1014 51 10000 3.6 230 15:18 23.06.2019
5931 Clear 29 1015 62 10000 4.1 240 14:39 23.06.2019
5932 Clear 30 1015 62 10000 4.1 240 14:21 23.06.2019
5933 Clear 29 1015 66 10000 3.6 230 13:46 23.06.2019
5934 Clear 29 1015 69 10000 4.1 210 13:21 23.06.2019
5935 Clear 29 1015 69 10000 3.6 200 12:59 23.06.2019
5936 Clear 28 1015 69 10000 3.6 220 12:41 23.06.2019
5937 Clear 28 1015 69 10000 3.6 220 12:19 23.06.2019
5938 Clear 28 1015 74 10000 4.1 200 11:47 23.06.2019
5939 Clear 28 1015 69 10000 3.6 190 11:27 23.06.2019
5940 Clear 28 1015 69 10000 3.1 150 10:50 23.06.2019
5941 Clear 28 1015 74 10000 3.6 140 10:21 23.06.2019
5942 Clear 27 1015 74 10000 4.1 150 09:58 23.06.2019
5943 Haze 26 1015 78 10000 3.6 130 09:24 23.06.2019
5944 Clouds 26 1015 78 10000 3.6 110 08:54 23.06.2019
5945 Clouds 26 1015 78 10000 3.6 110 08:54 23.06.2019
5946 Clouds 25 1015 83 10000 3.6 120 08:36 23.06.2019
5947 Clouds 25 1015 83 10000 3.6 120 08:18 23.06.2019
5948 Mist 25 1015 83 4800 2.1 80 07:44 23.06.2019
5949 Mist 25 1015 78 10000 3.6 50 07:18 23.06.2019
5950 Mist 24 1015 83 10000 2.6 20 06:52 23.06.2019
5951 Mist 23 1015 88 10000 3.1 360 05:53 23.06.2019
5952 Mist 23 1013 88 10000 2.6 340 02:52 23.06.2019
5953 Clouds 24 1013 83 7000 2.1 120 01:39 23.06.2019
5954 Clouds 24 1013 83 7000 2.1 120 01:20 23.06.2019
5955 Clouds 24 1014 78 7000 3.1 60 00:31 23.06.2019
5956 Clouds 25 1014 78 7000 3.6 40 23:47 22.06.2019
5957 Clouds 25 1014 83 10000 3.6 360 23:26 22.06.2019
5958 Clouds 25 1014 83 10000 4.1 350 22:47 22.06.2019
5959 Clear 25 1014 74 10000 4.6 20 22:27 22.06.2019
5960 Clear 25 1014 61 10000 5.1 20 21:56 22.06.2019
5961 Clear 26 1014 61 10000 4.1 10 21:36 22.06.2019
5962 Clear 26 1014 54 10000 4.6 350 21:18 22.06.2019
5963 Clear 26 1014 54 10000 4.6 350 21:18 22.06.2019
5964 Clear 27 1013 54 10000 3.1 350 20:43 22.06.2019
5965 Clear 27 1013 54 10000 3.1 350 20:24 22.06.2019
5966 Clear 28 1013 51 10000 4.6 10 19:41 22.06.2019
5967 Clear 28 1013 51 10000 4.6 10 19:20 22.06.2019
5968 Clear 29 1013 48 10000 5.7 360 18:43 22.06.2019
5969 Clear 29 1013 48 10000 6.2 10 18:23 22.06.2019
5970 Clear 30 1013 43 10000 6.2 30 17:46 22.06.2019
5971 Clear 30 1013 45 10000 7.2 20 17:25 22.06.2019
5972 Clear 30 1013 40 10000 7.2 10 16:43 22.06.2019
5973 Clear 31 1013 46 10000 6.2 360 16:24 22.06.2019
5974 Clear 31 1013 43 10000 6.7 350 15:45 22.06.2019
5975 Clear 30 1013 46 10000 6.7 350 15:27 22.06.2019
5976 Clear 30 1013 43 10000 5.1 20 14:52 22.06.2019
5977 Clear 30 1014 46 10000 5.7 360 14:32 22.06.2019
5978 Clear 29 1014 43 10000 5.1 20 13:57 22.06.2019
5979 Clear 29 1014 70 10000 3.1 0 13:39 22.06.2019
5980 Clear 29 1014 70 10000 3.1 0 13:18 22.06.2019
5981 Clear 28 1014 74 10000 4.1 210 12:43 22.06.2019
5982 Clear 28 1014 74 10000 4.1 200 12:20 22.06.2019
5983 Clouds 27 1014 69 10000 4.1 210 11:41 22.06.2019
5984 Clouds 27 1014 74 10000 3.6 220 11:19 22.06.2019
5985 Clouds 26 1014 78 10000 3.1 220 10:22 22.06.2019
5986 Clouds 26 1013 74 10000 2.6 190 09:58 22.06.2019
5987 Clouds 26 1013 74 10000 2.6 190 09:35 22.06.2019
5988 Clouds 25 1013 78 10000 2.1 230 08:49 22.06.2019
5989 Clouds 25 1013 74 10000 1.5 0 08:31 22.06.2019
5990 Clouds 24 1013 78 10000 1.5 70 07:52 22.06.2019
5991 Clouds 24 1013 88 10000 1.5 110 07:23 22.06.2019
5992 Clear 23 1013 83 10000 0.5 0 06:40 22.06.2019
5993 Clear 23 1012 83 10000 2.6 260 03:42 22.06.2019
5994 Clear 23 1012 88 10000 1 0 02:24 22.06.2019
5995 Clear 23 1012 83 10000 1.5 200 00:52 22.06.2019
5996 Clear 23 1013 78 10000 2.1 200 00:29 22.06.2019
5997 Clear 23 1013 78 10000 2.1 200 23:49 21.06.2019
5998 Clear 24 1013 73 10000 1 0 23:23 21.06.2019
5999 Clear 24 1013 78 10000 1.5 180 22:56 21.06.2019
6000 Clear 24 1013 73 10000 2.1 180 22:32 21.06.2019
6001 Clear 24 1013 78 10000 1 0 21:58 21.06.2019
6002 Clear 24 1013 78 10000 1 170 21:38 21.06.2019
6003 Clear 24 1013 78 10000 1 170 21:19 21.06.2019
6004 Clear 24 1013 69 10000 2.6 350 20:47 21.06.2019
6005 Clear 24 1013 69 10000 2.6 350 20:25 21.06.2019
6006 Clear 24 1013 57 10000 3.1 360 19:45 21.06.2019
6007 Clear 25 1012 54 10000 2.6 40 18:59 21.06.2019
6008 Clear 25 1012 57 10000 4.1 20 18:35 21.06.2019
6009 Clear 25 1012 54 10000 4.1 30 17:58 21.06.2019
6010 Clear 26 1012 54 10000 4.1 10 17:30 21.06.2019
6011 Clouds 25 1012 54 10000 3.6 10 16:43 21.06.2019
6012 Clouds 25 1013 51 10000 5.1 10 16:23 21.06.2019
6013 Clouds 25 1013 51 10000 6.2 360 15:58 21.06.2019
6014 Clouds 25 1014 73 10000 3.6 20 15:36 21.06.2019
6015 Thunderstorm 25 1013 58 10000 6.2 10 14:54 21.06.2019
6016 Rain 25 1014 69 10000 6.2 40 14:32 21.06.2019
6017 Rain 26 1014 61 10000 5.1 20 13:59 21.06.2019
6018 Rain 25 1013 61 10000 5.1 10 13:37 21.06.2019
6019 Rain 25 1013 61 10000 5.1 10 13:19 21.06.2019
6020 Thunderstorm 26 1013 54 10000 6.2 360 12:42 21.06.2019
6021 Thunderstorm 25 1014 65 10000 5.1 30 12:22 21.06.2019
6022 Thunderstorm 25 1013 78 10000 2.6 190 11:48 21.06.2019
6023 Clouds 24 1013 83 10000 3.1 190 11:28 21.06.2019
6024 Clouds 25 1013 83 10000 3.1 190 10:56 21.06.2019
6025 Clouds 25 1013 78 10000 2.6 180 10:38 21.06.2019
6026 Clouds 25 1013 78 10000 2.6 180 10:20 21.06.2019
6027 Clouds 24 1013 83 8000 2.1 210 09:42 21.06.2019
6028 Clouds 24 1013 83 8000 2.1 210 09:21 21.06.2019
6029 Mist 24 1013 88 6000 1 0 08:45 21.06.2019
6030 -273 0 0 0 0 0 08:27 21.06.2019
6031 Mist 23 1013 88 4000 1.5 150 07:57 21.06.2019
6032 Mist 23 1013 94 4000 0.5 0 07:38 21.06.2019
6033 Mist 23 1012 94 4000 1.5 280 06:59 21.06.2019
6034 Mist 22 1012 94 2800 0.5 0 06:24 21.06.2019
6035 Mist 21 1012 94 4000 1 0 05:33 21.06.2019
6036 Fog 21 1012 94 10000 2.6 350 04:35 21.06.2019
6037 Fog 21 1011 100 1600 2.1 50 03:35 21.06.2019
6038 Mist 21 1011 88 10000 3.1 350 02:59 21.06.2019
6039 Fog 21 1012 83 10000 1.5 330 01:59 21.06.2019
6040 Fog 21 1012 83 10000 2.1 320 01:25 21.06.2019
6041 Clear 22 1012 78 10000 2.1 330 00:27 21.06.2019
6042 Clear 22 1012 78 10000 1 10 23:53 20.06.2019
6043 Clear 22 1012 83 10000 2.6 330 23:24 20.06.2019
6044 Clear 22 1012 83 10000 2.6 340 22:59 20.06.2019
6045 Clear 22 1012 83 10000 2.6 340 22:40 20.06.2019
6046 Clear 22 1012 78 10000 1 310 22:21 20.06.2019
6047 Clear 23 1012 78 10000 1 0 21:52 20.06.2019
6048 Clear 23 1012 78 10000 1 110 21:20 20.06.2019
6049 Clear 23 1011 73 10000 1 0 20:59 20.06.2019
6050 Clear 24 1011 69 10000 2.1 120 20:40 20.06.2019
6051 Clear 24 1011 69 10000 2.1 120 20:20 20.06.2019
6052 Clear 24 1011 69 10000 2.1 190 19:43 20.06.2019
6053 Clear 25 1011 69 10000 2.1 190 19:19 20.06.2019
6054 Clear 25 1011 65 10000 2.1 180 18:55 20.06.2019
6055 Clear 25 1011 61 10000 2.6 190 18:37 20.06.2019
6056 Clear 25 1011 61 10000 2.6 190 18:18 20.06.2019
6057 Clear 26 1011 65 10000 2.6 180 17:43 20.06.2019
6058 Clear 26 1010 65 10000 2.6 200 17:19 20.06.2019
6059 Clouds 26 1010 69 10000 2.6 210 16:40 20.06.2019
6060 Clouds 26 1010 69 10000 2.6 210 16:19 20.06.2019
6061 Rain 25 1011 69 10000 2.6 180 15:43 20.06.2019
6062 Rain 25 1011 69 10000 2.6 180 15:23 20.06.2019
6063 Clouds 24 1011 78 10000 2.1 190 14:54 20.06.2019
6064 Clouds 24 1011 78 10000 2.1 230 14:36 20.06.2019
6065 Clouds 24 1011 78 10000 2.1 230 14:18 20.06.2019
6066 Clouds 24 1012 83 10000 2.1 150 13:38 20.06.2019
6067 Rain 24 1012 78 10000 1.5 140 13:18 20.06.2019
6068 Rain 24 1012 83 9000 2.1 120 12:41 20.06.2019
6069 Rain 24 1012 83 9000 2.1 120 12:21 20.06.2019
6070 Rain 23 1012 83 8000 3.6 130 11:41 20.06.2019
6071 Rain 24 1012 83 8000 3.6 130 11:22 20.06.2019
6072 Rain 24 1012 83 8000 3.6 130 11:22 20.06.2019
6073 Rain 24 1012 83 8000 5.7 140 10:44 20.06.2019
6074 Rain 24 1012 83 8000 5.7 140 10:24 20.06.2019
6075 Rain 24 1011 57 10000 4.1 40 09:55 20.06.2019
6076 Thunderstorm 24 1011 65 10000 3.6 40 09:37 20.06.2019
6077 Thunderstorm 24 1011 65 10000 3.6 40 09:37 20.06.2019
6078 Thunderstorm 23 1011 65 10000 3.6 40 09:18 20.06.2019
6079 Thunderstorm 25 1011 65 10000 4.6 20 08:43 20.06.2019
6080 Thunderstorm 25 1011 65 10000 4.6 20 08:22 20.06.2019
6081 Clouds 24 1010 78 8000 5.1 10 07:44 20.06.2019
6082 Clouds 24 1010 78 8000 5.1 10 07:25 20.06.2019
6083 Rain 23 1010 83 8000 5.1 350 06:19 20.06.2019
6084 Clouds 23 1010 88 8000 3.6 320 03:41 20.06.2019
6085 Rain 23 1011 78 10000 4.39 34.689 02:26 20.06.2019
6086 Clear 22 1011 78 10000 1 170 00:33 20.06.2019
6087 Clouds 22 1011 78 10000 2.1 160 23:48 19.06.2019
6088 Clouds 22 1011 83 10000 1.5 180 23:29 19.06.2019
6089 Clear 23 1011 78 10000 2.1 160 22:49 19.06.2019
6090 Clear 23 1011 78 10000 1 0 22:24 19.06.2019
6091 Clear 23 1011 78 10000 1.5 90 21:58 19.06.2019
6092 Clear 23 1011 78 10000 1.5 90 21:58 19.06.2019
6093 Clear 23 1011 78 10000 1.5 90 21:58 19.06.2019
6094 Clouds 23 1011 78 10000 2.1 120 21:37 19.06.2019
6095 Clouds 23 1011 78 10000 2.1 120 21:19 19.06.2019
6096 Clouds 23 1011 78 10000 4.6 140 20:41 19.06.2019
6097 Clouds 23 1011 78 10000 4.6 140 20:21 19.06.2019
6098 Clear 24 1011 83 10000 5.1 120 19:46 19.06.2019
6099 Rain 24 1011 57 10000 4.1 20 19:26 19.06.2019
6100 Thunderstorm 25 1010 51 10000 5.1 20 18:56 19.06.2019
6101 Clear 26 1011 51 10000 5.1 10 18:24 19.06.2019
6102 Clouds 26 1011 54 10000 5.1 30 17:48 19.06.2019
6103 Clouds 27 1011 51 10000 5.7 20 17:26 19.06.2019
6104 Clouds 26 1011 61 10000 4.6 10 16:56 19.06.2019
6105 Clouds 27 1011 58 10000 4.6 30 16:37 19.06.2019
6106 Clouds 27 1011 58 10000 4.6 30 16:19 19.06.2019
6107 Clouds 27 1011 54 10000 5.7 40 15:44 19.06.2019
6108 Clouds 27 1011 54 10000 5.7 20 15:22 19.06.2019
6109 Clouds 27 1011 54 10000 5.7 20 15:22 19.06.2019
6110 Clouds 27 1011 54 10000 6.2 10 14:43 19.06.2019
6111 Clouds 27 1011 54 10000 6.2 10 14:43 19.06.2019
6112 Clouds 27 1011 54 10000 6.7 10 14:24 19.06.2019
6113 Clouds 27 1011 54 10000 7.2 10 13:47 19.06.2019
6114 Clouds 27 1012 51 10000 6.7 360 13:28 19.06.2019
6115 Clouds 27 1012 45 10000 4.6 70 12:57 19.06.2019
6116 Clouds 27 1012 51 10000 5.7 30 12:39 19.06.2019
6117 Clouds 27 1012 51 10000 5.7 30 12:18 19.06.2019
6118 Clouds 27 1012 61 10000 6.7 10 11:40 19.06.2019
6119 Clouds 27 1012 61 10000 6.7 10 11:21 19.06.2019
6120 Clouds 27 1012 58 10000 5.1 30 10:49 19.06.2019
6121 Clouds 27 1012 61 10000 6.2 30 10:28 19.06.2019
6122 Clouds 26 1012 61 10000 6.7 40 09:56 19.06.2019
6123 Clouds 26 1012 61 10000 4.1 50 09:37 19.06.2019
6124 Clouds 25 1012 64 10000 5.1 10 09:18 19.06.2019
6125 Clouds 24 1012 64 10000 5.1 10 08:43 19.06.2019
6126 Clouds 24 1012 73 10000 4.6 20 08:25 19.06.2019
6127 Thunderstorm 23 1012 69 10000 6.2 10 07:43 19.06.2019
6128 Thunderstorm 23 1012 69 10000 4.6 30 07:23 19.06.2019
6129 Thunderstorm 23 1011 88 10000 3.1 40 06:42 19.06.2019
6130 Thunderstorm 23 1011 88 10000 3.1 40 06:19 19.06.2019
6131 Clouds 22 1011 88 7000 2.6 340 05:32 19.06.2019
6132 Clouds 23 1012 83 10000 4.6 10 03:54 19.06.2019
6133 Clouds 23 1012 88 10000 4.1 30 02:51 19.06.2019
6134 Clouds 23 1012 88 10000 3.1 40 01:44 19.06.2019
6135 Clouds 23 1012 88 10000 3.6 350 00:56 19.06.2019
6136 Clouds 23 1012 88 10000 3.6 350 00:56 19.06.2019
6137 Clear 24 1012 83 10000 3.6 10 00:38 19.06.2019
6138 Clear 24 1012 83 10000 3.6 10 00:18 19.06.2019
6139 Clear 24 1012 83 10000 4.1 360 23:42 18.06.2019
6140 Clouds 24 1012 83 10000 5.1 360 23:24 18.06.2019
6141 Clouds 24 1012 73 10000 4.6 20 22:41 18.06.2019
6142 Clouds 24 1012 73 10000 4.6 20 22:23 18.06.2019
6143 Clouds 24 1012 73 10000 3.6 10 21:47 18.06.2019
6144 Clouds 24 1012 73 10000 4.1 40 21:23 18.06.2019
6145 Clouds 24 1012 73 10000 4.1 40 21:23 18.06.2019
6146 Clouds 24 1012 69 10000 4.6 40 20:59 18.06.2019
6147 Clouds 25 1012 65 10000 5.1 40 20:40 18.06.2019
6148 Clouds 25 1012 65 10000 5.1 40 20:21 18.06.2019
6149 Clouds 25 1012 65 10000 6.2 60 19:40 18.06.2019
6150 Clear 26 1012 61 10000 5.7 40 19:22 18.06.2019
6151 Clear 26 1012 51 10000 6.7 30 18:55 18.06.2019
6152 Clear 26 1012 51 10000 7.2 30 18:25 18.06.2019
6153 Clear 27 1011 42 10000 8.2 40 17:55 18.06.2019
6154 Clear 27 1011 42 10000 8.2 20 17:36 18.06.2019
6155 Clear 27 1011 42 10000 8.2 20 17:18 18.06.2019
6156 Clear 28 1011 40 10000 7.7 30 16:42 18.06.2019
6157 Clear 28 1011 37 10000 9.3 30 16:22 18.06.2019
6158 Clear 28 1012 42 10000 9.3 20 15:41 18.06.2019
6159 Clear 28 1012 42 10000 9.3 20 15:23 18.06.2019
6160 Clouds 29 1012 48 10000 7.7 20 14:56 18.06.2019
6161 Clouds 28 1012 42 10000 8.7 20 14:37 18.06.2019
6162 Clouds 28 1012 48 10000 8.2 30 14:18 18.06.2019
6163 Clouds 28 1012 48 10000 8.2 30 13:49 18.06.2019
6164 Clouds 28 1012 55 10000 8.7 20 13:29 18.06.2019
6165 Clouds 28 1011 58 10000 8.2 30 12:46 18.06.2019
6166 Clouds 28 1012 61 10000 8.7 30 12:28 18.06.2019
6167 Clouds 28 1013 51 10000 5.1 30 11:50 18.06.2019
6168 Clouds 28 1013 54 10000 4.6 30 11:24 18.06.2019
6169 Clear 28 1012 45 10000 5.7 10 10:59 18.06.2019
6170 Clear 27 1012 45 10000 5.7 10 10:40 18.06.2019
6171 Clouds 28 1012 54 10000 5.1 20 10:20 18.06.2019
6172 Clouds 27 1012 58 10000 5.7 360 09:51 18.06.2019
6173 Clouds 27 1012 61 10000 5.1 10 09:24 18.06.2019
6174 Clouds 26 1012 69 10000 4.6 30 08:49 18.06.2019
6175 Clouds 26 1012 69 10000 5.1 10 08:23 18.06.2019
6176 Clouds 25 1012 73 10000 4.6 10 07:55 18.06.2019
6177 Clear 25 1012 78 10000 4.6 10 07:25 18.06.2019
6178 Clear 24 1012 83 10000 4.1 20 06:52 18.06.2019
6179 Clear 23 1011 88 10000 4.1 360 05:24 18.06.2019
6180 Clear 23 1011 88 10000 3.1 360 04:21 18.06.2019
6181 Clear 23 1011 88 10000 4.6 340 02:45 18.06.2019
6182 Clear 23 1011 83 10000 6.2 350 01:27 18.06.2019
6183 Clear 23 1011 88 10000 5.1 350 00:58 18.06.2019
6184 Clear 24 1011 78 10000 5.7 10 00:30 18.06.2019
6185 Clear 24 1011 83 10000 4.6 360 23:42 17.06.2019
6186 Clear 24 1011 83 10000 4.6 360 23:42 17.06.2019
6187 Clear 24 1011 83 10000 4.1 30 23:23 17.06.2019
6188 Clear 24 1011 83 10000 4.6 40 22:58 17.06.2019
6189 Clear 24 1011 83 10000 4.6 30 22:38 17.06.2019
6190 Clear 24 1011 83 10000 4.6 30 22:20 17.06.2019
6191 Clear 24 1011 74 10000 5.1 20 21:45 17.06.2019
6192 Clear 25 1011 74 10000 5.1 20 21:23 17.06.2019
6193 Clear 25 1010 44 10000 5.7 30 20:41 17.06.2019
6194 Clear 25 1010 44 10000 5.7 30 20:23 17.06.2019
6195 Clear 26 1010 42 10000 5.7 30 19:57 17.06.2019
6196 Clear 26 1010 42 10000 5.7 30 19:39 17.06.2019
6197 Clear 27 1010 42 10000 5.7 30 19:20 17.06.2019
6198 Clear 28 1010 40 10000 7.2 20 18:39 17.06.2019
6199 Clear 28 1010 40 10000 7.2 20 18:18 17.06.2019
6200 Clear 28 1010 40 10000 7.2 20 18:18 17.06.2019
6201 Clear 28 1009 40 10000 5.7 30 17:48 17.06.2019
6202 Clear 28 1009 40 10000 5.7 30 17:29 17.06.2019
6203 Clear 28 1009 40 10000 8.2 20 16:59 17.06.2019
6204 Clear 28 1009 38 10000 7.2 30 16:39 17.06.2019
6205 Clear 29 1009 38 10000 6.7 40 16:21 17.06.2019
6206 Clear 29 1009 33 10000 6.7 20 15:44 17.06.2019
6207 Clear 30 1010 40 10000 6.2 30 15:20 17.06.2019
6208 Clear 30 1010 40 10000 6.2 30 14:56 17.06.2019
6209 Clear 30 1010 43 10000 5.1 30 14:37 17.06.2019
6210 Clouds 30 1010 58 10000 3.1 210 14:18 17.06.2019
6211 Clouds 29 1010 62 10000 3.6 230 13:41 17.06.2019
6212 Clear 28 1010 65 10000 4.6 220 13:21 17.06.2019
6213 Clouds 28 1010 69 10000 4.6 210 12:42 17.06.2019
6214 Clouds 28 1010 65 10000 3.6 210 12:21 17.06.2019
6215 Clouds 28 1011 74 10000 4.1 200 11:43 17.06.2019
6216 Clouds 28 1011 74 10000 4.1 200 11:25 17.06.2019
6217 Clear 27 1010 40 10000 5.1 70 10:48 17.06.2019
6218 Clear 28 1010 40 10000 5.1 70 10:29 17.06.2019
6219 Clouds 27 1010 37 10000 4.6 40 09:56 17.06.2019
6220 Clouds 26 1010 61 10000 2.1 70 09:34 17.06.2019
6221 Clear 26 1011 74 10000 3.1 50 08:58 17.06.2019
6222 Clear 25 1011 74 10000 3.1 50 08:38 17.06.2019
6223 Clouds 25 1011 78 10000 3.6 50 08:20 17.06.2019
6224 Clouds 24 1010 78 10000 4.6 20 07:39 17.06.2019
6225 Rain 24 1010 83 10000 4.6 20 07:19 17.06.2019
6226 Clouds 23 1010 88 10000 4.6 30 06:23 17.06.2019
6227 Clear 23 1010 88 10000 4.1 10 05:31 17.06.2019
6228 Clouds 23 1009 88 10000 5.7 10 04:32 17.06.2019
6229 Clouds 23 1009 88 10000 5.1 10 03:32 17.06.2019
6230 Clear 24 1009 88 10000 5.1 10 02:46 17.06.2019
6231 Clear 24 1010 88 10000 4.6 350 02:28 17.06.2019
6232 Clear 24 1010 88 10000 5.1 360 01:36 17.06.2019
6233 Clouds 23 1010 88 10000 4.1 350 00:58 17.06.2019
6234 Clouds 23 1010 83 10000 3.1 350 00:38 17.06.2019
6235 Clouds 23 1010 88 10000 4.1 360 00:19 17.06.2019
6236 Clouds 23 1010 83 10000 4.1 360 23:39 16.06.2019
6237 Clouds 23 1010 83 10000 4.1 360 23:39 16.06.2019
6238 Clouds 24 1010 83 10000 3.6 360 23:20 16.06.2019
6239 Clouds 23 1010 83 10000 4.1 350 22:45 16.06.2019
6240 Clouds 23 1010 83 10000 4.1 350 22:20 16.06.2019
6241 Clouds 24 1010 83 10000 3.6 360 21:57 16.06.2019
6242 Clouds 24 1010 78 10000 5.1 20 21:39 16.06.2019
6243 Clear 24 1010 78 10000 4.1 360 21:20 16.06.2019
6244 Clear 24 1009 73 10000 4.1 360 20:40 16.06.2019
6245 Clear 25 1010 65 10000 5.1 10 20:19 16.06.2019
6246 Clear 25 1010 65 10000 5.1 10 19:58 16.06.2019
6247 Clear 25 1010 65 10000 6.2 360 19:39 16.06.2019
6248 Clouds 25 1010 88 10000 6.2 10 19:21 16.06.2019
6249 Clear 26 1009 54 10000 7.2 360 18:42 16.06.2019
6250 Clear 26 1009 58 10000 7.2 10 18:21 16.06.2019
6251 Clear 26 1009 58 10000 7.2 10 18:21 16.06.2019
6252 Clear 26 1009 58 10000 7.2 10 17:57 16.06.2019
6253 Clouds 27 1009 58 10000 7.7 360 17:38 16.06.2019
6254 Clouds 27 1009 61 10000 8.2 360 17:20 16.06.2019
6255 Clouds 27 1009 61 10000 8.2 360 16:55 16.06.2019
6256 Clouds 27 1009 62 10000 6.7 10 16:36 16.06.2019
6257 Clouds 27 1009 58 10000 6.7 360 16:18 16.06.2019
6258 Clouds 27 1010 58 10000 6.7 360 15:39 16.06.2019
6259 Clouds 27 1010 62 10000 6.7 10 15:21 16.06.2019
6260 Clouds 28 1010 58 10000 7.2 350 14:40 16.06.2019
6261 Clouds 28 1010 58 10000 7.2 350 14:21 16.06.2019
6262 Clouds 28 1019 62 10000 9.3 350 13:50 16.06.2019
6263 Clouds 28 1019 62 10000 9.3 350 13:25 16.06.2019
6264 Clouds 27 1011 65 10000 8.7 350 12:46 16.06.2019
6265 Clouds 27 1011 65 10000 8.7 350 12:46 16.06.2019
6266 Clouds 27 1011 65 10000 8.7 350 12:23 16.06.2019
6267 Clouds 27 1011 65 10000 8.7 350 12:23 16.06.2019
6268 Clouds 27 1011 69 10000 8.7 350 11:59 16.06.2019
6269 Clouds 27 1011 69 10000 8.2 360 11:38 16.06.2019
6270 Clouds 26 1011 65 10000 7.2 360 11:19 16.06.2019
6271 Clouds 26 1011 65 10000 7.7 350 10:45 16.06.2019
6272 Clouds 26 1011 69 10000 7.2 350 10:20 16.06.2019
6273 Clouds 26 1011 69 10000 7.2 360 09:43 16.06.2019
6274 Clouds 26 1011 69 10000 7.2 360 09:24 16.06.2019
6275 Clouds 25 1011 73 10000 6.2 360 08:50 16.06.2019
6276 Clouds 25 1011 69 8000 5.1 10 08:21 16.06.2019
6277 Clouds 24 1011 83 8000 4.6 360 07:49 16.06.2019
6278 Clouds 24 1011 83 8000 4.6 360 07:31 16.06.2019
6279 Clouds 23 1010 83 8000 3.6 340 06:55 16.06.2019
6280 Clouds 22 1010 88 8000 2.6 340 06:20 16.06.2019
6281 Clouds 22 1010 88 8000 2.6 330 05:26 16.06.2019
6282 Clouds 22 1010 83 10000 2.1 10 04:26 16.06.2019
6283 Clouds 22 1010 83 9000 3.6 350 03:43 16.06.2019
6284 Clouds 22 1010 88 9000 3.1 10 03:23 16.06.2019
6285 Clear 23 1011 78 10000 4.1 10 01:51 16.06.2019
6286 Clouds 22 1011 83 7000 4.1 360 01:33 16.06.2019
6287 Clouds 23 1011 78 6000 4.6 10 00:49 16.06.2019
6288 Clouds 24 1011 83 6000 4.6 10 00:26 16.06.2019
6289 Clouds 24 1011 83 6000 4.6 10 23:59 15.06.2019
6290 Clouds 24 1011 83 6000 4.6 10 23:40 15.06.2019
6291 Clouds 24 1011 83 9000 5.7 360 23:20 15.06.2019
6292 Clouds 23 1011 88 8000 5.7 350 22:48 15.06.2019
6293 Clouds 23 1011 88 8000 5.7 350 22:26 15.06.2019
6294 Clouds 23 1011 83 6000 5.7 360 22:26 15.06.2019
6295 Clouds 24 1011 83 7000 4.6 360 21:45 15.06.2019
6296 Clouds 24 1011 78 10000 5.1 360 21:21 15.06.2019
6297 Clouds 24 1011 73 10000 6.2 10 20:46 15.06.2019
6298 Clouds 24 1011 73 10000 6.2 10 20:23 15.06.2019
6299 Clouds 25 1011 65 10000 6.2 20 19:53 15.06.2019
6300 Clouds 25 1011 65 10000 6.2 20 19:29 15.06.2019
6301 Clouds 26 1011 65 10000 5.7 60 18:59 15.06.2019
6302 Clouds 26 1011 61 10000 6.7 60 18:37 15.06.2019
6303 Clouds 26 1010 61 10000 6.7 30 18:18 15.06.2019
6304 Clouds 26 1010 61 10000 6.7 30 18:18 15.06.2019
6305 Clouds 26 1010 61 10000 7.7 20 17:40 15.06.2019
6306 Clouds 26 1010 61 10000 7.7 20 17:21 15.06.2019
6307 Clouds 27 1011 61 10000 8.2 20 16:44 15.06.2019
6308 Clouds 26 1011 61 10000 6.2 30 16:18 15.06.2019
6309 Clouds 27 1011 65 10000 6.7 30 15:41 15.06.2019
6310 Clouds 26 1011 65 10000 5.7 30 15:22 15.06.2019
6311 Clouds 26 1011 61 10000 7.2 20 14:39 15.06.2019
6312 Thunderstorm 26 1011 61 10000 6.7 10 14:18 15.06.2019
6313 Thunderstorm 26 1011 57 10000 6.7 20 13:44 15.06.2019
6314 Thunderstorm 26 1011 69 10000 3.6 20 13:21 15.06.2019
6315 Thunderstorm 26 1011 69 10000 3.6 20 12:59 15.06.2019
6316 Thunderstorm 26 1011 58 10000 5.7 50 12:40 15.06.2019
6317 Thunderstorm 26 1012 69 10000 2.1 0 12:21 15.06.2019
6318 Thunderstorm 26 1012 74 10000 1.5 230 11:45 15.06.2019
6319 Thunderstorm 26 1012 74 10000 1.5 230 11:45 15.06.2019
6320 Thunderstorm 26 1012 74 10000 1.5 230 11:27 15.06.2019
6321 Clouds 25 1012 74 10000 2.6 190 10:43 15.06.2019
6322 Thunderstorm 26 1012 73 10000 2.6 180 10:25 15.06.2019
6323 Thunderstorm 26 1012 83 10000 2.6 190 09:48 15.06.2019
6324 Thunderstorm 25 1012 83 10000 2.6 190 09:26 15.06.2019
6325 Thunderstorm 25 1012 83 10000 2.6 190 09:26 15.06.2019
6326 Thunderstorm 25 1012 78 10000 3.1 140 08:54 15.06.2019
6327 Thunderstorm 25 1011 78 10000 3.6 120 08:34 15.06.2019
6328 Thunderstorm 25 1011 73 10000 4.1 90 07:58 15.06.2019
6329 Thunderstorm 23 1012 78 10000 2.6 60 07:25 15.06.2019
6330 Clouds 23 1011 78 10000 3.6 50 06:48 15.06.2019
6331 Clouds 23 1011 83 10000 3.1 30 06:21 15.06.2019
6332 Clouds 22 1011 88 10000 4.1 20 05:37 15.06.2019
6333 Clouds 22 1011 88 10000 4.6 30 04:49 15.06.2019
6334 Clouds 22 1011 88 10000 4.6 30 04:49 15.06.2019
6335 Clouds 22 1011 88 10000 4.1 10 03:50 15.06.2019
6336 Clouds 22 1011 88 10000 4.6 360 03:19 15.06.2019
6337 Clouds 23 1012 78 10000 5.1 360 02:23 15.06.2019
6338 Clouds 23 1012 83 10000 3.1 330 01:50 15.06.2019
6339 Clouds 23 1012 83 10000 4.1 340 01:18 15.06.2019
6340 Rain 23 1013 88 10000 4.1 340 00:40 15.06.2019
6341 Clouds 24 1013 83 10000 5.7 330 23:55 14.06.2019
6342 Clouds 24 1013 83 10000 4.6 330 23:37 14.06.2019
6343 Clouds 24 1013 83 10000 5.7 350 23:18 14.06.2019
6344 Clouds 23 1013 83 10000 5.1 350 22:40 14.06.2019
6345 Clouds 23 1014 83 10000 5.1 340 22:19 14.06.2019
6346 Clouds 24 1014 78 10000 4.1 350 21:41 14.06.2019
6347 Clear 24 1013 78 10000 5.1 350 21:23 14.06.2019
6348 Clear 24 1013 73 10000 4.6 10 20:44 14.06.2019
6349 Clear 24 1013 65 10000 3.6 50 20:19 14.06.2019
6350 Clear 25 1013 65 10000 3.6 50 19:57 14.06.2019
6351 Clouds 25 1013 83 10000 5.1 20 19:37 14.06.2019
6352 Clouds 25 1013 78 10000 5.1 20 19:18 14.06.2019
6353 Clear 26 1013 61 10000 5.7 20 18:43 14.06.2019
6354 Clear 26 1013 58 10000 7.2 20 18:25 14.06.2019
6355 Clear 26 1013 61 10000 5.7 20 18:25 14.06.2019
6356 Clear 26 1013 58 10000 7.2 20 17:57 14.06.2019
6357 Clear 26 1013 58 10000 6.2 350 17:39 14.06.2019
6358 Clear 27 1013 58 10000 7.2 350 17:19 14.06.2019
6359 Clear 27 1013 54 10000 6.7 350 16:46 14.06.2019
6360 Clear 27 1013 54 10000 7.2 20 16:21 14.06.2019
6361 Clear 27 1013 54 10000 7.2 20 15:57 14.06.2019
6362 Clear 27 1014 48 10000 6.2 340 15:38 14.06.2019
6363 Clouds 27 1015 73 10000 6.7 360 15:18 14.06.2019
6364 Clear 27 1014 61 10000 3.1 0 14:40 14.06.2019
6365 Clear 27 1014 74 10000 6.2 240 14:21 14.06.2019
6366 Clouds 27 1015 69 10000 5.7 230 13:44 14.06.2019
6367 Clouds 27 1015 69 10000 5.7 230 13:44 14.06.2019
6368 Clouds 27 1015 74 10000 4.6 230 13:26 14.06.2019
6369 Clouds 27 1015 78 10000 4.6 220 12:48 14.06.2019
6370 Clouds 27 1015 78 10000 4.6 230 12:27 14.06.2019
6371 Clouds 26 1015 83 10000 3.6 210 11:59 14.06.2019
6372 Clouds 26 1015 83 10000 3.6 210 11:41 14.06.2019
6373 Clouds 25 1015 83 10000 4.1 200 11:22 14.06.2019
6374 Clouds 25 1015 78 10000 4.1 200 10:45 14.06.2019
6375 Clouds 25 1015 83 10000 4.1 180 10:20 14.06.2019
6376 Clouds 25 1015 83 10000 3.1 180 09:49 14.06.2019
6377 Clouds 25 1015 83 10000 3.1 180 09:31 14.06.2019
6378 Clouds 25 1015 78 10000 1.5 0 08:47 14.06.2019
6379 Clear 24 1015 73 10000 2.6 40 08:20 14.06.2019
6380 Mist 24 1015 78 10000 4.1 20 07:52 14.06.2019
6381 Clear 24 1015 73 10000 2.6 40 07:52 14.06.2019
6382 Mist 23 1014 88 10000 3.6 340 07:22 14.06.2019
6383 Mist 22 1014 88 10000 3.6 330 06:48 14.06.2019
6384 Mist 22 1014 88 10000 3.1 340 06:18 14.06.2019
6385 Mist 22 1014 94 10000 2.1 330 05:33 14.06.2019
6386 Mist 22 1014 94 10000 4.1 340 04:51 14.06.2019
6387 Mist 22 1014 94 10000 3.1 340 03:59 14.06.2019
6388 Fog 23 1014 88 10000 5.1 350 03:26 14.06.2019
6389 Fog 23 1014 83 10000 4.1 20 02:58 14.06.2019
6390 Fog 23 1014 83 10000 4.1 20 02:28 14.06.2019
6391 Fog 23 1014 83 10000 4.1 20 02:28 14.06.2019
6392 Fog 22 1014 83 10000 3.1 330 01:35 14.06.2019
6393 Clear 23 1015 78 10000 3.1 320 00:36 14.06.2019
6394 Mist 23 1015 83 10000 1.5 280 00:18 14.06.2019
6395 Fog 23 1014 88 10000 1 0 23:47 13.06.2019
6396 Mist 23 1014 88 10000 1 0 23:24 13.06.2019
6397 Clear 23 1014 69 10000 4.6 20 22:40 13.06.2019
6398 Clear 24 1014 69 10000 4.6 20 22:22 13.06.2019
6399 Clear 24 1014 69 10000 4.6 20 21:56 13.06.2019
6400 Clear 24 1014 65 10000 4.6 20 21:36 13.06.2019
6401 Clear 24 1014 69 10000 4.6 20 21:18 13.06.2019
6402 Clear 24 1014 65 10000 5.7 20 20:42 13.06.2019
6403 Clear 25 1014 57 10000 6.2 20 20:20 13.06.2019
6404 Clear 26 1014 58 10000 5.1 20 19:43 13.06.2019
6405 Clear 26 1014 58 10000 5.1 20 19:24 13.06.2019
6406 Clear 27 1014 48 10000 5.7 20 18:58 13.06.2019
6407 Clear 27 1014 48 10000 5.7 20 18:40 13.06.2019
6408 Clear 28 1013 51 10000 5.7 20 18:21 13.06.2019
6409 Clear 28 1013 48 10000 5.1 20 17:44 13.06.2019
6410 Clear 29 1013 48 10000 4.1 10 17:21 13.06.2019
6411 Clear 29 1013 48 10000 4.6 40 16:56 13.06.2019
6412 Clear 29 1013 48 10000 4.6 40 16:36 13.06.2019
6413 Clear 29 1014 45 10000 5.7 10 16:18 13.06.2019
6414 Clear 28 1014 61 10000 4.1 210 15:40 13.06.2019
6415 Clear 28 1014 65 10000 4.6 210 15:19 13.06.2019
6416 Clear 28 1014 65 10000 4.6 210 14:49 13.06.2019
6417 Clear 28 1014 65 10000 4.6 210 14:49 13.06.2019
6418 Clear 28 1014 65 10000 4.6 200 14:30 13.06.2019
6419 Clear 27 1014 61 10000 4.6 220 13:47 13.06.2019
6420 Clear 27 1014 65 10000 5.1 230 13:22 13.06.2019
6421 Clear 27 1014 65 10000 5.1 230 12:59 13.06.2019
6422 Clear 27 1014 69 10000 5.7 220 12:39 13.06.2019
6423 Clear 27 1014 69 10000 5.7 230 12:21 13.06.2019
6424 Clear 27 1014 69 10000 5.7 230 12:21 13.06.2019
6425 Clear 27 1014 69 10000 5.1 220 11:44 13.06.2019
6426 Clear 26 1014 69 10000 5.1 240 11:25 13.06.2019
6427 Clouds 26 1014 73 10000 5.1 230 10:49 13.06.2019
6428 Clouds 26 1014 73 10000 5.1 230 10:29 13.06.2019
6429 Clouds 26 1014 69 10000 3.1 240 09:53 13.06.2019
6430 Clouds 26 1014 69 10000 3.1 240 09:31 13.06.2019
6431 Clouds 25 1014 73 10000 4.1 230 08:56 13.06.2019
6432 Clouds 25 1014 73 10000 4.1 230 08:56 13.06.2019
6433 Clouds 25 1014 73 10000 4.1 230 08:56 13.06.2019
6434 Clouds 25 1014 73 10000 4.1 230 08:56 13.06.2019
6435 Clouds 25 1014 73 10000 2.6 290 08:38 13.06.2019
6436 Clear 24 1013 69 10000 3.1 290 08:19 13.06.2019
6437 Clear 23 1013 78 10000 2.6 270 07:39 13.06.2019
6438 Mist 23 1013 83 10000 2.1 260 07:19 13.06.2019
6439 Mist 22 1012 88 10000 2.1 280 06:40 13.06.2019
6440 Clear 22 1012 88 10000 2.6 260 06:21 13.06.2019
6441 Mist 21 1012 83 10000 1 0 05:39 13.06.2019
6442 Mist 21 1012 83 10000 2.1 270 05:19 13.06.2019
6443 Clear 22 1012 78 10000 1.5 290 03:49 13.06.2019
6444 Mist 22 1012 94 10000 2.1 260 01:59 13.06.2019
6445 Mist 22 1012 88 10000 1 110 00:32 13.06.2019
6446 Clear 22 1012 100 10000 2.25 8.533 23:38 12.06.2019
6447 Clear 23 1012 100 10000 2.25 8.533 23:38 12.06.2019
6448 Clear 22 1012 94 10000 1.5 250 23:19 12.06.2019
6449 Clear 23 1012 94 10000 2.1 240 22:41 12.06.2019
6450 Clear 23 1012 94 10000 2.1 240 22:41 12.06.2019
6451 Clear 23 1012 94 10000 2.1 240 22:21 12.06.2019
6452 Clear 22 1012 88 10000 2.6 260 21:46 12.06.2019
6453 Clear 23 1012 78 10000 2.1 240 21:28 12.06.2019
6454 Clear 23 1011 64 10000 2.1 330 20:49 12.06.2019
6455 Clear 23 1011 64 10000 2.1 330 20:30 12.06.2019
6456 Clear 24 1011 61 10000 3.1 320 19:58 12.06.2019
6457 Clear 24 1011 57 10000 3.6 300 19:39 12.06.2019
6458 Clear 25 1011 57 10000 3.6 300 19:21 12.06.2019
6459 Clouds 25 1011 78 10000 3.6 210 18:48 12.06.2019
6460 Clouds 25 1011 78 10000 3.6 210 18:28 12.06.2019
6461 Clouds 25 1011 78 10000 3.1 230 17:48 12.06.2019
6462 Clouds 25 1011 78 10000 3.1 230 17:23 12.06.2019
6463 Clouds 25 1011 78 10000 2.6 200 16:57 12.06.2019
6464 Clouds 25 1011 78 10000 2.6 230 16:37 12.06.2019
6465 Rain 25 1011 78 10000 1.5 200 16:19 12.06.2019
6466 Rain 25 1011 88 6000 1 0 15:46 12.06.2019
6467 Rain 24 1011 83 10000 2.6 240 15:25 12.06.2019
6468 Rain 24 1011 88 10000 4.6 200 14:36 12.06.2019
6469 Thunderstorm 24 1011 83 10000 5.1 270 14:18 12.06.2019
6470 Thunderstorm 24 1012 78 10000 4.6 200 13:41 12.06.2019
6471 Rain 24 1011 69 10000 4.6 200 13:19 12.06.2019
6472 Rain 24 1012 88 7000 5.1 230 12:56 12.06.2019
6473 Rain 24 1012 88 7000 5.1 230 12:37 12.06.2019
6474 Rain 24 1012 88 10000 5.7 230 12:18 12.06.2019
6475 Clouds 24 1012 88 10000 7.2 350 11:43 12.06.2019
6476 Clouds 25 1012 78 10000 5.1 220 11:25 12.06.2019
6477 Thunderstorm 24 1012 94 6000 5.1 310 10:46 12.06.2019
6478 Thunderstorm 24 1012 78 10000 4.6 210 10:23 12.06.2019
6479 Clouds 24 1011 73 10000 3.1 200 09:43 12.06.2019
6480 Clouds 24 1011 78 10000 2.6 230 09:23 12.06.2019
6481 Clouds 23 1011 83 10000 2.6 240 08:47 12.06.2019
6482 Clouds 22 1011 88 6000 2.1 210 08:20 12.06.2019
6483 Clouds 22 1011 83 6000 1 0 07:37 12.06.2019
6484 Mist 21 1011 94 4500 1 0 06:43 12.06.2019
6485 Mist 20 1011 94 4000 1 0 05:27 12.06.2019
6486 Fog 19 1010 100 6000 1.5 300 03:55 12.06.2019
6487 Clear 21 1011 94 10000 2.6 300 01:26 12.06.2019
6488 Clouds 21 1011 88 10000 2.6 320 00:38 12.06.2019
6489 Clear 21 1011 83 10000 2.6 60 23:45 11.06.2019
6490 Clear 21 1011 78 10000 2.6 20 23:27 11.06.2019
6491 Clouds 22 1011 78 9000 2.6 20 22:43 11.06.2019
6492 Clear 22 1011 83 10000 2.6 360 22:19 11.06.2019
6493 Clear 22 1011 73 10000 2.6 20 21:57 11.06.2019
6494 Clear 22 1011 73 10000 2.6 20 21:38 11.06.2019
6495 Clear 23 1011 64 10000 2.6 40 21:19 11.06.2019
6496 Clear 22 1011 60 10000 3.1 40 20:48 11.06.2019
6497 Clouds 23 1011 88 10000 3.1 30 20:25 11.06.2019
6498 Clouds 23 1011 88 10000 3.1 30 20:25 11.06.2019
6499 Clear 23 1011 64 10000 2.1 20 19:54 11.06.2019
6500 Clear 23 1011 64 10000 3.6 20 19:32 11.06.2019
6501 Clouds 24 1010 69 10000 6.2 350 18:56 11.06.2019
6502 Clouds 24 1010 78 10000 4.6 10 18:21 11.06.2019
6503 Clouds 25 1010 78 10000 5.1 20 17:42 11.06.2019
6504 Clouds 25 1010 65 10000 7.2 350 17:22 11.06.2019
6505 Clouds 25 1010 61 10000 6.2 350 16:56 11.06.2019
6506 Clouds 25 1010 61 10000 6.2 350 16:37 11.06.2019
6507 Thunderstorm 25 1010 65 10000 4.6 350 16:19 11.06.2019
6508 Thunderstorm 25 1010 69 10000 5.1 360 15:42 11.06.2019
6509 Thunderstorm 25 1010 69 10000 5.1 360 15:42 11.06.2019
6510 Clouds 25 1009 57 10000 5.1 10 15:21 11.06.2019
6511 Clouds 25 1010 61 10000 4.1 10 14:44 11.06.2019
6512 Clouds 25 1010 61 10000 4.1 10 14:21 11.06.2019
6513 Rain 25 1011 69 10000 3.6 350 13:50 11.06.2019
6514 Rain 25 1011 73 10000 4.1 340 13:24 11.06.2019
6515 Rain 24 1011 73 10000 2.6 30 12:44 11.06.2019
6516 Clouds 23 1011 78 10000 4.1 350 12:23 11.06.2019
6517 -273 0 0 0 0 0 11:58 11.06.2019
6518 Clouds 23 1011 83 10000 3.6 340 11:38 11.06.2019
6519 Clouds 23 1011 78 10000 2.6 340 11:19 11.06.2019
6520 Clouds 23 1011 83 10000 2.6 70 10:43 11.06.2019
6521 Clouds 23 1011 83 10000 4.1 10 10:25 11.06.2019
6522 Rain 23 1010 88 10000 2.6 60 09:46 11.06.2019
6523 Rain 23 1010 88 10000 2.1 50 09:24 11.06.2019
6524 Rain 22 1010 83 10000 2.6 110 08:44 11.06.2019
6525 Clouds 22 1010 83 10000 3.1 90 08:24 11.06.2019
6526 Rain 22 1010 78 10000 3.1 40 07:37 11.06.2019
6527 Rain 22 1009 83 10000 3.1 40 06:56 11.06.2019
6528 Clouds 21 1009 83 10000 4.1 20 06:25 11.06.2019
6529 Clouds 21 1008 83 10000 5.1 20 04:53 11.06.2019
6530 Clouds 22 1010 83 10000 4.1 10 02:54 11.06.2019
6531 Clouds 21 1010 78 10000 3.6 40 01:25 11.06.2019
6532 Clouds 22 1010 78 10000 4.1 30 00:46 11.06.2019
6533 Clear 22 1010 78 10000 4.1 60 23:47 10.06.2019
6534 Clear 22 1010 78 10000 4.1 60 23:22 10.06.2019
6535 Clouds 22 1011 78 10000 4.1 70 22:55 10.06.2019
6536 Clouds 22 1011 78 10000 4.1 70 22:36 10.06.2019
6537 Clouds 22 1011 78 10000 5.1 40 22:18 10.06.2019
6538 Clouds 22 1011 69 10000 5.1 50 21:40 10.06.2019
6539 Clouds 23 1010 69 10000 4.6 30 21:22 10.06.2019
6540 Clouds 23 1010 64 10000 5.1 60 20:45 10.06.2019
6541 Clouds 23 1010 69 10000 5.7 50 20:23 10.06.2019
6542 Clouds 23 1010 73 10000 7.2 40 19:54 10.06.2019
6543 Clouds 24 1011 61 10000 7.7 40 19:27 10.06.2019
6544 Clouds 24 1010 61 10000 8.2 10 18:59 10.06.2019
6545 Clouds 24 1010 61 10000 8.2 10 18:41 10.06.2019
6546 Clouds 24 1010 57 10000 6.7 40 18:21 10.06.2019
6547 Clouds 25 1010 57 10000 6.7 40 17:58 10.06.2019
6548 Clouds 25 1010 57 10000 6.7 40 17:37 10.06.2019
6549 Clouds 25 1011 57 10000 8.2 10 17:19 10.06.2019
6550 Clouds 25 1011 54 10000 7.2 50 16:42 10.06.2019
6551 Clouds 25 1011 51 10000 8.7 10 16:22 10.06.2019
6552 Clouds 26 1011 51 10000 8.2 10 15:42 10.06.2019
6553 Clouds 26 1012 54 10000 7.2 10 15:24 10.06.2019
6554 Clouds 26 1012 54 10000 6.7 40 14:49 10.06.2019
6555 Clouds 26 1012 54 10000 6.7 40 14:31 10.06.2019
6556 Clouds 26 1013 57 10000 8.2 10 13:59 10.06.2019
6557 Clouds 25 1013 57 10000 8.2 10 13:40 10.06.2019
6558 Clouds 25 1013 57 10000 8.2 10 13:40 10.06.2019
6559 Clouds 25 1012 48 10000 7.7 30 13:20 10.06.2019
6560 Clouds 25 1013 54 10000 7.7 20 12:42 10.06.2019
6561 Clouds 25 1013 51 10000 6.7 30 12:23 10.06.2019
6562 Clouds 26 1013 51 10000 6.7 60 11:43 10.06.2019
6563 Clouds 26 1013 51 10000 6.7 60 11:23 10.06.2019
6564 Clouds 26 1013 51 10000 6.2 60 10:42 10.06.2019
6565 Clouds 25 1013 61 10000 4.6 40 10:20 10.06.2019
6566 Clouds 25 1013 61 10000 4.6 40 09:57 10.06.2019
6567 Clouds 24 1013 65 10000 5.7 30 09:38 10.06.2019
6568 Clouds 24 1013 65 10000 6.2 10 09:19 10.06.2019
6569 Clouds 24 1013 65 10000 6.2 20 08:43 10.06.2019
6570 Rain 23 1013 73 10000 5.7 30 08:18 10.06.2019
6571 Clouds 22 1014 78 10000 5.1 30 06:34 10.06.2019
6572 Clear 21 1014 83 10000 4.1 40 04:28 10.06.2019
6573 Clear 21 1014 83 10000 4.1 30 01:57 10.06.2019
6574 Clouds 21 1014 78 10000 5.1 20 01:26 10.06.2019
6575 Clouds 22 1015 78 10000 4.6 40 00:55 10.06.2019
6576 Clear 22 1015 83 10000 5.1 30 00:19 10.06.2019
6577 Clear 22 1015 78 10000 6.7 30 23:42 09.06.2019
6578 Clear 22 1015 83 10000 6.7 20 23:19 09.06.2019
6579 Clouds 22 1015 83 10000 6.2 30 22:43 09.06.2019
6580 Clouds 22 1015 78 10000 5.1 40 22:24 09.06.2019
6581 Clouds 22 1015 78 10000 5.1 40 22:24 09.06.2019
6582 Clouds 23 1015 73 10000 6.7 40 21:41 09.06.2019
6583 Clouds 23 1015 73 10000 6.7 40 21:22 09.06.2019
6584 Clouds 23 1015 73 10000 7.2 20 20:42 09.06.2019
6585 Clouds 23 1015 73 10000 7.2 20 20:23 09.06.2019
6586 Clear 24 1015 65 10000 7.7 20 19:46 09.06.2019
6587 Clear 24 1015 65 10000 5.1 20 19:19 09.06.2019
6588 Clear 24 1015 65 10000 5.1 20 18:57 09.06.2019
6589 Clear 25 1015 61 10000 7.2 10 18:39 09.06.2019
6590 Clouds 25 1015 65 10000 8.2 10 18:21 09.06.2019
6591 Clouds 25 1015 57 10000 9.3 10 17:46 09.06.2019
6592 Clouds 25 1015 57 10000 9.3 10 17:26 09.06.2019
6593 Clouds 26 1015 57 10000 9.3 20 16:54 09.06.2019
6594 Clouds 26 1015 57 10000 9.3 20 16:36 09.06.2019
6595 Clouds 26 1015 54 10000 8.7 10 16:18 09.06.2019
6596 Clouds 26 1015 54 10000 8.7 30 15:42 09.06.2019
6597 Clouds 26 1015 48 10000 8.2 20 15:20 09.06.2019
6598 Clouds 27 1015 51 10000 7.2 20 14:43 09.06.2019
6599 Clouds 27 1016 54 10000 7.7 40 14:21 09.06.2019
6600 Clouds 27 1016 54 10000 7.7 40 13:50 09.06.2019
6601 Clouds 27 1016 51 10000 7.7 40 13:22 09.06.2019
6602 Clouds 26 1016 51 10000 7.2 40 12:41 09.06.2019
6603 Clouds 27 1016 51 9000 7.2 10 12:22 09.06.2019
6604 Clear 26 1017 51 10000 6.2 60 11:39 09.06.2019
6605 Clear 27 1017 51 10000 6.2 60 11:21 09.06.2019
6606 Clouds 26 1017 54 10000 6.2 50 10:45 09.06.2019
6607 Clear 26 1017 54 10000 6.2 70 10:23 09.06.2019
6608 Clouds 26 1017 54 10000 4.1 70 09:41 09.06.2019
6609 Clouds 26 1017 54 10000 4.1 70 09:41 09.06.2019
6610 Clouds 25 1017 54 10000 4.1 70 09:22 09.06.2019
6611 Clear 25 1017 57 10000 5.1 40 08:55 09.06.2019
6612 Clear 24 1017 65 10000 4.6 40 08:36 09.06.2019
6613 Clear 22 1017 78 10000 5.7 40 07:28 09.06.2019
6614 Clear 22 1017 73 10000 3.6 360 06:30 09.06.2019
6615 Clear 22 1017 73 10000 3.6 360 06:30 09.06.2019
6616 Clear 20 1017 68 10000 3.1 340 05:28 09.06.2019
6617 Clear 20 1017 68 10000 3.1 340 05:28 09.06.2019
6618 Clear 21 1016 57 10000 2.6 50 01:46 09.06.2019
6619 Clear 21 1016 57 10000 2.6 50 01:22 09.06.2019
6620 Clear 21 1016 57 10000 2.6 50 01:21 09.06.2019
6621 Clear 21 1017 57 10000 2.6 70 00:59 09.06.2019
6622 Clear 22 1017 57 10000 2.6 70 23:56 08.06.2019
6623 Clear 23 1017 57 10000 2.6 70 23:38 08.06.2019
6624 Clear 22 1017 57 10000 3.1 70 23:19 08.06.2019
6625 Clear 22 1017 50 10000 2.6 70 22:42 08.06.2019
6626 Clear 23 1017 50 10000 2.6 70 22:23 08.06.2019
6627 Clear 23 1017 50 10000 4.1 50 21:52 08.06.2019
6628 Clear 23 1017 44 10000 4.1 70 21:29 08.06.2019
6629 Clear 24 1017 44 10000 4.1 60 20:59 08.06.2019
6630 Clear 24 1016 44 10000 4.1 70 20:40 08.06.2019
6631 Clear 24 1016 44 10000 3.6 70 20:20 08.06.2019
6632 Clear 25 1016 39 10000 4.1 50 19:41 08.06.2019
6633 Clear 26 1016 35 10000 4.6 60 19:20 08.06.2019
6634 Clear 26 1016 35 10000 4.6 60 18:57 08.06.2019
6635 Clear 26 1016 39 10000 5.1 60 18:36 08.06.2019
6636 Clear 27 1016 39 10000 5.7 30 17:59 08.06.2019
6637 Clear 27 1016 37 10000 5.7 30 17:39 08.06.2019
6638 Clear 27 1016 35 10000 4.6 10 17:18 08.06.2019
6639 Clear 27 1016 35 10000 4.6 10 17:18 08.06.2019
6640 Clear 28 1017 35 10000 5.1 360 16:44 08.06.2019
6641 Clear 28 1017 37 10000 4.6 10 16:20 08.06.2019
6642 Clear 28 1017 35 10000 4.6 40 15:38 08.06.2019
6643 Clear 28 1017 45 10000 1.5 0 14:54 08.06.2019
6644 Clear 27 1017 51 10000 3.1 220 14:32 08.06.2019
6645 Clear 27 1017 51 10000 3.1 230 13:59 08.06.2019
6646 Clear 27 1018 57 10000 4.1 250 13:25 08.06.2019
6647 Clear 27 1018 51 10000 3.6 150 12:46 08.06.2019
6648 Clear 28 1018 54 10000 3.6 150 12:21 08.06.2019
6649 Clear 27 1018 57 10000 3.6 150 11:44 08.06.2019
6650 Clear 27 1018 61 10000 3.1 140 11:22 08.06.2019
6651 Clear 26 1018 61 10000 3.1 150 10:44 08.06.2019
6652 Clear 26 1018 61 10000 3.1 120 10:22 08.06.2019
6653 Clear 25 1018 61 10000 4.1 110 09:50 08.06.2019
6654 Clear 25 1018 61 10000 4.1 110 09:24 08.06.2019
6655 Clear 24 1018 57 10000 3.1 100 08:31 08.06.2019
6656 Clear 23 1018 53 10000 2.1 50 07:49 08.06.2019
6657 Fog 21 1018 64 10000 2.1 70 06:50 08.06.2019
6658 Clear 20 1017 77 10000 2.1 350 05:48 08.06.2019
6659 Clear 19 1017 68 10000 1 0 03:31 08.06.2019
6660 Clear 20 1018 60 10000 3.6 50 01:31 08.06.2019
6661 Clear 21 1018 56 10000 3.1 60 00:26 08.06.2019
6662 Clear 22 1018 53 10000 3.1 60 23:47 07.06.2019
6663 Clear 22 1018 50 10000 3.1 60 23:20 07.06.2019
6664 Clear 22 1018 50 10000 3.1 70 22:42 07.06.2019
6665 Clear 22 1018 50 10000 3.1 40 22:23 07.06.2019
6666 Clear 22 1018 50 10000 3.1 40 21:53 07.06.2019
6667 Clear 23 1018 50 10000 3.6 50 21:30 07.06.2019
6668 -273 0 0 0 0 0 20:57 07.06.2019
6669 Clear 23 1017 39 10000 4.1 40 20:37 07.06.2019
6670 Clear 24 1017 36 10000 4.1 40 19:50 07.06.2019
6671 Clear 25 1017 36 10000 4.6 40 19:24 07.06.2019
6672 Clear 25 1017 37 10000 4.1 50 18:58 07.06.2019
6673 Clear 26 1017 32 10000 4.1 40 18:29 07.06.2019
6674 Clear 27 1017 35 10000 3.6 30 17:49 07.06.2019
6675 Clear 26 1017 35 10000 3.6 30 17:28 07.06.2019
6676 Clear 26 1017 54 10000 2.1 240 16:58 07.06.2019
6677 Clear 27 1017 51 10000 2.6 200 16:39 07.06.2019
6678 Clear 27 1017 54 10000 3.6 210 15:52 07.06.2019
6679 Clear 27 1017 54 10000 3.6 210 15:23 07.06.2019
6680 Clear 27 1017 57 10000 3.6 220 14:48 07.06.2019
6681 Clear 26 1017 61 10000 3.6 230 14:26 07.06.2019
6682 Clear 26 1018 61 10000 3.6 220 13:47 07.06.2019
6683 Clear 26 1018 57 10000 3.1 230 13:25 07.06.2019
6684 Clear 26 1018 61 10000 3.1 200 12:50 07.06.2019
6685 Clear 26 1018 61 10000 3.1 180 12:23 07.06.2019
6686 Clear 26 1018 61 10000 3.1 180 11:53 07.06.2019
6687 Clear 25 1018 69 10000 3.1 210 11:31 07.06.2019
6688 Clear 25 1018 65 10000 2.6 170 10:51 07.06.2019
6689 Clear 25 1018 65 10000 2.6 170 10:31 07.06.2019
6690 Clear 24 1017 69 10000 2.6 150 09:57 07.06.2019
6691 Clear 24 1017 73 10000 2.6 150 09:37 07.06.2019
6692 Clear 24 1017 73 10000 2.6 150 09:18 07.06.2019
6693 Clear 23 1017 69 10000 2.1 140 08:42 07.06.2019
6694 Clear 23 1017 69 10000 2.1 140 08:24 07.06.2019
6695 Clear 23 1017 56 10000 2.1 100 07:47 07.06.2019